<<back to data home page
Ready for Summer and Hot Weather?? Stay in touch!! - DONATE ANY AMOUNT BY CLICKING THIS LINK!!!


    Month/Day/Year       Maximum   Minimum    Rel    Dew       Rainfall  Seasonal  Soil     Soil      Baro       Wind    Wind        Peak    Peak Gust  Evap     Leaf     Net
    and                  Air Temp  Air Temp   Hum    Point     Inches    Rainfall  Temp     Moisture  Pressure   Speed   Direction   Gust    Direction  Pan      Wetness  Radiation
    Local Time           Deg F     Deg F      %      Deg F               Inches    Deg F    dS/m      mbar       MPH     comp  deg   MPH     comp  deg  Inches   mV       W_m2
----------------------------------------------------------------------------------------------------------------------------------------------------------------------------------
   09/19/2018 08:20      65.0      63.4       58     49.1      0.00      0.00      79.3     0.33      1010.8     0.3     NNW   342   1.3     NNW   343   9.34    267      144.0
   09/19/2018 08:10      63.6      61.3       61     48.9      0.00      0.00      79.4     0.33      1010.8     0.1      SW   236   0.9     SSW   209   9.34    268      114.9
   09/19/2018 08:00      61.6      60.8       62     48.2      0.00      0.00      79.4     0.33      1010.8     1.6     WNW   297   2.9      NW   313   9.34    268       83.9
   09/19/2018 07:50      61.7      60.4       63     48.5      0.00      0.00      79.5     0.33      1010.7     0.6       N     3   2.1      NW   315   9.34    269       55.4
   09/19/2018 07:40      60.8      58.3       70     49.9      0.00      0.00      79.5     0.33      1010.7     0.1     NNW   336   1.5     NNW   339   9.34    268       43.4
   09/19/2018 07:30      58.5      55.9       78     50.3      0.00      0.00      79.5     0.33      1010.6     0.1     NNE    31   1.1       N     8   9.34    261       29.4
   09/19/2018 07:20      56.0      53.3       85     50.1      0.00      0.00      79.6     0.33      1010.5     0.0       N   359   0.6      NW   323   9.34    256        9.7
   09/19/2018 07:10      53.4      52.6       85     48.7      0.00      0.00      79.6     0.33      1010.4     0.0       N     0   0.0       S   185   9.34    259      -20.3
   09/19/2018 07:00      53.0      52.0       85     47.9      0.00      0.00      79.6     0.33      1010.5     0.2     SSE   166   1.0     SSE   148   9.34    258      -32.9
   09/19/2018 06:50      52.7      51.8       84     47.4      0.00      0.00      79.7     0.33      1010.4     0.3     SSE   157   1.6     SSE   153   9.34    260      -39.8
   09/19/2018 06:40      52.7      52.2       83     47.5      0.00      0.00      79.7     0.33      1010.4     0.9     SSE   157   1.7      SE   145   9.34    256      -42.9
   09/19/2018 06:30      53.0      52.3       83     47.7      0.00      0.00      79.8     0.33      1010.3     0.3       S   173   1.4       S   190   9.34    257      -44.3
   09/19/2018 06:20      53.1      52.6       83     47.9      0.00      0.00      79.8     0.33      1010.2     0.2      SE   142   0.7      SE   142   9.34    256      -44.9
   09/19/2018 06:10      53.3      52.8       83     48.0      0.00      0.00      79.8     0.33      1010.1     0.3      SE   142   0.7      SE   141   9.34    257      -46.2
   09/19/2018 06:00      53.1      52.6       84     48.1      0.00      0.00      79.9     0.33      1010.0     0.0       N     0   0.0      SE   141   9.34    255      -48.0
   09/19/2018 05:50      53.2      52.6       84     48.1      0.00      0.00      79.9     0.33      1010.0     0.0       N     0   0.0      SE   141   9.34    257      -49.8
   09/19/2018 05:40      53.1      52.7       84     48.0      0.00      0.00      80.0     0.33      1010.0     0.1      SE   141   0.7      SE   141   9.34    258      -54.8
   09/19/2018 05:30      53.3      52.6       82     47.7      0.00      0.00      79.9     0.33      1010.1     0.5     SSE   151   1.1     SSE   147   9.34    257      -59.1
   09/19/2018 05:20      53.7      52.9       80     47.1      0.00      0.00      80.0     0.33      1010.1     0.6     SSE   162   1.4      SE   144   9.34    256      -62.4
   09/19/2018 05:10      53.7      53.1       79     47.0      0.00      0.00      80.0     0.33      1010.1     0.6       S   183   1.7     SSW   193   9.35    261      -60.2
   09/19/2018 05:00      53.8      53.4       81     47.9      0.00      0.00      80.1     0.33      1010.1     0.2     SSE   157   0.9     SSE   154   9.35    267      -58.6
   09/19/2018 04:50      54.0      53.3       79     47.1      0.00      0.00      80.1     0.33      1010.0     0.3     SSE   154   1.1     SSE   154   9.35    260      -62.2
   09/19/2018 04:40      53.9      53.5       77     46.5      0.00      0.00      80.2     0.33      1010.0     0.3     SSE   154   0.7     SSE   154   9.35    260      -63.0
   09/19/2018 04:30      54.0      53.4       77     46.6      0.00      0.00      80.2     0.33      1010.0     0.1     SSE   154   0.6     SSE   154   9.35    267      -63.4
   09/19/2018 04:20      54.5      53.7       76     46.6      0.00      0.00      80.2     0.33      1010.1     0.2     SSE   154   0.9     SSE   154   9.35    265      -63.8
   09/19/2018 04:10      54.9      54.0       76     46.8      0.00      0.00      80.2     0.33      1010.2     0.2       S   178   1.0       S   179   9.35    263      -63.7
   09/19/2018 04:00      55.0      54.5       76     47.3      0.00      0.00      80.3     0.33      1010.2     0.0     SSE   149   0.5     SSE   149   9.35    267      -62.9
   09/19/2018 03:50      55.2      54.7       76     47.4      0.00      0.00      80.3     0.33      1010.3     0.2     SSE   149   0.6     SSE   149   9.35    267      -63.6
   09/19/2018 03:40      55.3      54.9       75     47.2      0.00      0.00      80.4     0.33      1010.3     0.2     SSE   149   1.0     SSE   149   9.35    267      -65.3
   09/19/2018 03:30      55.3      54.9       73     46.4      0.00      0.00      80.4     0.33      1010.4     0.4     SSE   165   1.0     SSE   152   9.35    267      -66.3
   09/19/2018 03:20      55.4      55.0       72     46.3      0.00      0.00      80.4     0.33      1010.4     0.4     SSE   155   1.3      SE   144   9.35    267      -66.0
   09/19/2018 03:10      55.5      55.0       72     46.5      0.00      0.00      80.4     0.33      1010.5     0.7     SSE   160   1.1     SSE   150   9.36    267      -66.3
   09/19/2018 03:00      56.0      55.0       71     46.3      0.00      0.00      80.5     0.33      1010.6     0.2     SSE   149   0.9     SSE   148   9.36    267      -67.1
   09/19/2018 02:50      55.8      55.5       71     46.5      0.00      0.00      80.5     0.33      1010.7     0.3     SSE   152   1.1      SE   142   9.36    267      -67.1
   09/19/2018 02:40      56.3      55.5       70     46.2      0.00      0.00      80.5     0.33      1010.8     0.6     SSE   162   1.0     SSE   153   9.36    267      -67.4
   09/19/2018 02:30      56.4      56.0       69     46.2      0.00      0.00      80.5     0.33      1010.8     0.3     SSE   160   0.8     SSE   160   9.36    267      -67.6
   09/19/2018 02:20      56.6      56.0       68     45.9      0.00      0.00      80.5     0.33      1010.8     0.9     SSE   155   1.5      SE   140   9.36    267      -68.1
   09/19/2018 02:10      56.9      56.2       67     45.7      0.00      0.00      80.6     0.33      1010.8     1.1     SSE   153   1.5     SSE   147   9.36    267      -68.4
   09/19/2018 02:00      57.1      56.6       64     44.8      0.00      0.00      80.6     0.33      1010.9     0.7     SSE   163   1.6     SSE   150   9.36    267      -68.2
   09/19/2018 01:50      57.2      56.5       65     44.9      0.00      0.00      80.6     0.33      1010.9     0.6       S   176   1.4     SSW   202   9.36    266      -68.7
   09/19/2018 01:40      57.1      56.4       64     44.6      0.00      0.00      80.6     0.33      1010.9     0.0       S   172   0.2       S   172   9.36    266      -68.9
   09/19/2018 01:30      57.3      56.6       67     46.0      0.00      0.00      80.6     0.33      1010.9     0.1       S   171   0.7       S   177   9.36    266      -70.2
   09/19/2018 01:20      57.9      56.9       67     46.4      0.00      0.00      80.7     0.33      1010.9     0.5     SSE   158   1.2     SSE   148   9.36    267      -71.5
   09/19/2018 01:10      57.8      57.4       66     46.5      0.00      0.00      80.7     0.33      1010.8     0.4     SSE   158   1.1     SSE   163   9.37    266      -71.4
   09/19/2018 01:00      58.4      57.3       65     45.9      0.00      0.00      80.7     0.33      1010.8     0.5       S   174   1.2       S   176   9.37    266      -72.6
   09/19/2018 00:50      58.9      57.9       64     46.0      0.00      0.00      80.7     0.33      1010.8     0.5     SSE   168   1.3       S   176   9.37    266      -73.1
   09/19/2018 00:40      58.9      58.5       63     46.3      0.00      0.00      80.7     0.33      1010.7     0.5      SE   143   1.4      SE   136   9.37    266      -73.7
   09/19/2018 00:30      58.9      58.4       64     46.7      0.00      0.00      80.8     0.33      1010.8     0.0     SSW   204   0.6     SSW   204   9.37    266      -74.0
   09/19/2018 00:20      59.7      58.6       64     46.8      0.00      0.00      80.8     0.33      1010.8     0.6       S   170   1.2     SSE   148   9.37    266      -75.9
   09/19/2018 00:10      59.8      59.4       64     47.5      0.00      0.00      80.8     0.33      1010.8     0.7     SSE   153   1.3     SSE   157   9.37    266      -75.1
   09/19/2018 00:00      60.7      59.6       63     47.2      0.00      0.00      80.8     0.33      1010.8     0.7     SSE   165   1.2     SSE   147   9.38    266      -75.8
   09/18/2018 23:50      60.8      60.3       60     46.7      0.00      0.00      80.8     0.33      1010.7     0.9       S   178   1.7       S   176   9.38    266      -75.0
   09/18/2018 23:40      61.3      60.4       62     47.4      0.00      0.00      80.8     0.33      1010.7     0.7       S   184   2.0      SW   214   9.38    266      -75.7
   09/18/2018 23:30      62.2      61.0       60     47.2      0.00      0.00      80.8     0.33      1010.7     0.7     SSE   157   2.0     SSW   194   9.38    266      -75.9
   09/18/2018 23:20      62.3      61.6       59     47.5      0.00      0.00      80.8     0.33      1010.7     1.5     SSW   206   2.1      SW   219   9.38    265      -75.6
   09/18/2018 23:10      62.5      62.1       60     48.1      0.00      0.00      80.8     0.33      1010.7     0.6       S   176   1.4     SSW   203   9.38    265      -76.3
   09/18/2018 23:00      63.6      62.2       58     47.7      0.00      0.00      80.8     0.33      1010.7     0.6     ESE   104   1.4       E    87   9.38    265      -77.9
   09/18/2018 22:50      64.9      63.4       55     47.8      0.00      0.00      80.8     0.33      1010.7     0.0      SE   132   0.7     ESE   121   9.38    265      -79.3
   09/18/2018 22:40      65.7      64.6       54     48.3      0.00      0.00      80.8     0.33      1010.7     0.1       E    95   0.9     SSE   158   9.39    264      -82.2
   09/18/2018 22:30      66.2      65.4       54     48.5      0.00      0.00      80.8     0.33      1010.7     0.5     WSW   246   2.3     SSW   199   9.39    264      -83.1
   09/18/2018 22:20      66.6      65.8       53     48.6      0.00      0.00      80.8     0.33      1010.7     2.3      SW   233   5.4      SW   221   9.39    264      -83.6
   09/18/2018 22:10      66.4      65.7       52     47.9      0.00      0.00      80.8     0.33      1010.6     1.7       W   269   3.4     WSW   254   9.39    264      -81.4
   09/18/2018 22:00      67.6      66.1       50     47.7      0.00      0.00      80.8     0.33      1010.5     0.2     ESE   103   1.1      SE   129   9.39    264      -83.9
   09/18/2018 21:50      68.5      67.4       49     48.0      0.00      0.00      80.7     0.33      1010.6     0.5     ENE    56   2.2      NE    37   9.39    264      -85.7
   09/18/2018 21:40      69.0      68.2       49     48.3      0.00      0.00      80.8     0.33      1010.6     1.4      SW   217   4.1     SSW   195   9.39    264      -86.8
   09/18/2018 21:30      69.4      68.6       47     48.1      0.00      0.00      80.8     0.33      1010.6     3.1     WSW   240   5.5     WSW   241   9.40    264      -86.8
   09/18/2018 21:20      69.9      69.1       45     47.2      0.00      0.00      80.7     0.33      1010.6     1.2      SW   226   3.0     WNW   285   9.40    264      -86.8
   09/18/2018 21:10      71.0      69.7       43     46.9      0.00      0.00      80.7     0.33      1010.4     0.6       S   190   2.9       S   172   9.40    264      -87.3
   09/18/2018 21:00      71.0      70.5       43     47.3      0.00      0.00      80.7     0.33      1010.2     1.5      SW   235   3.7       W   272   9.40    263      -88.5
   09/18/2018 20:50      71.4      70.6       44     47.7      0.00      0.00      80.7     0.33      1010.2     2.7     SSW   201   4.2     SSW   206   9.41    263      -89.2
   09/18/2018 20:40      71.8      71.2       43     48.0      0.00      0.00      80.7     0.33      1010.2     1.9      SW   218   3.2      SW   232   9.41    263      -89.5
   09/18/2018 20:30      72.5      71.6       41     47.2      0.00      0.00      80.7     0.33      1010.1     2.0     SSW   209   5.0      SW   235   9.41    263      -89.7
   09/18/2018 20:20      73.2      72.2       39     46.1      0.00      0.00      80.6     0.33      1010.1     2.0      SW   229   4.2      SW   226   9.41    263      -89.9
   09/18/2018 20:10      74.0      72.8       36     44.6      0.00      0.00      80.6     0.33      1010.0     1.7     SSW   212   2.5      SW   229   9.41    263      -90.3
   09/18/2018 20:00      75.2      73.7       34     44.0      0.00      0.00      80.5     0.33      1009.8     2.0      SW   220   3.6      SW   217   9.42    263      -92.8
   09/18/2018 19:50      75.5      74.7       32     43.0      0.00      0.00      80.5     0.33      1009.7     1.3     WSW   247   4.3     WSW   253   9.42    262      -93.1
   09/18/2018 19:40      76.2      75.2       31     42.4      0.00      0.00      80.5     0.33      1009.7     2.7      SW   234   3.8     WSW   244   9.42    262      -93.9
   09/18/2018 19:30      77.1      75.9       29     42.1      0.00      0.00      80.5     0.33      1009.5     1.6       W   268   3.1       W   276   9.43    262      -95.8
   09/18/2018 19:20      77.9      76.8       28     41.9      0.00      0.00      80.4     0.33      1009.5     1.8     WNW   294   4.1     NNW   348   9.43    262      -97.3
   09/18/2018 19:10      78.6      77.5       27     41.5      0.00      0.00      80.4     0.33      1009.5     2.3     WNW   293   4.4     WNW   291   9.43    262      -97.3
   09/18/2018 19:00      79.6      78.3       26     41.3      0.00      0.00      80.4     0.33      1009.4     2.6     WNW   303   5.1     WSW   246   9.43    262      -96.4
   09/18/2018 18:50      80.7      79.4       26     42.4      0.00      0.00      80.3     0.33      1009.4     2.3      NW   306   4.8      NW   324   9.44    262      -94.1
   09/18/2018 18:40      82.1      80.6       26     43.4      0.00      0.00      80.3     0.33      1009.4     2.6     WNW   299   6.9     WNW   284   9.44    262      -91.0
   09/18/2018 18:30      82.8      81.8       26     43.9      0.00      0.00      80.2     0.33      1009.3     4.0     WSW   244   6.0     WSW   247   9.44    261      -73.7
   09/18/2018 18:20      83.8      82.4       25     44.1      0.00      0.00      80.2     0.33      1009.3     3.4      SW   224   5.4     WSW   248   9.45    261      -56.3
   09/18/2018 18:10      85.1      83.5       24     43.6      0.00      0.00      80.2     0.33      1009.3     3.9      SW   231   6.4     WSW   251   9.45    261      -36.5
   09/18/2018 18:00      85.2      84.8       23     43.0      0.00      0.00      80.1     0.33      1009.3     3.5      SW   227   6.5     WSW   254   9.46    261      -15.8
   09/18/2018 17:50      86.3      84.9       26     46.6      0.00      0.00      80.1     0.33      1009.3     3.0     WSW   257   6.7     WNW   296   9.46    261        9.0
   09/18/2018 17:40      86.4      85.8       25     46.1      0.00      0.00      80.0     0.33      1009.3     2.3     WSW   243   5.8     WSW   240   9.47    261       33.9
   09/18/2018 17:30      86.8      85.7       26     47.5      0.00      0.00      80.0     0.33      1009.3     3.2     WSW   257   6.1       W   278   9.47    261       61.3
   09/18/2018 17:20      87.5      86.6       17     36.9      0.00      0.00      79.9     0.33      1009.3     3.7      SW   228   6.4       W   264   9.47    261       84.7
   09/18/2018 17:10      87.6      86.7       15     33.7      0.00      0.00      79.9     0.33      1009.3     3.2       S   183   7.1     SSE   165   9.48    261      115.0
   09/18/2018 17:00      88.3      86.9       12     28.0      0.00      0.00      79.8     0.33      1009.3     5.0       S   177   8.8     SSW   197   9.48    261      141.4
   09/18/2018 16:50      88.5      87.9       11     26.4      0.00      0.00      79.8     0.33      1009.3     4.2     SSE   163   7.8     SSE   169   9.49    261      166.8
   09/18/2018 16:40      88.9      88.1       11     27.5      0.00      0.00      79.7     0.33      1009.3     4.0     SSW   197   7.2       S   181   9.49    261      190.5
   09/18/2018 16:30      89.5      88.7       11     27.6      0.00      0.00      79.7     0.33      1009.3     4.0     SSW   207   7.0     SSW   192   9.50    261      215.0
   09/18/2018 16:20      89.4      88.4       10     25.6      0.00      0.00      79.6     0.33      1009.3     3.7     SSW   211   7.6       S   182   9.50    261      232.0
   09/18/2018 16:10      89.7      88.6       10     25.1      0.00      0.00      79.5     0.33      1009.4     4.6       S   171   8.4      SE   134   9.51    261      244.0
   09/18/2018 16:00      89.9      89.0        9     23.6      0.00      0.00      79.5     0.33      1009.5     2.6       S   189   7.1      SE   127   9.51    261      264.0
   09/18/2018 15:50      90.5      89.2        9     24.1      0.00      0.00      79.5     0.33      1009.6     3.7       S   188   8.9     WSW   239   9.51    261      287.5
   09/18/2018 15:40      90.5      89.4        9     23.4      0.00      0.00      79.4     0.33      1009.6     2.6       E    96   5.5       S   191   9.52    261      315.5
   09/18/2018 15:30      90.5      89.2        9     23.1      0.00      0.00      79.3     0.33      1009.7     3.0      SE   137   6.2      SE   124   9.52    261      339.8
   09/18/2018 15:20      89.7      88.6        9     21.9      0.00      0.00      79.3     0.33      1009.9     3.4     ESE   118   8.1      SE   136   9.53    261      360.3
   09/18/2018 15:10      90.1      89.2        8     21.2      0.00      0.00      79.2     0.33      1010.0     3.6     SSE   165   8.6       S   186   9.53    260      378.0
   09/18/2018 15:00      90.0      88.6        9     22.0      0.00      0.00      79.1     0.33      1010.1     3.2     SSE   167   7.3     SSE   155   9.54    260      395.4
   09/18/2018 14:50      89.2      88.5        9     22.3      0.00      0.00      79.1     0.33      1010.2     4.5       S   189   8.7     SSW   204   9.54    261      413.1
   09/18/2018 14:40      89.4      88.4       10     24.8      0.00      0.00      79.1     0.33      1010.3     4.5       S   175   9.6      SE   146   9.54    260      427.7
   09/18/2018 14:30      89.6      88.6       11     27.4      0.00      0.00      79.0     0.33      1010.4     4.0     SSE   154   7.1     ESE   119   9.55    260      439.9
   09/18/2018 14:20      89.8      89.0       11     28.6      0.00      0.00      79.0     0.33      1010.5     3.0     SSE   161   5.7      SW   219   9.55    260      449.3
   09/18/2018 14:10      90.0      89.1       12     29.8      0.00      0.00      79.0     0.33      1010.6     3.2      SE   128   7.4     SSE   153   9.55    260      461.8
   09/18/2018 14:00      90.9      89.2       14     34.3      0.00      0.00      78.9     0.33      1010.7     3.0       E   100   7.8      SE   140   9.56    260      469.4
   09/18/2018 13:50      90.9      89.4       13     31.8      0.00      0.00      78.9     0.33      1010.9     2.9       E    82   5.8      NE    48   9.56    261      476.2
   09/18/2018 13:40      90.3      88.7       15     35.3      0.00      0.00      78.9     0.33      1011.0     2.1     ESE   106   6.1      SE   129   9.56    261      478.9
   09/18/2018 13:30      89.4      88.6       16     36.7      0.00      0.00      78.9     0.33      1011.1     2.8     ENE    56   5.3      NE    47   9.56    261      486.2
   09/18/2018 13:20      89.4      88.7       17     38.9      0.00      0.00      78.9     0.32      1011.2     2.6      NE    47   6.4      NE    54   9.56    261      492.1
   09/18/2018 13:10      89.1      87.9       18     39.0      0.00      0.00      78.8     0.32      1011.4     2.7      NE    40   5.3     ENE    59   9.56    261      495.9
   09/18/2018 13:00      88.3      87.7       19     40.2      0.00      0.00      78.8     0.32      1011.6     2.6      NE    37   5.3      NE    36   9.56    261      499.9
   09/18/2018 12:50      87.9      85.6       20     40.3      0.00      0.00      78.8     0.32      1011.7     2.5     NNE    20   5.2      NE    41   9.56    261      505.4
   09/18/2018 12:40      86.7      85.6       19     39.3      0.00      0.00      78.8     0.32      1011.9     2.6      SE   128   6.0     ENE    75   9.56    261      510.8
   09/18/2018 12:30      86.5      85.5       18     38.0      0.00      0.00      78.8     0.32      1012.0     2.4       E    96   6.8      SE   126   9.56    261      509.0
   09/18/2018 12:20      85.9      84.9       22     41.8      0.00      0.00      78.8     0.32      1012.0     2.4     NNE    33   6.7       N     3   9.57    261      506.1
   09/18/2018 12:10      85.3      83.8       24     43.3      0.00      0.00      78.8     0.32      1012.1     2.5     NNE    29   5.0      NE    44   9.57    261      503.6
   09/18/2018 12:00      84.5      83.3       24     43.0      0.00      0.00      78.8     0.32      1012.2     2.5     NNE    32   4.8      NE    44   9.57    261      502.1
   09/18/2018 11:50      83.6      82.4       24     42.9      0.00      0.00      78.9     0.32      1012.3     2.7     NNE    27   5.2       N   355   9.57    261      498.1
   09/18/2018 11:40      83.0      81.9       24     42.1      0.00      0.00      79.0     0.33      1012.5     2.6     NNE    25   5.0      NE    46   9.57    261      490.6
   09/18/2018 11:30      82.5      81.3       23     40.6      0.00      0.00      79.0     0.33      1012.7     2.5     NNE    23   5.1     NNW   333   9.57    261      481.7
   09/18/2018 11:20      81.6      80.7       23     40.3      0.00      0.00      79.0     0.33      1012.8     3.0     NNE    26   5.2     NNE    24   9.56    262      473.4
   09/18/2018 11:10      81.5      80.3       23     39.3      0.00      0.00      79.1     0.33      1012.9     2.5      NE    38   6.1      NE    35   9.57    262      463.7
   09/18/2018 11:00      80.9      79.3       24     40.2      0.00      0.00      79.1     0.33      1013.1     2.0      NE    37   4.5      NE    50   9.57    262      453.8
   09/18/2018 10:50      79.7      78.2       27     41.8      0.00      0.00      79.1     0.33      1013.1     2.4      NE    42   4.9     ENE    61   9.57    262      443.7
   09/18/2018 10:40      78.8      77.5       28     42.4      0.00      0.00      79.2     0.33      1013.2     1.7      NE    39   4.6       E    91   9.57    262      427.6
   09/18/2018 10:30      78.1      76.4       29     42.7      0.00      0.00      79.2     0.33      1013.2     2.3      NE    49   5.0       E    93   9.57    262      412.3
   09/18/2018 10:20      77.0      76.3       30     43.0      0.00      0.00      79.2     0.33      1013.3     2.6     NNE    25   4.9     NNW   334   9.57    262      396.8
   09/18/2018 10:10      76.7      75.8       31     43.1      0.00      0.00      79.3     0.33      1013.4     2.0      NE    55   4.9     ESE   119   9.56    262      379.5
   09/18/2018 10:00      76.2      74.2       32     43.1      0.00      0.00      79.3     0.33      1013.4     1.3     NNE    21   3.0     NNE    31   9.56    262      362.9
   09/18/2018 09:50      74.4      73.8       32     42.0      0.00      0.00      79.3     0.33      1013.4     1.7      NE    49   4.0      NE    38   9.56    263      346.0
   09/18/2018 09:40      74.0      72.8       32     41.6      0.00      0.00      79.3     0.33      1013.5     1.6     NNE    32   3.4     ENE    71   9.56    263      327.4
   09/18/2018 09:30      73.3      71.5       31     40.4      0.00      0.00      79.5     0.33      1013.5     1.4      NE    35   2.8      NE    37   9.56    263      308.3
   09/18/2018 09:20      71.8      71.1       32     40.0      0.00      0.00      79.5     0.33      1013.5     1.8     NNE    25   3.0       N    10   9.56    263      290.0
   09/18/2018 09:10      71.2      70.7       34     41.1      0.00      0.00      79.5     0.33      1013.5     1.2     NNE    14   2.5     NNE    22   9.56    263      270.4
   09/18/2018 09:00      71.1      70.1       37     43.2      0.00      0.00      79.6     0.33      1013.5     0.9     NNE    30   2.2     NNE    19   9.56    264      249.6
   09/18/2018 08:50      70.4      68.4       41     44.8      0.00      0.00      79.6     0.33      1013.5     0.5       N     1   1.5       N     1   9.55    264      228.3
   09/18/2018 08:40      68.4      67.8       43     44.4      0.00      0.00      79.7     0.33      1013.6     0.9     NNW   333   2.2     WNW   300   9.56    266      204.4
   09/18/2018 08:30      68.6      68.1       44     45.4      0.00      0.00      79.8     0.33      1013.5     0.7     NNE    18   1.8       N     0   9.23    266      181.2
   09/18/2018 08:20      68.5      66.5       46     45.5      0.00      0.00      79.8     0.33      1013.4     0.2     ENE    61   1.1       E    80   9.23    266      153.4
   09/18/2018 08:10      67.2      66.3       46     45.3      0.00      0.00      79.8     0.33      1013.5     0.4       E    96   1.0     ESE   107   9.23    267      123.8
   09/18/2018 08:00      66.4      63.2       51     45.9      0.00      0.00      79.9     0.33      1013.5     0.0       E    90   0.9     ESE   111   9.23    267       95.6
   09/18/2018 07:50      63.0      59.8       57     45.7      0.00      0.00      79.9     0.33      1013.4     0.0       N     0   0.0     ESE   113   9.23    267       68.4
   09/18/2018 07:40      59.9      59.0       60     45.4      0.00      0.00      79.9     0.33      1013.3     0.0     ESE   113   0.2     ESE   113   9.23    267       41.8
   09/18/2018 07:30      59.1      55.4       66     46.2      0.00      0.00      80.0     0.33      1013.2     0.0       N     0   0.0     SSE   161   9.23    268       14.0
   09/18/2018 07:20      55.5      53.4       71     44.8      0.00      0.00      80.0     0.33      1013.1     0.2     SSE   161   1.0     SSE   148   9.23    267      -11.8
   09/18/2018 07:10      53.5      52.2       73     44.6      0.00      0.00      80.1     0.33      1013.0     0.6     SSE   149   1.1      SE   142   9.23    267      -42.1
   09/18/2018 07:00      52.4      51.5       76     44.5      0.00      0.00      80.1     0.33      1012.9     0.5     SSE   157   0.9     SSE   157   9.23    266      -57.5
   09/18/2018 06:50      51.8      51.4       76     44.3      0.00      0.00      80.1     0.33      1012.9     0.6     SSE   153   1.3      SE   136   9.23    266      -59.8
   09/18/2018 06:40      52.3      51.4       73     43.5      0.00      0.00      80.2     0.33      1012.8     0.5     SSE   164   0.9     SSE   162   9.23    267      -64.1
   09/18/2018 06:30      52.1      51.9       73     43.8      0.00      0.00      80.2     0.33      1012.7     0.0     SSE   162   0.6     SSE   162   9.23    267      -64.2
   09/18/2018 06:20      52.5      51.8       72     43.4      0.00      0.00      80.3     0.33      1012.7     0.3     SSE   162   0.8     SSE   162   9.23    267      -64.7
   09/18/2018 06:10      52.8      52.3       71     43.3      0.00      0.00      80.3     0.33      1012.7     0.3     SSE   162   0.9     SSE   162   9.23    267      -65.1
   09/18/2018 06:00      52.8      52.5       70     43.2      0.00      0.00      80.3     0.33      1012.6     0.0     SSE   162   0.6     SSE   162   9.23    267      -65.1
   09/18/2018 05:50      52.8      52.2       70     43.1      0.00      0.00      80.4     0.33      1012.6     0.0       N     0   0.0     SSE   162   9.23    267      -64.6
   09/18/2018 05:40      52.9      52.4       73     44.2      0.00      0.00      80.4     0.33      1012.6     0.2     SSE   162   0.6     SSE   162   9.23    267      -65.0
   09/18/2018 05:30      53.0      52.3       72     43.9      0.00      0.00      80.5     0.33      1012.6     0.4     SSE   164   1.0     SSE   165   9.23    267      -65.6
   09/18/2018 05:20      53.0      52.7       71     43.9      0.00      0.00      80.5     0.33      1012.6     0.4     SSE   162   0.9     SSE   157   9.23    267      -65.5
   09/18/2018 05:10      53.1      52.7       72     44.4      0.00      0.00      80.5     0.33      1012.6     0.0     SSE   149   0.5     SSE   149   9.23    267      -65.7
   09/18/2018 05:00      53.5      52.6       71     43.7      0.00      0.00      80.6     0.33      1012.5     0.4     SSE   150   1.0     SSE   151   9.23    267      -66.9
   09/18/2018 04:50      53.9      53.3       71     44.3      0.00      0.00      80.6     0.33      1012.5     0.2     SSE   152   0.8     SSE   152   9.24    267      -66.6
   09/18/2018 04:40      54.2      53.6       71     44.7      0.00      0.00      80.6     0.33      1012.6     0.0     SSE   152   0.8     SSE   152   9.24    267      -66.5
   09/18/2018 04:30      54.7      53.9       69     44.4      0.00      0.00      80.7     0.33      1012.6     0.0     SSE   152   0.8     SSE   152   9.24    267      -67.0
   09/18/2018 04:20      54.6      54.1       69     44.4      0.00      0.00      80.7     0.33      1012.6     0.4       S   174   0.9     SSE   157   9.24    267      -67.1
   09/18/2018 04:10      54.7      54.2       68     44.2      0.00      0.00      80.8     0.33      1012.6     0.6     SSE   164   1.4       S   185   9.24    267      -68.6
   09/18/2018 04:00      55.0      54.4       68     44.2      0.00      0.00      80.8     0.33      1012.6     0.5       S   172   1.5       S   184   9.24    267      -68.1
   09/18/2018 03:50      55.0      54.6       66     43.7      0.00      0.00      80.8     0.33      1012.6     0.4       S   179   1.4      SW   220   9.24    267      -67.3
   09/18/2018 03:40      55.2      54.5       66     43.6      0.00      0.00      80.9     0.33      1012.6     0.4     SSE   155   0.9     SSE   155   9.24    267      -67.9
   09/18/2018 03:30      55.6      54.9       67     44.3      0.00      0.00      80.9     0.33      1012.6     0.0     SSE   155   0.5     SSE   155   9.24    266      -67.8
   09/18/2018 03:20      55.6      55.0       66     44.0      0.00      0.00      80.9     0.33      1012.7     0.2     SSE   155   0.8     SSE   155   9.24    267      -67.8
   09/18/2018 03:10      55.5      55.0       67     44.4      0.00      0.00      80.9     0.33      1012.7     0.3     SSE   161   1.1     SSE   166   9.24    266      -68.8
   09/18/2018 03:00      56.3      55.1       65     44.1      0.00      0.00      81.0     0.33      1012.8     0.6     SSE   167   1.0       S   169   9.24    266      -69.5
   09/18/2018 02:50      56.8      56.2       63     44.0      0.00      0.00      81.0     0.33      1012.9     0.4       S   169   1.0       S   169   9.24    266      -68.5
   09/18/2018 02:40      56.8      56.2       62     43.7      0.00      0.00      81.0     0.33      1012.9     0.2       S   175   1.3       S   183   9.25    266      -68.7
   09/18/2018 02:30      56.8      56.1       64     44.3      0.00      0.00      81.0     0.33      1013.0     0.4     SSE   163   1.0       S   183   9.25    266      -69.2
   09/18/2018 02:20      56.9      56.5       63     44.2      0.00      0.00      81.1     0.33      1013.0     0.1     SSE   153   0.8     SSE   153   9.25    266      -69.8
   09/18/2018 02:10      57.4      56.6       61     43.8      0.00      0.00      81.1     0.33      1013.0     0.3       S   169   1.0       S   182   9.25    266      -70.3
   09/18/2018 02:00      57.8      57.2       61     44.2      0.00      0.00      81.1     0.33      1013.0     0.5       S   171   0.9       S   184   9.25    266      -69.5
   09/18/2018 01:50      58.3      57.6       63     45.3      0.00      0.00      81.2     0.33      1013.1     0.4     SSE   162   1.0     SSE   164   9.25    266      -69.9
   09/18/2018 01:40      58.1      57.6       62     44.9      0.00      0.00      81.2     0.33      1013.1     0.2     SSE   151   0.9     SSE   152   9.25    266      -71.0
   09/18/2018 01:30      58.3      57.6       62     44.8      0.00      0.00      81.2     0.33      1013.1     0.5     SSE   161   1.1     SSE   148   9.25    266      -72.3
   09/18/2018 01:20      58.9      58.0       61     45.0      0.00      0.00      81.2     0.33      1013.1     0.8     SSE   158   1.6      SE   143   9.25    266      -72.7
   09/18/2018 01:10      58.9      58.4       60     44.6      0.00      0.00      81.2     0.33      1013.1     0.4     SSE   168   1.0       S   169   9.25    266      -73.3
   09/18/2018 01:00      59.0      58.4       60     44.7      0.00      0.00      81.2     0.33      1013.1     0.6     SSE   153   1.6     SSE   147   9.25    265      -74.1
   09/18/2018 00:50      60.0      58.6       58     44.5      0.00      0.00      81.3     0.33      1013.1     0.6     SSE   160   1.1      SE   142   9.25    265      -75.2
   09/18/2018 00:40      60.0      59.5       58     44.9      0.00      0.00      81.3     0.33      1013.0     0.9     SSE   150   1.5      SE   146   9.26    265      -75.7
   09/18/2018 00:30      60.1      59.5       57     44.4      0.00      0.00      81.3     0.33      1013.0     0.7     SSE   162   1.6     SSE   166   9.26    265      -77.3
   09/18/2018 00:20      60.6      59.7       56     44.2      0.00      0.00      81.3     0.33      1013.0     0.5       S   174   1.3     SSE   168   9.26    264      -77.3
   09/18/2018 00:10      61.6      60.4       53     43.8      0.00      0.00      81.3     0.33      1013.0     0.8     SSE   162   2.1     SSW   210   9.26    264      -77.3
   09/18/2018 00:00      61.7      61.2       52     43.6      0.00      0.00      81.3     0.33      1013.0     1.4     SSW   205   2.2      SW   217   9.26    264      -77.0
   09/17/2018 23:50      61.7      61.1       53     44.1      0.00      0.00      81.3     0.33      1012.9     0.5       S   188   2.3     SSW   213   9.26    264      -78.4
   09/17/2018 23:40      62.3      61.3       52     43.9      0.00      0.00      81.4     0.33      1012.8     0.0       E   100   0.8     ENE    71   9.26    264      -79.9
   09/17/2018 23:30      62.3      61.9       51     43.9      0.00      0.00      81.3     0.33      1012.7     0.2     SSE   166   0.8       S   169   9.26    264      -80.7
   09/17/2018 23:20      63.3      62.0       50     43.9      0.00      0.00      81.3     0.33      1012.6     0.6     SSE   153   1.2     SSE   154   9.27    264      -82.5
   09/17/2018 23:10      63.9      63.0       49     44.1      0.00      0.00      81.4     0.33      1012.6     0.1       S   188   1.6     SSW   213   9.27    264      -82.9
   09/17/2018 23:00      65.2      63.6       48     44.1      0.00      0.00      81.4     0.33      1012.6     0.1      SE   124   0.9     ENE    66   9.27    264      -85.9
   09/17/2018 22:50      66.8      65.0       46     44.1      0.00      0.00      81.4     0.33      1012.5     0.1     SSE   149   0.9     SSE   151   9.27    264      -88.0
   09/17/2018 22:40      68.6      66.7       43     44.2      0.00      0.00      81.4     0.33      1012.6     0.4       E    92   1.8      NE    51   9.27    264      -90.7
   09/17/2018 22:30      68.8      68.1       42     44.4      0.00      0.00      81.3     0.33      1012.5     1.0      SW   228   2.7     SSW   204   9.27    264      -92.9
   09/17/2018 22:20      69.0      68.5       42     44.6      0.00      0.00      81.4     0.33      1012.4     2.1      SW   229   4.3      SW   235   9.28    264      -93.5
   09/17/2018 22:10      69.4      68.6       42     44.9      0.00      0.00      81.4     0.33      1012.4     3.0      SW   216   5.9     SSW   211   9.28    263      -93.8
   09/17/2018 22:00      69.6      69.1       42     45.4      0.00      0.00      81.4     0.33      1012.4     4.1     SSW   207   8.7     SSW   212   9.28    263      -94.5
   09/17/2018 21:50      69.9      69.1       43     45.9      0.00      0.00      81.4     0.33      1012.4     3.8     SSW   206   7.3     SSW   201   9.28    263      -94.9
   09/17/2018 21:40      70.2      69.6       42     45.6      0.00      0.00      81.3     0.33      1012.4     3.4     SSW   205   7.0      SW   219   9.29    263      -95.1
   09/17/2018 21:30      70.5      69.9       41     45.2      0.00      0.00      81.3     0.33      1012.4     3.9     SSW   209   6.9     SSW   211   9.29    263      -95.7
   09/17/2018 21:20      71.0      70.2       39     44.0      0.00      0.00      81.3     0.33      1012.4     3.2     SSW   207   5.6      SW   214   9.29    263      -96.3
   09/17/2018 21:10      71.2      70.6       36     42.9      0.00      0.00      81.3     0.33      1012.3     3.9     SSW   208   6.2     SSW   205   9.29    263      -97.0
   09/17/2018 21:00      71.7      70.8       35     41.8      0.00      0.00      81.2     0.33      1012.2     2.6     SSW   210   5.4      SW   232   9.30    262      -97.6
   09/17/2018 20:50      72.1      71.4       33     41.0      0.00      0.00      81.3     0.33      1012.1     3.3     SSW   206   5.7     SSW   210   9.30    262      -97.8
   09/17/2018 20:40      72.8      71.9       31     40.0      0.00      0.00      81.3     0.33      1011.9     3.9     SSW   209   6.5      SW   220   9.30    262      -98.0
   09/17/2018 20:30      73.6      72.4       29     38.5      0.00      0.00      81.2     0.33      1011.8     3.8     SSW   209   6.2      SW   214   9.31    262      -97.2
   09/17/2018 20:20      74.1      73.3       27     37.6      0.00      0.00      81.2     0.33      1011.7     2.5     SSW   212   4.3      SW   218   9.31    262      -96.7
   09/17/2018 20:10      74.3      73.7       25     36.0      0.00      0.00      81.2     0.33      1011.6     1.4     SSW   207   3.4     WSW   252   9.31    262      -96.1
   09/17/2018 20:00      74.8      74.0       25     35.9      0.00      0.00      81.2     0.33      1011.5     1.4     SSW   210   2.6     WSW   252   9.31    262      -95.1
   09/17/2018 19:50      75.7      74.4       24     35.6      0.00      0.00      81.1     0.33      1011.5     1.0     SSW   205   3.2      SW   226   9.32    262      -95.5
   09/17/2018 19:40      76.8      75.5       22     34.9      0.00      0.00      81.1     0.33      1011.4     1.1     SSW   207   1.9      SW   215   9.32    262      -97.7
   09/17/2018 19:30      77.5      76.5       21     34.3      0.00      0.00      81.1     0.33      1011.3     1.7      SW   230   3.5       W   267   9.32    262     -101.6
   09/17/2018 19:20      78.2      77.3       22     35.5      0.00      0.00      81.0     0.33      1011.2     1.7     WSW   252   3.9       W   260   9.33    262     -103.1
   09/17/2018 19:10      79.2      78.0       22     36.7      0.00      0.00      81.0     0.33      1011.1     2.4     WSW   237   4.4     WNW   294   9.33    261     -103.7
   09/17/2018 19:00      80.2      78.9       22     37.4      0.00      0.00      80.9     0.33      1011.1     2.4       W   280   5.0       W   259   9.33    261     -102.3
   09/17/2018 18:50      80.8      79.7       21     37.3      0.00      0.00      80.9     0.33      1011.1     2.5      NW   307   5.3       N     0   9.34    261      -99.4
   09/17/2018 18:40      82.1      80.5       21     37.1      0.00      0.00      80.9     0.33      1011.1     2.6      NW   313   6.0       W   280   9.34    261      -97.3
   09/17/2018 18:30      83.3      81.7       19     36.0      0.00      0.00      80.8     0.33      1011.0     2.8      NW   311   6.2      NW   309   9.35    261      -79.3
   09/17/2018 18:20      83.9      83.2       18     35.0      0.00      0.00      80.8     0.33      1011.0     2.8      NW   305   5.9      NW   322   9.35    261      -58.6
   09/17/2018 18:10      84.9      83.6       19     37.0      0.00      0.00      80.7     0.33      1010.9     3.9      NW   310   7.7     WNW   291   9.36    261      -36.6
   09/17/2018 18:00      85.8      84.6       19     38.7      0.00      0.00      80.7     0.33      1010.9     3.7      NW   304   8.0     WNW   301   9.36    261      -14.8
   09/17/2018 17:50      86.4      85.6       19     38.6      0.00      0.00      80.6     0.33      1010.9     3.4     WNW   300   7.6     WNW   303   9.37    261        9.0
   09/17/2018 17:40      87.8      86.2       18     38.4      0.00      0.00      80.6     0.33      1010.8     4.1      NW   316   8.4     NNW   327   9.37    261       34.1
   09/17/2018 17:30      87.9      87.2       18     39.5      0.00      0.00      80.5     0.33      1010.8     3.0     WNW   298   8.2       W   260   9.38    261       62.5
   09/17/2018 17:20      88.4      87.6       18     39.2      0.00      0.00      80.5     0.33      1010.8     3.7     WNW   298   7.5      NW   316   9.38    261       91.1
   09/17/2018 17:10      89.0      88.0       19     41.5      0.00      0.00      80.4     0.33      1010.8     4.4       W   271   8.1      SW   232   9.39    261      121.5
   09/17/2018 17:00      89.0      88.2       20     42.9      0.00      0.00      80.4     0.33      1010.8     4.2     WNW   287   7.7     WSW   242   9.39    261      147.7
   09/17/2018 16:50      89.8      88.8       20     43.5      0.00      0.00      80.3     0.33      1010.8     3.4      NW   317   7.3       W   265   9.39    261      170.5
   09/17/2018 16:40      89.8      88.8       18     40.6      0.00      0.00      80.2     0.33      1010.8     3.3     WSW   251   7.4     SSW   193   9.40    261      199.0
   09/17/2018 16:30      91.1      89.4       17     39.8      0.00      0.00      80.2     0.33      1010.9     3.3      SW   231   8.6     SSW   197   9.40    261      223.5
   09/17/2018 16:20      90.9      89.0       14     34.1      0.00      0.00      80.1     0.33      1010.9     3.3     SSW   194   7.5     SSE   153   9.41    261      240.4
   09/17/2018 16:10      91.2      89.3       13     33.3      0.00      0.00      80.0     0.33      1010.8     6.0       S   175   9.8       S   184   9.41    261      255.8
   09/17/2018 16:00      91.4      90.3       13     32.3      0.00      0.00      80.0     0.33      1010.9     5.1       S   171   9.0       S   183   9.42    261      276.5
   09/17/2018 15:50      92.2      91.1       12     31.1      0.00      0.00      79.9     0.33      1010.9     4.8       S   189   8.9       S   182   9.42    261      299.2
   09/17/2018 15:40      92.1      91.0       11     30.7      0.00      0.00      79.9     0.33      1010.9     4.4     SSW   194   7.3       S   184   9.43    261      327.7
   09/17/2018 15:30      91.9      90.8       12     31.8      0.00      0.00      79.8     0.33      1011.0     4.8       S   175   9.2       S   173   9.43    261      349.0
   09/17/2018 15:20      92.2      91.3       13     33.0      0.00      0.00      79.8     0.33      1011.1     5.0       S   179   8.1     SSW   213   9.44    261      364.3
   09/17/2018 15:10      93.9      91.9       12     32.1      0.00      0.00      79.7     0.33      1011.1     3.6      SE   144   8.8       S   188   9.44    261      376.7
   09/17/2018 15:00      94.2      93.5       11     31.2      0.00      0.00      79.7     0.33      1011.2     2.5      NE    52   4.4     ENE    71   9.44    260      385.1
   09/17/2018 14:50      93.9      92.7       12     32.4      0.00      0.00      79.6     0.33      1011.3     2.2     NNE    26   5.8     NNE    26   9.45    261      397.4
   09/17/2018 14:40      93.9      91.6       12     32.1      0.00      0.00      79.6     0.33      1011.4     3.0     ENE    62   5.9      SE   137   9.45    261      416.4
   09/17/2018 14:30      94.0      92.9       11     32.1      0.00      0.00      79.5     0.33      1011.5     2.3     ENE    58   6.1       S   177   9.45    260      424.8
   09/17/2018 14:20      93.4      91.5       12     32.2      0.00      0.00      79.5     0.33      1011.7     2.1       N    11   4.1       N     1   9.45    260      437.6
   09/17/2018 14:10      92.9      91.2       12     32.7      0.00      0.00      79.5     0.33      1011.8     3.1       N     7   5.5       N     0   9.45    260      446.0
   09/17/2018 14:00      92.8      91.6       13     33.8      0.00      0.00      79.4     0.33      1011.9     2.7     NNE    31   5.1     NNE    32   9.46    261      458.0
   09/17/2018 13:50      93.0      90.7       13     34.1      0.00      0.00      79.4     0.33      1012.1     2.1     NNW   334   6.0      NE    46   9.46    260      469.1
   09/17/2018 13:40      91.9      90.8       13     34.0      0.00      0.00      79.4     0.33      1012.2     2.9     NNE    21   5.7       N     6   9.46    260      477.4
   09/17/2018 13:30      91.4      89.8       13     33.6      0.00      0.00      79.3     0.33      1012.4     2.1       S   188   4.9       S   180   9.46    261      485.8
   09/17/2018 13:20      91.4      90.6       13     34.0      0.00      0.00      79.4     0.33      1012.6     2.5     ENE    75   6.7       E   101   9.46    261      488.7
   09/17/2018 13:10      91.2      90.0       14     34.9      0.00      0.00      79.3     0.33      1012.7     2.1      NE    46   3.7       N     6   9.46    261      494.7
   09/17/2018 13:00      90.5      88.6       15     35.1      0.00      0.00      79.3     0.33      1012.7     2.6     NNW   327   6.4       N   350   9.46    260      502.1
   09/17/2018 12:50      91.5      88.9       15     35.9      0.00      0.00      79.3     0.33      1012.8     1.8     NNE    16   7.0     NNE    12   9.46    261      504.4
   09/17/2018 12:40      89.9      88.7       15     35.6      0.00      0.00      79.3     0.33      1012.9     2.1     ENE    61   4.2      NE    48   9.46    261      505.8
   09/17/2018 12:30      89.4      88.6       15     35.5      0.00      0.00      79.3     0.33      1013.1     1.4       E    89   4.3      NE    39   9.46    261      506.9
   09/17/2018 12:20      89.2      87.1       15     35.2      0.00      0.00      79.3     0.33      1013.2     1.8     ESE   109   4.2      SE   127   9.46    261      507.6
   09/17/2018 12:10      87.4      86.7       15     34.6      0.00      0.00      79.3     0.33      1013.3     2.0     WNW   297   3.8      NW   322   9.46    261      502.6
   09/17/2018 12:00      87.6      86.7       15     34.5      0.00      0.00      79.3     0.33      1013.3     2.1     NNE    13   4.3       N     0   9.46    261      499.6
   09/17/2018 11:50      87.7      86.5       15     34.2      0.00      0.00      79.4     0.33      1013.4     2.1     NNW   340   4.5     NNE    21   9.46    261      496.2
   09/17/2018 11:40      87.6      85.9       15     34.1      0.00      0.00      79.4     0.33      1013.5     1.5     ENE    75   4.8      SE   124   9.46    261      491.6
   09/17/2018 11:30      85.9      84.9       15     33.0      0.00      0.00      79.5     0.33      1013.5     1.4       W   279   3.9      SW   219   9.46    261      486.6
   09/17/2018 11:20      85.2      84.6       15     32.0      0.00      0.00      79.5     0.33      1013.6     1.3       E    81   4.0       N   352   9.46    261      477.7
   09/17/2018 11:10      84.8      83.2       14     30.0      0.00      0.00      79.5     0.33      1013.7     1.5       N     7   3.5       E    81   9.46    261      467.6
   09/17/2018 11:00      83.5      82.7       16     32.3      0.00      0.00      79.5     0.33      1013.8     2.0       E    88   4.6     ESE   105   9.46    261      457.5
   09/17/2018 10:50      82.9      81.8       16     32.4      0.00      0.00      79.6     0.33      1013.8     1.6       N   353   4.1     WNW   298   9.46    261      443.1
   09/17/2018 10:40      82.2      80.3       18     34.5      0.00      0.00      79.6     0.33      1013.9     1.4      NE    55   3.4      NE    42   9.46    262      431.3
   09/17/2018 10:30      80.5      79.6       21     36.8      0.00      0.00      79.7     0.33      1014.0     1.7     NNE    30   3.9       N     3   9.46    262      416.6
   09/17/2018 10:20      80.0      78.4       24     38.7      0.00      0.00      79.7     0.33      1014.0     1.6     NNE    14   3.8     NNW   345   9.47    262      399.9
   09/17/2018 10:10      78.5      77.5       23     37.0      0.00      0.00      79.7     0.33      1014.0     1.8       N     7   3.9     NNE    15   9.46    262      384.2
   09/17/2018 10:00      78.1      76.8       24     37.3      0.00      0.00      79.8     0.33      1014.0     1.5       E    91   2.9      NE    52   9.47    262      367.5
   09/17/2018 09:50      77.0      76.0       26     39.2      0.00      0.00      79.8     0.33      1014.0     1.7     NNE    27   3.5       N   355   9.47    262      350.3
   09/17/2018 09:40      77.0      76.0       28     40.9      0.00      0.00      79.9     0.33      1014.0     1.8       N     7   3.4     NNW   344   9.46    262      332.7
   09/17/2018 09:30      76.9      74.5       30     42.1      0.00      0.00      79.9     0.33      1014.0     0.7       N     4   1.7     NNE    25   9.46    262      314.1
   09/17/2018 09:20      74.8      73.2       33     42.4      0.00      0.00      80.0     0.33      1014.0     1.0     NNE    12   2.9       N     0   9.46    263      293.4
   09/17/2018 09:10      73.8      72.5       32     42.0      0.00      0.00      80.0     0.33      1014.0     1.2     NNW   338   2.9       N     3   9.46    263      273.8
   09/17/2018 09:00      72.8      71.2       34     42.0      0.00      0.00      80.1     0.33      1014.0     1.2     WSW   250   2.9      SW   226   9.46    264      254.2
   09/17/2018 08:50      73.0      71.2       36     43.4      0.00      0.00      80.1     0.33      1014.0     1.6     NNE    27   2.6     NNE    29   9.46    264      232.9
   09/17/2018 08:40      72.8      70.2       37     43.4      0.00      0.00      80.2     0.33      1014.1     0.0      NE    40   0.8     NNE    33   9.20    265      209.2
   09/17/2018 08:30      70.2      68.8       41     44.4      0.00      0.00      80.2     0.33      1014.0     0.4     WNW   282   2.3     WSW   253   8.54    266      183.8
   09/17/2018 08:20      69.4      68.4       43     45.8      0.00      0.00      80.3     0.33      1014.0     0.6     NNE    12   2.5       W   260   8.54    266      155.9
   09/17/2018 08:10      68.4      65.0       46     45.2      0.00      0.00      80.3     0.33      1014.0     0.0       N     0   0.0       E    97   8.54    266      127.0
   09/17/2018 08:00      65.2      62.1       49     44.3      0.00      0.00      80.4     0.33      1014.0     0.0       E   100   0.5       E    80   8.54    266       98.2
   09/17/2018 07:50      62.2      59.8       52     43.5      0.00      0.00      80.4     0.33      1014.0     0.1      SE   126   0.8      SE   126   8.54    266       70.3
   09/17/2018 07:40      59.6      57.5       57     43.5      0.00      0.00      80.5     0.33      1014.0     0.0      SE   131   0.5      SE   131   8.54    266       42.0
   09/17/2018 07:30      57.7      56.4       60     43.3      0.00      0.00      80.5     0.33      1013.8     0.0       N     0   0.0       S   177   8.54    267       13.4
   09/17/2018 07:20      56.6      55.1       61     42.2      0.00      0.00      80.5     0.33      1013.7     0.0       S   177   0.5       S   177   8.54    267      -12.8
   09/17/2018 07:10      55.3      53.2       62     41.3      0.00      0.00      80.6     0.33      1013.7     0.0       S   177   0.3       S   177   8.54    266      -37.6
   09/17/2018 07:00      53.4      52.6       66     41.8      0.00      0.00      80.6     0.33      1013.5     0.3       S   177   0.6       S   177   8.54    267      -60.5
   09/17/2018 06:50      53.0      52.6       63     40.5      0.00      0.00      80.7     0.33      1013.5     0.2       S   177   0.7       S   178   8.55    266      -60.0
   09/17/2018 06:40      53.5      52.6       63     40.9      0.00      0.00      80.7     0.33      1013.4     0.0       S   177   0.5       S   177   8.55    266      -63.3
   09/17/2018 06:30      53.4      53.0       64     41.3      0.00      0.00      80.7     0.33      1013.4     0.2       S   177   0.6       S   177   8.55    266      -65.2
   09/17/2018 06:20      53.3      52.6       62     40.4      0.00      0.00      80.8     0.33      1013.4     0.4       S   171   1.1       S   174   8.55    266      -66.3
   09/17/2018 06:10      53.1      52.6       61     39.9      0.00      0.00      80.8     0.33      1013.2     0.5     SSE   167   1.3       S   177   8.55    266      -66.3
   09/17/2018 06:00      53.5      52.8       64     41.1      0.00      0.00      80.9     0.33      1013.2     0.0       S   177   0.5       S   177   8.55    266      -66.4
   09/17/2018 05:50      53.8      53.3       63     41.2      0.00      0.00      80.9     0.33      1013.1     0.0       S   177   0.4       S   177   8.55    266      -66.9
   09/17/2018 05:40      54.0      53.5       60     40.0      0.00      0.00      80.9     0.33      1013.1     0.2       S   177   0.8       S   177   8.55    266      -67.3
   09/17/2018 05:30      54.2      53.6       58     39.2      0.00      0.00      81.0     0.33      1013.0     0.5       S   176   1.0       S   177   8.55    266      -67.9
   09/17/2018 05:20      54.5      53.9       55     38.3      0.00      0.00      81.0     0.33      1013.0     0.8     SSE   157   1.2     SSE   162   8.55    266      -68.3
   09/17/2018 05:10      54.5      54.0       56     38.8      0.00      0.00      81.1     0.33      1013.0     0.0      SW   225   0.4     SSE   152   8.55    266      -67.4
   09/17/2018 05:00      54.4      54.0       58     39.8      0.00      0.00      81.1     0.33      1013.0     0.5       S   171   1.2     SSE   166   8.55    266      -67.3
   09/17/2018 04:50      54.6      54.0       58     39.6      0.00      0.00      81.1     0.33      1012.9     0.8     SSE   163   1.1     SSE   147   8.55    266      -67.3
   09/17/2018 04:40      54.9      54.2       56     39.0      0.00      0.00      81.2     0.33      1013.0     0.6       S   169   1.1     SSE   155   8.55    266      -67.8
   09/17/2018 04:30      55.1      54.4       56     39.3      0.00      0.00      81.2     0.34      1013.0     0.6     SSE   161   1.1       S   173   8.56    266      -67.5
   09/17/2018 04:20      55.5      54.9       56     39.6      0.00      0.00      81.2     0.34      1013.0     0.2     SSE   163   0.8     SSE   156   8.56    266      -67.0
   09/17/2018 04:10      55.5      55.0       56     39.5      0.00      0.00      81.3     0.34      1013.0     0.0     SSE   167   0.6     SSE   167   8.56    266      -67.0
   09/17/2018 04:00      55.9      55.2       60     41.9      0.00      0.00      81.3     0.34      1013.0     0.3     SSE   166   0.9     SSE   167   8.56    266      -66.9
   09/17/2018 03:50      56.3      55.5       59     42.0      0.00      0.00      81.3     0.34      1013.0     0.5     SSE   159   1.2       S   175   8.56    266      -68.0
   09/17/2018 03:40      56.4      56.0       57     40.9      0.00      0.00      81.4     0.34      1013.1     0.3     SSE   159   0.8     SSE   159   8.56    266      -68.2
   09/17/2018 03:30      56.9      56.1       56     40.9      0.00      0.00      81.4     0.34      1013.1     0.2     SSE   167   1.0       S   171   8.56    266      -68.2
   09/17/2018 03:20      56.8      56.4       55     40.6      0.00      0.00      81.4     0.34      1013.2     0.1       S   171   0.7       S   171   8.56    266      -68.8
   09/17/2018 03:10      56.9      56.4       57     41.7      0.00      0.00      81.5     0.34      1013.2     0.5     SSE   164   1.1     SSE   151   8.56    266      -69.6
   09/17/2018 03:00      57.3      56.6       57     41.9      0.00      0.00      81.5     0.34      1013.2     0.7     SSE   156   1.2     SSE   149   8.56    266      -70.1
   09/17/2018 02:50      57.5      56.9       57     41.9      0.00      0.00      81.5     0.34      1013.2     0.3       S   177   0.9       S   177   8.56    265      -69.8
   09/17/2018 02:40      58.1      57.2       56     42.0      0.00      0.00      81.5     0.34      1013.1     0.5     SSE   165   1.0     SSE   167   8.56    265      -70.2
   09/17/2018 02:30      58.5      57.8       55     41.9      0.00      0.00      81.6     0.34      1013.1     0.6     SSE   159   1.2     SSE   148   8.56    265      -69.8
   09/17/2018 02:20      58.6      57.8       54     41.8      0.00      0.00      81.6     0.34      1013.1     0.5     SSE   158   1.1     SSE   151   8.56    265      -70.1
   09/17/2018 02:10      58.6      57.8       54     41.4      0.00      0.00      81.6     0.34      1013.1     0.7     SSE   162   1.1     SSE   166   8.56    265      -70.5
   09/17/2018 02:00      58.6      58.0       53     41.0      0.00      0.00      81.6     0.34      1013.1     0.5       S   180   1.3       S   189   8.57    265      -69.7
   09/17/2018 01:50      59.1      58.0       54     41.6      0.00      0.00      81.7     0.34      1013.1     0.4       S   171   1.0       S   178   8.57    265      -72.0
   09/17/2018 01:40      59.3      58.7       52     41.2      0.00      0.00      81.7     0.34      1013.1     0.6     SSE   162   1.2       S   170   8.57    265      -71.6
   09/17/2018 01:30      59.4      58.9       52     41.4      0.00      0.00      81.7     0.34      1013.1     0.2     SSE   158   0.9     SSE   158   8.57    264      -71.6
   09/17/2018 01:20      59.7      59.0       52     41.7      0.00      0.00      81.7     0.34      1013.1     0.1     SSE   157   0.6     SSE   158   8.57    264      -72.4
   09/17/2018 01:10      60.2      59.5       51     41.8      0.00      0.00      81.8     0.34      1013.1     0.5     SSE   157   1.2      SE   143   8.57    264      -73.4
   09/17/2018 01:00      60.5      59.9       52     42.5      0.00      0.00      81.8     0.34      1013.0     0.8     SSE   165   1.2       S   171   8.57    264      -74.1
   09/17/2018 00:50      60.5      60.0       52     42.7      0.00      0.00      81.8     0.34      1013.0     1.0     SSE   157   1.6      SE   144   8.57    264      -74.8
   09/17/2018 00:40      61.3      60.1       51     42.7      0.00      0.00      81.8     0.34      1013.0     0.4     SSE   154   1.3     SSE   148   8.58    264      -75.5
   09/17/2018 00:30      61.7      61.0       51     43.3      0.00      0.00      81.8     0.34      1013.0     0.6     SSE   156   1.2       S   178   8.58    264      -76.2
   09/17/2018 00:20      62.6      61.4       50     43.1      0.00      0.00      81.8     0.34      1013.0     1.0     SSE   154   2.1      SE   137   8.58    264      -76.7
   09/17/2018 00:10      62.5      61.7       49     42.8      0.00      0.00      81.8     0.34      1013.0     0.6       S   169   1.5       S   181   8.58    264      -76.0
   09/17/2018 00:00      62.5      61.7       50     43.1      0.00      0.00      81.9     0.34      1013.0     0.9     SSE   159   1.7      SE   138   8.58    264      -77.4
   09/16/2018 23:50      63.2      62.3       47     42.3      0.00      0.00      81.9     0.34      1013.0     0.8     SSE   166   2.0     SSW   192   8.58    264      -76.8
   09/16/2018 23:40      63.3      62.8       49     43.5      0.00      0.00      81.9     0.34      1013.0     0.8     SSE   167   1.6     SSE   160   8.58    264      -76.8
   09/16/2018 23:30      63.5      62.9       49     43.7      0.00      0.00      81.9     0.34      1013.0     0.3     SSE   147   1.2      SE   135   8.58    264      -78.5
   09/16/2018 23:20      64.5      63.2       48     43.5      0.00      0.00      81.9     0.34      1012.9     0.6       S   169   1.2     SSE   163   8.58    264      -78.6
   09/16/2018 23:10      65.0      64.2       48     44.1      0.00      0.00      81.9     0.34      1012.9     1.0     SSE   168   1.7     SSW   192   8.59    264      -78.5
   09/16/2018 23:00      65.3      64.6       47     44.2      0.00      0.00      81.9     0.34      1012.9     0.2       S   175   1.0     SSE   160   8.59    264      -78.9
   09/16/2018 22:50      66.1      65.0       46     44.1      0.00      0.00      81.9     0.34      1012.8     0.1     SSW   193   1.1      SW   229   8.59    264      -79.8
   09/16/2018 22:40      67.6      65.7       43     43.6      0.00      0.00      81.9     0.34      1012.8     0.1     ENE    63   1.7     ENE    67   8.60    264      -82.2
   09/16/2018 22:30      68.0      67.2       42     43.8      0.00      0.00      81.9     0.34      1012.7     0.4      SE   139   1.4     ENE    68   8.60    264      -82.1
   09/16/2018 22:20      69.7      67.8       41     43.9      0.00      0.00      81.9     0.34      1012.7     0.3     SSE   150   1.2      SE   133   8.60    264      -83.6
   09/16/2018 22:10      70.2      69.6       40     44.2      0.00      0.00      81.9     0.34      1012.7     0.4     SSW   205   1.7     SSW   203   8.60    263      -86.0
   09/16/2018 22:00      70.8      69.9       40     44.6      0.00      0.00      81.9     0.34      1012.8     0.9     SSW   200   1.8       S   189   8.60    263      -87.5
   09/16/2018 21:50      70.8      70.4       39     44.5      0.00      0.00      81.9     0.34      1012.9     1.3      SW   221   3.0       S   191   8.60    263      -87.9
   09/16/2018 21:40      70.8      69.3       39     44.4      0.00      0.00      81.9     0.34      1012.9     1.8      SW   216   3.9      SW   228   8.60    263      -87.0
   09/16/2018 21:30      70.1      69.3       40     44.1      0.00      0.00      81.9     0.34      1012.9     0.5     SSW   204   2.5     SSW   194   8.61    264      -84.3
   09/16/2018 21:20      71.6      69.8       38     44.0      0.00      0.00      81.8     0.34      1012.8     0.0       E    90   0.7       E    90   8.61    263      -86.1
   09/16/2018 21:10      72.6      71.2       37     44.3      0.00      0.00      81.9     0.34      1012.7     0.4       E    88   1.6     SSW   194   8.61    263      -88.1
   09/16/2018 21:00      73.2      72.3       36     44.4      0.00      0.00      81.8     0.34      1012.6     1.7       S   191   2.7       S   179   8.61    263      -89.1
   09/16/2018 20:50      73.2      72.7       35     43.9      0.00      0.00      81.8     0.34      1012.6     1.6     SSW   198   3.8       S   177   8.61    263      -89.3
   09/16/2018 20:40      73.0      72.2       34     42.9      0.00      0.00      81.8     0.34      1012.5     1.3     SSW   196   1.9     SSW   203   8.62    263      -87.4
   09/16/2018 20:30      74.8      72.3       33     42.4      0.00      0.00      81.8     0.34      1012.3     0.5     SSE   164   1.5       S   188   8.62    263      -88.3
   09/16/2018 20:20      75.1      74.6       31     42.3      0.00      0.00      81.8     0.34      1012.3     0.4      SW   223   1.4     SSW   210   8.62    262      -90.7
   09/16/2018 20:10      75.8      74.9       31     42.5      0.00      0.00      81.8     0.34      1012.2     1.0     SSW   196   2.5      SW   217   8.62    262      -91.3
   09/16/2018 20:00      77.6      75.6       29     42.1      0.00      0.00      81.7     0.34      1012.1     1.7     SSW   209   2.9     SSW   194   8.62    262      -92.4
   09/16/2018 19:50      78.4      77.3       28     42.2      0.00      0.00      81.7     0.34      1011.9     1.3       W   260   3.9       W   278   8.63    262      -95.9
   09/16/2018 19:40      79.1      78.2       27     42.2      0.00      0.00      81.7     0.34      1011.8     1.6     WNW   288   3.7     WNW   292   8.63    262      -97.8
   09/16/2018 19:30      79.5      78.7       27     42.1      0.00      0.00      81.6     0.34      1011.7     2.2     WNW   283   4.0       W   276   8.63    262      -98.9
   09/16/2018 19:20      80.2      79.1       27     42.5      0.00      0.00      81.6     0.34      1011.6     2.3       W   281   5.1     WSW   247   8.63    262      -99.8
   09/16/2018 19:10      81.1      79.9       26     42.9      0.00      0.00      81.6     0.34      1011.6     1.5     WNW   295   3.6      NW   313   8.64    262      -99.5
   09/16/2018 19:00      82.1      80.8       25     42.3      0.00      0.00      81.5     0.34      1011.6     2.0      NW   319   3.4     WNW   288   8.64    262      -97.8
   09/16/2018 18:50      82.9      81.8       24     41.7      0.00      0.00      81.5     0.34      1011.7     2.1     WNW   295   4.4     WNW   300   8.65    261      -95.8
   09/16/2018 18:40      84.2      82.6       22     40.7      0.00      0.00      81.4     0.34      1011.7     2.5     WNW   285   5.8     WSW   252   8.65    261      -94.6
   09/16/2018 18:30      85.5      83.9       20     39.9      0.00      0.00      81.4     0.34      1011.6     2.7     WNW   293   6.1       W   268   8.66    261      -77.9
   09/16/2018 18:20      86.3      85.1       20     39.3      0.00      0.00      81.3     0.34      1011.6     2.8     WNW   301   6.7     WSW   242   8.66    261      -55.4
   09/16/2018 18:10      87.9      85.8       17     37.5      0.00      0.00      81.3     0.34      1011.6     3.6     WNW   294   6.3     WNW   304   8.67    261      -35.1
   09/16/2018 18:00      87.9      87.1       13     31.1      0.00      0.00      81.3     0.34      1011.6     2.3     SSW   203   4.6       S   190   8.67    261      -14.0
   09/16/2018 17:50      87.9      87.2       12     29.6      0.00      0.00      81.2     0.34      1011.6     3.0     SSW   192   5.7       S   190   8.67    261       11.3
   09/16/2018 17:40      88.7      87.5       12     29.4      0.00      0.00      81.2     0.34      1011.6     4.6       S   183   6.8       S   175   8.68    261       38.2
   09/16/2018 17:30      88.7      88.0       12     28.2      0.00      0.00      81.1     0.34      1011.6     3.6     SSW   194   7.5     SSW   200   8.68    261       65.9
   09/16/2018 17:20      89.2      88.0       11     28.2      0.00      0.00      81.1     0.34      1011.6     4.4       S   179   7.3     SSW   203   8.69    261       94.5
   09/16/2018 17:10      89.0      88.1       13     30.7      0.00      0.00      81.0     0.34      1011.6     4.0       S   172   7.5      SE   146   8.69    261      123.1
   09/16/2018 17:00      89.2      88.7       13     31.6      0.00      0.00      81.0     0.34      1011.6     4.7       S   190   9.4     SSE   166   8.70    261      150.7
   09/16/2018 16:50      89.7      88.8       13     32.1      0.00      0.00      80.9     0.34      1011.6     4.6     SSE   168   7.4      SE   140   8.70    261      177.8
   09/16/2018 16:40      89.7      89.0       14     33.1      0.00      0.00      80.9     0.34      1011.6     4.2       S   174   7.6       S   185   8.71    261      204.2
   09/16/2018 16:30      89.5      89.1       13     32.8      0.00      0.00      80.8     0.33      1011.6     3.9     SSE   151   7.5      SE   142   8.71    261      229.1
   09/16/2018 16:20      89.7      88.9       14     33.7      0.00      0.00      80.7     0.33      1011.6     5.0       S   175   8.4     SSE   153   8.72    261      247.6
   09/16/2018 16:10      90.0      88.7       14     33.2      0.00      0.00      80.6     0.33      1011.6     5.0       S   180   8.0      SW   219   8.72    261      260.1
   09/16/2018 16:00      90.2      88.9       13     32.6      0.00      0.00      80.6     0.33      1011.6     5.5     SSE   158   9.8      SE   136   8.73    261      286.0
   09/16/2018 15:50      90.5      89.7       13     33.2      0.00      0.00      80.6     0.33      1011.7     5.3       S   190  11.8       S   188   8.73    261      311.6
   09/16/2018 15:40      90.6      89.7       14     34.2      0.00      0.00      80.5     0.33      1011.7     5.9      SE   145  10.9     ESE   113   8.74    261      339.2
   09/16/2018 15:30      90.5      89.5       14     34.8      0.00      0.00      80.4     0.33      1011.7     5.7     SSE   166  10.2     SSE   150   8.74    261      359.0
   09/16/2018 15:20      90.6      89.7       14     34.9      0.00      0.00      80.4     0.33      1011.8     6.2       S   169  10.6     SSE   147   8.75    261      378.5
   09/16/2018 15:10      90.5      89.8       15     35.5      0.00      0.00      80.4     0.33      1011.9     5.8     SSW   192   9.7     SSW   194   8.75    261      395.9
   09/16/2018 15:00      90.9      90.3       15     35.9      0.00      0.00      80.3     0.33      1011.9     6.2       S   173  12.6     SSW   195   8.76    261      409.9
   09/16/2018 14:50      90.8      90.0       15     36.4      0.00      0.00      80.3     0.33      1011.9     5.2     SSE   153  11.4      SE   126   8.76    261      424.8
   09/16/2018 14:40      90.9      90.2       15     37.5      0.00      0.00      80.2     0.33      1012.0     5.3       S   175  10.1      SE   132   8.77    261      437.1
   09/16/2018 14:30      91.1      90.0       15     37.3      0.00      0.00      80.2     0.33      1012.1     5.2       S   175   9.9       S   175   8.77    261      450.5
   09/16/2018 14:20      91.0      90.1       16     37.6      0.00      0.00      80.1     0.33      1012.2     5.0     SSE   165   9.0      SE   136   8.78    261      460.3
   09/16/2018 14:10      91.6      90.2       15     37.6      0.00      0.00      80.1     0.33      1012.2     5.3       S   173   9.2       S   171   8.78    261      471.0
   09/16/2018 14:00      91.6      90.2       16     37.7      0.00      0.00      80.0     0.33      1012.3     5.5       S   187  10.2       S   180   8.78    261      479.5
   09/16/2018 13:50      93.7      90.9       14     37.3      0.00      0.00      80.0     0.33      1012.4     3.4      SW   217   9.5      SW   219   8.79    261      477.4
   09/16/2018 13:40      92.9      91.6       15     38.3      0.00      0.00      80.0     0.33      1012.5     2.4     NNE    15   6.4     NNE    17   8.79    260      480.7
   09/16/2018 13:30      92.2      90.9       17     40.5      0.00      0.00      80.0     0.33      1012.7     3.3       N     5   8.4     NNE    34   8.79    261      488.1
   09/16/2018 13:20      91.3      90.2       16     39.1      0.00      0.00      80.0     0.33      1012.8     3.0     NNE    29   6.4     NNE    19   8.79    261      497.3
   09/16/2018 13:10      91.1      89.2       16     38.4      0.00      0.00      79.9     0.33      1012.9     2.7      NE    40   5.0      NE    37   8.79    261      501.9
   09/16/2018 13:00      90.4      88.9       17     38.3      0.00      0.00      79.9     0.33      1013.1     2.8       N     0   7.0      NE    45   8.80    261      505.1
   09/16/2018 12:50      89.5      88.7       17     38.7      0.00      0.00      79.9     0.33      1013.2     3.1     NNE    21   6.4     NNE    33   8.80    261      505.8
   09/16/2018 12:40      89.8      89.0       17     39.7      0.00      0.00      79.9     0.33      1013.3     2.7      NE    41   4.6      NE    48   8.80    261      506.2
   09/16/2018 12:30      89.2      88.4       18     39.8      0.00      0.00      79.9     0.33      1013.5     1.8      NE    39   4.4      NE    41   8.80    261      506.2
   09/16/2018 12:20      88.7      87.8       18     39.5      0.00      0.00      79.9     0.33      1013.6     2.2     NNE    23   4.4     ENE    58   8.80    261      503.7
   09/16/2018 12:10      88.8      87.8       18     39.1      0.00      0.00      80.0     0.33      1013.6     1.8      NE    53   5.7      NE    37   8.80    261      503.4
   09/16/2018 12:00      88.0      86.0       19     39.8      0.00      0.00      79.9     0.33      1013.7     1.8       E    91   4.6     SSW   199   8.80    261      501.0
   09/16/2018 11:50      87.0      86.2       20     41.2      0.00      0.00      80.0     0.33      1013.8     2.0     ESE   103   4.3      SE   144   8.80    261      497.4
   09/16/2018 11:40      87.0      85.4       22     43.0      0.00      0.00      80.0     0.33      1013.9     2.0     NNW   336   4.7      NW   309   8.80    261      487.7
   09/16/2018 11:30      85.6      84.6       24     44.0      0.00      0.00      80.0     0.33      1014.0     2.1       N     8   4.6     NNE    14   8.80    261      481.0
   09/16/2018 11:20      85.4      84.2       25     44.6      0.00      0.00      80.0     0.33      1014.1     1.9      NE    48   3.6      NE    54   8.80    261      473.7
   09/16/2018 11:10      84.4      83.2       25     44.3      0.00      0.00      80.1     0.33      1014.1     1.7     NNW   341   3.5     ENE    66   8.80    261      464.3
   09/16/2018 11:00      83.7      82.4       25     43.5      0.00      0.00      80.1     0.33      1014.1     2.2     NNE    24   4.4     NNE    28   8.80    261      451.5
   09/16/2018 10:50      82.9      81.8       24     41.7      0.00      0.00      80.1     0.33      1014.1     1.8     NNE    20   3.7       N     0   8.80    261      440.0
   09/16/2018 10:40      82.3      81.1       23     40.2      0.00      0.00      80.2     0.33      1014.2     2.2     NNE    19   4.1      NE    49   8.80    262      427.3
   09/16/2018 10:30      82.3      80.6       22     38.9      0.00      0.00      80.2     0.33      1014.1     2.1      NE    55   4.9       E    84   8.80    262      413.3
   09/16/2018 10:20      81.4      79.3       24     40.0      0.00      0.00      80.3     0.33      1014.2     1.3     NNE    13   3.9      NE    34   8.80    262      396.8
   09/16/2018 10:10      79.7      78.9       24     39.8      0.00      0.00      80.3     0.33      1014.2     1.9     NNE    20   3.9     NNE    28   8.80    262      380.1
   09/16/2018 10:00      79.3      78.0       25     39.5      0.00      0.00      80.3     0.33      1014.2     1.2     NNE    18   3.5       N     3   8.80    262      362.7
   09/16/2018 09:50      78.3      77.1       26     40.4      0.00      0.00      80.4     0.33      1014.1     1.2     NNE    20   3.2       N     0   8.80    262      345.8
   09/16/2018 09:40      77.3      75.6       28     40.8      0.00      0.00      80.4     0.33      1014.1     1.1     NNE    27   2.2      NE    41   8.80    262      329.0
   09/16/2018 09:30      76.6      75.4       28     40.4      0.00      0.00      80.5     0.33      1014.0     1.3     NNE    26   2.5       N     5   8.80    262      310.3
   09/16/2018 09:20      76.6      74.3       29     40.9      0.00      0.00      80.5     0.34      1014.0     0.6      NW   326   2.0       E    90   8.80    262      292.6
   09/16/2018 09:10      74.5      73.3       30     40.7      0.00      0.00      80.6     0.34      1014.0     0.8     WNW   283   1.9      NW   311   8.80    262      270.9
   09/16/2018 09:00      73.9      72.9       31     41.3      0.00      0.00      80.6     0.34      1013.9     0.7     NNW   336   2.1      NW   311   8.80    264      251.5
   09/16/2018 08:50      73.1      71.7       33     41.6      0.00      0.00      80.7     0.34      1013.8     0.3       N   358   1.5     NNE    21   8.80    264      229.8
   09/16/2018 08:40      71.8      70.6       36     42.8      0.00      0.00      80.7     0.34      1013.8     0.3       N     4   1.1       N     2   8.80    264      206.6
   09/16/2018 08:30      70.9      70.2       37     42.9      0.00      0.00      80.8     0.34      1013.7     0.2       N     6   1.3       N     2   8.80    265      181.5
   09/16/2018 08:20      71.5      70.4       35     42.3      0.00      0.00      80.8     0.34      1013.7     0.2       N   357   1.0       N     0   8.80    265      154.6
   09/16/2018 08:10      70.4      67.7       38     42.1      0.00      0.00      80.9     0.34      1013.7     0.0       N     0   0.0       N     8   8.80    265      125.3
   09/16/2018 08:00      67.9      67.0       40     42.1      0.00      0.00      80.9     0.34      1013.6     0.3     ENE    78   1.1       E    84   8.80    265       96.5
   09/16/2018 07:50      67.0      65.3       42     41.9      0.00      0.00      81.0     0.34      1013.6     0.2     NNE    34   0.7      NE    40   8.80    266       69.3
   09/16/2018 07:40      65.5      60.9       47     42.2      0.00      0.00      81.0     0.34      1013.5     0.0       N     0   0.0     SSE   167   8.80    266       41.8
   09/16/2018 07:30      60.9      58.0       52     41.9      0.00      0.00      81.0     0.34      1013.5     0.0       N     0   0.0     SSE   167   8.80    266       13.9
   09/16/2018 07:20      58.2      56.9       55     41.4      0.00      0.00      81.1     0.34      1013.4     0.2     SSE   167   0.6     SSE   168   8.80    266      -11.4
   09/16/2018 07:10      57.0      55.4       56     40.5      0.00      0.00      81.1     0.34      1013.2     0.2     SSE   167   0.8     SSE   167   8.80    266      -28.7
   09/16/2018 07:00      55.5      54.7       56     39.4      0.00      0.00      81.2     0.34      1013.1     0.3     SSE   158   0.9       S   170   8.80    266      -53.7
   09/16/2018 06:50      55.0      54.5       55     38.9      0.00      0.00      81.2     0.34      1012.9     0.3     SSE   166   0.8     SSW   197   8.80    266      -56.5
   09/16/2018 06:40      55.2      54.7       54     38.8      0.00      0.00      81.2     0.34      1012.8     0.3     SSE   160   1.0     SSE   160   8.80    266      -58.8
   09/16/2018 06:30      55.6      54.9       56     39.8      0.00      0.00      81.3     0.34      1012.8     0.0       N     0   0.0     SSE   160   8.80    265      -60.1
   09/16/2018 06:20      55.3      54.7       58     40.3      0.00      0.00      81.3     0.34      1012.8     0.3     SSE   160   0.7     SSE   160   8.80    265      -61.6
   09/16/2018 06:10      55.8      55.0       56     39.9      0.00      0.00      81.4     0.34      1012.7     0.3     SSE   160   0.7     SSE   160   8.80    266      -61.6
   09/16/2018 06:00      56.1      55.5       55     40.0      0.00      0.00      81.4     0.34      1012.6     0.4     SSE   160   0.9     SSE   160   8.80    265      -60.7
   09/16/2018 05:50      55.7      55.3       54     38.9      0.00      0.00      81.4     0.34      1012.5     0.2     SSE   160   0.7     SSE   160   8.80    265      -61.0
   09/16/2018 05:40      55.8      55.2       55     39.5      0.00      0.00      81.5     0.34      1012.3     0.0     SSE   160   0.8     SSE   160   8.80    265      -61.6
   09/16/2018 05:30      56.0      55.4       53     38.9      0.00      0.00      81.5     0.34      1012.3     0.3     SSE   160   0.7     SSE   160   8.81    265      -61.5
   09/16/2018 05:20      56.3      55.6       55     39.8      0.00      0.00      81.5     0.34      1012.2     0.1     SSE   160   0.6     SSE   160   8.81    265      -62.4
   09/16/2018 05:10      57.2      56.1       52     39.3      0.00      0.00      81.5     0.34      1012.1     0.4     SSE   160   0.9     SSE   158   8.81    265      -62.6
   09/16/2018 05:00      57.2      56.7       51     39.0      0.00      0.00      81.6     0.34      1012.1     0.2       S   170   0.7       S   172   8.81    265      -61.9
   09/16/2018 04:50      56.8      56.5       52     39.0      0.00      0.00      81.6     0.34      1012.1     0.0     SSW   193   0.8       S   172   8.81    265      -62.0
   09/16/2018 04:40      57.2      56.6       53     39.7      0.00      0.00      81.7     0.34      1012.1     0.2     SSE   157   0.8     SSE   149   8.81    265      -62.9
   09/16/2018 04:30      57.0      56.3       54     40.0      0.00      0.00      81.7     0.34      1012.1     0.6     SSE   158   1.3      SE   145   8.81    265      -62.7
   09/16/2018 04:20      57.3      56.3       53     39.9      0.00      0.00      81.8     0.34      1012.1     0.3     SSE   168   1.2       S   175   8.81    265      -63.6
   09/16/2018 04:10      57.9      57.0       53     40.3      0.00      0.00      81.8     0.34      1012.0     0.4     SSE   155   1.1      SE   146   8.81    265      -64.0
   09/16/2018 04:00      57.9      57.3       52     39.9      0.00      0.00      81.8     0.34      1012.0     0.0       S   188   0.9       S   191   8.81    265      -64.4
   09/16/2018 03:50      58.0      57.4       50     39.4      0.00      0.00      81.9     0.34      1012.0     0.4       S   169   0.9     SSE   168   8.81    265      -64.9
   09/16/2018 03:40      58.1      57.5       51     39.8      0.00      0.00      81.9     0.34      1012.0     0.1     SSE   167   0.6     SSE   168   8.81    265      -64.9
   09/16/2018 03:30      58.6      57.7       52     40.5      0.00      0.00      81.9     0.34      1012.0     0.1     SSE   167   0.8     SSE   167   8.81    265      -66.3
   09/16/2018 03:20      58.6      58.1       50     40.0      0.00      0.00      82.0     0.34      1012.0     0.4     SSE   164   1.0     SSE   167   8.81    264      -67.0
   09/16/2018 03:10      58.8      58.3       50     39.7      0.00      0.00      82.0     0.34      1012.0     0.1       S   174   1.0       S   174   8.82    264      -67.1
   09/16/2018 03:00      58.8      58.4       49     39.4      0.00      0.00      82.0     0.34      1012.0     0.3     SSE   153   0.9      SE   135   8.82    264      -67.8
   09/16/2018 02:50      58.9      58.4       50     40.0      0.00      0.00      82.1     0.34      1012.0     0.5     SSE   153   1.1     SSE   149   8.82    264      -67.5
   09/16/2018 02:40      59.2      58.6       49     39.8      0.00      0.00      82.1     0.34      1012.0     1.2     SSE   157   1.8      SE   143   8.82    264      -68.2
   09/16/2018 02:30      59.4      58.9       48     39.5      0.00      0.00      82.1     0.34      1011.9     0.7     SSE   154   1.4      SE   141   8.82    264      -68.2
   09/16/2018 02:20      59.6      59.0       48     39.6      0.00      0.00      82.1     0.34      1011.9     0.5     SSE   155   1.2       S   169   8.82    264      -68.7
   09/16/2018 02:10      60.1      59.4       47     39.5      0.00      0.00      82.1     0.34      1011.8     0.9     SSE   155   1.5      SE   146   8.82    264      -69.0
   09/16/2018 02:00      60.1      59.2       46     39.1      0.00      0.00      82.2     0.34      1011.9     0.5     SSE   163   1.3       S   176   8.82    264      -68.8
   09/16/2018 01:50      60.2      59.4       47     39.2      0.00      0.00      82.2     0.34      1011.9     0.6     SSE   163   1.2      SE   145   8.82    264      -69.8
   09/16/2018 01:40      60.5      59.9       45     38.5      0.00      0.00      82.2     0.34      1011.8     0.8       S   176   1.5     SSW   207   8.82    264      -68.7
   09/16/2018 01:30      61.3      60.2       46     39.7      0.00      0.00      82.2     0.34      1011.8     0.3     SSE   159   1.3      SE   145   8.83    264      -70.4
   09/16/2018 01:20      61.8      61.0       44     39.2      0.00      0.00      82.3     0.34      1011.8     0.5     SSE   155   1.1       S   175   8.83    264      -70.4
   09/16/2018 01:10      61.8      61.4       44     39.3      0.00      0.00      82.3     0.34      1011.9     0.5     SSE   163   1.0     SSE   164   8.83    264      -70.6
   09/16/2018 01:00      62.2      61.3       43     38.8      0.00      0.00      82.3     0.34      1011.8     0.5     SSE   164   1.2     SSE   163   8.83    264      -70.9
   09/16/2018 00:50      62.4      61.9       42     38.8      0.00      0.00      82.4     0.34      1011.7     0.3       S   173   1.3       S   180   8.83    264      -70.6
   09/16/2018 00:40      62.5      61.7       42     38.5      0.00      0.00      82.4     0.34      1011.7     0.4     SSW   200   1.3     SSW   192   8.83    264      -70.7
   09/16/2018 00:30      63.3      61.9       42     39.0      0.00      0.00      82.4     0.34      1011.7     0.2      SE   130   1.0       S   169   8.83    264      -72.1
   09/16/2018 00:20      63.5      63.0       39     38.2      0.00      0.00      82.4     0.34      1011.7     0.2      SE   144   1.3      SE   131   8.83    264      -71.7
   09/16/2018 00:10      63.5      62.5       41     38.6      0.00      0.00      82.4     0.34      1011.7     0.5       S   169   1.5       S   184   8.84    264      -72.3
   09/16/2018 00:00      63.3      62.3       42     38.9      0.00      0.00      82.4     0.34      1011.6     0.7     SSE   157   2.1      SW   222   8.84    264      -74.0
   09/15/2018 23:50      63.6      63.0       41     39.1      0.00      0.00      82.4     0.34      1011.6     0.3     SSE   149   1.1       S   184   8.84    264      -74.8
   09/15/2018 23:40      63.7      63.1       41     39.4      0.00      0.00      82.4     0.34      1011.5     0.6     SSE   159   1.4     SSE   162   8.84    264      -74.8
   09/15/2018 23:30      64.7      63.6       39     38.6      0.00      0.00      82.4     0.34      1011.5     0.4     SSE   150   1.2       S   178   8.84    263      -76.4
   09/15/2018 23:20      65.7      64.5       36     37.2      0.00      0.00      82.4     0.34      1011.4     0.7       S   169   2.1      SW   220   8.84    263      -76.0
   09/15/2018 23:10      65.6      65.2       37     38.3      0.00      0.00      82.4     0.34      1011.5     1.3     SSW   197   2.2     SSW   201   8.84    263      -75.3
   09/15/2018 23:00      66.6      65.4       37     38.9      0.00      0.00      82.4     0.34      1011.5     0.4       S   171   1.1      SE   137   8.84    263      -77.7
   09/15/2018 22:50      67.0      66.3       36     38.6      0.00      0.00      82.5     0.34      1011.5     0.6     SSE   159   1.2     SSE   150   8.85    263      -78.3
   09/15/2018 22:40      67.7      66.7       35     38.8      0.00      0.00      82.4     0.34      1011.5     0.6       S   185   1.3       S   185   8.85    263      -79.5
   09/15/2018 22:30      69.6      67.7       34     38.9      0.00      0.00      82.5     0.34      1011.5     0.0       S   174   0.6       S   174   8.85    263      -82.4
   09/15/2018 22:20      71.0      69.3       32     38.7      0.00      0.00      82.5     0.34      1011.5     0.6      NE    52   2.3      NE    43   8.85    263      -85.6
   09/15/2018 22:10      71.6      70.5       30     38.4      0.00      0.00      82.4     0.34      1011.3     0.4      SE   138   1.9      SW   217   8.85    263      -87.2
   09/15/2018 22:00      71.8      71.3       30     38.5      0.00      0.00      82.5     0.34      1011.3     1.6     SSW   198   4.2       S   189   8.85    263      -88.3
   09/15/2018 21:50      72.0      71.5       31     39.4      0.00      0.00      82.4     0.34      1011.3     3.0     SSW   209   6.4     WSW   242   8.86    263      -88.6
   09/15/2018 21:40      72.3      71.6       32     40.3      0.00      0.00      82.4     0.34      1011.3     4.5     SSW   212   6.6      SW   236   8.86    263      -88.6
   09/15/2018 21:30      72.4      71.8       33     41.3      0.00      0.00      82.4     0.34      1011.3     4.4     SSW   212   6.6     SSW   197   8.86    263      -88.8
   09/15/2018 21:20      72.4      71.9       34     42.3      0.00      0.00      82.5     0.34      1011.2     4.7     SSW   209   6.9      SW   217   8.87    263      -89.0
   09/15/2018 21:10      72.6      72.2       35     43.3      0.00      0.00      82.4     0.34      1011.1     5.7     SSW   209   9.2      SW   216   8.87    263      -89.3
   09/15/2018 21:00      73.0      72.3       36     44.0      0.00      0.00      82.4     0.34      1011.1     4.7     SSW   209   7.0     SSW   196   8.87    263      -90.1
   09/15/2018 20:50      73.5      72.7       35     43.8      0.00      0.00      82.4     0.34      1011.0     4.5     SSW   204   8.3     WSW   242   8.88    263      -90.9
   09/15/2018 20:40      73.9      73.1       34     43.4      0.00      0.00      82.4     0.34      1010.9     4.7     SSW   202   7.0      SW   226   8.88    263      -91.3
   09/15/2018 20:30      74.4      73.5       33     43.2      0.00      0.00      82.4     0.34      1010.8     4.6     SSW   201   7.3      SW   215   8.88    263      -91.8
   09/15/2018 20:20      74.9      74.2       32     42.5      0.00      0.00      82.4     0.34      1010.7     3.2       S   189   5.3       S   181   8.89    263      -92.8
   09/15/2018 20:10      75.6      74.6       31     42.1      0.00      0.00      82.3     0.34      1010.6     3.3     SSW   200   6.3     WSW   246   8.89    262      -93.2
   09/15/2018 20:00      76.2      75.3       30     42.0      0.00      0.00      82.3     0.34      1010.5     2.4     SSW   204   4.5      SW   219   8.89    262      -93.6
   09/15/2018 19:50      77.3      75.9       29     41.9      0.00      0.00      82.3     0.34      1010.4     2.4     SSW   210   4.0     SSW   197   8.90    262      -94.2
   09/15/2018 19:40      77.7      76.8       28     41.7      0.00      0.00      82.2     0.34      1010.3     2.8      SW   230   5.0      SW   232   8.90    262      -94.4
   09/15/2018 19:30      78.1      77.2       25     39.4      0.00      0.00      82.2     0.34      1010.2     1.1     WSW   255   4.0      NW   305   8.90    262      -94.8
   09/15/2018 19:20      79.1      77.8       24     39.1      0.00      0.00      82.2     0.34      1010.1     1.1     WNW   282   2.7     WNW   289   8.90    262      -96.5
   09/15/2018 19:10      79.8      78.8       24     39.0      0.00      0.00      82.1     0.34      1010.0     2.5      NW   318   5.6      NW   323   8.91    262      -96.6
   09/15/2018 19:00      80.8      79.5       23     38.8      0.00      0.00      82.1     0.34      1009.9     2.5      NW   310   5.2     NNW   337   8.91    262      -95.0
   09/15/2018 18:50      81.8      80.5       22     38.8      0.00      0.00      82.1     0.34      1009.8     2.7     WNW   302   5.4      NW   311   8.92    261      -92.5
   09/15/2018 18:40      83.7      81.3       21     39.0      0.00      0.00      82.0     0.34      1009.8     3.8     WNW   302   6.7      NW   324   8.92    261      -90.4
   09/15/2018 18:30      84.4      83.4       21     39.6      0.00      0.00      82.0     0.34      1009.8     2.9     WNW   287   5.8       W   274   8.92    261      -69.8
   09/15/2018 18:20      85.2      84.0       20     38.5      0.00      0.00      81.9     0.34      1009.8     3.8     WNW   285   6.6     WSW   254   8.93    261      -48.0
   09/15/2018 18:10      85.5      84.9       19     37.7      0.00      0.00      82.0     0.34      1009.7     2.8      NW   308   5.8     WNW   300   8.93    261      -29.1
   09/15/2018 18:00      86.0      84.9       20     39.2      0.00      0.00      81.8     0.34      1009.7     3.4      NW   310   8.1     WNW   296   8.94    261       -6.3
   09/15/2018 17:50      87.1      85.7       20     40.2      0.00      0.00      81.8     0.34      1009.7     4.0      NW   307   7.5     WNW   294   8.94    261       17.3
   09/15/2018 17:40      87.6      86.5       21     41.8      0.00      0.00      81.8     0.34      1009.7     3.8     WNW   288   8.8     WNW   301   8.95    261       43.1
   09/15/2018 17:30      88.3      87.1       20     42.1      0.00      0.00      81.7     0.34      1009.7     3.7      NW   307   9.8     WNW   290   8.95    261       69.9
   09/15/2018 17:20      89.3      87.6       20     42.4      0.00      0.00      81.7     0.34      1009.7     3.9     WNW   296   7.8      SW   235   8.96    261       98.7
   09/15/2018 17:10      89.2      87.9       17     38.3      0.00      0.00      81.6     0.34      1009.7     3.0     WSW   245   6.0       S   185   8.96    261      126.4
   09/15/2018 17:00      89.4      88.5       16     37.1      0.00      0.00      81.6     0.34      1009.6     3.5     SSE   163   8.3      SE   141   8.96    261      152.6
   09/15/2018 16:50      89.2      88.6       16     36.5      0.00      0.00      81.5     0.34      1009.7     3.5       S   178   6.6     SSE   164   8.97    261      180.4
   09/15/2018 16:40      89.2      88.4       16     36.6      0.00      0.00      81.5     0.34      1009.7     4.5     SSE   159   8.0     SSW   203   8.98    261      209.2
   09/15/2018 16:30      89.0      88.1       16     36.5      0.00      0.00      81.4     0.34      1009.7     4.4     SSE   156   7.4      SE   127   8.98    261      234.2
   09/15/2018 16:20      89.5      88.2       16     36.6      0.00      0.00      81.3     0.34      1009.7     5.6      SE   138   9.6      SE   141   8.99    261      253.6
   09/15/2018 16:10      89.2      88.3       16     37.3      0.00      0.00      81.3     0.34      1009.8     4.6      SE   141   9.3     ESE   123   8.99    261      265.0
   09/15/2018 16:00      89.6      88.4       16     37.5      0.00      0.00      81.2     0.34      1009.9     4.7       S   176   8.6       S   180   9.00    261      289.1
   09/15/2018 15:50      89.4      88.8       16     37.4      0.00      0.00      81.2     0.34      1009.9     4.5     SSE   165   9.8     SSW   201   9.00    261      316.9
   09/15/2018 15:40      90.4      88.8       16     37.3      0.00      0.00      81.1     0.34      1009.9     6.0     SSE   150   9.8      SE   140   9.01    261      342.3
   09/15/2018 15:30      90.5      89.7       16     37.6      0.00      0.00      81.1     0.34      1009.9     4.6     SSE   156   8.9      SE   133   9.01    261      358.6
   09/15/2018 15:20      90.9      89.7       16     38.0      0.00      0.00      81.0     0.34      1009.9     4.2     SSE   152   8.7      SE   128   9.02    261      375.4
   09/15/2018 15:10      90.2      89.6       17     38.6      0.00      0.00      81.0     0.34      1010.0     5.3       S   179   8.1      SW   223   9.02    261      393.0
   09/15/2018 15:00      90.9      89.8       16     38.7      0.00      0.00      80.9     0.34      1010.0     4.6     SSE   164   8.3      SE   140   9.03    261      406.2
   09/15/2018 14:50      90.3      89.4       16     37.5      0.00      0.00      80.8     0.34      1010.0     4.0     SSE   158   6.8      SE   139   9.03    261      421.3
   09/15/2018 14:40      91.2      89.7       15     36.4      0.00      0.00      80.8     0.34      1010.0     4.8       S   189   9.4     SSW   201   9.03    261      433.1
   09/15/2018 14:30      92.2      90.8       14     35.3      0.00      0.00      80.8     0.34      1010.1     3.7     ESE   119   6.7     SSW   192   9.04    261      443.0
   09/15/2018 14:20      92.1      90.6       14     36.0      0.00      0.00      80.8     0.34      1010.2     3.3     ENE    66   9.5     ESE   121   9.04    261      455.7
   09/15/2018 14:10      90.6      89.0       16     36.8      0.00      0.00      80.7     0.34      1010.3     3.6     SSW   199   7.1      SW   216   9.04    261      468.4
   09/15/2018 14:00      91.6      89.5       16     38.1      0.00      0.00      80.7     0.34      1010.4     3.9      SE   125   7.8     ESE   119   9.05    261      476.7
   09/15/2018 13:50      91.4      89.3       17     39.4      0.00      0.00      80.7     0.34      1010.5     3.0      SE   142   7.4     SSE   152   9.05    261      483.6
   09/15/2018 13:40      91.4      89.8       16     39.0      0.00      0.00      80.6     0.33      1010.6     2.9       E    81   7.5     SSE   167   9.05    261      485.7
   09/15/2018 13:30      91.4      90.6       16     38.8      0.00      0.00      80.6     0.33      1010.7     2.4      NE    38   5.2     NNE    22   9.06    261      489.6
   09/15/2018 13:20      92.0      89.8       17     39.6      0.00      0.00      80.5     0.33      1010.8     2.0     ENE    65   4.4      NE    53   9.06    261      496.9
   09/15/2018 13:10      89.9      88.9       17     38.1      0.00      0.00      80.5     0.33      1010.9     2.0       E    94   4.0     NNE    14   9.06    261      501.5
   09/15/2018 13:00      89.8      88.6       18     40.4      0.00      0.00      80.5     0.33      1011.1     2.6       S   177   5.3      SW   228   9.06    261      507.9
   09/15/2018 12:50      90.0      88.0       20     42.6      0.00      0.00      80.5     0.33      1011.1     2.1     ESE   122   8.7      SE   135   9.06    261      509.3
   09/15/2018 12:40      89.7      88.4       21     44.7      0.00      0.00      80.5     0.33      1011.2     1.5     ENE    72   3.6      NE    53   9.06    262      503.7
   09/15/2018 12:30      88.4      87.6       23     45.1      0.00      0.00      80.5     0.33      1011.3     1.9     NNW   333   4.0      SW   229   9.06    262      506.0
   09/15/2018 12:20      88.1      86.2       25     46.9      0.00      0.00      80.5     0.33      1011.4     2.1      NE    53   4.7     ENE    73   9.06    262      508.3
   09/15/2018 12:10      87.7      86.5       25     47.2      0.00      0.00      80.5     0.33      1011.5     2.4     ENE    66   5.2      NE    54   9.06    262      502.0
   09/15/2018 12:00      87.6      85.0       26     47.5      0.00      0.00      80.5     0.33      1011.6     1.2     NNW   341   3.7       N   355   9.06    262      498.3
   09/15/2018 11:50      85.6      84.7       27     47.5      0.00      0.00      80.6     0.33      1011.6     2.2     NNE    14   4.5       N     0   9.06    262      496.9
   09/15/2018 11:40      85.2      83.9       28     47.6      0.00      0.00      80.6     0.33      1011.7     1.8       E    82   4.0      NE    52   9.06    262      491.2
   09/15/2018 11:30      85.0      83.3       29     48.3      0.00      0.00      80.6     0.33      1011.8     1.8      NW   311   4.3       N   349   9.06    262      481.6
   09/15/2018 11:20      83.5      82.3       30     48.1      0.00      0.00      80.6     0.33      1012.0     1.5       W   279   3.0     WNW   294   9.06    262      474.3
   09/15/2018 11:10      83.4      82.4       30     48.1      0.00      0.00      80.6     0.33      1012.1     1.7     NNW   332   5.0     NNW   332   9.06    262      461.6
   09/15/2018 11:00      83.4      81.1       31     48.3      0.00      0.00      80.6     0.34      1012.2     1.2     NNE    22   3.7     NNE    33   9.06    262      453.1
   09/15/2018 10:50      81.3      79.9       32     47.9      0.00      0.00      80.7     0.34      1012.2     1.0     WNW   291   2.9     NNE    15   9.06    262      440.1
   09/15/2018 10:40      80.2      79.6       33     48.1      0.00      0.00      80.7     0.34      1012.3     1.7     ENE    69   3.8     ENE    58   9.06    262      426.9
   09/15/2018 10:30      80.6      78.8       33     48.1      0.00      0.00      80.8     0.34      1012.3     1.3     NNW   344   4.4       N     0   9.06    263      412.3
   09/15/2018 10:20      79.4      77.9       34     48.0      0.00      0.00      80.8     0.34      1012.3     1.8       E    90   3.9      SE   142   9.06    263      396.1
   09/15/2018 10:10      78.4      77.8       35     48.2      0.00      0.00      80.9     0.34      1012.4     1.9     ENE    61   4.0     NNE    33   9.06    263      378.8
   09/15/2018 10:00      78.1      76.7       35     47.5      0.00      0.00      81.0     0.34      1012.4     1.7     NNE    22   3.1     NNE    12   9.06    263      361.6
   09/15/2018 09:50      77.1      75.7       37     48.5      0.00      0.00      81.0     0.34      1012.5     1.6     NNE    19   3.8      NE    40   9.06    263      344.9
   09/15/2018 09:40      75.9      75.1       39     49.1      0.00      0.00      81.0     0.34      1012.5     1.3     NNW   332   2.6       N     8   9.06    263      326.5
   09/15/2018 09:30      75.6      74.5       41     49.8      0.00      0.00      81.0     0.34      1012.5     1.4       N    10   3.4     NNE    11   9.06    263      306.9
   09/15/2018 09:20      75.1      74.2       43     50.7      0.00      0.00      81.1     0.34      1012.4     1.5     NNE    32   3.1       N     4   9.06    263      288.1
   09/15/2018 09:10      74.3      72.8       46     51.1      0.00      0.00      81.1     0.34      1012.5     1.3     NNE    33   2.8     NNE    26   9.06    264      266.2
   09/15/2018 09:00      73.4      72.4       46     50.9      0.00      0.00      81.1     0.34      1012.4     1.3     NNE    29   3.3     ENE    66   9.06    264      245.6
   09/15/2018 08:50      73.2      72.4       46     50.6      0.00      0.00      81.2     0.34      1012.4     1.2     NNE    16   3.2      NE    39   9.06    265      224.8
   09/15/2018 08:40      73.9      72.4       45     50.4      0.00      0.00      81.2     0.34      1012.4     1.2     NNE    13   2.3       N     9   9.06    266      202.2
   09/15/2018 08:30      73.7      71.8       46     50.4      0.00      0.00      81.2     0.34      1012.4     0.4      SE   139   1.8     ESE   115   9.06    266      177.5
   09/15/2018 08:20      71.9      71.1       47     50.0      0.00      0.00      81.3     0.34      1012.5     0.4     WNW   295   2.1     WSW   249   9.06    266      150.2
   09/15/2018 08:10      71.3      69.9       46     48.8      0.00      0.00      81.4     0.34      1012.6     0.2       N   353   1.5       N     4   9.06    266      122.9
   09/15/2018 08:00      70.1      67.3       48     47.9      0.00      0.00      81.5     0.34      1012.5     0.0       E    80   0.7     ENE    62   9.06    266       96.3
   09/15/2018 07:50      67.5      65.9       51     47.6      0.00      0.00      81.5     0.34      1012.3     0.3       E    81   1.3     ENE    61   9.06    266       69.3
   09/15/2018 07:40      66.0      64.0       53     47.2      0.00      0.00      81.5     0.34      1012.2     0.4     NNE    28   1.1       N     8   9.06    266       42.5
   09/15/2018 07:30      64.3      61.7       57     47.5      0.00      0.00      81.5     0.34      1012.0     0.1     ESE   110   0.8     ESE   109   9.06    267       15.0
   09/15/2018 07:20      61.7      59.1       63     47.5      0.00      0.00      81.6     0.34      1011.9     0.2      SE   130   1.0      SE   135   9.06    267      -10.3
   09/15/2018 07:10      59.3      58.0       65     47.1      0.00      0.00      81.6     0.34      1011.8     0.4      SE   140   1.1      SE   139   9.06    267      -30.3
   09/15/2018 07:00      58.3      56.7       67     46.6      0.00      0.00      81.6     0.34      1011.6     0.3       S   178   1.2      SE   139   9.06    267      -49.6
   09/15/2018 06:50      57.4      57.0       68     46.6      0.00      0.00      81.7     0.34      1011.6     1.2     SSE   151   2.1      SE   140   9.07    266      -57.5
   09/15/2018 06:40      57.5      56.9       65     45.7      0.00      0.00      81.7     0.34      1011.5     0.7     SSE   153   1.4     SSE   152   9.07    266      -59.8
   09/15/2018 06:30      57.2      56.7       64     44.9      0.00      0.00      81.7     0.34      1011.4     0.2     SSE   153   0.9     SSE   153   9.07    266      -60.6
   09/15/2018 06:20      57.8      57.0       66     45.8      0.00      0.00      81.8     0.34      1011.3     0.0     SSE   153   0.5     SSE   153   9.07    266      -62.3
   09/15/2018 06:10      57.7      57.0       64     45.2      0.00      0.00      81.8     0.34      1011.2     0.2     SSE   153   0.9     SSE   153   9.07    266      -62.0
   09/15/2018 06:00      57.7      57.1       63     44.8      0.00      0.00      81.8     0.34      1011.2     0.4     SSE   153   0.9     SSE   153   9.07    266      -63.3
   09/15/2018 05:50      57.8      57.1       61     43.9      0.00      0.00      81.9     0.34      1011.2     0.3     SSE   153   0.8     SSE   153   9.07    266      -63.0
   09/15/2018 05:40      58.0      57.5       64     45.4      0.00      0.00      81.9     0.34      1011.2     0.0     SSE   153   0.2     SSE   153   9.07    266      -63.7
   09/15/2018 05:30      58.7      57.6       62     45.0      0.00      0.00      81.9     0.34      1011.1     0.1     SSE   159   1.0     SSE   156   9.07    266      -64.1
   09/15/2018 05:20      58.8      58.3       61     45.1      0.00      0.00      82.0     0.34      1011.1     0.6     SSE   168   1.1     SSE   155   9.07    266      -63.3
   09/15/2018 05:10      59.5      58.4       57     43.4      0.00      0.00      82.0     0.34      1011.0     0.5      SE   124   1.3      SE   141   9.07    265      -64.4
   09/15/2018 05:00      59.5      58.6       56     43.2      0.00      0.00      82.1     0.34      1010.9     0.6     SSW   203   2.0     SSW   211   9.07    265      -62.6
   09/15/2018 04:50      59.4      58.7       57     43.8      0.00      0.00      82.1     0.34      1010.9     0.0       N     0   0.0       E    80   9.07    265      -63.1
   09/15/2018 04:40      59.5      58.9       56     43.3      0.00      0.00      82.1     0.34      1010.7     0.0       E    79   0.4       E    79   9.07    265      -63.5
   09/15/2018 04:30      59.7      59.1       55     43.2      0.00      0.00      82.2     0.34      1010.8     0.6     SSE   146   1.2     SSE   148   9.07    265      -64.1
   09/15/2018 04:20      60.3      59.6       53     42.8      0.00      0.00      82.2     0.34      1010.7     0.5     SSE   151   1.1      SE   145   9.07    265      -63.8
   09/15/2018 04:10      60.3      59.8       52     42.6      0.00      0.00      82.2     0.34      1010.6     1.0     SSE   152   2.0      SE   140   9.08    264      -64.5
   09/15/2018 04:00      60.1      59.5       53     42.8      0.00      0.00      82.2     0.34      1010.6     0.6     SSE   163   1.9      SE   143   9.08    264      -65.0
   09/15/2018 03:50      60.6      59.6       53     42.9      0.00      0.00      82.3     0.34      1010.6     0.8     SSE   167   1.4     SSE   149   9.08    264      -64.4
   09/15/2018 03:40      60.8      60.2       52     42.9      0.00      0.00      82.3     0.34      1010.6     0.8     SSE   153   1.7      SE   140   9.08    264      -64.2
   09/15/2018 03:30      61.2      60.5       51     42.8      0.00      0.00      82.3     0.34      1010.6     0.6     SSE   155   1.4     SSE   147   9.08    264      -64.5
   09/15/2018 03:20      61.5      61.0       49     41.7      0.00      0.00      82.4     0.34      1010.6     0.6     SSE   159   1.4     SSE   157   9.08    264      -65.0
   09/15/2018 03:10      61.6      61.2       49     42.1      0.00      0.00      82.4     0.34      1010.5     0.5     SSE   167   1.0     SSE   167   9.08    264      -65.2
   09/15/2018 03:00      61.8      61.1       50     42.7      0.00      0.00      82.4     0.34      1010.6     0.3     SSE   167   1.0     SSE   167   9.08    264      -65.4
   09/15/2018 02:50      62.0      61.6       48     42.0      0.00      0.00      82.4     0.34      1010.6     0.0     SSE   167   0.4     SSE   167   9.08    264      -66.0
   09/15/2018 02:40      62.2      61.6       50     42.7      0.00      0.00      82.4     0.34      1010.5     0.0       N     0   0.0     SSE   167   9.08    264      -66.6
   09/15/2018 02:30      62.3      61.7       50     43.3      0.00      0.00      82.5     0.34      1010.4     0.5     SSE   158   1.0     SSE   148   9.09    264      -67.7
   09/15/2018 02:20      62.3      61.9       51     43.4      0.00      0.00      82.5     0.34      1010.4     0.7     SSE   152   1.4      SE   142   9.09    264      -68.2
   09/15/2018 02:10      62.6      61.8       48     42.3      0.00      0.00      82.5     0.34      1010.5     0.4     SSE   162   1.2     SSE   147   9.09    264      -67.3
   09/15/2018 02:00      62.7      62.3       47     41.7      0.00      0.00      82.6     0.34      1010.4     0.7      SE   146   1.6      SE   137   9.09    264      -68.6
   09/15/2018 01:50      63.8      62.5       44     40.5      0.00      0.00      82.6     0.34      1010.4     0.4     SSE   151   1.2     SSE   150   9.09    264      -68.2
   09/15/2018 01:40      64.1      63.5       40     38.8      0.00      0.00      82.6     0.34      1010.3     0.5       S   172   1.4     SSE   152   9.09    264      -67.3
   09/15/2018 01:30      64.1      63.8       38     37.7      0.00      0.00      82.6     0.34      1010.3     0.1       S   177   0.7       S   177   9.09    263      -67.4
   09/15/2018 01:20      64.1      63.8       38     37.7      0.00      0.00      82.6     0.34      1010.3     0.0       S   177   0.4       S   177   9.09    263      -67.5
   09/15/2018 01:10      64.6      63.8       38     38.1      0.00      0.00      82.6     0.34      1010.3     0.0       S   173   0.7       S   181   9.10    263      -68.3
   09/15/2018 01:00      64.9      64.3       38     38.1      0.00      0.00      82.7     0.34      1010.3     0.6     SSE   159   1.4      SE   140   9.10    263      -69.9
   09/15/2018 00:50      65.4      64.7       37     38.1      0.00      0.00      82.7     0.34      1010.3     1.2     SSE   151   2.6      SE   138   9.10    263      -70.0
   09/15/2018 00:40      65.3      64.7       37     38.1      0.00      0.00      82.6     0.34      1010.3     1.7      SE   145   2.3      SE   145   9.10    263      -70.3
   09/15/2018 00:30      65.8      65.0       36     37.9      0.00      0.00      82.7     0.34      1010.2     0.9     SSE   166   1.8      SE   145   9.10    263      -70.8
   09/15/2018 00:20      65.9      65.3       35     37.0      0.00      0.00      82.7     0.34      1010.2     1.0     SSE   158   1.6      SE   140   9.10    263      -70.7
   09/15/2018 00:10      66.0      65.6       34     36.5      0.00      0.00      82.7     0.34      1010.1     0.8       S   176   1.2       S   178   9.10    263      -70.3
   09/15/2018 00:00      66.6      65.7       34     37.0      0.00      0.00      82.7     0.34      1010.0     0.4       S   173   1.1     SSE   169   9.10    263      -70.2
   09/14/2018 23:50      66.5      66.1       34     37.3      0.00      0.00      82.8     0.34      1010.1     0.0     SSW   194   0.8     SSW   196   9.11    263      -70.8
   09/14/2018 23:40      67.5      66.3       34     37.4      0.00      0.00      82.8     0.34      1010.0     0.3     SSE   148   1.2     SSE   152   9.11    263      -72.8
   09/14/2018 23:30      68.3      67.3       33     37.4      0.00      0.00      82.7     0.34      1009.9     0.8     SSE   157   1.4      SE   142   9.11    263      -72.8
   09/14/2018 23:20      68.6      68.0       31     36.9      0.00      0.00      82.8     0.34      1010.0     0.7       S   182   1.8      SW   216   9.11    263      -72.3
   09/14/2018 23:10      68.6      67.9       31     36.4      0.00      0.00      82.8     0.34      1010.0     1.4       S   188   2.2     SSW   196   9.11    262      -73.3
   09/14/2018 23:00      69.1      68.3       31     36.8      0.00      0.00      82.8     0.34      1010.1     0.3       S   184   1.2       S   184   9.12    262      -74.1
   09/14/2018 22:50      70.6      68.7       30     36.3      0.00      0.00      82.8     0.34      1010.0     0.2     SSW   207   1.7      SW   219   9.12    262      -76.1
   09/14/2018 22:40      72.3      70.2       27     35.7      0.00      0.00      82.8     0.34      1010.0     0.8     SSE   168   2.2     SSW   194   9.12    262      -76.5
   09/14/2018 22:30      72.3      71.2       26     35.4      0.00      0.00      82.7     0.34      1010.0     2.2     SSW   208   2.8     SSW   207   9.12    262      -75.6
   09/14/2018 22:20      72.1      71.0       27     35.5      0.00      0.00      82.7     0.34      1009.9     0.5     SSW   196   1.9     SSW   214   9.12    262      -77.0
   09/14/2018 22:10      73.7      71.9       25     35.2      0.00      0.00      82.7     0.34      1009.9     0.0     NNE    15   0.5       N   352   9.12    262      -79.6
   09/14/2018 22:00      75.3      73.2       24     35.0      0.00      0.00      82.7     0.34      1009.8     0.5     ENE    66   2.2      NE    52   9.13    262      -82.2
   09/14/2018 21:50      75.8      74.9       22     34.2      0.00      0.00      82.8     0.34      1009.7     0.5     ESE   108   1.7     SSE   158   9.13    262      -84.2
   09/14/2018 21:40      75.9      75.6       22     34.1      0.00      0.00      82.7     0.34      1009.7     2.5     SSW   202   4.6      SW   228   9.13    262      -84.7
   09/14/2018 21:30      75.8      75.2       22     34.1      0.00      0.00      82.7     0.34      1009.7     3.3     SSW   202   4.6       S   189   9.13    262      -83.8
   09/14/2018 21:20      76.6      75.2       22     34.5      0.00      0.00      82.7     0.34      1009.7     2.3       S   179   5.5     SSW   197   9.14    262      -84.3
   09/14/2018 21:10      77.5      76.3       22     34.5      0.00      0.00      82.7     0.34      1009.7     2.7       S   190   4.1     SSW   197   9.14    262      -86.3
   09/14/2018 21:00      78.1      77.1       21     34.3      0.00      0.00      82.7     0.34      1009.6     3.6     SSW   201   5.5     SSW   206   9.14    262      -87.8
   09/14/2018 20:50      78.4      77.7       20     33.9      0.00      0.00      82.6     0.34      1009.6     3.7     SSW   205   5.3      SW   231   9.14    262      -88.4
   09/14/2018 20:40      79.0      78.2       19     33.3      0.00      0.00      82.6     0.34      1009.4     3.3     SSW   200   5.6      SW   216   9.15    262      -88.6
   09/14/2018 20:30      79.5      78.8       19     32.7      0.00      0.00      82.6     0.34      1009.3     3.2     SSW   202   4.8     SSW   194   9.15    262      -89.3
   09/14/2018 20:20      80.1      79.1       19     33.2      0.00      0.00      82.6     0.34      1009.1     2.5     SSW   195   5.7     SSW   196   9.16    262      -89.5
   09/14/2018 20:10      80.6      79.7       19     34.2      0.00      0.00      82.5     0.34      1009.0     2.9     SSW   197   5.0     SSW   209   9.16    262      -90.2
   09/14/2018 20:00      80.8      80.2       19     34.4      0.00      0.00      82.5     0.34      1008.9     2.6     SSW   209   5.5     SSW   209   9.16    262      -90.7
   09/14/2018 19:50      81.7      80.4       18     33.8      0.00      0.00      82.5     0.34      1008.8     0.9       S   181   3.8     SSW   206   9.17    261      -91.2
   09/14/2018 19:40      82.5      81.4       18     34.0      0.00      0.00      82.5     0.34      1008.8     1.2     SSW   202   4.3      SW   230   9.17    261      -93.2
   09/14/2018 19:30      83.3      82.3       17     34.0      0.00      0.00      82.4     0.34      1008.7     2.9     WSW   239   5.7     WSW   245   9.17    261      -94.5
   09/14/2018 19:20      84.0      82.9       18     35.0      0.00      0.00      82.4     0.34      1008.8     1.5     WSW   252   4.9      SW   223   9.18    261      -94.9
   09/14/2018 19:10      84.8      83.8       16     32.4      0.00      0.00      82.3     0.34      1008.7     1.4       W   270   3.6     WSW   241   9.18    261      -94.2
   09/14/2018 19:00      85.4      84.6       14     30.9      0.00      0.00      82.3     0.34      1008.6     1.4     WNW   298   3.3       W   272   9.18    261      -92.6
   09/14/2018 18:50      86.0      85.0       14     31.1      0.00      0.00      82.3     0.34      1008.6     2.8     WNW   290   5.8     NNW   340   9.19    261      -90.8
   09/14/2018 18:40      87.5      85.6       15     32.6      0.00      0.00      82.2     0.34      1008.6     3.0     WNW   298   6.2     WNW   283   9.20    261      -88.7
   09/14/2018 18:30      88.9      87.1       14     33.3      0.00      0.00      82.2     0.34      1008.5     3.0      NW   304   5.7      NW   317   9.20    261      -65.2
   09/14/2018 18:20      89.2      88.5       14     33.7      0.00      0.00      82.1     0.34      1008.5     2.7     WNW   297   5.7       W   270   9.21    261      -46.4
   09/14/2018 18:10      89.5      88.7       14     33.8      0.00      0.00      82.1     0.34      1008.5     3.0      NW   309   6.4     WNW   293   9.21    261      -26.1
   09/14/2018 18:00      91.1      89.3       14     34.5      0.00      0.00      82.0     0.34      1008.4     4.5      NW   308   8.5      NW   307   9.22    261       -4.5
   09/14/2018 17:50      91.2      90.8       13     34.0      0.00      0.00      82.0     0.34      1008.4     3.2      NW   313   7.2       N   351   9.22    261       18.3
   09/14/2018 17:40      92.2      91.0       13     33.6      0.00      0.00      81.9     0.34      1008.4     4.1      NW   308   6.8     WNW   282   9.23    261       44.5
   09/14/2018 17:30      93.1      91.9       13     34.4      0.00      0.00      81.9     0.34      1008.3     3.7      NW   312   8.4     WNW   303   9.23    261       68.6
   09/14/2018 17:20      94.0      92.8       12     33.9      0.00      0.00      81.8     0.34      1008.3     3.3     WNW   303   7.4      NW   307   9.24    261       97.0
   09/14/2018 17:10      94.1      93.3       12     33.4      0.00      0.00      81.8     0.34      1008.3     4.0      SW   225   6.6      SW   229   9.24    261      126.8
   09/14/2018 17:00      94.4      93.6       12     33.9      0.00      0.00      81.7     0.34      1008.4     4.5      SW   221   7.9      SW   230   9.24    261      153.0
   09/14/2018 16:50      94.7      93.9       11     32.2      0.00      0.00      81.7     0.34      1008.4     4.2      SW   230   7.9     SSW   193   9.25    261      179.4
   09/14/2018 16:40      94.1      93.3       12     32.8      0.00      0.00      81.6     0.34      1008.4     4.7      SW   227   7.3     SSW   192   9.26    261      207.3
   09/14/2018 16:30      95.2      93.4       12     33.1      0.00      0.00      81.5     0.34      1008.4     6.0      SW   223  10.4     SSW   211   9.26    261      230.9
   09/14/2018 16:20      95.2      94.3       10     28.9      0.00      0.00      81.5     0.34      1008.4     4.1       S   187  10.2     SSW   212   9.27    261      246.8
   09/14/2018 16:10      94.7      94.1        9     27.9      0.00      0.00      81.4     0.34      1008.5     4.9     SSE   166   8.0       S   182   9.27    261      260.5
   09/14/2018 16:00      95.3      94.1        9     27.6      0.00      0.00      81.3     0.34      1008.5     5.1       S   177   8.4      SE   142   9.28    261      285.1
   09/14/2018 15:50      95.9      94.9        9     28.2      0.00      0.00      81.3     0.34      1008.5     5.4       S   172   9.8      SE   132   9.28    261      311.9
   09/14/2018 15:40      95.8      94.8        9     27.0      0.00      0.00      81.2     0.34      1008.6     5.2     SSE   159   9.4       S   170   9.29    261      332.5
   09/14/2018 15:30      96.6      95.0        8     26.0      0.00      0.00      81.2     0.34      1008.7     5.4     SSE   164   7.6     SSW   204   9.30    261      348.6
   09/14/2018 15:20      96.9      95.7        8     26.0      0.00      0.00      81.1     0.34      1008.7     4.2       S   173   7.8      SE   142   9.30    261      365.3
   09/14/2018 15:10      96.6      95.6        8     25.8      0.00      0.00      81.1     0.34      1008.8     5.8     SSW   207  10.0     WSW   242   9.31    261      384.6
   09/14/2018 15:00      97.4      95.8        8     26.9      0.00      0.00      81.0     0.34      1008.8     4.6       S   189   8.0       S   169   9.31    261      397.6
   09/14/2018 14:50      99.7      97.3        9     28.7      0.00      0.00      80.9     0.34      1008.9     3.1     SSW   199   8.3     WNW   298   9.32    261      408.7
   09/14/2018 14:40      99.7      97.7       10     33.4      0.00      0.00      80.9     0.34      1009.0     2.2     NNW   332   6.9     WNW   286   9.33    260      416.4
   09/14/2018 14:30      97.9      96.7       11     33.2      0.00      0.00      80.9     0.34      1009.2     1.7     NNE    27   4.8       N     7   9.33    261      428.6
   09/14/2018 14:20      97.1      95.8       11     32.8      0.00      0.00      80.8     0.34      1009.2     3.4     NNE    16   7.3       N    11   9.33    261      438.0
   09/14/2018 14:10      96.9      95.8       11     33.5      0.00      0.00      80.7     0.34      1009.4     2.3       E    79   5.1     ESE   122   9.33    261      450.6
   09/14/2018 14:00      96.4      95.0       13     36.1      0.00      0.00      80.7     0.34      1009.5     2.6     NNE    12   5.1     NNW   332   9.33    261      457.4
   09/14/2018 13:50      95.5      94.6       14     38.0      0.00      0.00      80.7     0.34      1009.7     3.4     NNE    15   7.3       N   355   9.34    261      468.6
   09/14/2018 13:40      95.2      94.1       14     38.6      0.00      0.00      80.6     0.34      1009.9     2.7     ESE   115   9.1       E    89   9.34    261      475.4
   09/14/2018 13:30      95.4      93.4       15     40.2      0.00      0.00      80.6     0.34      1010.0     2.4      NE    35   5.5      NE    53   9.34    261      483.6
   09/14/2018 13:20      96.1      93.7       15     39.7      0.00      0.00      80.6     0.34      1010.2     2.5       S   170   6.0      SE   133   9.34    261      487.4
   09/14/2018 13:10      96.3      95.0       15     39.9      0.00      0.00      80.6     0.34      1010.2     2.5       N   351   5.1       N   355   9.34    261      489.1
   09/14/2018 13:00      95.4      93.6       15     40.0      0.00      0.00      80.6     0.34      1010.4     1.9     ENE    74   4.1     ENE    72   9.35    261      498.4
   09/14/2018 12:50      95.2      93.5       15     39.1      0.00      0.00      80.6     0.34      1010.5     2.0       E    94   5.0      SE   128   9.35    261      498.5
   09/14/2018 12:40      94.4      93.3       15     38.6      0.00      0.00      80.5     0.34      1010.7     2.1       E    92   4.9       E    97   9.35    261      497.8
   09/14/2018 12:30      94.9      93.6       14     38.7      0.00      0.00      80.5     0.34      1010.8     2.2     ENE    73   5.8      SE   137   9.35    261      495.9
   09/14/2018 12:20      94.3      93.0       15     38.2      0.00      0.00      80.6     0.34      1011.0     1.9      NE    52   4.0      NE    52   9.35    261      493.9
   09/14/2018 12:10      93.3      92.8       14     37.3      0.00      0.00      80.6     0.34      1011.1     2.3     NNE    18   6.9      NE    46   9.35    261      491.8
   09/14/2018 12:00      93.3      92.4       14     36.8      0.00      0.00      80.5     0.34      1011.1     1.6     NNW   341   3.9     NNE    28   9.35    261      490.2
   09/14/2018 11:50      93.0      91.9       15     37.4      0.00      0.00      80.6     0.34      1011.2     1.8       E    81   4.7      NE    42   9.35    261      489.1
   09/14/2018 11:40      92.9      91.3       14     36.7      0.00      0.00      80.6     0.34      1011.3     1.3      NW   319   3.3     ENE    59   9.35    261      484.2
   09/14/2018 11:30      92.0      91.1       14     36.5      0.00      0.00      80.7     0.34      1011.4     1.4       N     7   4.5     NNE    16   9.35    261      475.9
   09/14/2018 11:20      91.6      90.0       15     36.3      0.00      0.00      80.7     0.34      1011.4     0.9     NNE    18   2.3      NE    40   9.35    261      469.8
   09/14/2018 11:10      89.9      89.2       15     35.9      0.00      0.00      80.8     0.34      1011.4     1.5     NNE    24   3.9     NNW   331   9.35    261      459.4
   09/14/2018 11:00      89.8      88.1       17     39.4      0.00      0.00      80.8     0.34      1011.5     1.4       N   357   3.4       N   355   9.35    261      448.2
   09/14/2018 10:50      88.1      87.4       19     39.9      0.00      0.00      80.8     0.34      1011.6     1.1      SE   124   2.0       E    86   9.35    262      439.8
   09/14/2018 10:40      87.8      86.5       20     41.6      0.00      0.00      80.8     0.34      1011.7     1.3     NNE    34   3.0      NE    35   9.35    262      426.1
   09/14/2018 10:30      86.5      85.1       21     41.8      0.00      0.00      80.9     0.34      1011.7     1.0     NNE    26   2.3     NNE    20   9.35    262      409.6
   09/14/2018 10:20      85.9      85.3       22     42.9      0.00      0.00      80.9     0.34      1011.7     1.2     NNE    26   2.8       N     9   9.35    262      395.5
   09/14/2018 10:10      85.5      83.1       23     42.7      0.00      0.00      80.9     0.34      1011.7     1.0      NE    41   2.2       E    83   9.35    262      380.8
   09/14/2018 10:00      83.4      82.3       24     42.6      0.00      0.00      81.0     0.34      1011.8     1.1       N    10   2.2      NE    39   9.35    262      363.6
   09/14/2018 09:50      82.6      81.4       25     42.1      0.00      0.00      81.0     0.34      1011.8     0.9       N    10   2.1      NE    37   9.35    262      348.4
   09/14/2018 09:40      81.9      79.6       27     44.1      0.00      0.00      81.0     0.34      1011.8     0.7     NNE    16   1.9      NE    49   9.35    263      332.3
   09/14/2018 09:30      79.8      78.4       29     44.6      0.00      0.00      81.1     0.34      1011.8     0.8     NNW   342   2.4      NW   321   9.35    263      312.4
   09/14/2018 09:20      78.5      76.7       32     44.8      0.00      0.00      81.1     0.34      1011.8     1.0       N     7   2.7       N     8   9.35    263      293.8
   09/14/2018 09:10      77.0      76.4       31     44.0      0.00      0.00      81.2     0.34      1011.8     1.5     NNE    20   2.3     NNE    19   9.35    264      274.7
   09/14/2018 09:00      77.0      75.8       33     44.9      0.00      0.00      81.3     0.34      1011.8     0.8     NNW   346   2.8      NW   318   9.35    263      253.8
   09/14/2018 08:50      76.1      74.5       35     45.5      0.00      0.00      81.3     0.34      1011.8     0.4       N     4   1.3     NNE    14   9.35    265      232.1
   09/14/2018 08:40      74.8      73.3       37     46.6      0.00      0.00      81.3     0.34      1011.8     0.2       N     0   1.4       N     0   9.35    266      210.0
   09/14/2018 08:30      73.4      72.4       40     47.3      0.00      0.00      81.4     0.34      1011.9     0.0     NNW   339   0.7     NNW   348   9.35    266      186.4
   09/14/2018 08:20      72.5      70.9       42     47.0      0.00      0.00      81.5     0.34      1011.9     0.2     NNE    30   0.9     NNE    30   9.35    266      159.0
   09/14/2018 08:10      71.5      70.6       41     46.2      0.00      0.00      81.5     0.34      1012.0     0.5     NNE    28   1.4     NNE    18   9.35    266      131.0
   09/14/2018 08:00      71.4      68.7       41     45.7      0.00      0.00      81.6     0.34      1012.0     0.0       N     0   0.0       S   169   9.35    266      103.5
   09/14/2018 07:50      68.7      65.2       47     45.8      0.00      0.00      81.5     0.34      1012.0     0.0       N     0   0.0       S   169   9.35    266       75.1
   09/14/2018 07:40      65.3      61.8       52     45.6      0.00      0.00      81.6     0.34      1012.0     0.0       N     0   0.0       S   170   9.35    267       48.4
   09/14/2018 07:30      61.8      59.4       58     45.7      0.00      0.00      81.6     0.34      1012.0     0.0       N     0   0.0       S   170   9.35    267       20.9
   09/14/2018 07:20      59.5      58.4       61     45.5      0.00      0.00      81.7     0.34      1011.9     0.0       S   170   0.4       S   170   9.35    267       -5.4
   09/14/2018 07:10      58.8      57.9       59     44.4      0.00      0.00      81.7     0.34      1011.9     0.1       S   170   0.7       S   170   9.35    267      -24.9
   09/14/2018 07:00      58.2      57.3       62     45.0      0.00      0.00      81.8     0.34      1011.8     0.0       N     0   0.0       S   170   9.35    267      -47.9
   09/14/2018 06:50      57.4      56.6       64     45.0      0.00      0.00      81.8     0.34      1011.8     0.1       S   170   0.9       S   170   9.35    267      -55.1
   09/14/2018 06:40      57.0      56.6       63     44.6      0.00      0.00      81.8     0.34      1011.7     0.3       S   170   0.7       S   170   9.35    267      -58.0
   09/14/2018 06:30      57.2      56.7       64     44.7      0.00      0.00      81.9     0.34      1011.7     0.5     SSE   161   1.2       S   170   9.35    267      -60.3
   09/14/2018 06:20      57.3      56.8       63     44.5      0.00      0.00      81.9     0.34      1011.6     0.3     SSE   151   0.7     SSE   151   9.35    267      -61.0
   09/14/2018 06:10      57.3      56.9       63     44.5      0.00      0.00      82.0     0.34      1011.6     0.6     SSE   151   1.1     SSE   151   9.35    267      -61.6
   09/14/2018 06:00      57.7      56.9       61     43.8      0.00      0.00      82.0     0.34      1011.5     0.2     SSE   151   0.7     SSE   151   9.35    267      -61.4
   09/14/2018 05:50      57.8      57.4       60     43.8      0.00      0.00      82.0     0.34      1011.5     0.0       N     0   0.0     SSE   151   9.35    267      -61.5
   09/14/2018 05:40      57.9      57.4       59     43.2      0.00      0.00      82.1     0.34      1011.4     0.2     SSE   151   0.8     SSE   151   9.35    267      -61.3
   09/14/2018 05:30      57.8      57.4       60     43.7      0.00      0.00      82.1     0.34      1011.4     0.0       N     0   0.0     SSE   151   9.36    267      -60.8
   09/14/2018 05:20      57.8      57.2       62     44.8      0.00      0.00      82.1     0.34      1011.4     0.6     SSE   151   1.4     SSE   151   9.36    267      -62.3
   09/14/2018 05:10      57.9      57.5       60     44.0      0.00      0.00      82.2     0.34      1011.5     0.9     SSE   153   1.9      SE   144   9.36    267      -63.3
   09/14/2018 05:00      58.0      57.5       59     43.6      0.00      0.00      82.2     0.34      1011.4     0.9       S   170   1.9       S   184   9.36    267      -63.2
   09/14/2018 04:50      58.1      57.6       58     43.1      0.00      0.00      82.3     0.34      1011.3     0.3     SSE   159   0.8     SSE   159   9.36    267      -62.8
   09/14/2018 04:40      58.3      57.5       60     43.8      0.00      0.00      82.3     0.34      1011.3     0.4     SSE   159   0.9     SSE   159   9.36    266      -63.4
   09/14/2018 04:30      58.5      57.8       59     44.0      0.00      0.00      82.3     0.34      1011.2     0.0     SSE   159   0.7     SSE   159   9.36    266      -63.5
   09/14/2018 04:20      58.8      58.3       59     44.1      0.00      0.00      82.4     0.34      1011.3     0.1     SSE   159   1.1     SSE   159   9.36    266      -64.1
   09/14/2018 04:10      59.0      58.5       58     43.8      0.00      0.00      82.4     0.34      1011.3     0.7     SSE   156   1.3     SSE   154   9.36    266      -64.2
   09/14/2018 04:00      58.9      58.6       57     43.5      0.00      0.00      82.5     0.34      1011.4     0.1     SSE   154   1.1     SSE   154   9.36    266      -63.3
   09/14/2018 03:50      59.7      58.6       56     43.6      0.00      0.00      82.5     0.34      1011.4     0.2     SSE   154   0.7     SSE   154   9.36    266      -63.8
   09/14/2018 03:40      60.0      59.3       56     43.9      0.00      0.00      82.5     0.34      1011.4     0.3     SSE   154   0.7     SSE   154   9.36    266      -63.2
   09/14/2018 03:30      60.0      59.3       56     44.0      0.00      0.00      82.5     0.34      1011.4     0.3     SSE   154   0.8     SSE   154   9.36    266      -63.6
   09/14/2018 03:20      59.6      59.0       57     44.2      0.00      0.00      82.6     0.34      1011.4     0.3     SSE   154   0.9     SSE   154   9.36    266      -64.1
   09/14/2018 03:10      59.7      59.2       57     44.5      0.00      0.00      82.6     0.34      1011.4     0.7     SSE   154   1.2     SSE   154   9.37    266      -65.0
   09/14/2018 03:00      59.7      59.4       59     45.3      0.00      0.00      82.6     0.34      1011.5     0.7     SSE   152   1.2     SSE   150   9.37    266      -66.3
   09/14/2018 02:50      59.7      59.2       59     45.3      0.00      0.00      82.7     0.34      1011.6     0.5     SSE   162   1.0     SSE   161   9.37    266      -67.3
   09/14/2018 02:40      60.3      59.5       58     45.1      0.00      0.00      82.7     0.34      1011.6     0.4     SSE   158   1.1     SSE   158   9.37    266      -67.5
   09/14/2018 02:30      60.8      60.0       56     44.6      0.00      0.00      82.7     0.34      1011.6     0.4     SSE   168   1.0     SSE   149   9.37    266      -66.9
   09/14/2018 02:20      61.1      60.4       54     44.2      0.00      0.00      82.7     0.34      1011.6     0.4       S   184   1.0       S   184   9.37    266      -65.9
   09/14/2018 02:10      61.1      60.3       56     44.7      0.00      0.00      82.8     0.34      1011.7     0.1       S   184   0.6       S   184   9.37    266      -66.4
   09/14/2018 02:00      61.1      60.6       59     46.2      0.00      0.00      82.8     0.34      1011.7     0.0       S   184   0.5       S   184   9.37    266      -67.6
   09/14/2018 01:50      61.6      60.8       57     46.0      0.00      0.00      82.8     0.34      1011.8     0.1       S   184   0.9       S   184   9.37    266      -68.5
   09/14/2018 01:40      61.7      61.2       57     46.1      0.00      0.00      82.8     0.34      1011.9     0.3       S   184   1.4       S   184   9.38    266      -69.5
   09/14/2018 01:30      62.2      61.3       55     45.2      0.00      0.00      82.8     0.34      1011.9     0.4       S   184   0.8       S   184   9.38    266      -69.5
   09/14/2018 01:20      62.4      61.9       54     45.2      0.00      0.00      82.9     0.34      1011.9     0.3       S   184   0.9       S   184   9.38    266      -69.0
   09/14/2018 01:10      62.5      62.0       53     45.0      0.00      0.00      82.8     0.34      1011.9     0.0       S   184   0.8       S   184   9.38    266      -69.6
   09/14/2018 01:00      62.5      62.2       55     46.2      0.00      0.00      82.9     0.34      1011.9     0.3       S   184   0.8       S   184   9.38    266      -71.2
   09/14/2018 00:50      63.6      62.3       53     45.4      0.00      0.00      82.9     0.34      1011.9     0.3       S   184   1.0       S   184   9.38    266      -71.6
   09/14/2018 00:40      63.6      63.1       53     45.8      0.00      0.00      82.9     0.34      1012.0     0.4       S   184   1.2       S   185   9.38    266      -71.0
   09/14/2018 00:30      64.0      63.2       52     45.6      0.00      0.00      83.0     0.34      1012.0     0.1       S   184   0.7       S   184   9.38    266      -71.7
   09/14/2018 00:20      64.6      63.5       51     45.8      0.00      0.00      83.0     0.34      1012.0     0.2       S   191   0.9       S   185   9.39    266      -72.4
   09/14/2018 00:10      64.8      64.4       52     46.7      0.00      0.00      83.0     0.34      1012.0     0.2     SSW   202   1.0     SSW   202   9.39    266      -72.1
   09/14/2018 00:00      65.2      64.3       53     47.2      0.00      0.00      83.0     0.34      1012.0     0.0     SSW   202   0.5     SSW   202   9.39    266      -72.5
   09/13/2018 23:50      65.3      64.8       53     47.4      0.00      0.00      83.0     0.34      1012.0     0.3     SSW   201   1.6     SSW   202   9.39    266      -73.0
   09/13/2018 23:40      65.6      65.0       53     47.6      0.00      0.00      83.0     0.34      1012.0     0.0       S   184   0.5       S   184   9.39    266      -73.5
   09/13/2018 23:30      66.0      65.3       52     47.6      0.00      0.00      83.0     0.34      1012.0     0.0       S   184   1.4       S   184   9.39    266      -74.9
   09/13/2018 23:20      66.3      65.6       52     47.8      0.00      0.00      83.0     0.34      1012.1     0.2       S   190   1.2     SSW   198   9.39    266      -75.4
   09/13/2018 23:10      67.0      66.2       51     47.9      0.00      0.00      83.0     0.34      1012.1     0.0       S   184   0.7       S   184   9.39    265      -75.8
   09/13/2018 23:00      67.8      66.7       51     48.4      0.00      0.00      83.1     0.34      1012.1     0.1       S   184   1.0       S   184   9.40    265      -77.0
   09/13/2018 22:50      69.4      67.5       50     48.6      0.00      0.00      83.1     0.34      1012.3     0.0     SSE   152   0.7      SE   139   9.40    265      -78.7
   09/13/2018 22:40      69.9      69.1       47     48.6      0.00      0.00      83.1     0.34      1012.3     0.5       E    99   2.6     NNE    15   9.40    264      -81.6
   09/13/2018 22:30      71.2      69.6       46     48.9      0.00      0.00      83.1     0.34      1012.3     1.2     ESE   108   2.8       S   173   9.40    264      -83.6
   09/13/2018 22:20      71.6      70.8       46     49.2      0.00      0.00      83.1     0.34      1012.3     1.7     SSW   196   3.8      SW   216   9.40    264      -84.7
   09/13/2018 22:10      71.6      71.1       46     49.5      0.00      0.00      83.1     0.34      1012.4     1.6     SSW   212   4.2      SW   226   9.40    264      -84.7
   09/13/2018 22:00      71.7      71.2       46     49.7      0.00      0.00      83.1     0.34      1012.6     0.9     SSW   208   2.9      SW   235   9.41    264      -85.2
   09/13/2018 21:50      72.0      71.3       47     50.0      0.00      0.00      83.0     0.34      1012.6     0.9     SSW   199   3.5     SSW   196   9.41    264      -85.9
   09/13/2018 21:40      72.2      71.7       47     50.3      0.00      0.00      83.0     0.34      1012.6     2.4     SSW   199   5.9     SSW   197   9.41    264      -86.2
   09/13/2018 21:30      72.2      71.6       47     50.4      0.00      0.00      83.0     0.34      1012.6     2.9     SSW   195   6.2     SSW   198   9.41    264      -86.1
   09/13/2018 21:20      72.8      71.9       46     50.1      0.00      0.00      83.0     0.34      1012.6     1.1       S   191   2.0      SW   217   9.41    264      -86.6
   09/13/2018 21:10      72.8      72.3       44     49.3      0.00      0.00      83.0     0.34      1012.5     2.0     SSW   201   3.2     SSW   204   9.42    264      -88.3
   09/13/2018 21:00      73.6      72.4       41     48.1      0.00      0.00      83.0     0.34      1012.4     1.6       S   178   3.4       S   190   9.42    264      -89.4
   09/13/2018 20:50      73.7      73.2       39     47.0      0.00      0.00      83.0     0.34      1012.3     1.2      SW   214   2.6     SSW   200   9.42    264      -91.2
   09/13/2018 20:40      73.9      73.2       35     44.2      0.00      0.00      83.0     0.34      1012.3     0.5       S   184   3.0     WSW   247   9.42    264      -91.7
   09/13/2018 20:30      75.2      73.5       32     42.3      0.00      0.00      82.9     0.34      1012.2     0.5     ESE   118   2.0      SE   135   9.42    263      -93.8
   09/13/2018 20:20      75.8      74.9       30     41.6      0.00      0.00      82.9     0.34      1012.1     0.5     SSW   211   3.4       W   261   9.43    263      -96.6
   09/13/2018 20:10      76.2      75.5       29     40.9      0.00      0.00      82.9     0.34      1012.0     2.4     SSW   214   3.7      SW   231   9.43    263      -97.6
   09/13/2018 20:00      76.9      75.8       28     40.4      0.00      0.00      82.9     0.34      1011.9     1.9     SSW   196   5.3      SW   218   9.43    263      -97.9
   09/13/2018 19:50      77.7      76.6       27     40.8      0.00      0.00      82.8     0.34      1011.8     1.9     SSW   206   3.1     WSW   241   9.43    263      -99.3
   09/13/2018 19:40      78.6      77.3       27     41.5      0.00      0.00      82.8     0.34      1011.7     2.4     SSW   204   5.4     SSW   203   9.44    263     -100.0
   09/13/2018 19:30      79.5      78.4       28     42.8      0.00      0.00      82.8     0.34      1011.7     3.1      SW   222   7.6      SW   228   9.44    263     -100.0
   09/13/2018 19:20      80.5      79.4       28     43.8      0.00      0.00      82.7     0.34      1011.6     3.3     WSW   237   5.3      SW   235   9.45    263     -100.6
   09/13/2018 19:10      81.0      80.2       30     46.3      0.00      0.00      82.7     0.34      1011.5     2.2     WSW   238   5.0       W   260   9.45    263      -99.3
   09/13/2018 19:00      81.9      80.7       31     47.7      0.00      0.00      82.7     0.34      1011.4     2.3       W   262   5.2       W   266   9.45    263      -94.8
   09/13/2018 18:50      83.3      81.6       31     48.6      0.00      0.00      82.6     0.34      1011.5     2.5     WNW   297   4.9       W   273   9.46    263      -91.0
   09/13/2018 18:40      84.3      83.0       29     48.4      0.00      0.00      82.6     0.34      1011.4     2.7     WNW   293   5.0      NW   320   9.46    263      -86.1
   09/13/2018 18:30      85.5      84.0       28     48.5      0.00      0.00      82.5     0.34      1011.4     3.4      NW   313   6.5     NNW   334   9.47    263      -61.8
   09/13/2018 18:20      87.0      85.2       28     49.0      0.00      0.00      82.5     0.34      1011.3     3.2      NW   306   6.7      NW   316   9.47    263      -43.0
   09/13/2018 18:10      88.1      86.7       27     48.9      0.00      0.00      82.4     0.34      1011.3     3.4     WNW   291   7.0     WNW   288   9.48    262      -22.0
   09/13/2018 18:00      89.1      87.9       24     47.4      0.00      0.00      82.4     0.34      1011.2     3.7       W   262   7.2     WSW   239   9.48    262        1.9
   09/13/2018 17:50      89.3      88.6       23     46.7      0.00      0.00      82.4     0.34      1011.2     3.9       W   268   7.9     WSW   237   9.49    262       26.7
   09/13/2018 17:40      90.2      88.8       23     46.7      0.00      0.00      82.3     0.34      1011.1     5.2     WSW   256   9.7     WNW   283   9.49    262       53.7
   09/13/2018 17:30      90.3      89.5       23     46.7      0.00      0.00      82.3     0.34      1011.1     4.5     WSW   249   8.0     WSW   253   9.50    262       81.9
   09/13/2018 17:20      90.6      90.0       22     45.7      0.00      0.00      82.2     0.34      1011.1     4.7       W   270   9.4      SW   230   9.51    262      109.3
   09/13/2018 17:10      91.0      90.2       20     44.4      0.00      0.00      82.2     0.34      1011.1     4.5     WSW   255   8.0     WSW   256   9.51    262      136.7
   09/13/2018 17:00      90.8      90.1       20     44.5      0.00      0.00      82.1     0.34      1011.1     4.5     WSW   254   8.2     WSW   259   9.52    262      162.5
   09/13/2018 16:50      91.1      90.3       19     43.4      0.00      0.00      82.1     0.34      1011.1     4.8      SW   236  10.0     WSW   258   9.52    262      188.5
   09/13/2018 16:40      91.6      90.3       19     42.8      0.00      0.00      82.0     0.34      1011.1     5.3      SW   234  10.6      SW   219   9.53    262      216.1
   09/13/2018 16:30      91.4      90.6       19     43.2      0.00      0.00      82.0     0.34      1011.1     4.6     WSW   256   9.7     WSW   250   9.53    262      240.9
   09/13/2018 16:20      91.6      90.8       19     42.9      0.00      0.00      81.9     0.34      1011.2     5.2      SW   235   9.8       W   280   9.54    262      263.5
   09/13/2018 16:10      91.5      90.8       17     40.0      0.00      0.00      81.8     0.34      1011.2     4.6      SW   235   9.4     WSW   246   9.54    262      272.8
   09/13/2018 16:00      91.9      91.3       15     37.5      0.00      0.00      81.8     0.34      1011.4     5.2     WSW   253   8.4     WSW   256   9.55    262      298.7
   09/13/2018 15:50      92.7      91.4       14     36.6      0.00      0.00      81.7     0.34      1011.5     5.3     WSW   238   8.8      SW   223   9.56    262      324.8
   09/13/2018 15:40      92.6      91.6       16     38.8      0.00      0.00      81.7     0.34      1011.5     5.1     WSW   252   9.0     WNW   298   9.56    262      344.4
   09/13/2018 15:30      92.2      91.4       15     37.2      0.00      0.00      81.6     0.34      1011.6     6.1       W   270  10.2       W   260   9.57    262      363.3
   09/13/2018 15:20      93.1      92.1       14     36.5      0.00      0.00      81.6     0.34      1011.6     3.7      SW   230   8.9     WSW   243   9.57    262      375.7
   09/13/2018 15:10      93.5      92.2       14     35.7      0.00      0.00      81.5     0.34      1011.7     5.0     SSW   212   8.7      SW   224   9.58    261      393.3
   09/13/2018 15:00      94.3      92.9       13     34.6      0.00      0.00      81.5     0.34      1011.7     3.5     WSW   238   9.8     WSW   237   9.58    261      410.6
   09/13/2018 14:50      93.5      92.5       13     34.5      0.00      0.00      81.4     0.34      1011.8     4.5     WSW   238   8.5       S   188   9.59    261      427.1
   09/13/2018 14:40      93.4      92.0       22     47.9      0.00      0.00      81.4     0.34      1011.9     2.4       S   176   7.7      SW   229   9.59    261      440.6
   09/13/2018 14:30      93.5      92.3       25     51.5      0.00      0.00      81.4     0.34      1012.0     2.1      NE    34   5.0      NE    55   9.59    262      451.8
   09/13/2018 14:20      93.1      90.6       24     50.0      0.00      0.00      81.3     0.34      1012.0     2.1     ENE    58   4.1     ESE   102   9.59    262      460.2
   09/13/2018 14:10      92.8      90.8       23     48.3      0.00      0.00      81.3     0.34      1012.2     2.9     ESE   108   6.7       E    86   9.60    262      470.3
   09/13/2018 14:00      93.6      91.9       21     46.8      0.00      0.00      81.2     0.34      1012.2     2.5      NE    49   5.4      NE    56   9.60    262      473.5
   09/13/2018 13:50      92.9      92.1       20     45.0      0.00      0.00      81.2     0.34      1012.2     2.4     ESE   104   5.9      SW   223   9.60    262      485.7
   09/13/2018 13:40      94.1      91.7       17     41.1      0.00      0.00      81.2     0.34      1012.3     1.8       N     6   4.2     NNW   329   9.60    262      490.1
   09/13/2018 13:30      91.6      89.9       18     41.3      0.00      0.00      81.1     0.34      1012.5     1.5     SSE   151   7.3      SW   226   9.60    262      496.0
   09/13/2018 13:20      92.3      90.4       18     41.9      0.00      0.00      81.1     0.34      1012.6     3.1      NW   318   7.6     SSW   213   9.61    262      504.2
   09/13/2018 13:10      91.4      89.8       19     42.3      0.00      0.00      81.1     0.34      1012.7     2.3     NNW   336   5.9     WNW   289   9.61    262      510.9
   09/13/2018 13:00      90.8      89.5       21     44.5      0.00      0.00      81.1     0.34      1012.9     2.7     NNW   341   6.1       N     3   9.61    262      513.1
   09/13/2018 12:50      90.4      89.1       22     45.4      0.00      0.00      81.0     0.34      1013.1     2.5     NNW   331   4.9       N   351   9.61    263      517.5
   09/13/2018 12:40      90.3      88.7       23     46.5      0.00      0.00      81.1     0.34      1013.2     2.5      NW   320   4.6     NNW   335   9.61    263      515.5
   09/13/2018 12:30      89.0      87.6       24     46.7      0.00      0.00      81.1     0.34      1013.3     2.0     NNE    16   4.6       E    87   9.61    263      515.9
   09/13/2018 12:20      88.7      87.1       25     47.5      0.00      0.00      81.1     0.34      1013.5     1.9     NNE    18   4.8      NW   315   9.61    263      515.5
   09/13/2018 12:10      87.7      86.5       27     48.8      0.00      0.00      81.1     0.34      1013.5     1.3     NNE    18   3.5      NE    36   9.61    263      513.2
   09/13/2018 12:00      87.3      84.3       29     50.2      0.00      0.00      81.1     0.34      1013.6     0.9     SSE   149   3.6       S   189   9.61    264      514.8
   09/13/2018 11:50      84.8      83.9       33     52.1      0.00      0.00      81.2     0.34      1013.8     2.0      NE    39   4.4      NE    55   9.61    264      509.8
   09/13/2018 11:40      84.6      82.9       36     53.7      0.00      0.00      81.1     0.34      1013.8     2.0       N   356   4.7       N   352   9.61    264      502.0
   09/13/2018 11:30      83.3      82.4       37     54.2      0.00      0.00      81.1     0.34      1013.9     1.9       W   262   3.6     NNE    16   9.61    264      496.1
   09/13/2018 11:20      82.7      81.1       39     54.6      0.00      0.00      81.2     0.34      1013.9     1.4       N     7   3.2     WNW   293   9.61    264      486.8
   09/13/2018 11:10      81.6      80.8       41     55.1      0.00      0.00      81.2     0.34      1014.0     1.9       N   356   3.8       N     3   9.61    265      473.1
   09/13/2018 11:00      81.3      80.0       41     55.0      0.00      0.00      81.3     0.34      1014.1     2.0     ENE    68   4.2     ESE   115   9.61    265      465.7
   09/13/2018 10:50      80.2      79.3       43     55.0      0.00      0.00      81.4     0.34      1014.2     1.5     NNE    25   3.8      NE    53   9.61    265      450.8
   09/13/2018 10:40      79.8      78.8       44     55.1      0.00      0.00      81.4     0.34      1014.2     1.7     ENE    78   5.0     NNE    28   9.61    265      439.6
   09/13/2018 10:30      79.4      78.1       44     54.9      0.00      0.00      81.4     0.34      1014.3     1.3       N   353   5.3      NE    42   9.61    265      422.0
   09/13/2018 10:20      78.3      76.5       46     55.0      0.00      0.00      81.4     0.34      1014.4     1.5     NNE    12   3.6     NNE    24   9.61    265      404.9
   09/13/2018 10:10      77.0      75.5       48     55.3      0.00      0.00      81.5     0.34      1014.4     1.5       N     8   4.8     NNW   335   9.61    266      388.3
   09/13/2018 10:00      75.6      74.8       53     56.8      0.00      0.00      81.5     0.34      1014.4     1.6       N     7   4.1       N     3   9.61    266      372.7
   09/13/2018 09:50      75.3      74.0       53     56.5      0.00      0.00      81.5     0.34      1014.4     1.4       E    83   2.9       N    10   9.61    266      354.7
   09/13/2018 09:40      74.9      74.1       55     57.3      0.00      0.00      81.6     0.34      1014.3     1.7       E    92   3.9     ESE   120   9.61    266      336.3
   09/13/2018 09:30      74.3      73.0       58     58.2      0.00      0.00      81.6     0.34      1014.3     0.8     ENE    57   2.7     NNE    29   9.61    266      313.6
   09/13/2018 09:20      73.3      72.6       59     58.2      0.00      0.00      81.7     0.34      1014.3     1.0     NNE    14   2.6     ENE    76   9.61    266      293.0
   09/13/2018 09:10      72.7      71.8       61     58.1      0.00      0.00      81.6     0.34      1014.3     0.9     ENE    60   2.3       N     0   9.61    268      271.8
   09/13/2018 09:00      72.6      71.0       62     58.1      0.00      0.00      81.8     0.34      1014.2     0.9      NE    50   2.7      NE    50   9.60    267      249.2
   09/13/2018 08:50      72.1      70.9       62     57.8      0.00      0.00      81.8     0.34      1014.2     0.9     NNE    20   3.5      NE    38   9.60    268      226.1
   09/13/2018 08:40      71.2      70.1       63     57.5      0.00      0.00      81.8     0.34      1014.1     0.5      NE    35   2.3      NE    40   9.60    270      201.5
   09/13/2018 08:30      70.2      68.7       65     57.2      0.00      0.00      81.8     0.34      1014.1     0.5       N   358   1.8     SSE   152   9.60    270      179.1
   09/13/2018 08:20      68.8      68.2       68     57.4      0.00      0.00      81.9     0.34      1014.0     0.5       N   354   1.9     NNW   342   9.61    283      187.9
   09/13/2018 08:10      68.4      66.2       72     57.9      0.00      0.00      82.0     0.34      1014.0     0.1       E    84   1.1       E    96   8.88    318      163.2
   09/13/2018 08:00      66.3      64.2       77     57.7      0.00      0.00      82.0     0.34      1013.9     0.4     ESE   114   1.7     ESE   102   8.88    339      128.8
   09/13/2018 07:50      64.4      62.8       83     58.5      0.00      0.00      82.1     0.34      1013.8     0.0     SSE   168   0.5     SSE   168   8.88    352       92.3
   09/13/2018 07:40      62.8      60.3       89     58.2      0.00      0.00      82.0     0.34      1013.7     0.0       N     0   0.0     SSE   168   8.88    356       56.2
   09/13/2018 07:30      60.5      59.4       91     57.2      0.00      0.00      82.2     0.34      1013.6     0.0       N     0   0.0     SSE   169   8.88    356       29.6
   09/13/2018 07:20      59.5      58.6       91     56.5      0.00      0.00      82.2     0.34      1013.6     0.0     SSE   169   0.4     SSE   169   8.88    355       15.1
   09/13/2018 07:10      58.9      58.3       91     56.1      0.00      0.00      82.2     0.34      1013.5     0.0     SSE   169   0.4     SSE   169   8.88    352        3.8
   09/13/2018 07:00      58.6      58.0       92     55.9      0.00      0.00      82.2     0.34      1013.4     0.0     SSE   169   0.6     SSE   169   8.88    348       -6.3
   09/13/2018 06:50      58.3      57.5       92     55.4      0.00      0.00      82.3     0.34      1013.3     0.5     SSE   169   1.1     SSE   169   8.89    342      -14.9
   09/13/2018 06:40      58.3      57.6       91     55.4      0.00      0.00      82.3     0.34      1013.2     0.2     SSE   169   0.8     SSE   169   8.89    335      -19.7
   09/13/2018 06:30      58.2      57.8       91     55.5      0.00      0.00      82.4     0.34      1013.1     0.0     SSE   169   0.1     SSE   169   8.89    328      -22.2
   09/13/2018 06:20      58.1      57.7       91     55.3      0.00      0.00      82.4     0.34      1013.1     0.2     SSE   169   0.8     SSE   169   8.88    322      -23.1
   09/13/2018 06:10      58.7      57.7       91     55.5      0.00      0.00      82.4     0.34      1013.1     0.1     SSE   169   0.5     SSE   169   8.89    316      -23.8
   09/13/2018 06:00      58.6      58.1       91     55.7      0.00      0.00      82.5     0.34      1013.1     0.0       S   169   0.9       S   169   8.89    311      -24.0
   09/13/2018 05:50      58.6      58.0       91     55.6      0.00      0.00      82.5     0.34      1013.0     0.1       S   169   0.7       S   169   8.89    308      -24.5
   09/13/2018 05:40      58.8      58.0       90     55.5      0.00      0.00      82.5     0.34      1012.9     0.1     SSE   169   0.7     SSE   169   8.89    304      -25.4
   09/13/2018 05:30      58.7      58.4       91     55.8      0.00      0.00      82.6     0.34      1013.0     0.0     SSE   169   0.5     SSE   169   8.89    302      -26.1
   09/13/2018 05:20      58.6      57.6       90     55.3      0.00      0.00      82.6     0.34      1012.8     0.4     SSE   169   1.0     SSE   169   8.89    300      -27.2
   09/13/2018 05:10      58.6      57.8       90     55.0      0.00      0.00      82.6     0.34      1012.8     0.1     SSE   168   0.6     SSE   168   8.89    296      -28.6
   09/13/2018 05:00      58.8      58.3       90     55.5      0.00      0.00      82.7     0.35      1012.6     0.2     SSE   169   0.7     SSE   168   8.89    294      -28.8
   09/13/2018 04:50      59.1      58.6       90     55.7      0.00      0.00      82.7     0.35      1012.6     0.2     SSE   169   0.8     SSE   168   8.89    292      -29.4
   09/13/2018 04:40      58.9      58.4       89     55.4      0.00      0.00      82.7     0.34      1012.6     0.0     SSE   169   0.5     SSE   169   8.89    290      -30.2
   09/13/2018 04:30      59.4      58.4       89     55.5      0.00      0.00      82.8     0.35      1012.7     0.3     SSE   168   0.9     SSE   168   8.89    288      -31.6
   09/13/2018 04:20      59.7      58.9       89     55.9      0.00      0.00      82.8     0.35      1012.6     0.0     SSE   169   0.5     SSE   169   8.89    286      -32.2
   09/13/2018 04:10      60.1      59.3       89     56.3      0.00      0.00      82.9     0.35      1012.5     0.3     SSE   169   1.0     SSE   169   8.89    283      -32.9
   09/13/2018 04:00      60.1      59.6       89     56.6      0.00      0.00      82.9     0.35      1012.6     0.3     SSE   169   0.8     SSE   169   8.89    279      -33.5
   09/13/2018 03:50      60.1      59.6       89     56.5      0.00      0.00      82.9     0.35      1012.5     0.0       N     0   0.0     SSE   169   8.89    277      -35.0
   09/13/2018 03:40      60.3      59.6       88     56.4      0.00      0.00      83.0     0.35      1012.5     0.1     SSE   169   0.7     SSE   168   8.89    274      -37.4
   09/13/2018 03:30      60.3      59.7       88     56.5      0.00      0.00      83.0     0.35      1012.5     0.3     SSE   168   1.2     SSE   168   8.89    273      -39.0
   09/13/2018 03:20      60.6      59.8       87     56.4      0.00      0.00      83.0     0.35      1012.5     0.5     SSE   168   1.0     SSE   168   8.89    271      -40.8
   09/13/2018 03:10      60.4      59.8       87     56.3      0.00      0.00      83.1     0.35      1012.5     0.2     SSE   168   0.8     SSE   168   8.89    270      -41.9
   09/13/2018 03:00      60.2      59.7       87     55.9      0.00      0.00      83.1     0.35      1012.5     0.3     SSE   162   0.8     SSE   157   8.90    268      -44.1
   09/13/2018 02:50      60.2      59.7       86     55.8      0.00      0.00      83.1     0.35      1012.5     1.0     SSE   154   1.6      SE   142   8.90    268      -45.2
   09/13/2018 02:40      60.7      59.8       86     55.9      0.00      0.00      83.1     0.35      1012.6     1.1      SE   146   1.6     SSE   148   8.90    266      -46.3
   09/13/2018 02:30      60.6      60.1       86     56.1      0.00      0.00      83.1     0.35      1012.7     0.9     SSE   154   1.3     SSE   153   8.90    267      -47.3
   09/13/2018 02:20      60.6      60.2       85     55.9      0.00      0.00      83.2     0.35      1012.8     1.1     SSE   149   1.6     SSE   147   8.90    265      -49.2
   09/13/2018 02:10      61.0      60.5       85     56.0      0.00      0.00      83.2     0.35      1012.7     0.6     SSE   157   1.2     SSE   149   8.90    263      -50.8
   09/13/2018 02:00      61.3      60.6       84     56.1      0.00      0.00      83.2     0.35      1012.8     0.8     SSE   161   1.1     SSE   161   8.90    262      -52.0
   09/13/2018 01:50      61.4      60.8       83     55.9      0.00      0.00      83.2     0.35      1012.8     0.5     SSE   157   0.9     SSE   161   8.90    260      -55.1
   09/13/2018 01:40      61.7      61.1       83     56.2      0.00      0.00      83.3     0.35      1012.8     0.6       S   171   1.0       S   173   8.90    255      -54.4
   09/13/2018 01:30      62.0      61.4       82     56.3      0.00      0.00      83.3     0.35      1012.8     0.1       S   174   0.9       S   174   8.90    258      -56.0
   09/13/2018 01:20      62.1      61.7       83     56.7      0.00      0.00      83.3     0.35      1012.8     0.0       S   174   0.5       S   173   8.90    254      -56.5
   09/13/2018 01:10      62.0      61.6       83     56.8      0.00      0.00      83.4     0.35      1012.7     0.0       S   174   0.6       S   173   8.90    262      -58.3
   09/13/2018 01:00      62.1      61.5       83     56.4      0.00      0.00      83.4     0.35      1012.7     0.0       S   174   0.7       S   173   8.90    259      -61.5
   09/13/2018 00:50      62.5      61.7       82     56.4      0.00      0.00      83.4     0.35      1012.5     0.6     SSE   166   1.3       S   174   8.90    260      -62.5
   09/13/2018 00:40      62.9      62.3       82     56.8      0.00      0.00      83.4     0.35      1012.5     0.2     SSE   163   0.8     SSE   163   8.91    255      -61.9
   09/13/2018 00:30      63.0      62.4       81     56.8      0.00      0.00      83.4     0.35      1012.5     0.2     SSE   158   0.9     SSE   163   8.91    255      -63.9
   09/13/2018 00:20      63.0      62.6       81     56.8      0.00      0.00      83.4     0.35      1012.5     0.2     SSE   149   0.8     SSE   149   8.91    259      -65.5
   09/13/2018 00:10      63.1      62.5       80     56.4      0.00      0.00      83.5     0.35      1012.4     0.5       S   183   1.4     SSW   201   8.91    260      -66.3
   09/13/2018 00:00      63.3      62.7       78     56.0      0.00      0.00      83.5     0.35      1012.4     0.0      SE   142   0.4      SE   142   8.91    266      -66.8
   09/12/2018 23:50      64.0      63.0       78     56.3      0.00      0.00      83.5     0.35      1012.4     0.2     SSE   148   1.0      SE   141   8.91    267      -68.1
   09/12/2018 23:40      64.5      63.8       77     56.7      0.00      0.00      83.5     0.35      1012.4     0.2       S   182   1.7       S   182   8.91    265      -68.5
   09/12/2018 23:30      64.6      64.2       77     57.0      0.00      0.00      83.5     0.35      1012.3     0.6       S   182   1.8       S   182   8.91    266      -68.5
   09/12/2018 23:20      65.1      64.3       76     56.9      0.00      0.00      83.5     0.35      1012.2     0.5       S   182   1.6       S   182   8.91    266      -68.4
   09/12/2018 23:10      65.2      64.7       76     57.3      0.00      0.00      83.5     0.35      1012.2     0.1       S   182   1.1       S   182   8.91    266      -67.7
   09/12/2018 23:00      65.7      64.8       75     57.0      0.00      0.00      83.6     0.35      1012.3     0.1       S   182   1.1       S   182   8.91    268      -69.4
   09/12/2018 22:50      66.2      65.3       74     57.2      0.00      0.00      83.6     0.35      1012.2     0.6       S   182   1.3       S   182   8.92    268      -70.1
   09/12/2018 22:40      66.4      65.9       74     57.5      0.00      0.00      83.6     0.35      1012.1     0.4       S   182   1.2       S   182   8.92    268      -71.0
   09/12/2018 22:30      67.1      66.3       72     57.4      0.00      0.00      83.6     0.35      1012.1     0.3       S   183   1.2       S   183   8.92    268      -70.4
   09/12/2018 22:20      67.7      66.7       72     57.7      0.00      0.00      83.6     0.35      1012.2     0.6       S   183   1.0       S   183   8.92    268      -70.9
   09/12/2018 22:10      67.8      67.2       72     57.9      0.00      0.00      83.6     0.35      1012.2     1.2       S   189   1.8       S   191   8.92    268      -71.8
   09/12/2018 22:00      67.8      67.3       71     57.9      0.00      0.00      83.6     0.35      1012.2     1.6     SSW   203   2.0     SSW   213   8.92    268      -71.7
   09/12/2018 21:50      68.5      67.3       69     57.4      0.00      0.00      83.5     0.35      1012.1     1.0       S   176   1.9     SSW   201   8.92    268      -73.3
   09/12/2018 21:40      68.3      67.7       69     57.5      0.00      0.00      83.6     0.35      1012.1     1.5      SW   222   2.2      SW   235   8.93    268      -72.6
   09/12/2018 21:30      68.6      67.7       69     57.5      0.00      0.00      83.6     0.35      1012.1     0.2     SSW   206   1.4     SSW   202   8.93    267      -72.6
   09/12/2018 21:20      69.4      68.3       67     57.5      0.00      0.00      83.6     0.35      1012.0     0.0       N     0   0.0       E    89   8.93    268      -74.2
   09/12/2018 21:10      70.2      69.1       66     57.5      0.00      0.00      83.5     0.35      1011.9     0.0       N     0   0.0       E    88   8.93    267      -75.6
   09/12/2018 21:00      70.9      69.7       65     57.8      0.00      0.00      83.5     0.35      1011.8     0.0       E    88   0.7       E    88   8.93    267      -77.0
   09/12/2018 20:50      71.3      70.6       64     58.1      0.00      0.00      83.5     0.35      1011.8     0.8     SSW   204   1.9     SSW   206   8.93    267      -77.2
   09/12/2018 20:40      71.6      71.1       63     58.0      0.00      0.00      83.5     0.35      1011.7     0.4       W   279   2.1     WSW   244   8.94    266      -77.7
   09/12/2018 20:30      72.3      71.3       62     58.0      0.00      0.00      83.5     0.35      1011.6     1.2     SSW   213   2.5     WSW   238   8.94    266      -78.6
   09/12/2018 20:20      72.6      72.0       61     57.9      0.00      0.00      83.5     0.35      1011.5     1.5      SW   222   3.5     WSW   247   8.94    266      -78.6
   09/12/2018 20:10      73.3      72.3       60     57.9      0.00      0.00      83.5     0.35      1011.4     1.9      SW   226   3.9      SW   221   8.94    266      -78.8
   09/12/2018 20:00      73.7      73.0       58     57.6      0.00      0.00      83.5     0.35      1011.3     2.4     WSW   241   3.7      SW   228   8.94    266      -79.6
   09/12/2018 19:50      74.1      73.5       57     57.7      0.00      0.00      83.5     0.35      1011.2     1.6       W   264   3.1       W   267   8.95    266      -80.8
   09/12/2018 19:40      74.4      73.8       57     57.6      0.00      0.00      83.4     0.35      1011.2     2.0      NW   310   4.0     NNW   346   8.95    266      -81.8
   09/12/2018 19:30      74.8      74.1       56     57.6      0.00      0.00      83.4     0.35      1011.1     2.1     WNW   291   4.5     WNW   290   8.95    266      -83.2
   09/12/2018 19:20      75.5      74.4       55     57.5      0.00      0.00      83.4     0.35      1011.0     2.8     WNW   303   5.1     WNW   291   8.95    266      -83.4
   09/12/2018 19:10      76.4      75.2       53     57.5      0.00      0.00      83.3     0.35      1010.9     2.8      NW   321   4.9     NNE    12   8.95    266      -82.9
   09/12/2018 19:00      77.6      76.1       51     57.5      0.00      0.00      83.3     0.35      1010.8     3.0      NW   322   6.2      NW   311   8.96    266      -80.2
   09/12/2018 18:50      78.0      77.2       50     57.5      0.00      0.00      83.3     0.35      1010.8     1.9     WNW   302   4.7     WNW   301   8.96    265      -76.0
   09/12/2018 18:40      78.8      77.7       49     57.3      0.00      0.00      83.2     0.35      1010.6     2.8      NW   305   6.1     WNW   288   8.97    265      -67.4
   09/12/2018 18:30      80.2      78.5       47     57.1      0.00      0.00      83.2     0.35      1010.6     3.3      NW   323   6.8     NNW   335   8.97    265      -47.3
   09/12/2018 18:20      80.6      79.7       46     57.1      0.00      0.00      83.2     0.35      1010.7     3.7       W   277   8.0     WSW   246   8.97    264      -26.8
   09/12/2018 18:10      80.8      80.2       45     57.0      0.00      0.00      83.1     0.35      1010.8     4.2     WSW   245   6.7       W   263   8.98    264       -5.8
   09/12/2018 18:00      81.1      80.5       43     56.3      0.00      0.00      83.1     0.35      1010.8     3.4     SSW   194   6.9      SW   217   8.98    264       15.4
   09/12/2018 17:50      81.6      80.6       42     56.2      0.00      0.00      83.1     0.35      1010.8     3.6       S   177   6.3       S   187   8.99    264       39.9
   09/12/2018 17:40      82.2      81.3       43     56.7      0.00      0.00      83.0     0.35      1010.8     3.7       S   181   6.3     SSW   197   8.99    264       65.3
   09/12/2018 17:30      82.2      81.6       42     56.3      0.00      0.00      83.0     0.35      1010.7     3.6       S   183   5.5      SW   216   9.00    264       91.5
   09/12/2018 17:20      82.6      81.7       41     56.2      0.00      0.00      82.9     0.35      1010.6     4.5     SSW   192   8.5     SSW   194   9.00    264      119.6
   09/12/2018 17:10      82.8      82.3       41     56.2      0.00      0.00      82.9     0.35      1010.6     4.6     SSW   193   7.8     SSW   212   9.01    264      147.3
   09/12/2018 17:00      84.5      82.6       40     56.3      0.00      0.00      82.8     0.35      1010.6     4.9       S   188   8.3     SSW   206   9.01    264      175.9
   09/12/2018 16:50      84.3      83.2       39     56.4      0.00      0.00      82.8     0.35      1010.6     4.2       S   190   6.6      SW   222   9.02    264      202.6
   09/12/2018 16:40      84.4      83.1       39     56.0      0.00      0.00      82.7     0.35      1010.6     4.7       S   189   7.8     SSW   204   9.02    264      229.3
   09/12/2018 16:30      84.9      84.0       38     55.9      0.00      0.00      82.7     0.35      1010.6     5.2     SSW   198   8.2       S   190   9.02    264      252.1
   09/12/2018 16:20      85.4      84.6       37     56.1      0.00      0.00      82.6     0.35      1010.6     5.1     SSW   207   8.8     SSE   147   9.03    264      273.5
   09/12/2018 16:10      85.1      84.1       38     56.0      0.00      0.00      82.6     0.35      1010.7     4.7     SSE   162   8.9       S   181   9.03    264      292.9
   09/12/2018 16:00      85.6      84.3       37     56.1      0.00      0.00      82.6     0.35      1010.7     4.0     SSE   154   7.0       S   171   9.04    264      312.2
   09/12/2018 15:50      85.9      84.9       37     56.5      0.00      0.00      82.5     0.35      1010.7     3.4      SE   144   7.7      SE   131   9.04    264      332.1
   09/12/2018 15:40      85.6      84.4       38     56.8      0.00      0.00      82.4     0.35      1010.8     4.9       S   177   9.9     SSW   205   9.05    264      353.6
   09/12/2018 15:30      87.4      85.2       37     57.1      0.00      0.00      82.4     0.35      1010.9     4.5     SSE   167  10.0       S   174   9.05    264      367.2
   09/12/2018 15:20      88.2      87.3       36     57.7      0.00      0.00      82.3     0.35      1010.9     2.8     ESE   111   7.6      SE   139   9.06    264      382.7
   09/12/2018 15:10      87.6      86.7       36     57.1      0.00      0.00      82.3     0.35      1011.0     3.3     ENE    60   5.8     ESE   106   9.06    264      394.4
   09/12/2018 15:00      87.5      86.6       36     56.9      0.00      0.00      82.3     0.34      1011.1     3.4     ENE    72   8.2     ENE    67   9.06    264      410.5
   09/12/2018 14:50      87.8      86.8       35     56.8      0.00      0.00      82.2     0.34      1011.2     3.2      NE    54   6.2     ENE    75   9.07    264      423.8
   09/12/2018 14:40      87.2      86.0       36     56.3      0.00      0.00      82.1     0.34      1011.3     2.5     ENE    65   6.6      NE    55   9.07    264      433.6
   09/12/2018 14:30      87.7      86.2       35     56.0      0.00      0.00      82.1     0.34      1011.4     2.3     ENE    67   5.5      NE    56   9.07    263      447.2
   09/12/2018 14:20      87.7      85.8       35     55.9      0.00      0.00      82.1     0.34      1011.6     2.0     NNE    21   6.2     NNE    33   9.07    263      461.7
   09/12/2018 14:10      86.4      85.2       36     56.1      0.00      0.00      82.1     0.34      1011.7     2.2     ENE    57   5.6     ESE   115   9.07    264      475.0
   09/12/2018 14:00      86.2      85.1       36     55.9      0.00      0.00      82.0     0.34      1011.8     2.0      NE    40   5.8       E   100   9.08    264      485.7
   09/12/2018 13:50      85.7      84.3       38     56.3      0.00      0.00      82.0     0.34      1011.9     2.1      NE    44   5.5     ENE    75   9.08    264      495.8
   09/12/2018 13:40      85.8      83.9       38     56.6      0.00      0.00      81.9     0.34      1012.0     2.4     ENE    75   5.0      SE   130   9.08    264      505.4
   09/12/2018 13:30      84.5      82.8       40     56.9      0.00      0.00      81.9     0.34      1012.2     2.8     SSE   161   5.3      SW   218   9.08    264      511.2
   09/12/2018 13:20      84.6      83.3       40     57.4      0.00      0.00      81.9     0.34      1012.2     2.7      NE    42   4.4       N   355   9.08    264      514.3
   09/12/2018 13:10      83.5      82.4       41     57.2      0.00      0.00      81.8     0.34      1012.4     2.4     NNW   334   5.7     NNE    29   9.08    264      519.2
   09/12/2018 13:00      83.2      82.0       42     57.4      0.00      0.00      81.9     0.34      1012.5     2.5     ENE    69   5.6      SE   145   9.08    264      519.4
   09/12/2018 12:50      83.1      81.3       43     57.8      0.00      0.00      81.9     0.34      1012.7     2.0     NNE    29   4.1     SSW   198   9.09    264      520.3
   09/12/2018 12:40      82.9      80.7       45     58.0      0.00      0.00      81.8     0.34      1012.7     2.7     ENE    70   4.9     ENE    71   9.09    264      519.1
   09/12/2018 12:30      81.6      80.8       45     57.9      0.00      0.00      81.8     0.34      1012.8     2.6     NNE    22   5.1     ENE    59   9.09    264      521.1
   09/12/2018 12:20      81.6      80.4       45     57.9      0.00      0.00      81.8     0.34      1012.9     2.6     NNW   347   6.6     NNW   344   9.09    264      520.7
   09/12/2018 12:10      81.1      79.3       47     57.8      0.00      0.00      81.8     0.34      1013.0     2.6     NNW   332   6.7     NNW   347   9.09    264      515.3
   09/12/2018 12:00      80.5      79.2       47     57.5      0.00      0.00      81.9     0.34      1013.1     2.2     SSW   210   5.4     WSW   246   9.09    265      516.4
   09/12/2018 11:50      80.4      79.2       47     57.6      0.00      0.00      81.9     0.34      1013.2     1.6     NNE    15   4.2     ESE   113   9.09    264      509.3
   09/12/2018 11:40      80.2      79.2       47     57.7      0.00      0.00      81.8     0.34      1013.3     2.1     NNE    29   4.6      NE    39   9.09    265      502.2
   09/12/2018 11:30      79.5      77.8       48     57.8      0.00      0.00      81.9     0.34      1013.4     1.5       N     2   3.5       E    96   9.09    265      494.4
   09/12/2018 11:20      78.5      77.6       50     57.5      0.00      0.00      81.9     0.34      1013.5     1.9     NNW   331   4.5      NW   310   9.09    264      483.1
   09/12/2018 11:10      77.9      76.4       51     57.5      0.00      0.00      81.9     0.34      1013.6     2.0       N   351   3.8     NNW   338   9.09    265      473.4
   09/12/2018 11:00      76.6      75.8       52     57.3      0.00      0.00      81.9     0.34      1013.6     2.1      NW   311   4.4       N     5   9.10    265      461.7
   09/12/2018 10:50      76.8      75.3       52     57.4      0.00      0.00      81.9     0.34      1013.7     1.5       N     9   3.5     NNW   331   9.10    266      447.2
   09/12/2018 10:40      75.5      74.9       54     57.3      0.00      0.00      81.9     0.34      1013.7     1.8      NE    46   4.3       N     0   9.10    266      431.8
   09/12/2018 10:30      75.4      73.3       55     57.2      0.00      0.00      81.9     0.34      1013.8     1.1     ESE   107   3.5       E    86   9.10    266      418.4
   09/12/2018 10:20      74.1      73.3       56     57.0      0.00      0.00      82.0     0.34      1013.8     1.5      NE    35   2.7      SE   124   9.10    266      401.1
   09/12/2018 10:10      73.9      73.2       56     57.1      0.00      0.00      82.0     0.34      1013.8     1.5     NNE    34   4.0     ENE    65   9.10    266      383.8
   09/12/2018 10:00      73.3      72.6       57     57.0      0.00      0.00      82.0     0.34      1013.8     1.0       N     3   5.0       N     0   9.10    266      363.1
   09/12/2018 09:50      73.0      72.0       58     57.1      0.00      0.00      82.1     0.34      1013.6     1.7      NE    43   4.9     ESE   108   9.10    266      347.1
   09/12/2018 09:40      72.5      70.8       61     57.4      0.00      0.00      82.1     0.35      1013.6     1.2       N   358   3.8     ENE    70   9.10    266      327.6
   09/12/2018 09:30      71.2      70.3       63     57.6      0.00      0.00      82.1     0.35      1013.5     2.4     NNE    19   4.4     NNE    30   9.10    266      306.5
   09/12/2018 09:20      70.8      69.3       65     57.5      0.00      0.00      82.1     0.35      1013.5     1.7     ENE    74   4.4       E    91   9.10    266      274.2
   09/12/2018 09:10      69.4      68.3       67     57.5      0.00      0.00      82.1     0.35      1013.6     2.4     ESE   111   6.2     SSE   150   9.10    267      237.7
   09/12/2018 09:00      69.3      68.4       67     57.5      0.00      0.00      82.2     0.35      1013.5     2.2       E    86   5.5     ESE   102   9.10    267      208.2
   09/12/2018 08:50      68.5      67.2       69     57.4      0.00      0.00      82.2     0.35      1013.5     0.6      SW   235   3.2       N   355   9.10    268      150.1
   09/12/2018 08:40      67.4      67.0       70     57.1      0.00      0.00      82.2     0.35      1013.5     1.1       E    94   2.6     ENE    63   9.10    268       59.9
   09/12/2018 08:30      67.5      67.0       70     57.2      0.00      0.00      82.3     0.35      1013.5     1.7     ENE    68   3.6      NE    56   9.10    268       40.7
   09/12/2018 08:20      67.4      66.9       71     57.3      0.00      0.00      82.3     0.35      1013.4     1.5       N     0   3.5       W   278   9.10    268       63.0
   09/12/2018 08:10      67.2      66.6       71     57.2      0.00      0.00      82.3     0.35      1013.4     1.6     NNW   346   3.3     NNW   348   9.10    268       60.7
   09/12/2018 08:00      66.9      66.3       71     57.1      0.00      0.00      82.3     0.35      1013.4     1.1     NNE    32   2.7     NNE    27   9.10    268       43.9
   09/12/2018 07:50      66.6      66.0       72     57.1      0.00      0.00      82.4     0.35      1013.3     0.9       E    83   2.7      SE   146   9.10    268       24.1
   09/12/2018 07:40      66.3      65.9       73     57.2      0.00      0.00      82.4     0.35      1013.3     1.1       E    79   2.5      NE    54   9.10    268       14.7
   09/12/2018 07:30      66.2      65.8       74     57.4      0.00      0.00      82.4     0.35      1013.3     0.7     ENE    73   2.5       E    97   9.10    268       11.9
   09/12/2018 07:20      66.1      65.7       74     57.3      0.00      0.00      82.4     0.35      1013.2     0.6     SSE   149   2.8      SE   145   9.10    269        3.2
   09/12/2018 07:10      66.1      65.6       74     57.3      0.00      0.00      82.5     0.35      1013.1     0.0      SE   126   0.5       E    89   9.10    269       -3.6
   09/12/2018 07:00      65.7      65.3       75     57.2      0.00      0.00      82.5     0.35      1013.0     0.7      NE    48   2.1     NNE    13   9.10    269       -9.4
   09/12/2018 06:50      65.6      65.2       75     57.3      0.00      0.00      82.6     0.35      1012.9     0.7     ENE    71   2.2       E    80   9.10    269      -12.8
   09/12/2018 06:40      65.5      65.1       76     57.4      0.00      0.00      82.6     0.35      1012.9     0.2     NNE    30   1.4     NNE    21   9.10    269      -16.4
   09/12/2018 06:30      65.5      65.1       76     57.5      0.00      0.00      82.6     0.35      1012.9     1.0       N     6   2.1       N   353   9.10    269      -16.7
   09/12/2018 06:20      65.3      64.9       76     57.4      0.00      0.00      82.6     0.35      1012.8     0.6       N     0   2.0       N     4   9.10    269      -16.3
   09/12/2018 06:10      65.2      64.7       76     57.3      0.00      0.00      82.7     0.35      1012.7     0.0      NE    50   0.6     ENE    77   9.10    269      -17.6
   09/12/2018 06:00      65.1      64.4       77     57.3      0.00      0.00      82.7     0.35      1012.7     0.5     ESE   104   1.6      SE   141   9.10    269      -15.9
   09/12/2018 05:50      64.7      64.4       77     57.4      0.00      0.00      82.7     0.35      1012.8     0.6       E    93   2.4      SE   126   9.10    269      -15.7
   09/12/2018 05:40      64.6      63.9       78     57.4      0.00      0.00      82.7     0.35      1012.8     0.9     ENE    66   3.6      NE    48   9.10    269      -15.7
   09/12/2018 05:30      64.1      63.7       80     57.7      0.00      0.00      82.8     0.35      1012.7     1.0     ESE   102   2.8       E    85   9.10    270      -14.9
   09/12/2018 05:20      64.0      63.5       82     58.2      0.00      0.00      82.7     0.35      1012.7     1.0     ESE   104   3.0     ENE    76   9.10    269      -14.2
   09/12/2018 05:10      63.8      63.3       83     58.3      0.00      0.00      82.8     0.35      1012.6     1.6      SE   139   3.7      SE   142   9.10    269      -15.9
   09/12/2018 05:00      63.8      63.3       83     58.3      0.00      0.00      82.9     0.35      1012.6     1.9     SSE   162   3.4       S   177   9.10    269      -13.7
   09/12/2018 04:50      63.9      63.5       83     58.5      0.00      0.00      82.9     0.35      1012.5     2.1      SE   129   3.4      SE   146   9.10    269      -12.3
   09/12/2018 04:40      63.8      63.4       83     58.5      0.00      0.00      82.9     0.35      1012.5     0.8     SSE   166   3.9       S   185   9.10    269      -11.7
   09/12/2018 04:30      63.8      63.3       84     58.5      0.00      0.00      82.9     0.35      1012.5     1.4      SE   136   3.7      SE   137   9.10    269      -11.2
   09/12/2018 04:20      63.8      63.5       83     58.5      0.00      0.00      83.0     0.35      1012.4     1.1     ESE   111   2.8     ENE    58   9.10    268      -11.3
   09/12/2018 04:10      63.8      63.3       83     58.3      0.00      0.00      83.0     0.35      1012.4     0.6      SE   134   1.8     ESE   102   9.10    268      -11.1
   09/12/2018 04:00      63.6      63.0       83     57.8      0.00      0.00      83.1     0.35      1012.3     0.6     SSE   151   1.8      SE   138   9.10    269      -12.2
   09/12/2018 03:50      63.3      62.8       82     57.5      0.00      0.00      83.2     0.35      1012.2     0.9     SSE   165   2.0       S   189   9.10    269      -12.7
   09/12/2018 03:40      63.1      62.4       84     57.8      0.00      0.00      83.1     0.35      1012.3     0.8     SSE   153   2.0      SE   129   9.10    269      -12.2
   09/12/2018 03:30      62.5      61.4       85     57.3      0.00      0.00      83.2     0.35      1012.2     1.1      SE   143   2.7      SE   142   9.10    268      -11.5
   09/12/2018 03:20      61.6      60.5       86     56.8      0.00      0.00      83.2     0.35      1012.3     0.5     SSW   203   1.4      SE   142   9.10    269       -9.5
   09/12/2018 03:10      60.6      59.9       87     56.2      0.00      0.00      83.2     0.35      1012.4     0.4       S   174   1.6      SE   141   9.10    267      -12.4
   09/12/2018 03:00      60.7      60.0       87     56.3      0.00      0.00      83.3     0.35      1012.4     0.3     SSE   164   1.4     SSE   162   9.10    258      -30.4
   09/12/2018 02:50      61.3      60.3       87     56.9      0.00      0.00      83.3     0.35      1012.4     0.4       S   177   1.3       S   177   9.11    263      -40.0
   09/12/2018 02:40      61.6      60.9       87     57.2      0.00      0.00      83.3     0.35      1012.3     0.1       S   177   1.3       S   180   9.11    266      -44.3
   09/12/2018 02:30      61.7      61.0       86     57.0      0.00      0.00      83.4     0.35      1012.4     0.0     SSE   163   0.7     SSE   163   9.11    261      -46.6
   09/12/2018 02:20      62.2      61.3       86     57.5      0.00      0.00      83.4     0.35      1012.4     0.2     SSE   168   0.9       S   182   9.11    267      -47.6
   09/12/2018 02:10      62.7      61.8       86     57.9      0.00      0.00      83.4     0.35      1012.5     0.2     SSE   147   2.1       E   100   9.11    266      -48.8
   09/12/2018 02:00      62.8      62.2       86     58.0      0.00      0.00      83.5     0.35      1012.4     0.0     SSW   200   0.5     SSW   200   9.11    266      -50.6
   09/12/2018 01:50      63.0      62.5       86     58.3      0.00      0.00      83.5     0.35      1012.4     0.0       N     0   0.0       E    91   9.11    266      -52.4
   09/12/2018 01:40      63.1      62.7       85     58.5      0.00      0.00      83.5     0.35      1012.3     0.4       E    95   2.1       E    93   9.11    266      -55.0
   09/12/2018 01:30      63.3      62.8       85     58.1      0.00      0.00      83.5     0.35      1012.3     0.4     ESE   111   1.4       E    90   9.11    260      -57.4
   09/12/2018 01:20      63.2      62.8       84     58.0      0.00      0.00      83.5     0.35      1012.2     0.6     ESE   123   1.6      SE   135   9.11    256      -60.0
   09/12/2018 01:10      63.5      62.8       83     57.6      0.00      0.00      83.6     0.35      1012.2     0.2      SE   132   1.0      SE   145   9.11    257      -63.0
   09/12/2018 01:00      63.5      63.1       82     57.8      0.00      0.00      83.6     0.35      1012.2     0.1     ESE   111   1.3       E    95   9.11    255      -63.9
   09/12/2018 00:50      63.6      63.0       81     57.4      0.00      0.00      83.6     0.35      1012.2     0.4      SE   139   1.3      SE   124   9.11    255      -65.1
   09/12/2018 00:40      64.1      63.3       80     57.4      0.00      0.00      83.7     0.35      1012.2     0.0     ESE   103   0.3     ESE   103   9.11    257      -65.4
   09/12/2018 00:30      64.5      63.7       79     57.3      0.00      0.00      83.7     0.35      1012.2     0.0       N     0   0.0     ESE   103   9.12    260      -65.6
   09/12/2018 00:20      65.3      64.2       78     57.5      0.00      0.00      83.7     0.35      1012.2     0.0     ESE   103   0.2     ESE   103   9.12    260      -67.3
   09/12/2018 00:10      65.5      64.8       77     57.6      0.00      0.00      83.7     0.35      1012.2     0.0       N     0   0.0       E    90   9.12    262      -67.9
   09/12/2018 00:00      65.7      65.2       77     57.9      0.00      0.00      83.8     0.35      1012.2     0.3     ESE   105   1.4      SE   128   9.12    265      -69.0
   09/11/2018 23:50      66.0      65.5       76     57.8      0.00      0.00      83.7     0.35      1012.1     1.0     ESE   104   3.0     ESE   111   9.12    268      -69.0
   09/11/2018 23:40      66.0      65.6       74     57.4      0.00      0.00      83.7     0.35      1012.0     1.1       E   100   3.0     ESE   110   9.12    268      -69.2
   09/11/2018 23:30      65.8      65.4       73     56.7      0.00      0.00      83.8     0.35      1012.1     0.9     ESE   103   2.5     ESE   107   9.12    267      -69.4
   09/11/2018 23:20      65.6      64.9       68     54.5      0.00      0.00      83.8     0.35      1012.0     0.6     ESE   104   2.9       E    89   9.12    267      -69.2
   09/11/2018 23:10      65.6      64.9       63     52.4      0.00      0.00      83.8     0.35      1011.9     0.1       S   174   0.8       S   174   9.12    266      -68.9
   09/11/2018 23:00      65.9      65.3       61     51.8      0.00      0.00      83.8     0.35      1011.8     0.0       S   174   0.6       S   174   9.12    266      -69.9
   09/11/2018 22:50      66.3      65.5       58     50.8      0.00      0.00      83.8     0.35      1011.8     0.1       S   174   0.7       S   174   9.12    266      -71.0
   09/11/2018 22:40      66.8      66.1       58     51.0      0.00      0.00      83.8     0.35      1011.8     0.2       S   174   0.9       S   174   9.12    266      -72.0
   09/11/2018 22:30      66.7      66.3       57     50.8      0.00      0.00      83.8     0.35      1011.7     0.1       S   174   0.6       S   174   9.12    266      -72.5
   09/11/2018 22:20      66.9      66.4       57     50.7      0.00      0.00      83.9     0.35      1011.6     0.2       S   174   1.0       S   174   9.13    266      -72.9
   09/11/2018 22:10      67.5      66.7       55     50.3      0.00      0.00      83.9     0.35      1011.6     0.2       S   174   0.8       S   174   9.13    266      -73.8
   09/11/2018 22:00      67.7      67.1       54     50.3      0.00      0.00      83.9     0.35      1011.6     0.4     SSE   165   1.1       S   174   9.13    266      -74.3
   09/11/2018 21:50      68.4      67.3       52     49.7      0.00      0.00      83.9     0.35      1011.6     0.5       S   170   1.9       S   176   9.13    265      -75.5
   09/11/2018 21:40      68.9      68.0       51     49.4      0.00      0.00      83.9     0.35      1011.6     0.3       S   174   0.9     SSE   164   9.13    265      -76.2
   09/11/2018 21:30      68.9      68.6       49     48.8      0.00      0.00      83.9     0.35      1011.5     0.0     SSW   209   0.8     SSW   209   9.14    265      -76.9
   09/11/2018 21:20      69.4      68.6       48     48.3      0.00      0.00      83.9     0.35      1011.4     0.3      SW   215   1.0      SW   230   9.14    265      -77.4
   09/11/2018 21:10      70.3      69.1       47     48.3      0.00      0.00      83.8     0.35      1011.4     0.6     SSE   155   1.4      SE   143   9.14    264      -77.7
   09/11/2018 21:00      70.7      70.0       45     48.0      0.00      0.00      83.8     0.35      1011.3     0.5     SSE   169   1.5       S   179   9.14    264      -76.6
   09/11/2018 20:50      71.1      70.3       44     47.6      0.00      0.00      83.8     0.35      1011.2     0.0       N     0   0.0      SE   128   9.14    264      -76.7
   09/11/2018 20:40      71.3      70.7       43     47.2      0.00      0.00      83.8     0.35      1011.1     0.0      SE   128   0.8      SE   128   9.15    264      -77.2
   09/11/2018 20:30      72.2      71.0       41     46.6      0.00      0.00      83.9     0.35      1011.0     0.0      SE   128   0.0      SE   128   9.15    264      -78.6
   09/11/2018 20:20      73.2      71.9       39     46.4      0.00      0.00      83.8     0.35      1010.9     0.0      SE   134   0.5      SE   134   9.15    264      -80.8
   09/11/2018 20:10      73.9      73.0       38     46.2      0.00      0.00      83.8     0.35      1010.7     0.7     SSE   147   2.0      SE   142   9.15    264      -82.1
   09/11/2018 20:00      74.5      73.7       38     46.5      0.00      0.00      83.8     0.35      1010.6     1.3     SSE   163   2.4       S   179   9.15    264      -83.6
   09/11/2018 19:50      75.0      74.3       38     46.8      0.00      0.00      83.8     0.35      1010.5     1.5     SSE   163   3.0       S   176   9.16    264      -84.9
   09/11/2018 19:40      75.6      74.6       37     47.3      0.00      0.00      83.8     0.35      1010.3     2.1     SSE   167   3.3     SSE   162   9.16    264      -86.1
   09/11/2018 19:30      76.1      75.3       37     47.4      0.00      0.00      83.7     0.35      1010.1     1.7       S   174   3.2       S   187   9.16    264      -87.4
   09/11/2018 19:20      76.8      75.8       35     46.9      0.00      0.00      83.7     0.35      1010.0     2.0       S   174   3.6     SSW   206   9.17    264      -87.2
   09/11/2018 19:10      77.7      76.5       33     45.6      0.00      0.00      83.6     0.35      1010.0     2.3       S   178   3.6       S   172   9.17    264      -86.2
   09/11/2018 19:00      78.4      77.4       31     45.0      0.00      0.00      83.6     0.35      1009.9     1.9       S   177   3.5     SSW   195   9.17    264      -83.2
   09/11/2018 18:50      79.0      78.0       32     46.5      0.00      0.00      83.6     0.35      1009.8     2.7       S   190   4.5      SW   221   9.18    263      -78.3
   09/11/2018 18:40      79.7      78.7       33     47.3      0.00      0.00      83.6     0.35      1009.7     3.0       S   190   5.0     SSW   209   9.18    263      -66.4
   09/11/2018 18:30      80.8      79.3       31     46.4      0.00      0.00      83.5     0.35      1009.6     3.8       S   180   7.9       S   185   9.19    263      -48.0
   09/11/2018 18:20      82.1      80.7       28     44.8      0.00      0.00      83.5     0.35      1009.7     3.4       S   182   6.2       S   176   9.19    263      -32.2
   09/11/2018 18:10      82.9      81.8       28     46.0      0.00      0.00      83.4     0.35      1009.6     3.5       S   186   5.8      SW   223   9.20    263      -13.5
   09/11/2018 18:00      83.3      82.6       30     47.8      0.00      0.00      83.4     0.35      1009.5     3.7     SSW   192   7.0     SSW   198   9.20    263       10.7
   09/11/2018 17:50      83.8      82.7       30     48.4      0.00      0.00      83.4     0.35      1009.4     4.2       S   187   6.4     SSW   197   9.21    263       34.7
   09/11/2018 17:40      84.6      83.3       30     49.1      0.00      0.00      83.4     0.35      1009.4     4.3       S   190   6.9     SSW   208   9.21    263       59.5
   09/11/2018 17:30      85.4      84.2       29     48.7      0.00      0.00      83.3     0.35      1009.4     4.0       S   179   6.7       S   184   9.22    263       85.3
   09/11/2018 17:20      86.0      85.1       26     47.0      0.00      0.00      83.3     0.35      1009.4     3.1     SSE   156   6.3       S   177   9.23    263      111.1
   09/11/2018 17:10      86.2      85.2       26     46.6      0.00      0.00      83.3     0.35      1009.5     3.0     SSE   157   6.4     ESE   116   9.23    263      138.2
   09/11/2018 17:00      86.6      85.4       27     48.3      0.00      0.00      83.2     0.35      1009.5     3.3       S   183   7.0       S   180   9.23    263      163.5
   09/11/2018 16:50      87.1      86.2       26     47.8      0.00      0.00      83.2     0.35      1009.5     2.0       S   186   5.4      SE   139   9.24    263      188.5
   09/11/2018 16:40      87.7      86.2       27     49.6      0.00      0.00      83.1     0.35      1009.5     2.5     SSE   165   4.9     SSW   203   9.24    263      215.3
   09/11/2018 16:30      87.3      86.2       28     49.9      0.00      0.00      83.1     0.35      1009.5     2.0     ENE    75   4.8       E    97   9.25    263      241.0
   09/11/2018 16:20      86.3      84.4       31     51.1      0.00      0.00      83.0     0.35      1009.6     2.0      SE   142   4.9       E    99   9.25    264      266.6
   09/11/2018 16:10      85.1      84.2       32     51.6      0.00      0.00      83.0     0.35      1009.7     4.0     ESE   110   7.4      SE   142   9.25    264      288.6
   09/11/2018 16:00      85.7      84.8       32     51.8      0.00      0.00      82.9     0.35      1009.8     3.3     SSE   154   5.6     SSE   153   9.26    264      309.8
   09/11/2018 15:50      86.4      84.4       33     53.0      0.00      0.00      82.9     0.35      1009.9     3.9     ESE   121   7.2      SE   142   9.26    264      332.8
   09/11/2018 15:40      87.5      85.8       31     52.4      0.00      0.00      82.8     0.35      1009.9     3.7     ESE   121   6.9      SE   129   9.27    264      350.5
   09/11/2018 15:30      87.7      86.2       30     51.8      0.00      0.00      82.8     0.35      1010.0     2.5     ESE   103   6.1      NE    54   9.27    264      366.8
   09/11/2018 15:20      87.6      86.0       30     51.8      0.00      0.00      82.7     0.35      1010.1     2.7     ESE   109   6.9     ENE    78   9.28    264      385.7
   09/11/2018 15:10      87.6      86.2       30     52.2      0.00      0.00      82.7     0.35      1010.1     3.1       E    92   6.4       E    80   9.28    263      403.7
   09/11/2018 15:00      87.7      86.7       32     53.3      0.00      0.00      82.7     0.35      1010.2     2.9       E    79   5.9      NE    42   9.28    263      420.1
   09/11/2018 14:50      87.5      86.5       34     55.3      0.00      0.00      82.6     0.35      1010.3     3.7      NE    51   7.0      NE    49   9.29    263      432.2
   09/11/2018 14:40      87.3      85.9       36     56.3      0.00      0.00      82.5     0.35      1010.3     3.5       E    80   8.0     ENE    63   9.29    264      447.7
   09/11/2018 14:30      87.9      87.0       34     55.3      0.00      0.00      82.5     0.35      1010.4     3.5      NE    52   6.8     ENE    70   9.29    263      456.5
   09/11/2018 14:20      87.6      86.7       33     54.8      0.00      0.00      82.5     0.35      1010.5     2.7     ENE    59   5.8       E   100   9.29    263      466.3
   09/11/2018 14:10      87.9      86.8       34     55.4      0.00      0.00      82.5     0.35      1010.6     3.6      NE    42   5.6      NE    37   9.30    263      473.6
   09/11/2018 14:00      87.8      86.4       33     54.5      0.00      0.00      82.4     0.35      1010.7     2.5     NNE    20   4.4      NE    46   9.30    264      486.6
   09/11/2018 13:50      87.8      86.8       33     54.2      0.00      0.00      82.4     0.35      1010.8     3.2      NE    48   6.0      NE    44   9.30    263      494.8
   09/11/2018 13:40      87.1      86.0       34     54.4      0.00      0.00      82.4     0.35      1010.9     2.5     NNE    33   5.3     NNE    11   9.30    263      502.3
   09/11/2018 13:30      86.8      85.9       34     54.9      0.00      0.00      82.3     0.35      1011.0     2.4     NNE    22   4.7      NE    37   9.30    264      504.4
   09/11/2018 13:20      86.0      84.8       35     54.9      0.00      0.00      82.3     0.35      1011.1     2.8      NE    34   6.9      SE   138   9.31    264      515.6
   09/11/2018 13:10      85.7      84.0       36     54.7      0.00      0.00      82.3     0.34      1011.2     2.7      NE    45   7.7      NE    55   9.31    264      520.5
   09/11/2018 13:00      85.5      83.7       37     55.1      0.00      0.00      82.3     0.34      1011.3     2.5     NNE    26   5.7     NNE    12   9.31    264      523.3
   09/11/2018 12:50      84.7      83.6       38     55.6      0.00      0.00      82.3     0.35      1011.5     2.6      NE    55   5.3      NE    34   9.31    264      525.2
   09/11/2018 12:40      83.8      83.0       39     56.0      0.00      0.00      82.3     0.35      1011.6     2.9     NNE    24   5.5     NNE    14   9.31    264      523.2
   09/11/2018 12:30      83.2      82.4       41     56.7      0.00      0.00      82.2     0.34      1011.7     2.2      NE    50   6.6      NE    43   9.31    264      524.6
   09/11/2018 12:20      82.5      81.4       43     57.5      0.00      0.00      82.2     0.35      1011.9     2.0       E    99   6.0     ESE   117   9.31    264      524.3
   09/11/2018 12:10      82.1      80.7       44     57.7      0.00      0.00      82.3     0.35      1012.0     2.6     NNE    26   4.9     NNE    20   9.31    265      518.6
   09/11/2018 12:00      81.3      80.1       45     57.7      0.00      0.00      82.2     0.35      1012.1     2.3       N   356   4.6     NNE    18   9.31    264      514.1
   09/11/2018 11:50      80.6      79.4       47     58.0      0.00      0.00      82.3     0.35      1012.1     2.9      NE    52   6.4      NE    52   9.32    265      509.9
   09/11/2018 11:40      80.4      79.4       48     58.4      0.00      0.00      82.2     0.35      1012.2     2.8     NNE    28   5.9     ENE    65   9.32    265      502.9
   09/11/2018 11:30      79.6      78.4       49     58.4      0.00      0.00      82.3     0.35      1012.3     2.6     NNE    18   5.9      NE    53   9.32    266      495.4
   09/11/2018 11:20      78.5      77.2       51     58.1      0.00      0.00      82.3     0.35      1012.4     2.7     NNE    24   5.3      NE    52   9.32    265      486.6
   09/11/2018 11:10      77.2      76.4       52     58.1      0.00      0.00      82.3     0.35      1012.5     3.1       N     6   5.8      NE    43   9.32    266      476.6
   09/11/2018 11:00      77.5      76.3       53     58.2      0.00      0.00      82.4     0.35      1012.6     2.3       E    81   4.6     ESE   105   9.32    266      465.0
   09/11/2018 10:50      76.8      75.8       53     58.1      0.00      0.00      82.4     0.35      1012.7     2.1     ENE    64   4.8     NNE    28   9.32    266      452.5
   09/11/2018 10:40      76.0      75.2       55     58.1      0.00      0.00      82.4     0.35      1012.8     2.3      NE    39   4.5     NNE    31   9.32    266      435.9
   09/11/2018 10:30      76.3      75.2       55     58.4      0.00      0.00      82.4     0.35      1012.8     2.1      NE    38   5.3     NNE    22   9.32    266      419.5
   09/11/2018 10:20      76.3      74.2       56     58.5      0.00      0.00      82.4     0.35      1012.8     1.4     NNE    30   5.3       N     0   9.32    266      402.7
   09/11/2018 10:10      74.8      72.8       58     58.3      0.00      0.00      82.4     0.35      1012.8     1.3       N    11   4.0      NE    35   9.32    266      384.9
   09/11/2018 10:00      73.0      71.3       61     58.0      0.00      0.00      82.5     0.35      1012.8     1.8     WSW   254   3.6     WSW   259   9.32    266      371.0
   09/11/2018 09:50      71.8      71.3       62     57.9      0.00      0.00      82.5     0.35      1012.8     2.0     SSE   165   4.3      SE   130   9.32    266      352.8
   09/11/2018 09:40      72.1      71.2       62     57.9      0.00      0.00      82.5     0.35      1012.8     2.0     SSE   153   5.9     SSE   167   9.32    266      332.8
   09/11/2018 09:30      72.3      71.0       63     58.4      0.00      0.00      82.5     0.35      1012.9     1.6     NNE    27   4.2      SE   139   9.32    266      307.8
   09/11/2018 09:20      71.3      70.6       65     58.6      0.00      0.00      82.6     0.35      1012.8     1.9      NE    50   3.7      NE    47   9.32    267      283.3
   09/11/2018 09:10      71.1      70.5       65     58.6      0.00      0.00      82.6     0.35      1012.8     1.5     ENE    77   3.5       S   183   9.32    267      263.5
   09/11/2018 09:00      71.0      69.5       67     58.6      0.00      0.00      82.6     0.35      1012.7     1.7      NE    52   4.6     ENE    78   9.32    267      260.2
   09/11/2018 08:50      69.7      68.2       70     58.6      0.00      0.00      82.6     0.35      1012.7     1.2     ESE   102   3.2      SE   132   9.32    267      187.8
   09/11/2018 08:40      69.5      68.6       69     58.5      0.00      0.00      82.6     0.35      1012.6     0.9     ESE   117   3.7       E    94   9.32    268       99.0
   09/11/2018 08:30      69.7      69.1       69     58.6      0.00      0.00      82.7     0.35      1012.7     1.5       E    86   3.6      NE    42   9.32    268      131.9
   09/11/2018 08:20      69.4      67.6       72     59.0      0.00      0.00      82.7     0.35      1012.6     1.3      NE    39   3.8       E    97   9.32    268      199.2
   09/11/2018 08:10      67.8      66.3       76     58.9      0.00      0.00      82.7     0.35      1012.6     1.5      NE    48   4.0       E    81   9.32    268      123.5
   09/11/2018 08:00      66.4      65.9       77     58.9      0.00      0.00      82.8     0.35      1012.5     1.2       E    95   3.7      SE   133   9.32    269       35.0
   09/11/2018 07:50      66.1      65.7       78     58.8      0.00      0.00      82.8     0.35      1012.5     1.3     ESE   109   2.9      SE   139   9.32    269       28.3
   09/11/2018 07:40      66.1      65.6       78     58.8      0.00      0.00      82.8     0.35      1012.4     1.0       E    98   2.1       E    81   9.32    269       15.9
   09/11/2018 07:30      65.8      65.3       79     58.7      0.00      0.00      82.8     0.35      1012.4     1.2     ENE    58   2.8     ENE    62   9.32    269        8.6
   09/11/2018 07:20      65.6      65.2       80     58.9      0.00      0.00      82.8     0.35      1012.3     1.0      NE    41   2.8      NE    52   9.32    269      -19.4
   09/11/2018 07:10      65.5      65.0       81     59.3      0.00      0.00      82.9     0.35      1012.3     1.4      NE    54   3.8     ENE    65   9.32    269       -8.6
   09/11/2018 07:00      65.2      64.7       82     59.5      0.00      0.00      82.9     0.35      1012.1     1.4       E    80   3.3      SE   130   9.32    269       -6.7
   09/11/2018 06:50      65.1      64.6       83     59.5      0.00      0.00      83.0     0.35      1012.1     0.8     ESE   108   2.1     SSE   153   9.33    269       -9.3
   09/11/2018 06:40      65.0      64.5       83     59.5      0.00      0.00      82.9     0.35      1012.0     0.9      SE   143   2.2       S   186   9.33    269      -11.5
   09/11/2018 06:30      64.7      64.3       84     59.5      0.00      0.00      83.0     0.35      1011.9     1.2     ESE   107   2.6       E    90   9.33    269      -12.3
   09/11/2018 06:20      64.7      64.3       84     59.5      0.00      0.00      83.0     0.35      1011.8     1.9     SSE   150   3.3      SE   128   9.33    268      -12.9
   09/11/2018 06:10      64.7      64.2       85     59.6      0.00      0.00      83.1     0.35      1011.7     1.5     SSE   166   3.5     SSE   154   9.33    268      -15.4
   09/11/2018 06:00      64.5      64.1       85     59.7      0.00      0.00      83.1     0.35      1011.6     1.5     SSE   151   3.2     SSE   147   9.33    268      -14.7
   09/11/2018 05:50      64.5      63.9       86     59.9      0.00      0.00      83.1     0.35      1011.6     1.3     SSE   148   3.3       S   170   9.33    267      -14.3
   09/11/2018 05:40      64.7      63.9       86     60.0      0.00      0.00      83.1     0.35      1011.6     2.1      SE   127   4.9      SE   141   9.33    266      -12.7
   09/11/2018 05:30      64.5      64.1       87     60.3      0.00      0.00      83.2     0.35      1011.5     0.8     ESE   102   2.7      SE   146   9.33    266      -13.1
   09/11/2018 05:20      64.6      64.2       87     60.3      0.00      0.00      83.2     0.35      1011.4     1.7      SE   125   3.4     SSE   147   9.33    263      -13.7
   09/11/2018 05:10      64.7      64.2       87     60.5      0.00      0.00      83.2     0.35      1011.4     1.3     ESE   118   2.5     ESE   113   9.33    264      -13.3
   09/11/2018 05:00      64.8      64.3       87     60.7      0.00      0.00      83.2     0.35      1011.3     1.2       E    93   3.3       E    83   9.33    263      -11.7
   09/11/2018 04:50      64.7      64.3       88     60.7      0.00      0.00      83.2     0.35      1011.3     1.2     ESE   111   4.1      SE   130   9.33    263      -11.5
   09/11/2018 04:40      64.9      64.3       88     60.8      0.00      0.00      83.2     0.35      1011.3     1.2     ESE   107   3.8      SE   129   9.33    262      -11.3
   09/11/2018 04:30      64.7      64.3       88     60.8      0.00      0.00      83.3     0.35      1011.3     1.2       E    87   3.8     ENE    67   9.33    261      -11.2
   09/11/2018 04:20      64.6      64.2       88     60.9      0.00      0.00      83.3     0.35      1011.3     0.6     ESE   121   2.7       E    85   9.33    262      -11.2
   09/11/2018 04:10      64.5      64.1       88     60.8      0.00      0.00      83.4     0.35      1011.3     1.1       E    81   2.7     ESE   119   9.33    262      -11.2
   09/11/2018 04:00      64.6      64.2       88     60.8      0.00      0.00      83.3     0.35      1011.4     1.4       E    99   3.5       E    91   9.33    260      -11.3
   09/11/2018 03:50      64.5      64.0       89     60.8      0.00      0.00      83.4     0.35      1011.3     1.1       E    91   2.9       E    94   9.33    261      -11.0
   09/11/2018 03:40      64.5      64.0       89     60.8      0.00      0.00      83.5     0.35      1011.4     1.5       E   101   2.8       E    90   9.33    260      -11.0
   09/11/2018 03:30      64.5      64.0       88     60.8      0.00      0.00      83.5     0.35      1011.5     1.9     ESE   116   3.4     SSE   163   9.33    261      -10.9
   09/11/2018 03:20      64.5      64.0       88     60.7      0.00      0.00      83.5     0.35      1011.4     1.3     ESE   107   3.2     ESE   116   9.33    260      -11.0
   09/11/2018 03:10      64.6      64.1       88     60.6      0.00      0.00      83.5     0.35      1011.4     1.5       E    97   3.1       E    82   9.33    260      -10.9
   09/11/2018 03:00      64.7      64.3       87     60.7      0.00      0.00      83.6     0.35      1011.5     1.3       E    85   4.1      SE   126   9.33    258      -11.4
   09/11/2018 02:50      64.7      64.1       88     60.7      0.00      0.00      83.6     0.35      1011.4     1.4      NE    53   3.2     NNE    33   9.34    264      -11.8
   09/11/2018 02:40      64.7      64.1       88     60.6      0.00      0.00      83.6     0.35      1011.4     1.8      NE    45   4.0      NE    56   9.34    260      -14.3
   09/11/2018 02:30      64.5      64.0       88     60.5      0.00      0.00      83.6     0.35      1011.4     1.4     ENE    60   2.6      NE    52   9.34    260      -12.8
   09/11/2018 02:20      64.3      63.9       88     60.3      0.00      0.00      83.7     0.35      1011.4     1.6     ESE   108   3.7       E    96   9.34    259      -15.4
   09/11/2018 02:10      64.5      63.9       87     60.2      0.00      0.00      83.7     0.35      1011.4     1.6       E    92   3.5     ESE   118   9.34    256      -19.4
   09/11/2018 02:00      64.4      63.9       87     60.1      0.00      0.00      83.7     0.35      1011.4     1.5     ENE    58   3.2       E    84   9.34    257      -22.7
   09/11/2018 01:50      64.5      63.9       85     59.6      0.00      0.00      83.7     0.35      1011.4     1.5      NE    53   2.7      NE    50   9.34    260      -49.9
   09/11/2018 01:40      64.7      64.1       84     59.5      0.00      0.00      83.8     0.35      1011.3     0.7     ENE    70   2.2      NE    43   9.34    262      -63.7
   09/11/2018 01:30      65.1      64.4       83     59.4      0.00      0.00      83.7     0.35      1011.3     1.0     ENE    71   3.9       E    99   9.34    259      -65.8
   09/11/2018 01:20      65.5      64.7       82     59.3      0.00      0.00      83.9     0.35      1011.3     0.3     ENE    59   1.7      NE    50   9.34    260      -67.9
   09/11/2018 01:10      65.8      65.2       81     59.5      0.00      0.00      83.8     0.35      1011.3     1.0     ENE    63   2.2     ENE    68   9.34    256      -68.8
   09/11/2018 01:00      66.1      65.5       80     59.4      0.00      0.00      83.9     0.35      1011.3     1.3      NE    53   2.9     ENE    65   9.34    254      -69.4
   09/11/2018 00:50      66.4      65.7       79     59.2      0.00      0.00      83.9     0.35      1011.3     0.6     ENE    70   2.1     ENE    59   9.34    259      -69.6
   09/11/2018 00:40      66.4      66.1       79     59.5      0.00      0.00      83.9     0.35      1011.2     0.9     ENE    65   2.4     ENE    58   9.34    260      -69.7
   09/11/2018 00:30      66.7      66.1       78     59.3      0.00      0.00      83.9     0.35      1011.1     0.5       E    81   2.0      NE    51   9.34    262      -69.5
   09/11/2018 00:20      66.8      66.3       78     59.4      0.00      0.00      83.9     0.35      1011.1     0.2       E    86   1.4       E    87   9.34    263      -69.9
   09/11/2018 00:10      67.3      66.4       77     59.3      0.00      0.00      84.0     0.35      1011.1     0.4     ESE   114   1.4       E    86   9.34    263      -69.9
   09/11/2018 00:00      67.7      67.0       76     59.6      0.00      0.00      84.0     0.35      1011.1     0.1       E    94   1.3     ENE    72   9.35    264      -70.3
   09/10/2018 23:50      68.0      67.3       75     59.5      0.00      0.00      84.0     0.35      1011.2     0.5     ESE   116   1.2      SE   139   9.35    266      -70.7
   09/10/2018 23:40      68.3      67.7       75     59.5      0.00      0.00      84.0     0.35      1011.3     0.3      SE   132   1.1      SE   133   9.35    267      -70.7
   09/10/2018 23:30      68.3      67.9       74     59.5      0.00      0.00      84.0     0.35      1011.3     0.9     ESE   116   2.4     ESE   102   9.35    268      -70.1
   09/10/2018 23:20      68.5      68.0       72     59.0      0.00      0.00      84.0     0.35      1011.3     0.0     ESE   107   1.4       E    86   9.35    268      -70.2
   09/10/2018 23:10      68.5      68.1       72     58.9      0.00      0.00      84.0     0.35      1011.3     0.3     ENE    64   1.6     ENE    59   9.35    268      -71.2
   09/10/2018 23:00      68.5      68.1       71     58.5      0.00      0.00      84.1     0.35      1011.3     0.3       E    85   2.4     ESE   106   9.35    268      -71.4
   09/10/2018 22:50      68.8      68.2       70     58.2      0.00      0.00      84.1     0.35      1011.3     0.0       N     0   0.0       E    93   9.35    267      -72.4
   09/10/2018 22:40      69.1      68.5       69     58.3      0.00      0.00      84.1     0.35      1011.3     0.3     ESE   123   1.4      SE   128   9.35    267      -73.5
   09/10/2018 22:30      68.9      68.5       69     58.0      0.00      0.00      84.1     0.35      1011.3     0.5     ESE   108   1.5       E    95   9.35    267      -74.1
   09/10/2018 22:20      69.4      68.6       67     57.6      0.00      0.00      84.1     0.35      1011.3     0.2     ESE   113   1.5     ENE    72   9.36    266      -74.8
   09/10/2018 22:10      69.5      69.1       66     57.5      0.00      0.00      84.1     0.35      1011.3     0.2      SE   132   1.1      SE   141   9.36    266      -75.3
   09/10/2018 22:00      70.0      69.2       64     56.9      0.00      0.00      84.1     0.35      1011.3     0.2     SSE   156   1.5       E   100   9.36    266      -74.7
   09/10/2018 21:50      70.1      69.7       62     56.3      0.00      0.00      84.1     0.35      1011.3     0.0     SSE   156   1.0     SSE   156   9.36    266      -75.0
   09/10/2018 21:40      70.3      69.6       59     54.7      0.00      0.00      84.1     0.35      1011.4     0.0       N     0   0.0     SSE   156   9.36    265      -75.6
   09/10/2018 21:30      70.8      70.1       57     54.2      0.00      0.00      84.0     0.35      1011.4     0.3     SSE   156   0.8     SSE   155   9.36    266      -76.9
   09/10/2018 21:20      71.3      70.4       56     54.3      0.00      0.00      84.0     0.35      1011.3     0.7       S   170   1.3       S   173   9.37    265      -76.8
   09/10/2018 21:10      71.6      71.0       54     53.7      0.00      0.00      84.0     0.35      1011.3     0.4       S   181   1.0       S   175   9.37    265      -77.4
   09/10/2018 21:00      72.1      71.3       52     53.2      0.00      0.00      84.0     0.35      1011.2     0.2       S   175   1.2       S   176   9.37    264      -78.3
   09/10/2018 20:50      72.4      71.8       51     53.1      0.00      0.00      84.0     0.35      1011.0     0.5     SSW   196   1.7     SSW   209   9.37    264      -78.1
   09/10/2018 20:40      73.4      72.2       50     52.8      0.00      0.00      84.0     0.35      1010.9     0.2     SSE   159   1.1     SSE   162   9.38    264      -80.0
   09/10/2018 20:30      74.3      73.2       49     53.2      0.00      0.00      84.0     0.35      1010.8     0.0     SSE   153   0.2     SSE   153   9.38    264      -81.2
   09/10/2018 20:20      74.6      73.9       48     53.4      0.00      0.00      83.9     0.35      1010.6     0.4     SSE   164   1.8       S   181   9.38    264      -82.9
   09/10/2018 20:10      75.5      74.3       48     53.7      0.00      0.00      84.0     0.35      1010.5     1.1       S   173   2.8       S   181   9.38    264      -84.2
   09/10/2018 20:00      76.3      75.2       46     53.6      0.00      0.00      83.9     0.35      1010.4     1.3       S   172   2.9       S   184   9.39    264      -86.3
   09/10/2018 19:50      77.2      75.8       44     53.0      0.00      0.00      83.9     0.35      1010.3     2.6     SSE   154   4.4     SSE   161   9.39    264      -87.7
   09/10/2018 19:40      78.2      76.9       41     51.7      0.00      0.00      83.8     0.35      1010.1     2.0      SE   131   4.2      SE   137   9.39    264      -88.5
   09/10/2018 19:30      78.9      77.9       38     50.9      0.00      0.00      83.9     0.35      1010.0     0.9     SSE   157   2.7     ESE   114   9.39    263      -89.8
   09/10/2018 19:20      80.2      78.7       36     49.9      0.00      0.00      83.8     0.35      1010.0     2.0       S   178   4.2       S   184   9.40    263      -90.7
   09/10/2018 19:10      81.6      80.0       32     48.5      0.00      0.00      83.8     0.35      1009.9     2.1     SSE   150   3.7     SSE   154   9.40    263      -89.6
   09/10/2018 19:00      82.6      81.3       29     46.5      0.00      0.00      83.8     0.35      1009.8     1.4     SSE   160   3.1       S   179   9.41    263      -86.3
   09/10/2018 18:50      83.8      82.3       27     45.2      0.00      0.00      83.8     0.35      1009.7     1.9     SSE   168   5.7      SE   143   9.41    262      -82.4
   09/10/2018 18:40      84.5      83.4       26     45.0      0.00      0.00      83.7     0.35      1009.7     3.4      SE   130   4.8     ESE   117   9.42    262      -69.6
   09/10/2018 18:30      85.0      84.3       24     44.4      0.00      0.00      83.6     0.35      1009.7     2.6     SSE   161   5.1       S   185   9.42    262      -50.6
   09/10/2018 18:20      85.9      84.8       23     43.4      0.00      0.00      83.6     0.35      1009.7     3.2     SSE   168   5.8       S   184   9.43    262      -30.3
   09/10/2018 18:10      86.1      85.6       24     44.3      0.00      0.00      83.5     0.35      1009.7     3.3       S   171   5.5     SSE   168   9.43    262       -9.7
   09/10/2018 18:00      87.3      85.8       24     45.3      0.00      0.00      83.6     0.35      1009.7     4.4       S   177   7.2     SSW   192   9.44    262       12.8
   09/10/2018 17:50      88.7      87.0       23     45.8      0.00      0.00      83.5     0.35      1009.6     3.8       S   183   7.2     SSW   193   9.44    262       35.3
   09/10/2018 17:40      89.0      88.3       23     45.9      0.00      0.00      83.5     0.35      1009.5     3.2     SSW   197   5.2      SW   226   9.45    262       60.1
   09/10/2018 17:30      89.4      88.4       22     44.7      0.00      0.00      83.4     0.35      1009.4     4.0       S   169   6.9      SE   137   9.45    262       85.5
   09/10/2018 17:20      89.9      89.2       21     44.7      0.00      0.00      83.4     0.35      1009.4     3.5       S   179   5.9     SSE   160   9.46    262      112.7
   09/10/2018 17:10      89.9      89.2       21     44.6      0.00      0.00      83.3     0.35      1009.4     3.6       S   187   7.1      SW   222   9.46    262      142.3
   09/10/2018 17:00      89.9      89.0       23     46.3      0.00      0.00      83.3     0.35      1009.4     4.0     SSW   197   6.6     SSW   210   9.47    262      170.1
   09/10/2018 16:50      90.4      89.6       23     47.2      0.00      0.00      83.2     0.35      1009.4     4.6     SSW   197   7.5     SSW   196   9.47    262      196.3
   09/10/2018 16:40      91.1      89.7       23     48.2      0.00      0.00      83.1     0.35      1009.4     4.6     SSW   206   7.4     WSW   243   9.48    262      220.7
   09/10/2018 16:30      91.4      90.4       21     46.0      0.00      0.00      83.2     0.35      1009.4     4.1     SSE   164   7.4      SE   136   9.48    262      242.6
   09/10/2018 16:20      91.9      90.8       23     48.0      0.00      0.00      83.1     0.35      1009.4     3.7     SSE   167   7.2      SW   228   9.49    262      263.7
   09/10/2018 16:10      92.1      91.4       18     42.7      0.00      0.00      83.1     0.35      1009.4     2.7     SSE   162   7.9      SE   134   9.49    262      282.6
   09/10/2018 16:00      92.4      91.0       18     42.0      0.00      0.00      83.0     0.35      1009.4     3.0      SE   138   6.2     ESE   121   9.50    262      307.6
   09/10/2018 15:50      92.5      91.2       19     43.0      0.00      0.00      82.9     0.35      1009.6     3.2      SE   126   8.0     ESE   114   9.50    262      329.9
   09/10/2018 15:40      92.6      91.9       19     44.5      0.00      0.00      82.9     0.35      1009.7     2.9     ESE   115   5.6       E   100   9.51    262      348.2
   09/10/2018 15:30      92.7      91.7       20     45.8      0.00      0.00      82.8     0.35      1009.7     3.3       E   101   5.7     ESE   113   9.51    262      367.8
   09/10/2018 15:20      92.0      91.1       21     45.8      0.00      0.00      82.8     0.35      1009.7     3.9       E    88   6.6       E    89   9.52    263      385.0
   09/10/2018 15:10      92.3      91.3       20     45.1      0.00      0.00      82.7     0.35      1009.8     4.7      NE    50   8.3     NNE    17   9.52    262      397.2
   09/10/2018 15:00      92.8      92.0       20     46.2      0.00      0.00      82.7     0.35      1010.0     4.0     ENE    58   7.9     ENE    65   9.53    262      414.4
   09/10/2018 14:50      93.1      92.1       19     44.3      0.00      0.00      82.6     0.35      1010.1     3.7      NE    53   6.4       E    83   9.53    262      428.2
   09/10/2018 14:40      92.4      91.8       19     43.6      0.00      0.00      82.6     0.35      1010.3     3.3     ENE    73   6.4     ENE    77   9.53    262      445.3
   09/10/2018 14:30      92.7      91.7       19     43.7      0.00      0.00      82.6     0.35      1010.4     3.4     ENE    78   5.9       E    91   9.54    262      459.8
   09/10/2018 14:20      92.5      91.6       19     43.6      0.00      0.00      82.5     0.35      1010.5     3.2     ENE    65   5.9     ENE    58   9.54    262      471.2
   09/10/2018 14:10      91.8      90.9       20     44.3      0.00      0.00      82.5     0.35      1010.7     3.8     ENE    67   6.3      NE    51   9.55    262      480.9
   09/10/2018 14:00      91.5      90.9       20     44.2      0.00      0.00      82.4     0.35      1010.8     3.7     ENE    57   7.4      NE    37   9.55    262      488.9
   09/10/2018 13:50      91.7      90.8       23     47.7      0.00      0.00      82.4     0.35      1010.9     3.4      NE    56   6.4     ENE    71   9.55    262      495.9
   09/10/2018 13:40      91.1      89.5       27     51.9      0.00      0.00      82.3     0.35      1011.0     3.1     ENE    58   5.7       E    84   9.56    263      505.0
   09/10/2018 13:30      90.3      89.5       30     54.1      0.00      0.00      82.3     0.35      1011.1     2.8      NE    53   5.9       E    85   9.56    263      511.6
   09/10/2018 13:20      90.6      89.5       29     53.5      0.00      0.00      82.3     0.35      1011.2     3.1     ENE    65   6.7       E   100   9.56    263      516.7
   09/10/2018 13:10      90.5      89.3       30     54.6      0.00      0.00      82.3     0.35      1011.3     2.8      NE    52   5.7     NNE    32   9.56    263      519.9
   09/10/2018 13:00      89.8      88.3       32     55.6      0.00      0.00      82.3     0.35      1011.4     2.7      NE    39   5.6      NE    39   9.56    263      523.2
   09/10/2018 12:50      89.2      87.9       32     55.0      0.00      0.00      82.2     0.35      1011.5     2.5      NE    41   5.5      NE    53   9.56    264      525.2
   09/10/2018 12:40      88.1      86.7       33     54.5      0.00      0.00      82.2     0.35      1011.6     2.9     ENE    74   5.3     ESE   117   9.56    264      529.7
   09/10/2018 12:30      87.8      86.7       33     54.8      0.00      0.00      82.2     0.35      1011.6     3.8      NE    55   6.4       E    86   9.57    264      526.8
   09/10/2018 12:20      87.0      86.0       36     56.3      0.00      0.00      82.2     0.35      1011.7     3.6      NE    49   5.6     ENE    56   9.57    264      527.4
   09/10/2018 12:10      86.8      85.5       36     56.4      0.00      0.00      82.2     0.35      1011.9     3.3      NE    46   5.6      NE    40   9.57    264      523.9
   09/10/2018 12:00      85.7      85.1       38     57.1      0.00      0.00      82.2     0.35      1011.9     3.6      NE    43   6.2     NNE    22   9.57    264      519.5
   09/10/2018 11:50      85.6      84.8       42     59.4      0.00      0.00      82.2     0.35      1012.2     3.1     ENE    66   6.6     ENE    57   9.57    264      516.3
   09/10/2018 11:40      85.3      84.3       43     60.0      0.00      0.00      82.2     0.35      1012.2     3.0     ENE    56   5.6      NE    40   9.57    264      507.4
   09/10/2018 11:30      84.7      83.7       44     59.9      0.00      0.00      82.2     0.35      1012.3     2.3     ENE    69   5.1     ESE   101   9.57    265      497.6
   09/10/2018 11:20      83.8      82.7       45     59.8      0.00      0.00      82.3     0.35      1012.4     2.1     ENE    56   5.3     ESE   115   9.57    264      486.0
   09/10/2018 11:10      82.9      81.8       46     59.5      0.00      0.00      82.3     0.35      1012.4     2.1     ENE    67   5.2       E    97   9.57    264      477.2
   09/10/2018 11:00      82.6      81.3       46     59.2      0.00      0.00      82.3     0.35      1012.5     1.8     NNE    32   3.9     ENE    57   9.57    264      464.6
   09/10/2018 10:50      81.6      79.8       48     59.1      0.00      0.00      82.4     0.35      1012.6     1.8      NE    50   4.8     ESE   110   9.57    265      450.8
   09/10/2018 10:40      80.3      79.3       49     58.9      0.00      0.00      82.4     0.35      1012.7     1.7     NNE    14   4.5      NE    38   9.57    265      438.1
   09/10/2018 10:30      79.5      78.2       51     59.2      0.00      0.00      82.4     0.35      1012.8     1.9     NNE    26   3.9     ENE    66   9.57    265      423.3
   09/10/2018 10:20      78.9      77.5       52     59.1      0.00      0.00      82.4     0.35      1012.8     2.0     NNE    22   3.9     NNW   344   9.57    266      407.0
   09/10/2018 10:10      77.6      76.3       55     59.7      0.00      0.00      82.5     0.35      1012.8     1.3     NNE    21   2.8     NNE    21   9.57    266      389.4
   09/10/2018 10:00      76.7      75.5       57     59.7      0.00      0.00      82.4     0.35      1012.8     1.5     NNE    23   3.4       N   351   9.57    266      369.8
   09/10/2018 09:50      75.8      74.3       59     59.7      0.00      0.00      82.5     0.35      1012.8     1.4     NNE    33   3.2       N   350   9.57    266      352.3
   09/10/2018 09:40      74.5      72.8       61     59.8      0.00      0.00      82.5     0.35      1012.8     1.0     WSW   244   2.7     NNE    11   9.57    266      334.0
   09/10/2018 09:30      73.3      72.6       64     59.9      0.00      0.00      82.5     0.35      1012.9     1.9     WSW   247   4.1      SW   229   9.57    266      313.6
   09/10/2018 09:20      73.4      72.7       64     60.0      0.00      0.00      82.6     0.35      1012.9     1.7     WSW   242   3.7     SSW   212   9.57    267      291.3
   09/10/2018 09:10      73.3      72.1       65     60.4      0.00      0.00      82.6     0.35      1012.9     0.7     ENE    77   2.0       N   355   9.57    266      264.5
   09/10/2018 09:00      72.3      71.0       68     60.4      0.00      0.00      82.6     0.35      1012.9     1.2       E    79   2.8      NE    47   9.57    267      242.8
   09/10/2018 08:50      71.8      70.9       68     60.3      0.00      0.00      82.6     0.35      1012.9     0.9      NW   313   2.7     WNW   286   9.57    267      206.8
   09/10/2018 08:40      71.8      70.2       69     60.5      0.00      0.00      82.7     0.35      1012.9     0.4      NW   315   1.7      SW   233   9.57    268      179.2
   09/10/2018 08:30      70.6      68.0       74     60.7      0.00      0.00      82.6     0.35      1012.9     0.6     NNE    29   2.9     ENE    69   9.57    268      150.9
   09/10/2018 08:20      67.9      66.9       78     60.4      0.00      0.00      82.7     0.35      1012.9     1.6     SSW   206   2.9     WSW   241   9.57    269      145.2
   09/10/2018 08:10      67.1      66.6       80     60.3      0.00      0.00      82.7     0.35      1012.9     1.6       S   177   3.4      SE   134   8.75    268       91.5
   09/10/2018 08:00      66.9      66.2       81     60.3      0.00      0.00      82.7     0.35      1012.9     1.2     ESE   106   2.8       E    87   8.75    269       54.9
   09/10/2018 07:50      66.5      65.7       82     60.3      0.00      0.00      82.8     0.35      1012.8     0.8      SW   214   2.3     WSW   250   8.75    269       38.9
   09/10/2018 07:40      65.9      65.3       83     60.2      0.00      0.00      82.8     0.35      1012.9     0.8     WSW   242   1.8     WSW   258   8.75    269       28.7
   09/10/2018 07:30      65.6      65.1       83     60.1      0.00      0.00      82.9     0.35      1012.9     1.1     SSE   160   2.9      SE   126   8.75    269       16.7
   09/10/2018 07:20      65.5      65.0       84     60.4      0.00      0.00      82.9     0.35      1012.8     2.0      SE   127   4.2      SE   144   8.75    269        9.0
   09/10/2018 07:10      65.4      64.7       85     60.3      0.00      0.00      83.0     0.35      1012.7     1.3     ESE   119   3.6     ESE   124   8.75    268        2.1
   09/10/2018 07:00      65.3      64.8       85     60.3      0.00      0.00      82.9     0.35      1012.5     2.0      SE   133   3.8       E   100   8.75    268       -4.0
   09/10/2018 06:50      65.1      64.8       85     60.5      0.00      0.00      83.0     0.35      1012.5     1.3     ESE   102   3.5       E   101   8.75    268       -7.3
   09/10/2018 06:40      65.2      64.7       85     60.4      0.00      0.00      83.0     0.35      1012.5     1.9     ESE   108   3.1     ENE    68   8.75    266       -9.5
   09/10/2018 06:30      65.1      64.6       85     60.4      0.00      0.00      83.0     0.35      1012.4     1.0     ENE    70   3.0       E    87   8.75    266      -11.2
   09/10/2018 06:20      65.1      64.6       86     60.4      0.00      0.00      83.1     0.35      1012.4     1.7     ESE   115   4.3      SE   128   8.75    266      -12.1
   09/10/2018 06:10      65.1      64.5       86     60.7      0.00      0.00      83.1     0.35      1012.4     0.8     ENE    63   3.4     ESE   120   8.76    266      -12.0
   09/10/2018 06:00      64.7      64.2       87     60.4      0.00      0.00      83.1     0.35      1012.4     1.1       E    95   2.8      SE   125   8.76    265      -11.2
   09/10/2018 05:50      64.5      64.0       87     60.4      0.00      0.00      83.2     0.35      1012.3     1.0      SE   137   2.7      SE   143   8.76    266      -10.7
   09/10/2018 05:40      64.4      63.9       88     60.5      0.00      0.00      83.2     0.35      1012.3     1.5      SE   129   3.3      SE   143   8.76    264      -10.2
   09/10/2018 05:30      64.5      64.0       89     60.9      0.00      0.00      83.2     0.35      1012.3     1.6     ESE   121   4.2      SE   135   8.76    264      -10.5
   09/10/2018 05:20      64.7      64.1       89     61.0      0.00      0.00      83.2     0.35      1012.2     1.2     ESE   119   2.8      SE   134   8.76    259      -11.0
   09/10/2018 05:10      64.6      64.2       90     61.3      0.00      0.00      83.3     0.35      1012.2     0.9     ENE    65   2.7      NE    53   8.76    258      -10.8
   09/10/2018 05:00      64.4      64.0       90     61.2      0.00      0.00      83.3     0.35      1012.2     1.9      NE    36   3.4      NE    44   8.76    258      -10.8
   09/10/2018 04:50      64.3      63.7       90     61.0      0.00      0.00      83.3     0.35      1012.2     1.4      NE    40   3.1     NNE    26   8.76    258       -9.9
   09/10/2018 04:40      64.0      63.6       90     60.9      0.00      0.00      83.4     0.35      1012.1     1.7      NE    50   3.5     NNE    29   8.76    255       -9.1
   09/10/2018 04:30      64.0      63.5       90     60.6      0.00      0.00      83.4     0.35      1012.1     1.7     ENE    59   3.5       E    80   8.76    254       -8.3
   09/10/2018 04:20      64.1      63.8       90     60.8      0.00      0.00      83.4     0.35      1012.0     1.8     ENE    76   4.8     ENE    77   8.76    254       -7.5
   09/10/2018 04:10      64.0      63.5       89     60.5      0.00      0.00      83.5     0.35      1012.0     1.3     ENE    62   2.9      NE    45   8.76    254       -6.8
   09/10/2018 04:00      63.8      63.2       88     59.9      0.00      0.00      83.5     0.35      1011.9     1.1       E    79   3.9     ENE    76   8.76    263      -19.6
   09/10/2018 03:50      63.5      62.4       86     58.9      0.00      0.00      83.5     0.35      1011.9     1.1       E    94   3.2       E    84   8.76    267      -48.4
   09/10/2018 03:40      62.9      62.4       84     57.7      0.00      0.00      83.5     0.35      1011.9     0.7      SE   130   1.4      SE   134   8.76    258      -53.1
   09/10/2018 03:30      63.1      62.5       85     58.2      0.00      0.00      83.5     0.35      1011.9     0.5      SE   141   1.3      SE   144   8.76    257      -53.1
   09/10/2018 03:20      63.3      62.7       85     58.4      0.00      0.00      83.6     0.35      1011.9     0.3      SE   132   1.2      SE   138   8.76    260      -53.7
   09/10/2018 03:10      63.6      63.1       84     58.6      0.00      0.00      83.6     0.35      1011.9     0.1      SE   139   0.7      SE   145   8.76    258      -56.1
   09/10/2018 03:00      64.7      63.3       83     58.6      0.00      0.00      83.7     0.35      1011.9     0.2      SE   144   1.0      SE   145   8.76    261      -58.5
   09/10/2018 02:50      65.0      64.5       83     59.4      0.00      0.00      83.7     0.35      1011.8     0.0     ESE   108   0.6     ESE   108   8.76    263      -58.9
   09/10/2018 02:40      65.5      64.7       82     59.4      0.00      0.00      83.7     0.35      1011.9     0.0      SE   132   1.1      SE   129   8.77    257      -60.6
   09/10/2018 02:30      66.0      65.2       81     59.5      0.00      0.00      83.7     0.35      1011.9     0.0       N     0   0.0     ENE    62   8.77    258      -63.5
   09/10/2018 02:20      66.0      65.6       81     59.7      0.00      0.00      83.7     0.35      1011.9     0.5       E    95   2.1       E   100   8.76    257      -65.8
   09/10/2018 02:10      66.1      65.6       79     59.3      0.00      0.00      83.8     0.35      1011.9     0.5       E    86   1.6     ENE    62   8.76    257      -67.8
   09/10/2018 02:00      66.6      65.7       78     59.0      0.00      0.00      83.8     0.35      1011.9     0.4       E   100   1.5     ENE    70   8.77    256      -68.3
   09/10/2018 01:50      66.4      66.0       77     58.7      0.00      0.00      83.8     0.35      1011.9     0.6       E    85   1.9       E    95   8.77    262      -68.4
   09/10/2018 01:40      66.7      66.1       74     57.9      0.00      0.00      83.9     0.35      1011.9     0.0      NE    55   0.8      NE    55   8.77    265      -69.4
   09/10/2018 01:30      67.3      66.4       73     57.9      0.00      0.00      83.9     0.35      1011.9     0.0       E    82   0.7       E    82   8.77    266      -69.8
   09/10/2018 01:20      67.3      67.0       73     58.2      0.00      0.00      83.9     0.35      1011.9     0.7     ESE   120   1.9     ESE   104   8.77    266      -70.6
   09/10/2018 01:10      67.5      67.0       72     57.9      0.00      0.00      83.9     0.35      1012.0     0.5      SE   133   1.2      SE   132   8.77    268      -70.1
   09/10/2018 01:00      67.5      67.2       71     57.8      0.00      0.00      83.9     0.35      1012.0     0.3     ESE   109   1.7       E    97   8.77    268      -70.5
   09/10/2018 00:50      67.9      67.2       70     57.3      0.00      0.00      83.9     0.35      1011.9     0.0     ESE   108   1.4       E   100   8.77    268      -70.1
   09/10/2018 00:40      68.0      67.4       69     57.2      0.00      0.00      83.9     0.35      1011.8     0.0     ENE    62   1.2     ENE    59   8.77    267      -70.3
   09/10/2018 00:30      68.0      67.6       68     57.0      0.00      0.00      83.9     0.35      1011.8     0.5      SE   124   1.6      SE   143   8.77    267      -70.1
   09/10/2018 00:20      68.2      67.7       68     56.8      0.00      0.00      83.9     0.35      1011.9     0.0     ESE   123   0.5     SSE   162   8.78    267      -69.2
   09/10/2018 00:10      68.4      67.8       66     56.4      0.00      0.00      84.0     0.35      1012.0     0.0       S   182   0.5       S   182   8.78    266      -68.9
   09/10/2018 00:00      68.7      68.1       66     56.4      0.00      0.00      84.0     0.35      1012.0     0.0       S   182   0.5       S   182   8.78    266      -68.0
   09/09/2018 23:50      69.7      68.6       64     56.1      0.00      0.00      84.0     0.35      1011.9     0.0       N     0   0.0       E    87   8.78    266      -68.3
   09/09/2018 23:40      70.0      69.3       63     56.6      0.00      0.00      84.1     0.35      1011.8     0.0       N     0   0.0       E    87   8.78    266      -69.2
   09/09/2018 23:30      70.3      69.5       61     56.0      0.00      0.00      84.1     0.35      1011.8     0.1     ESE   116   0.8      SE   132   8.78    266      -69.8
   09/09/2018 23:20      70.6      69.9       60     55.9      0.00      0.00      84.0     0.35      1011.8     0.0       N     0   0.0       E    92   8.78    266      -69.8
   09/09/2018 23:10      70.7      70.3       60     55.9      0.00      0.00      84.0     0.35      1011.6     0.4     ESE   123   1.2     ESE   123   8.78    266      -70.6
   09/09/2018 23:00      71.3      70.3       58     55.3      0.00      0.00      84.1     0.35      1011.6     0.5      SE   135   1.6      SE   140   8.79    266      -70.6
   09/09/2018 22:50      71.8      70.9       57     55.5      0.00      0.00      84.1     0.35      1011.6     0.2     ESE   122   1.1      SE   132   8.79    266      -71.4
   09/09/2018 22:40      72.6      71.3       56     55.4      0.00      0.00      84.1     0.35      1011.6     0.7     ESE   123   1.9       E    92   8.79    266      -72.0
   09/09/2018 22:30      72.9      72.3       55     55.3      0.00      0.00      84.1     0.35      1011.6     0.1     ENE    62   1.2     ENE    61   8.79    265      -73.2
   09/09/2018 22:20      73.2      72.6       54     55.2      0.00      0.00      84.1     0.35      1011.5     0.8     ENE    77   2.6     ENE    58   8.79    265      -74.0
   09/09/2018 22:10      73.3      72.7       53     55.0      0.00      0.00      84.1     0.35      1011.5     0.3     ENE    60   1.5     ENE    75   8.79    265      -75.0
   09/09/2018 22:00      73.5      73.0       53     54.9      0.00      0.00      84.1     0.35      1011.5     0.4       E   101   1.7       E    85   8.80    265      -76.0
   09/09/2018 21:50      73.9      73.2       51     54.4      0.00      0.00      84.0     0.35      1011.4     0.3       E    94   1.6      NE    56   8.80    264      -76.8
   09/09/2018 21:40      74.6      73.7       50     54.2      0.00      0.00      84.0     0.35      1011.3     0.2     ESE   116   1.3      SE   140   8.80    264      -78.3
   09/09/2018 21:30      75.1      74.3       49     54.0      0.00      0.00      84.1     0.35      1011.3     0.0       E    91   0.2       E    79   8.80    264      -79.5
   09/09/2018 21:20      75.8      74.8       47     53.7      0.00      0.00      84.0     0.35      1011.2     0.2      SE   131   1.3     ENE    67   8.80    264      -80.6
   09/09/2018 21:10      76.2      75.6       46     53.5      0.00      0.00      84.0     0.35      1011.1     0.4     ENE    70   1.6      NE    48   8.80    264      -82.1
   09/09/2018 21:00      76.8      76.0       45     53.3      0.00      0.00      84.0     0.35      1010.9     0.2       E    86   1.3      SE   132   8.81    264      -82.4
   09/09/2018 20:50      77.3      76.6       43     52.9      0.00      0.00      84.0     0.35      1010.8     0.1       E    92   1.6      NE    44   8.81    264      -82.8
   09/09/2018 20:40      78.3      76.9       41     51.8      0.00      0.00      83.9     0.35      1010.7     0.7       S   185   1.8     SSW   205   8.81    264      -81.9
   09/09/2018 20:30      78.5      77.7       39     51.5      0.00      0.00      84.0     0.35      1010.5     0.7     ESE   119   2.4     ESE   111   8.81    263      -84.1
   09/09/2018 20:20      78.4      77.3       36     48.9      0.00      0.00      83.9     0.35      1010.4     0.8     SSE   147   2.0       E    90   8.81    263      -84.9
   09/09/2018 20:10      79.8      78.0       33     47.2      0.00      0.00      83.9     0.35      1010.2     0.2       E    92   0.9       E    88   8.82    263      -84.8
   09/09/2018 20:00      81.7      79.6       31     47.0      0.00      0.00      83.8     0.35      1010.0     0.2       E    91   1.3     ENE    67   8.82    263      -86.8
   09/09/2018 19:50      82.1      81.3       29     46.8      0.00      0.00      83.8     0.35      1009.9     0.7       S   178   2.7     SSW   202   8.82    262      -89.5
   09/09/2018 19:40      82.8      81.8       29     46.6      0.00      0.00      83.8     0.35      1009.8     1.9       S   184   3.8     SSW   198   8.83    262      -91.2
   09/09/2018 19:30      83.4      82.4       28     46.4      0.00      0.00      83.8     0.35      1009.7     2.1       S   186   3.7     SSW   209   8.83    263      -94.1
   09/09/2018 19:20      84.4      83.1       27     46.1      0.00      0.00      83.8     0.35      1009.7     1.2     SSE   164   2.1       S   176   8.84    262      -94.7
   09/09/2018 19:10      85.2      84.0       26     46.0      0.00      0.00      83.7     0.35      1009.7     2.0     SSE   154   3.5      SE   141   8.84    262      -93.2
   09/09/2018 19:00      86.2      84.9       26     46.9      0.00      0.00      83.7     0.35      1009.6     2.5     SSE   158   4.2     SSE   148   8.84    262      -89.7
   09/09/2018 18:50      87.6      86.0       26     47.8      0.00      0.00      83.6     0.35      1009.5     2.8     SSE   162   5.5     SSW   192   8.85    262      -86.7
   09/09/2018 18:40      88.8      87.5       25     48.4      0.00      0.00      83.6     0.35      1009.5     2.1       S   170   4.8       S   182   8.85    262      -73.3
   09/09/2018 18:30      89.6      88.5       25     48.5      0.00      0.00      83.5     0.35      1009.5     2.3       S   170   4.2       S   191   8.86    262      -52.5
   09/09/2018 18:20      90.9      89.3       24     48.8      0.00      0.00      83.5     0.35      1009.5     3.2     SSE   167   5.4     ESE   123   8.86    262      -32.3
   09/09/2018 18:10      91.9      90.6       24     49.0      0.00      0.00      83.5     0.35      1009.5     2.8      SE   143   5.1     SSE   152   8.87    262      -10.4
   09/09/2018 18:00      92.3      91.7       23     48.4      0.00      0.00      83.4     0.35      1009.4     2.4       S   172   5.5      SW   219   8.88    261       12.8
   09/09/2018 17:50      92.6      91.5       22     48.0      0.00      0.00      83.4     0.35      1009.4     3.5       S   176   5.8     SSW   204   8.88    262       37.6
   09/09/2018 17:40      94.1      92.2       21     47.7      0.00      0.00      83.3     0.35      1009.4     3.6     SSE   159   6.4     SSE   154   8.89    261       61.1
   09/09/2018 17:30      94.5      93.8       20     47.4      0.00      0.00      83.2     0.35      1009.4     2.6     SSE   165   4.8     WSW   253   8.89    261       86.3
   09/09/2018 17:20      95.3      94.3       20     47.1      0.00      0.00      83.2     0.35      1009.2     3.6     SSE   157   6.2      SE   132   8.89    261      115.5
   09/09/2018 17:10      97.0      95.0       19     46.5      0.00      0.00      83.1     0.35      1009.2     3.2     SSE   167   7.2      SE   134   8.90    261      142.0
   09/09/2018 17:00      96.7      95.3       18     45.9      0.00      0.00      83.1     0.35      1009.2     1.5      SE   131   5.0      SE   132   8.90    261      168.0
   09/09/2018 16:50      96.5      95.5       18     45.5      0.00      0.00      83.1     0.35      1009.3     3.0     ESE   120   7.3      SE   144   8.91    261      194.7
   09/09/2018 16:40      96.1      95.1       18     44.9      0.00      0.00      83.0     0.35      1009.4     2.6      SE   143   5.2     SSW   201   8.91    261      219.7
   09/09/2018 16:30      95.4      94.7       18     44.7      0.00      0.00      82.9     0.35      1009.4     3.7       S   181   7.1     SSW   197   8.92    261      244.3
   09/09/2018 16:20      95.6      94.8       18     44.4      0.00      0.00      82.9     0.35      1009.4     3.7       S   189   6.9       S   174   8.92    261      268.5
   09/09/2018 16:10      95.8      94.8       17     43.5      0.00      0.00      82.8     0.35      1009.4     4.4     SSE   156   8.8     SSE   150   8.93    262      291.5
   09/09/2018 16:00      95.6      95.0       16     42.2      0.00      0.00      82.8     0.35      1009.4     4.7     SSE   166   7.6     SSW   192   8.93    261      312.9
   09/09/2018 15:50      96.1      95.3       16     41.9      0.00      0.00      82.7     0.35      1009.4     4.8       S   169   8.4     SSW   206   8.94    261      332.5
   09/09/2018 15:40      96.0      95.0       16     42.0      0.00      0.00      82.6     0.35      1009.5     4.4     SSE   169   9.3       S   176   8.95    262      353.1
   09/09/2018 15:30      96.4      95.0       16     41.8      0.00      0.00      82.6     0.35      1009.5     5.7     SSE   167  10.2     SSW   199   8.95    262      370.8
   09/09/2018 15:20      96.3      95.6       16     42.0      0.00      0.00      82.5     0.35      1009.6     5.0     SSE   167   8.5       S   187   8.96    262      388.5
   09/09/2018 15:10      96.4      95.3       16     42.5      0.00      0.00      82.5     0.35      1009.7     5.6       S   176   9.6      SW   218   8.96    262      405.8
   09/09/2018 15:00      97.2      96.1       16     43.7      0.00      0.00      82.4     0.35      1009.7     5.0     SSE   160   9.3      SE   138   8.97    261      420.1
   09/09/2018 14:50      97.3      96.1       17     45.2      0.00      0.00      82.4     0.35      1009.8     4.4      SE   146   7.6      SE   135   8.98    261      434.7
   09/09/2018 14:40      97.7      96.6       17     44.5      0.00      0.00      82.3     0.35      1009.8     3.9     ESE   124   9.1      SE   132   8.98    261      446.9
   09/09/2018 14:30      98.0      96.4       16     43.5      0.00      0.00      82.2     0.35      1009.9     3.9       E    95   9.6       E    93   8.99    261      460.7
   09/09/2018 14:20      97.0      96.0       16     42.9      0.00      0.00      82.2     0.35      1010.0     3.8     ESE   110   8.4      SE   130   8.99    261      472.5
   09/09/2018 14:10      96.9      95.5       15     41.7      0.00      0.00      82.1     0.35      1010.1     4.7     ESE   111   8.4      SE   130   8.99    261      485.6
   09/09/2018 14:00      96.4      95.2       16     42.0      0.00      0.00      82.1     0.35      1010.2     5.3      SE   141  10.1     SSE   147   9.00    261      494.8
   09/09/2018 13:50      96.7      95.8       16     43.4      0.00      0.00      82.1     0.35      1010.3     4.3      SE   124   8.5      SE   142   9.00    261      502.6
   09/09/2018 13:40      96.6      95.6       17     44.3      0.00      0.00      82.0     0.35      1010.4     4.2       E    92   7.6      SE   125   9.01    261      509.1
   09/09/2018 13:30      96.6      95.3       17     44.5      0.00      0.00      82.0     0.35      1010.4     4.3     ESE   107   8.6       E    93   9.01    261      513.0
   09/09/2018 13:20      97.6      95.6       17     45.1      0.00      0.00      82.0     0.35      1010.5     4.1     ESE   116  11.4      SE   142   9.01    261      515.2
   09/09/2018 13:10      97.0      95.4       19     46.7      0.00      0.00      81.9     0.35      1010.5     4.1       E    92   7.7      SE   127   9.02    262      519.3
   09/09/2018 13:00      96.9      96.5       20     49.4      0.00      0.00      82.0     0.35      1010.6     3.4       E    88   6.7     ENE    76   9.02    261      518.1
   09/09/2018 12:50      96.9      96.2       20     49.4      0.00      0.00      82.0     0.35      1010.6     3.5     ENE    59   6.3     ENE    70   9.02    262      519.0
   09/09/2018 12:40      96.7      95.0       21     49.5      0.00      0.00      81.9     0.35      1010.7     3.6     ENE    62   6.5     ESE   103   9.03    262      519.2
   09/09/2018 12:30      95.9      94.8       22     50.1      0.00      0.00      81.9     0.35      1010.8     3.4      NE    54   6.6     ENE    58   9.03    262      515.8
   09/09/2018 12:20      95.4      94.4       22     49.9      0.00      0.00      81.9     0.35      1010.8     3.6      NE    56   8.9      NE    54   9.03    262      515.9
   09/09/2018 12:10      95.6      94.3       22     50.3      0.00      0.00      81.9     0.35      1011.0     3.0     ENE    70   5.2     SSE   158   9.03    262      512.0
   09/09/2018 12:00      94.5      93.7       22     49.8      0.00      0.00      81.9     0.35      1011.1     3.4      NE    52   5.7     NNE    23   9.03    263      507.2
   09/09/2018 11:50      94.4      92.7       23     49.7      0.00      0.00      82.0     0.35      1011.2     3.0      NE    46   6.3      NE    51   9.03    262      500.5
   09/09/2018 11:40      93.2      91.6       26     52.4      0.00      0.00      81.9     0.35      1011.3     3.0     NNE    26   6.2     NNE    21   9.03    263      495.3
   09/09/2018 11:30      91.7      90.6       28     53.6      0.00      0.00      82.0     0.35      1011.4     3.1      NE    56   6.6     ESE   108   9.03    263      491.0
   09/09/2018 11:20      91.0      89.7       30     54.5      0.00      0.00      82.0     0.35      1011.4     2.8     NNE    34   5.6     NNE    27   9.03    263      479.6
   09/09/2018 11:10      90.0      88.7       31     54.7      0.00      0.00      82.0     0.35      1011.5     3.0      NE    36   5.8      NE    42   9.03    263      470.7
   09/09/2018 11:00      89.3      88.2       32     54.8      0.00      0.00      82.1     0.35      1011.5     2.3     NNE    32   4.2      NE    52   9.03    263      459.2
   09/09/2018 10:50      89.0      87.7       32     55.2      0.00      0.00      82.1     0.35      1011.6     2.4     NNE    17   5.2     NNE    14   9.03    264      446.4
   09/09/2018 10:40      87.8      86.6       34     55.6      0.00      0.00      82.1     0.35      1011.6     2.4      NE    42   5.0     ENE    66   9.03    264      433.8
   09/09/2018 10:30      86.8      85.7       35     55.9      0.00      0.00      82.1     0.35      1011.6     1.7       N     6   4.8      NE    49   9.03    264      421.0
   09/09/2018 10:20      85.9      84.7       37     55.7      0.00      0.00      82.2     0.35      1011.7     1.3       N     2   3.1      NE    43   9.03    264      405.1
   09/09/2018 10:10      85.1      83.8       37     55.7      0.00      0.00      82.1     0.35      1011.8     1.3     NNE    23   3.8       N   350   9.03    264      388.7
   09/09/2018 10:00      83.8      82.7       39     55.9      0.00      0.00      82.2     0.35      1011.7     1.0       N     7   3.0      NE    38   9.03    264      371.3
   09/09/2018 09:50      83.0      82.0       40     55.8      0.00      0.00      82.3     0.35      1011.7     1.3     ENE    63   2.7     ESE   119   9.03    264      355.1
   09/09/2018 09:40      82.5      81.3       43     57.2      0.00      0.00      82.4     0.35      1011.9     1.2     NNW   333   3.1     NNE    29   9.03    264      337.8
   09/09/2018 09:30      81.4      79.3       47     57.9      0.00      0.00      82.4     0.35      1011.9     0.7     WSW   257   2.0       W   263   9.03    264      318.6
   09/09/2018 09:20      79.4      77.8       49     57.6      0.00      0.00      82.4     0.35      1011.8     0.8      NW   319   2.2       N   351   9.03    266      297.7
   09/09/2018 09:10      78.1      77.2       51     58.0      0.00      0.00      82.4     0.35      1011.9     1.3       N     4   3.5       N     3   9.03    265      277.0
   09/09/2018 09:00      77.3      76.1       53     58.1      0.00      0.00      82.5     0.35      1011.9     0.9     NNE    15   2.3       N     5   9.03    266      255.0
   09/09/2018 08:50      76.4      75.5       54     58.0      0.00      0.00      82.5     0.35      1011.8     1.3      NW   320   2.7      NW   310   9.03    266      233.1
   09/09/2018 08:40      76.5      75.8       54     58.0      0.00      0.00      82.6     0.35      1011.8     0.6       N   357   1.6       N     0   9.03    266      210.2
   09/09/2018 08:30      76.6      75.3       53     57.6      0.00      0.00      82.6     0.35      1011.8     0.4      NE    47   2.3     NNE    21   9.03    266      185.3
   09/09/2018 08:20      75.6      73.3       56     57.6      0.00      0.00      82.7     0.35      1011.9     0.3     ESE   107   1.3     ESE   104   9.04    268      157.4
   09/09/2018 08:10      73.5      72.3       58     57.5      0.00      0.00      82.7     0.35      1011.9     0.3       N   358   1.1     NNE    12   9.03    268      128.3
   09/09/2018 08:00      72.5      70.1       62     57.3      0.00      0.00      82.8     0.35      1011.8     0.5       N     9   1.7     NNW   343   9.04    269      100.1
   09/09/2018 07:50      70.3      69.2       64     57.1      0.00      0.00      82.8     0.35      1011.7     1.0       N     2   2.1       N     6   9.04    269       72.5
   09/09/2018 07:40      69.3      65.8       73     58.7      0.00      0.00      82.8     0.35      1011.6     0.3      NE    35   0.9     NNE    31   9.04    269       45.0
   09/09/2018 07:30      66.0      63.3       81     58.4      0.00      0.00      82.8     0.35      1011.5     0.0       N     0   0.0      SE   142   9.04    266       17.9
   09/09/2018 07:20      63.6      62.9       82     57.8      0.00      0.00      82.9     0.35      1011.4     0.0      SE   142   0.7      SE   142   9.04    262      -22.7
   09/09/2018 07:10      63.2      62.2       84     57.7      0.00      0.00      82.9     0.35      1011.4     0.0       N     0   0.0      SE   142   9.04    260      -34.7
   09/09/2018 07:00      62.4      61.6       83     56.8      0.00      0.00      83.0     0.35      1011.2     0.0      SE   142   0.7      SE   142   9.04    256      -31.8
   09/09/2018 06:50      62.3      61.7       84     56.9      0.00      0.00      83.0     0.35      1011.1     0.4      SE   142   1.5      SE   142   9.04    255      -42.5
   09/09/2018 06:40      62.6      61.9       83     57.0      0.00      0.00      83.0     0.35      1011.1     0.6     SSE   156   1.2     SSE   154   9.04    257      -48.4
   09/09/2018 06:30      62.7      62.2       83     57.1      0.00      0.00      83.1     0.35      1011.0     0.1      SE   141   1.0      SE   141   9.04    255      -52.4
   09/09/2018 06:20      62.5      62.0       82     56.7      0.00      0.00      83.1     0.35      1011.0     0.0      SE   141   0.4      SE   141   9.04    257      -56.4
   09/09/2018 06:10      62.6      62.0       82     56.6      0.00      0.00      83.1     0.35      1010.9     0.0      SE   141   0.6      SE   141   9.04    260      -58.7
   09/09/2018 06:00      62.7      62.2       82     56.7      0.00      0.00      83.2     0.35      1010.9     0.0      SE   141   0.5      SE   141   9.04    255      -59.1
   09/09/2018 05:50      62.7      62.0       82     56.6      0.00      0.00      83.2     0.35      1010.8     0.8     SSE   152   2.4      SE   141   9.04    256      -61.5
   09/09/2018 05:40      63.0      62.1       80     56.3      0.00      0.00      83.2     0.35      1010.8     0.7       S   173   1.2     SSE   155   9.04    260      -62.3
   09/09/2018 05:30      63.0      62.6       81     56.8      0.00      0.00      83.2     0.35      1010.8     0.3     SSE   153   1.1       S   172   9.04    259      -61.2
   09/09/2018 05:20      63.6      62.7       80     56.9      0.00      0.00      83.3     0.35      1010.7     0.3     SSE   151   0.8     SSE   151   9.04    258      -61.2
   09/09/2018 05:10      64.0      63.4       79     57.2      0.00      0.00      83.3     0.35      1010.7     0.0     SSE   151   0.5     SSE   151   9.04    264      -60.4
   09/09/2018 05:00      64.2      63.6       79     57.2      0.00      0.00      83.3     0.35      1010.6     0.0       N     0   0.0     SSE   151   9.04    265      -59.9
   09/09/2018 04:50      64.1      63.8       79     57.4      0.00      0.00      83.4     0.35      1010.6     0.0       N     0   0.0     SSE   151   9.04    267      -60.0
   09/09/2018 04:40      64.6      64.0       79     57.4      0.00      0.00      83.4     0.35      1010.6     0.1     SSE   151   0.6     SSE   151   9.05    263      -61.0
   09/09/2018 04:30      64.9      64.3       77     57.2      0.00      0.00      83.4     0.35      1010.6     0.0     SSE   151   0.6     SSE   151   9.05    263      -62.7
   09/09/2018 04:20      65.5      64.8       76     57.5      0.00      0.00      83.5     0.35      1010.6     0.4     SSE   151   1.2     SSE   151   9.05    265      -62.4
   09/09/2018 04:10      65.5      65.2       76     57.5      0.00      0.00      83.5     0.35      1010.7     0.2     SSE   151   0.7     SSE   151   9.05    267      -62.2
   09/09/2018 04:00      65.7      65.2       76     57.8      0.00      0.00      83.5     0.35      1010.7     0.0       N     0   0.0     SSE   151   9.05    267      -62.2
   09/09/2018 03:50      65.8      65.3       77     58.0      0.00      0.00      83.5     0.36      1010.6     0.0       N     0   0.0     SSE   151   9.05    266      -62.2
   09/09/2018 03:40      65.8      65.4       77     58.2      0.00      0.00      83.6     0.36      1010.5     0.4     SSE   151   1.1     SSE   151   9.05    267      -63.1
   09/09/2018 03:30      66.0      65.3       76     57.9      0.00      0.00      83.6     0.36      1010.5     0.6     SSE   151   1.0     SSE   151   9.05    267      -63.5
   09/09/2018 03:20      66.5      65.7       76     58.4      0.00      0.00      83.6     0.36      1010.5     0.7     SSE   160   1.2     SSE   151   9.05    265      -63.9
   09/09/2018 03:10      66.5      66.0       77     58.8      0.00      0.00      83.7     0.35      1010.4     0.5     SSE   165   1.0     SSE   165   9.05    266      -64.3
   09/09/2018 03:00      66.6      65.9       77     58.7      0.00      0.00      83.7     0.36      1010.3     0.5     SSE   166   1.3     SSE   158   9.05    265      -65.4
   09/09/2018 02:50      66.7      66.1       77     58.7      0.00      0.00      83.7     0.36      1010.3     0.6     SSE   168   1.1     SSE   154   9.05    267      -66.1
   09/09/2018 02:40      66.9      66.3       77     59.0      0.00      0.00      83.7     0.35      1010.3     0.4     SSE   165   1.2     SSE   160   9.05    267      -65.5
   09/09/2018 02:30      67.5      66.6       75     58.9      0.00      0.00      83.8     0.36      1010.3     0.6     SSE   165   1.2       S   184   9.05    267      -65.0
   09/09/2018 02:20      67.8      67.2       75     59.3      0.00      0.00      83.8     0.36      1010.3     0.1     SSE   160   0.7     SSE   160   9.05    267      -64.8
   09/09/2018 02:10      67.7      67.2       74     59.0      0.00      0.00      83.8     0.36      1010.3     0.5     SSE   160   1.4     SSE   155   9.06    267      -65.2
   09/09/2018 02:00      67.7      67.2       72     58.2      0.00      0.00      83.8     0.36      1010.4     1.0     SSE   154   1.6      SE   145   9.06    267      -65.7
   09/09/2018 01:50      68.0      67.2       69     57.1      0.00      0.00      83.8     0.36      1010.4     1.1      SE   142   1.5      SE   143   9.06    266      -66.2
   09/09/2018 01:40      68.5      67.7       68     57.2      0.00      0.00      83.9     0.36      1010.3     0.7     SSE   155   1.5      SE   144   9.06    266      -66.8
   09/09/2018 01:30      68.9      68.0       65     56.1      0.00      0.00      83.9     0.36      1010.3     0.6     SSE   161   1.5     SSW   199   9.06    266      -67.7
   09/09/2018 01:20      69.0      68.6       61     54.9      0.00      0.00      83.8     0.36      1010.4     0.7       S   187   2.0       S   191   9.06    266      -67.1
   09/09/2018 01:10      69.4      68.8       56     52.6      0.00      0.00      83.9     0.36      1010.4     0.8       S   172   1.5     SSW   191   9.06    266      -67.3
   09/09/2018 01:00      69.8      68.9       54     51.9      0.00      0.00      83.9     0.36      1010.4     0.7       S   172   1.6     SSW   192   9.06    266      -67.1
   09/09/2018 00:50      69.8      69.3       54     51.9      0.00      0.00      83.9     0.36      1010.4     0.2       S   184   1.1       S   184   9.07    265      -67.1
   09/09/2018 00:40      70.0      69.1       53     51.5      0.00      0.00      84.0     0.36      1010.3     0.1       S   184   1.0       S   184   9.07    265      -67.7
   09/09/2018 00:30      70.1      69.6       52     51.4      0.00      0.00      84.0     0.36      1010.3     0.0       S   184   0.2       S   184   9.07    265      -68.4
   09/09/2018 00:20      70.2      69.6       51     51.1      0.00      0.00      84.0     0.36      1010.3     0.3       S   178   1.2       S   175   9.07    265      -68.7
   09/09/2018 00:10      70.7      69.8       51     51.1      0.00      0.00      84.0     0.36      1010.2     0.3     SSE   159   1.5      SE   134   9.07    265      -69.5
   09/09/2018 00:00      71.3      70.4       50     51.3      0.00      0.00      84.0     0.36      1010.2     0.3     SSE   153   1.3      SE   129   9.07    265      -70.2
   09/08/2018 23:50      72.1      71.1       50     51.8      0.00      0.00      84.0     0.36      1010.2     0.2     SSE   164   0.7       S   173   9.08    265      -70.9
   09/08/2018 23:40      72.2      71.6       50     52.5      0.00      0.00      84.0     0.36      1010.3     0.6     SSE   157   1.6      SE   141   9.08    265      -71.3
   09/08/2018 23:30      72.2      71.8       51     53.0      0.00      0.00      84.0     0.36      1010.4     0.7       S   182   1.8     SSW   194   9.08    265      -71.3
   09/08/2018 23:20      73.0      71.8       52     53.5      0.00      0.00      84.1     0.36      1010.4     0.3     SSE   166   1.0     SSE   163   9.08    265      -72.3
   09/08/2018 23:10      73.6      72.8       52     54.4      0.00      0.00      84.0     0.36      1010.4     0.2     SSE   163   1.1     SSE   163   9.08    265      -71.9
   09/08/2018 23:00      73.8      73.2       51     54.3      0.00      0.00      84.1     0.36      1010.4     0.5     SSE   163   1.1     SSE   163   9.09    264      -72.1
   09/08/2018 22:50      74.0      73.4       49     53.2      0.00      0.00      84.0     0.36      1010.4     0.5       S   172   1.0       S   172   9.09    264      -72.6
   09/08/2018 22:40      74.5      73.7       46     52.0      0.00      0.00      84.0     0.36      1010.4     0.3     SSE   163   1.1       S   172   9.09    264      -73.6
   09/08/2018 22:30      75.2      74.2       45     51.7      0.00      0.00      84.0     0.36      1010.3     0.8     SSE   156   1.7      SE   139   9.09    264      -74.6
   09/08/2018 22:20      75.5      74.9       44     51.9      0.00      0.00      84.0     0.36      1010.4     0.9     SSE   152   1.9      SE   143   9.09    264      -74.7
   09/08/2018 22:10      75.9      74.9       43     51.4      0.00      0.00      84.0     0.36      1010.5     1.0     SSE   168   3.2       S   185   9.10    264      -74.6
   09/08/2018 22:00      76.9      75.5       43     51.8      0.00      0.00      84.0     0.36      1010.6     0.5     SSE   169   1.4       S   190   9.10    264      -75.0
   09/08/2018 21:50      77.6      76.5       41     51.7      0.00      0.00      84.0     0.36      1010.5     0.4     SSE   163   1.7      SE   140   9.10    264      -77.0
   09/08/2018 21:40      77.8      77.3       40     51.1      0.00      0.00      84.0     0.36      1010.5     1.2       S   180   2.3     SSW   196   9.10    264      -77.6
   09/08/2018 21:30      78.2      77.4       40     51.7      0.00      0.00      83.9     0.36      1010.4     0.3       S   182   1.5     SSW   199   9.10    264      -78.8
   09/08/2018 21:20      78.7      77.9       40     51.7      0.00      0.00      83.9     0.36      1010.4     0.1       S   183   1.2       S   184   9.11    264      -79.5
   09/08/2018 21:10      79.1      78.3       39     51.4      0.00      0.00      83.9     0.36      1010.3     0.6     SSE   158   1.6      SE   140   9.11    264      -79.9
   09/08/2018 21:00      79.6      78.8       38     51.4      0.00      0.00      83.9     0.36      1010.2     0.9       S   185   1.8     SSW   208   9.11    263      -80.7
   09/08/2018 20:50      80.0      79.2       38     51.6      0.00      0.00      83.9     0.36      1010.2     0.5     SSE   149   1.4      SW   217   9.11    263      -82.6
   09/08/2018 20:40      80.8      79.7       36     50.8      0.00      0.00      83.8     0.36      1010.1     0.3     SSE   162   1.3       S   174   9.12    263      -83.2
   09/08/2018 20:30      81.7      80.6       33     49.4      0.00      0.00      83.8     0.36      1010.0     0.5     SSE   153   1.8       S   181   9.12    263      -83.7
   09/08/2018 20:20      82.6      81.5       32     48.9      0.00      0.00      83.8     0.36      1009.9     0.5       S   183   1.7       S   187   9.12    263      -84.1
   09/08/2018 20:10      83.5      82.4       31     49.5      0.00      0.00      83.7     0.36      1009.9     0.5       S   176   1.8     SSW   204   9.13    263      -86.1
   09/08/2018 20:00      84.5      83.1       32     51.1      0.00      0.00      83.7     0.36      1009.8     0.6       S   177   1.7       S   183   9.13    263      -87.4
   09/08/2018 19:50      85.6      84.4       31     50.8      0.00      0.00      83.7     0.36      1009.8     0.0       S   180   0.9       S   180   9.13    263      -90.2
   09/08/2018 19:40      86.9      85.3       30     50.8      0.00      0.00      83.6     0.36      1009.7     0.3       S   170   1.6       S   186   9.14    263      -91.8
   09/08/2018 19:30      89.7      86.6       28     50.6      0.00      0.00      83.6     0.35      1009.7     0.5      SE   140   1.3      SE   146   9.14    262      -93.2
   09/08/2018 19:20      91.4      89.2       26     50.5      0.00      0.00      83.5     0.35      1009.6     1.0     WSW   241   3.5     WSW   239   9.14    262      -96.7
   09/08/2018 19:10      92.6      91.1       24     49.8      0.00      0.00      83.5     0.35      1009.6     1.7     WNW   287   3.9       W   272   9.15    262      -96.5
   09/08/2018 19:00      93.6      92.4       23     49.5      0.00      0.00      83.4     0.35      1009.6     1.7       W   280   3.6     WSW   253   9.15    262      -94.2
   09/08/2018 18:50      94.7      93.3       23     50.1      0.00      0.00      83.4     0.35      1009.5     1.4       W   281   4.3      NW   326   9.16    262      -93.2
   09/08/2018 18:40      95.4      94.5       22     50.4      0.00      0.00      83.3     0.35      1009.5     1.9      NW   308   5.0     WNW   300   9.16    262      -75.8
   09/08/2018 18:30      97.0      95.0       22     50.9      0.00      0.00      83.3     0.35      1009.4     2.8     WNW   296   5.7       W   280   9.17    262      -54.9
   09/08/2018 18:20      98.6      96.9       20     49.6      0.00      0.00      83.2     0.35      1009.4     3.2     WNW   294   5.8      NW   311   9.17    262      -33.3
   09/08/2018 18:10      98.8      98.3       18     48.0      0.00      0.00      83.2     0.35      1009.5     3.8     WSW   256   7.9       W   276   9.18    261       -8.9
   09/08/2018 18:00      99.1      98.1       19     48.5      0.00      0.00      83.2     0.35      1009.4     4.8     WSW   241   9.0       W   271   9.18    262       17.4
   09/08/2018 17:50      99.5      98.6       18     48.4      0.00      0.00      83.1     0.35      1009.4     5.2     WSW   246   8.3     WSW   242   9.19    262       43.1
   09/08/2018 17:40     100.0      99.1       19     50.2      0.00      0.00      83.1     0.35      1009.3     5.9     WSW   255   9.7     WNW   287   9.20    262       71.7
   09/08/2018 17:30     100.5      99.2       20     51.1      0.00      0.00      82.9     0.35      1009.3     5.6       W   265  10.4     WSW   242   9.21    262       97.9
   09/08/2018 17:20     100.5      99.8       20     52.4      0.00      0.00      82.9     0.35      1009.3     4.3       W   274   7.7     WSW   252   9.21    262      122.1
   09/08/2018 17:10     100.6      99.8       21     53.3      0.00      0.00      82.8     0.35      1009.4     4.3      NW   304   9.0     WNW   296   9.22    262      149.6
   09/08/2018 17:00     101.9     100.5       21     53.4      0.00      0.00      82.8     0.35      1009.4     3.9     WNW   288   7.1     WNW   300   9.22    261      173.5
   09/08/2018 16:50     102.9     101.7       18     50.1      0.00      0.00      82.7     0.35      1009.6     3.4       W   275   6.3     WSW   243   9.23    261      197.8
   09/08/2018 16:40     102.6     101.3       16     47.4      0.00      0.00      82.6     0.35      1009.6     6.1      SW   236  12.5     WSW   247   9.23    262      226.6
   09/08/2018 16:30     102.6     101.6       15     45.0      0.00      0.00      82.6     0.35      1009.6     5.4      SW   221   9.3     SSW   212   9.24    261      248.7
   09/08/2018 16:20     102.7     101.7       15     45.1      0.00      0.00      82.5     0.35      1009.6     6.5      SW   227  12.4      SW   233   9.25    262      273.0
   09/08/2018 16:10     103.0     102.4       14     44.6      0.00      0.00      82.4     0.35      1009.7     6.1      SW   222   9.5     SSW   206   9.26    261      293.9
   09/08/2018 16:00     103.1     102.1       15     45.6      0.00      0.00      82.4     0.35      1009.7     6.6     SSW   205  10.6     SSW   201   9.26    262      314.9
   09/08/2018 15:50     103.5     102.5       14     45.2      0.00      0.00      82.3     0.35      1009.8     6.4      SW   230  10.5       S   191   9.27    262      334.0
   09/08/2018 15:40     103.8     102.8       15     46.0      0.00      0.00      82.2     0.35      1009.8     4.5     SSW   211   8.6     WSW   238   9.28    262      352.4
   09/08/2018 15:30     104.4     103.3       15     47.1      0.00      0.00      82.2     0.35      1009.9     5.1     WSW   250   8.9      SW   228   9.29    262      368.8
   09/08/2018 15:20     105.1     103.3       15     47.3      0.00      0.00      82.1     0.35      1009.9     5.0      SW   217  11.4      SW   217   9.29    262      386.5
   09/08/2018 15:10     105.5     104.1       15     47.9      0.00      0.00      82.0     0.35      1010.0     4.1       S   189   6.3     SSW   209   9.30    262      402.1
   09/08/2018 15:00     105.2     103.4       16     48.7      0.00      0.00      82.0     0.35      1010.1     4.0      SW   227   8.7       S   187   9.30    262      418.7
   09/08/2018 14:50     105.1     103.4       16     49.1      0.00      0.00      81.9     0.35      1010.3     4.9     SSW   212   8.7     SSW   206   9.31    261      434.5
   09/08/2018 14:40     104.9     103.5       16     49.4      0.00      0.00      81.9     0.35      1010.4     4.3       W   272  10.6      SW   236   9.31    261      441.8
   09/08/2018 14:30     105.4     103.2       15     48.1      0.00      0.00      81.8     0.35      1010.5     3.5     SSW   213  10.3     WSW   237   9.32    262      451.5
   09/08/2018 14:20     105.0     103.6       15     46.6      0.00      0.00      81.7     0.35      1010.6     2.2     SSE   167   7.3       W   273   9.32    261      462.5
   09/08/2018 14:10     104.7     103.8       14     46.2      0.00      0.00      81.7     0.35      1010.7     3.9     WSW   242   8.3       W   267   9.32    262      476.5
   09/08/2018 14:00     104.7     103.6       19     54.2      0.00      0.00      81.6     0.35      1010.8     1.9       E    95   6.3      SE   132   9.33    262      483.9
   09/08/2018 13:50     104.0     103.4       19     54.0      0.00      0.00      81.6     0.35      1010.9     2.6     ENE    57   6.2     ENE    67   9.33    262      489.6
   09/08/2018 13:40     103.9     102.6       20     54.9      0.00      0.00      81.5     0.35      1011.0     2.9      NE    52   5.5       E    88   9.33    262      489.0
   09/08/2018 13:30     103.5     101.9       21     54.8      0.00      0.00      81.5     0.35      1011.1     2.7       E    79   5.3     ESE   118   9.34    262      497.1
   09/08/2018 13:20     103.6     102.5       21     56.0      0.00      0.00      81.4     0.35      1011.2     2.7     ENE    63   5.3     ENE    77   9.34    262      504.8
   09/08/2018 13:10     103.2     102.3       21     55.9      0.00      0.00      81.5     0.35      1011.3     2.6      NE    47   5.1       E    81   9.34    262      508.8
   09/08/2018 13:00     103.0     101.8       20     53.0      0.00      0.00      81.4     0.35      1011.4     3.1      NE    38   5.7     NNE    20   9.34    262      506.7
   09/08/2018 12:50     102.3     100.7       20     52.6      0.00      0.00      81.4     0.35      1011.6     3.1     ENE    77   6.0      SE   139   9.34    262      514.8
   09/08/2018 12:40     101.9     100.8       20     53.0      0.00      0.00      81.4     0.35      1011.7     2.0      NE    56   4.5      SE   134   9.35    262      513.1
   09/08/2018 12:30     101.6     100.4       21     53.4      0.00      0.00      81.4     0.35      1011.8     2.4      NE    40   5.5      NE    52   9.35    263      512.7
   09/08/2018 12:20     101.4     100.2       21     53.4      0.00      0.00      81.4     0.35      1012.0     2.0     NNE    19   4.7      NE    47   9.35    262      511.3
   09/08/2018 12:10     100.4      99.0       21     52.5      0.00      0.00      81.3     0.35      1012.1     1.8       N     4   3.9     ESE   116   9.35    263      510.3
   09/08/2018 12:00      99.4      97.8       21     52.2      0.00      0.00      81.3     0.35      1012.2     1.3     NNE    15   2.8     NNE    33   9.35    263      506.6
   09/08/2018 11:50      98.0      96.5       23     53.6      0.00      0.00      81.4     0.35      1012.3     2.1      NE    46   3.7       E    88   9.35    263      501.7
   09/08/2018 11:40      96.5      95.3       25     53.9      0.00      0.00      81.3     0.35      1012.3     2.1     NNE    32   4.5      NE    48   9.35    263      498.1
   09/08/2018 11:30      95.7      94.4       24     52.9      0.00      0.00      81.4     0.35      1012.4     1.7     NNE    29   4.2       N     0   9.35    263      491.9
   09/08/2018 11:20      94.4      93.5       26     54.1      0.00      0.00      81.4     0.35      1012.5     2.2      NE    36   4.0     NNE    14   9.35    263      482.4
   09/08/2018 11:10      94.0      92.8       27     55.0      0.00      0.00      81.4     0.35      1012.6     1.8      NE    36   3.9     NNW   334   9.35    264      473.7
   09/08/2018 11:00      92.9      90.9       30     55.9      0.00      0.00      81.5     0.35      1012.7     1.5      NE    50   3.3      NE    49   9.35    264      463.5
   09/08/2018 10:50      91.1      89.6       32     56.8      0.00      0.00      81.5     0.35      1012.8     1.7      NE    34   3.2      NE    50   9.35    264      450.3
   09/08/2018 10:40      90.0      88.4       35     57.7      0.00      0.00      81.5     0.35      1012.9     1.6     NNE    15   3.7     NNE    23   9.35    264      439.5
   09/08/2018 10:30      88.7      86.8       37     58.1      0.00      0.00      81.6     0.35      1013.0     1.5     NNE    11   3.2     NNW   338   9.35    264      425.0
   09/08/2018 10:20      87.1      85.6       40     59.0      0.00      0.00      81.6     0.35      1013.1     1.4     NNE    19   3.3      NE    55   9.35    264      408.8
   09/08/2018 10:10      86.0      84.8       42     59.2      0.00      0.00      81.6     0.35      1013.1     1.4     NNE    20   2.8     NNE    15   9.35    264      392.1
   09/08/2018 10:00      84.9      83.8       43     59.4      0.00      0.00      81.7     0.35      1013.1     1.5     NNE    16   2.8      NE    44   9.35    265      377.0
   09/08/2018 09:50      83.8      82.4       46     60.2      0.00      0.00      81.7     0.35      1013.1     1.1       N     3   3.8       N     6   9.35    265      359.5
   09/08/2018 09:40      82.7      81.4       48     60.4      0.00      0.00      81.7     0.35      1013.1     0.9       N     7   2.2     NNE    31   9.35    265      341.1
   09/08/2018 09:30      81.7      80.5       49     60.3      0.00      0.00      81.8     0.35      1013.1     0.9     NNW   336   2.2       N   355   9.35    266      322.2
   09/08/2018 09:20      80.6      77.9       52     60.1      0.00      0.00      81.8     0.35      1013.2     0.9     WNW   303   2.4       W   269   9.35    266      301.6
   09/08/2018 09:10      78.2      77.2       54     59.8      0.00      0.00      81.8     0.35      1013.2     1.9       W   281   3.5     WSW   252   9.35    266      280.9
   09/08/2018 09:00      77.5      76.0       56     60.1      0.00      0.00      81.9     0.35      1013.4     1.5       W   267   3.9       W   262   9.35    266      257.9
   09/08/2018 08:50      76.3      74.3       60     60.1      0.00      0.00      81.9     0.35      1013.4     1.6     WNW   301   3.1      NW   312   9.35    266      235.2
   09/08/2018 08:40      74.6      73.8       61     59.8      0.00      0.00      82.0     0.35      1013.3     1.5      NW   309   2.8      NW   311   9.35    266      211.1
   09/08/2018 08:30      73.9      73.2       62     59.7      0.00      0.00      82.0     0.35      1013.3     1.6     WNW   293   4.0     WSW   248   9.35    267      185.8
   09/08/2018 08:20      73.7      72.5       62     59.7      0.00      0.00      82.1     0.35      1013.3     1.1       W   276   2.7     WNW   304   9.35    268      159.7
   09/08/2018 08:10      72.6      71.0       65     59.5      0.00      0.00      82.1     0.35      1013.4     0.7      NW   321   1.8       W   277   9.35    269      129.2
   09/08/2018 08:00      71.1      70.2       67     59.1      0.00      0.00      82.1     0.35      1013.5     1.2     WNW   290   2.5       W   276   9.35    270       97.0
   09/08/2018 07:50      70.3      68.5       70     59.1      0.00      0.00      82.2     0.35      1013.5     0.7       W   279   2.2       W   266   9.35    270       69.9
   09/08/2018 07:40      68.7      65.8       78     60.1      0.00      0.00      82.1     0.35      1013.5     0.1     NNE    30   0.9     NNE    24   9.35    269       64.3
   09/08/2018 07:30      65.9      63.6       84     59.4      0.00      0.00      82.2     0.35      1013.4     0.0      SE   131   0.3      SE   131   9.35    260       38.8
   09/08/2018 07:20      63.8      62.5       85     58.6      0.00      0.00      82.2     0.35      1013.4     0.2     SSE   154   0.9       S   169   9.35    255      -10.5
   09/08/2018 07:10      62.7      61.7       87     58.3      0.00      0.00      82.3     0.35      1013.4     0.3       S   169   1.0       S   169   9.35    256      -16.7
   09/08/2018 07:00      62.0      61.6       87     58.0      0.00      0.00      82.3     0.35      1013.3     0.6     SSE   162   1.2     SSE   161   9.35    265      -14.9
   09/08/2018 06:50      61.9      61.4       87     57.6      0.00      0.00      82.4     0.35      1013.3     0.2     SSE   161   0.7     SSE   161   9.35    266      -27.8
   09/08/2018 06:40      62.1      61.5       87     57.9      0.00      0.00      82.4     0.35      1013.2     0.7     SSE   161   1.2     SSE   160   9.35    268      -33.7
   09/08/2018 06:30      62.2      61.6       86     57.7      0.00      0.00      82.4     0.35      1013.1     0.1     SSE   160   0.7     SSE   160   9.35    266      -38.0
   09/08/2018 06:20      62.2      61.8       86     57.8      0.00      0.00      82.4     0.35      1013.1     0.0     SSE   160   0.5     SSE   160   9.35    264      -40.0
   09/08/2018 06:10      62.3      61.8       87     58.0      0.00      0.00      82.5     0.35      1013.1     0.0     SSE   160   0.5     SSE   160   9.35    263      -40.3
   09/08/2018 06:00      62.5      61.7       86     57.8      0.00      0.00      82.5     0.35      1013.1     0.3     SSE   160   0.9     SSE   160   9.36    264      -42.9
   09/08/2018 05:50      62.5      62.0       86     58.1      0.00      0.00      82.5     0.35      1013.1     0.4     SSE   160   1.0     SSE   160   9.36    264      -43.5
   09/08/2018 05:40      62.5      61.9       86     57.9      0.00      0.00      82.6     0.35      1013.0     0.2     SSE   160   1.1     SSE   160   9.36    262      -45.9
   09/08/2018 05:30      62.8      61.9       85     57.8      0.00      0.00      82.6     0.35      1013.0     0.3     SSE   160   1.2     SSE   160   9.36    260      -46.9
   09/08/2018 05:20      62.8      62.3       85     57.9      0.00      0.00      82.6     0.35      1013.0     0.0     SSE   160   0.6     SSE   160   9.36    259      -48.3
   09/08/2018 05:10      63.2      62.3       84     57.9      0.00      0.00      82.7     0.35      1013.0     0.4     SSE   159   1.0     SSE   160   9.36    260      -49.8
   09/08/2018 05:00      63.2      62.8       84     58.0      0.00      0.00      82.7     0.35      1013.0     0.2     SSE   156   0.8     SSE   156   9.36    260      -50.6
   09/08/2018 04:50      63.5      62.8       83     57.9      0.00      0.00      82.7     0.35      1012.9     0.2     SSE   156   0.8     SSE   156   9.36    258      -52.2
   09/08/2018 04:40      63.5      62.9       84     58.1      0.00      0.00      82.7     0.35      1012.9     0.0     SSE   156   0.7     SSE   156   9.36    256      -52.2
   09/08/2018 04:30      63.7      63.0       83     58.1      0.00      0.00      82.8     0.35      1012.8     0.0     SSE   156   0.4     SSE   156   9.36    255      -53.8
   09/08/2018 04:20      63.8      63.2       82     57.8      0.00      0.00      82.8     0.35      1012.9     0.0       N     0   0.0     SSE   156   9.36    256      -56.4
   09/08/2018 04:10      63.8      63.3       82     58.0      0.00      0.00      82.8     0.35      1012.9     0.3     SSE   156   1.1     SSE   156   9.36    256      -57.9
   09/08/2018 04:00      64.1      63.5       82     58.3      0.00      0.00      82.8     0.35      1012.9     0.5     SSE   156   1.1     SSE   156   9.36    255      -58.1
   09/08/2018 03:50      64.3      63.7       82     58.3      0.00      0.00      82.9     0.35      1013.0     0.3     SSE   162   1.2       S   191   9.36    256      -58.5
   09/08/2018 03:40      64.6      63.9       81     58.3      0.00      0.00      82.9     0.35      1013.0     0.0       S   191   0.9       S   191   9.37    255      -59.3
   09/08/2018 03:30      64.7      64.2       82     58.7      0.00      0.00      82.9     0.35      1013.0     0.6     SSW   196   2.5       S   191   9.37    257      -58.5
   09/08/2018 03:20      64.6      64.2       82     58.5      0.00      0.00      82.9     0.35      1013.1     0.4       S   177   1.2       S   177   9.37    260      -58.3
   09/08/2018 03:10      64.7      64.3       82     58.8      0.00      0.00      82.9     0.35      1013.2     0.2      SE   131   1.4      SE   146   9.37    256      -58.0
   09/08/2018 03:00      65.0      64.4       81     58.7      0.00      0.00      83.0     0.35      1013.3     0.3     SSE   166   1.1       S   177   9.37    255      -58.8
   09/08/2018 02:50      65.2      64.7       81     59.0      0.00      0.00      83.0     0.35      1013.3     0.6     SSE   151   1.8      SE   142   9.37    258      -59.3
   09/08/2018 02:40      65.2      64.8       82     59.2      0.00      0.00      83.0     0.36      1013.3     0.1       S   182   0.6       S   182   9.37    255      -59.0
   09/08/2018 02:30      65.2      64.8       82     59.2      0.00      0.00      83.1     0.35      1013.3     0.5     SSE   167   1.0       S   178   9.37    256      -59.9
   09/08/2018 02:20      65.3      65.0       81     59.3      0.00      0.00      83.1     0.35      1013.4     0.1       S   178   0.9       S   178   9.37    256      -60.1
   09/08/2018 02:10      65.6      65.0       80     58.9      0.00      0.00      83.1     0.36      1013.5     0.1       S   178   0.6       S   178   9.37    257      -60.8
   09/08/2018 02:00      66.1      65.3       80     59.4      0.00      0.00      83.1     0.36      1013.6     0.5       S   172   1.8      SE   143   9.37    261      -61.0
   09/08/2018 01:50      66.1      65.6       80     59.6      0.00      0.00      83.1     0.36      1013.6     0.2       S   179   0.6       S   179   9.37    259      -60.9
   09/08/2018 01:40      65.9      65.5       80     59.2      0.00      0.00      83.2     0.36      1013.7     0.4       S   179   1.4       S   179   9.37    258      -61.9
   09/08/2018 01:30      66.4      65.6       79     59.3      0.00      0.00      83.2     0.36      1013.8     0.1       S   179   0.9       S   179   9.37    262      -62.2
   09/08/2018 01:20      66.6      66.1       78     59.3      0.00      0.00      83.2     0.36      1013.8     0.2       S   179   0.8       S   179   9.38    264      -62.6
   09/08/2018 01:10      66.9      66.4       78     59.5      0.00      0.00      83.2     0.36      1013.9     0.0       S   179   0.5       S   179   9.38    263      -62.7
   09/08/2018 01:00      67.2      66.5       77     59.3      0.00      0.00      83.2     0.36      1014.0     0.2       S   179   1.1       S   179   9.38    266      -63.4
   09/08/2018 00:50      67.5      66.7       76     59.3      0.00      0.00      83.2     0.36      1014.0     0.2       S   179   1.0       S   179   9.38    267      -63.6
   09/08/2018 00:40      67.7      67.2       76     59.6      0.00      0.00      83.3     0.36      1014.0     0.4       S   179   1.1       S   179   9.38    268      -63.2
   09/08/2018 00:30      68.0      67.2       75     59.4      0.00      0.00      83.3     0.36      1014.0     0.3       S   179   0.7       S   179   9.38    267      -64.0
   09/08/2018 00:20      68.1      67.6       75     59.5      0.00      0.00      83.2     0.36      1014.1     0.2       S   179   0.7       S   179   9.38    268      -63.6
   09/08/2018 00:10      68.7      67.8       73     59.4      0.00      0.00      83.3     0.36      1014.1     0.0       S   179   0.3       S   179   9.39    268      -65.5
   09/08/2018 00:00      69.3      68.4       72     59.5      0.00      0.00      83.3     0.36      1014.0     0.0       S   179   0.7       S   179   9.39    268      -66.2
   09/07/2018 23:50      69.7      68.9       72     59.7      0.00      0.00      83.3     0.36      1014.0     0.1      SE   144   0.7     ESE   123   9.39    268      -67.6
   09/07/2018 23:40      70.1      69.3       71     60.0      0.00      0.00      83.3     0.36      1014.1     0.8      SE   126   1.6       E   101   9.39    268      -68.4
   09/07/2018 23:30      70.3      69.7       71     60.1      0.00      0.00      83.3     0.36      1014.1     0.9     ESE   110   2.4     ESE   118   9.39    268      -68.6
   09/07/2018 23:20      70.8      70.0       70     60.1      0.00      0.00      83.2     0.36      1014.1     1.0     ESE   119   2.3     ESE   104   9.39    268      -69.2
   09/07/2018 23:10      71.6      70.5       68     59.9      0.00      0.00      83.3     0.36      1014.1     0.7     ESE   118   2.1      SE   130   9.40    268      -69.6
   09/07/2018 23:00      72.1      71.2       67     60.0      0.00      0.00      83.2     0.36      1014.0     0.7       E    81   2.9       E    79   9.40    267      -70.2
   09/07/2018 22:50      72.3      71.6       66     60.0      0.00      0.00      83.3     0.36      1014.0     1.0     ENE    59   2.4     NNE    17   9.40    267      -70.7
   09/07/2018 22:40      72.5      72.0       65     60.0      0.00      0.00      83.3     0.36      1013.9     0.7     ENE    59   2.9      NE    56   9.40    267      -71.2
   09/07/2018 22:30      73.0      72.2       65     60.0      0.00      0.00      83.3     0.36      1013.8     0.2       E    91   2.1     ENE    70   9.40    267      -71.7
   09/07/2018 22:20      73.3      72.6       64     60.0      0.00      0.00      83.3     0.36      1013.8     0.9       E    84   2.3     ENE    79   9.40    267      -71.8
   09/07/2018 22:10      73.8      73.0       63     59.9      0.00      0.00      83.3     0.36      1013.8     0.7       E    94   2.3     ESE   106   9.41    266      -72.4
   09/07/2018 22:00      74.6      73.5       62     60.0      0.00      0.00      83.2     0.36      1013.7     0.3       E    82   1.2     ENE    67   9.41    266      -73.0
   09/07/2018 21:50      75.0      74.2       60     60.0      0.00      0.00      83.2     0.36      1013.7     0.8     ENE    60   3.0     ESE   116   9.41    266      -73.5
   09/07/2018 21:40      75.5      74.8       60     60.0      0.00      0.00      83.2     0.36      1013.8     0.9     ENE    77   2.5     ENE    70   9.41    266      -74.2
   09/07/2018 21:30      76.1      75.2       58     60.0      0.00      0.00      83.2     0.36      1013.7     1.2       E    88   3.5     ESE   112   9.41    266      -74.5
   09/07/2018 21:20      76.6      75.8       57     60.0      0.00      0.00      83.2     0.36      1013.6     1.5       E    91   3.4     ESE   109   9.42    266      -74.8
   09/07/2018 21:10      77.4      76.3       56     60.0      0.00      0.00      83.1     0.36      1013.6     0.7       E    90   2.7     ESE   106   9.42    266      -74.7
   09/07/2018 21:00      77.7      77.2       55     60.0      0.00      0.00      83.2     0.36      1013.5     0.2     ENE    72   1.4      NE    49   9.42    266      -74.6
   09/07/2018 20:50      77.7      77.1       55     59.8      0.00      0.00      83.1     0.36      1013.4     0.4     ENE    68   2.1     ENE    62   9.42    266      -74.1
   09/07/2018 20:40      78.4      77.4       54     59.9      0.00      0.00      83.1     0.36      1013.3     0.0       N     0   0.0     SSW   205   9.43    266      -74.7
   09/07/2018 20:30      78.9      78.0       53     60.0      0.00      0.00      83.1     0.36      1013.2     0.5     SSW   198   1.4     SSW   205   9.43    266      -75.4
   09/07/2018 20:20      79.5      78.6       52     59.9      0.00      0.00      83.1     0.36      1013.1     0.0       S   184   0.5       S   185   9.43    266      -77.1
   09/07/2018 20:10      80.0      79.3       51     59.7      0.00      0.00      83.1     0.36      1013.0     0.8       S   185   1.9       S   186   9.43    266      -77.7
   09/07/2018 20:00      80.6      79.7       50     59.8      0.00      0.00      83.0     0.36      1012.8     0.7       S   179   1.5       S   183   9.44    265      -79.2
   09/07/2018 19:50      81.8      80.3       48     59.8      0.00      0.00      82.9     0.36      1012.8     0.0     SSE   155   1.0       S   178   9.44    265      -80.9
   09/07/2018 19:40      82.3      81.5       48     60.0      0.00      0.00      82.9     0.36      1012.7     0.1     ESE   102   1.2     ENE    68   9.44    265      -83.2
   09/07/2018 19:30      83.4      82.0       46     59.9      0.00      0.00      82.9     0.36      1012.7     0.6     ESE   116   1.4       E    96   9.45    265      -84.4
   09/07/2018 19:20      84.5      83.1       44     59.6      0.00      0.00      82.8     0.35      1012.5     0.4     ESE   113   1.5     ESE   105   9.45    264      -85.3
   09/07/2018 19:10      85.5      84.3       43     59.9      0.00      0.00      82.8     0.36      1012.5     0.8     ENE    58   1.9     ENE    56   9.45    264      -83.3
   09/07/2018 19:00      86.0      85.2       42     60.1      0.00      0.00      82.8     0.35      1012.5     1.0      NE    47   1.9      NE    55   9.46    264      -79.5
   09/07/2018 18:50      87.1      85.7       41     60.2      0.00      0.00      82.7     0.35      1012.5     1.4       E    84   3.2       E    82   9.46    264      -77.4
   09/07/2018 18:40      88.0      86.8       40     60.2      0.00      0.00      82.7     0.35      1012.4     1.4     ENE    60   3.2      NE    56   9.47    264      -56.6
   09/07/2018 18:30      89.3      87.6       39     60.6      0.00      0.00      82.6     0.35      1012.4     2.2     ENE    70   4.8      SE   126   9.47    264      -39.0
   09/07/2018 18:20      90.4      89.0       38     60.4      0.00      0.00      82.6     0.35      1012.4     2.0       E    79   6.2       E    92   9.48    264      -19.9
   09/07/2018 18:10      91.4      90.1       35     59.7      0.00      0.00      82.5     0.35      1012.3     2.3      NE    50   4.3      NE    47   9.48    264        0.6
   09/07/2018 18:00      91.7      91.1       35     59.6      0.00      0.00      82.3     0.35      1012.2     2.2      NE    47   3.5     NNE    25   9.49    264       23.3
   09/07/2018 17:50      92.3      91.2       34     59.6      0.00      0.00      82.4     0.35      1012.3     2.0     ENE    67   3.1       E    90   9.49    263       47.0
   09/07/2018 17:40      92.9      92.1       33     59.0      0.00      0.00      82.4     0.35      1012.3     2.0      NE    49   3.5      NE    50   9.50    263       69.6
   09/07/2018 17:30      93.8      92.4       32     58.6      0.00      0.00      82.3     0.35      1012.3     2.1     ENE    61   3.9     ENE    74   9.50    263       94.5
   09/07/2018 17:20      94.6      93.6       30     58.4      0.00      0.00      82.3     0.35      1012.3     1.9      NE    43   3.3      NE    55   9.50    263      121.3
   09/07/2018 17:10      95.7      94.3       30     58.2      0.00      0.00      82.2     0.35      1012.3     2.4      NE    49   4.4       E    89   9.51    263      146.2
   09/07/2018 17:00      96.5      95.1       30     58.9      0.00      0.00      82.2     0.35      1012.3     1.8     ENE    60   3.8     ENE    62   9.51    263      171.8
   09/07/2018 16:50      98.1      96.4       28     58.9      0.00      0.00      82.1     0.35      1012.3     1.8     NNE    33   4.1       N   351   9.51    263      196.0
   09/07/2018 16:40      98.6      97.9       28     59.3      0.00      0.00      82.0     0.35      1012.3     1.3      NE    45   3.2     ENE    63   9.52    263      221.2
   09/07/2018 16:30      98.4      97.3       28     58.9      0.00      0.00      82.0     0.35      1012.3     1.3     SSE   149   3.5      NE    45   9.52    263      244.5
   09/07/2018 16:20      98.4      97.8       28     59.0      0.00      0.00      81.9     0.35      1012.3     1.7      NE    52   3.6     ENE    75   9.52    263      264.1
   09/07/2018 16:10      98.7      97.8       28     59.7      0.00      0.00      81.8     0.35      1012.3     2.0     NNE    25   3.9     NNE    12   9.52    263      284.5
   09/07/2018 16:00      98.9      98.1       29     60.5      0.00      0.00      81.8     0.35      1012.3     2.5      NE    43   4.8     NNE    16   9.53    263      305.9
   09/07/2018 15:50     100.2      98.2       28     60.4      0.00      0.00      81.7     0.35      1012.4     3.1     ENE    60   5.0     ENE    72   9.53    263      324.0
   09/07/2018 15:40     100.8      99.9       25     57.6      0.00      0.00      81.7     0.35      1012.5     2.2     ENE    59   4.4      NE    48   9.53    263      342.6
   09/07/2018 15:30     101.1     100.4       23     55.7      0.00      0.00      81.6     0.35      1012.6     1.9     NNE    13   3.4     NNE    31   9.54    263      360.1
   09/07/2018 15:20     100.5      99.7       24     56.9      0.00      0.00      81.5     0.35      1012.6     1.7     ENE    66   4.6     ENE    66   9.54    263      380.8
   09/07/2018 15:10     100.4      98.8       24     56.2      0.00      0.00      81.5     0.35      1012.6     1.9     NNE    30   4.0       N     6   9.54    263      401.1
   09/07/2018 15:00      99.4      98.3       25     56.7      0.00      0.00      81.5     0.35      1012.8     2.3     ENE    77   4.4       E    83   9.54    263      418.1
   09/07/2018 14:50      99.6      98.2       24     56.0      0.00      0.00      81.4     0.35      1012.9     2.1      NE    48   5.1     ENE    59   9.55    263      430.5
   09/07/2018 14:40      98.2      97.1       24     55.2      0.00      0.00      81.3     0.35      1013.1     1.5      SW   233   3.4      NE    53   9.55    263      444.4
   09/07/2018 14:30      98.2      97.5       25     56.1      0.00      0.00      81.3     0.35      1013.3     1.5      NE    42   3.2       N   353   9.55    263      457.3
   09/07/2018 14:20      97.4      95.5       27     57.1      0.00      0.00      81.1     0.35      1013.4     1.5     NNE    23   3.9     WNW   293   9.56    263      470.4
   09/07/2018 14:10      96.3      95.3       29     58.0      0.00      0.00      81.2     0.35      1013.5     2.2     NNE    20   4.3      NE    42   9.56    264      482.1
   09/07/2018 14:00      96.2      94.4       29     58.3      0.00      0.00      81.2     0.35      1013.7     2.3     NNE    11   5.1      NE    48   9.56    263      492.0
   09/07/2018 13:50      94.6      93.2       30     57.8      0.00      0.00      81.2     0.35      1013.8     2.9      NW   324   4.8     NNE    17   9.56    264      502.2
   09/07/2018 13:40      94.2      92.5       30     57.6      0.00      0.00      81.1     0.35      1013.9     1.9     NNW   335   3.6     NNW   331   9.56    264      509.7
   09/07/2018 13:30      93.5      92.1       30     56.7      0.00      0.00      81.1     0.35      1014.0     2.4       E    93   5.3      SE   130   9.56    264      514.9
   09/07/2018 13:20      92.5      91.9       30     56.4      0.00      0.00      81.0     0.35      1014.1     2.0     ENE    67   4.2      NE    54   9.56    264      521.8
   09/07/2018 13:10      92.7      91.9       31     57.1      0.00      0.00      81.0     0.35      1014.3     2.2     NNW   342   4.1       N   355   9.57    264      522.3
   09/07/2018 13:00      92.5      90.0       32     57.6      0.00      0.00      81.0     0.35      1014.4     1.5       N     9   3.6       N   349   9.57    264      527.1
   09/07/2018 12:50      90.6      89.3       34     58.0      0.00      0.00      81.0     0.35      1014.4     2.1     ENE    67   4.3      NE    53   9.57    264      528.7
   09/07/2018 12:40      90.0      89.0       34     57.8      0.00      0.00      80.9     0.35      1014.6     2.3     NNE    26   4.5      NE    53   9.57    264      528.0
   09/07/2018 12:30      89.9      88.3       36     58.6      0.00      0.00      81.0     0.35      1014.6     1.7       N   352   4.0     NNW   340   9.57    264      528.3
   09/07/2018 12:20      88.6      87.8       38     59.0      0.00      0.00      81.0     0.35      1014.8     2.7       N     3   5.3     NNW   339   9.57    264      526.3
   09/07/2018 12:10      88.1      86.3       39     59.5      0.00      0.00      81.0     0.35      1014.9     1.6      NE    50   5.4     NNE    26   9.57    265      525.6
   09/07/2018 12:00      86.4      85.1       42     59.5      0.00      0.00      81.0     0.35      1015.0     1.9     NNE    20   4.9     NNE    26   9.57    265      521.2
   09/07/2018 11:50      86.3      85.5       42     60.0      0.00      0.00      80.9     0.35      1015.1     2.4     NNE    20   5.4     NNW   343   9.57    265      515.4
   09/07/2018 11:40      86.2      83.8       44     60.1      0.00      0.00      81.0     0.35      1015.2     1.6     NNE    22   3.9     ENE    59   9.57    265      510.3
   09/07/2018 11:30      84.3      82.8       45     59.8      0.00      0.00      81.0     0.35      1015.3     1.7      NE    45   3.5      NE    42   9.57    265      503.6
   09/07/2018 11:20      82.9      82.0       46     59.7      0.00      0.00      81.0     0.35      1015.4     2.5     NNE    13   4.6     NNE    18   9.57    265      493.0
   09/07/2018 11:10      82.2      81.3       47     59.8      0.00      0.00      81.1     0.35      1015.5     2.0       N     8   4.0     WNW   297   9.57    266      482.1
   09/07/2018 11:00      81.5      79.9       49     59.8      0.00      0.00      81.1     0.35      1015.6     1.9      NE    55   3.6     ENE    57   9.57    265      471.4
   09/07/2018 10:50      80.4      79.2       51     59.6      0.00      0.00      81.1     0.35      1015.7     1.9     NNE    21   3.4     ESE   106   9.57    266      459.5
   09/07/2018 10:40      79.6      77.7       53     59.7      0.00      0.00      81.2     0.35      1015.7     2.1     NNE    16   3.6       N   351   9.57    266      445.9
   09/07/2018 10:30      78.0      77.3       54     59.8      0.00      0.00      81.2     0.35      1015.8     2.1     ENE    57   3.7      NE    51   9.57    266      432.0
   09/07/2018 10:20      77.4      76.2       56     59.7      0.00      0.00      81.1     0.35      1015.9     1.9      NE    35   3.3     NNW   330   9.57    266      414.2
   09/07/2018 10:10      76.8      75.8       56     59.7      0.00      0.00      81.2     0.35      1015.9     1.8       N     8   3.6       N   350   9.57    266      396.8
   09/07/2018 10:00      76.0      75.1       58     59.9      0.00      0.00      81.3     0.35      1015.9     1.5      NE    43   3.6     NNE    28   9.57    266      378.2
   09/07/2018 09:50      75.1      74.3       60     60.0      0.00      0.00      81.3     0.35      1015.9     1.2       N   357   4.0       N     7   9.57    266      359.1
   09/07/2018 09:40      74.7      73.2       62     60.1      0.00      0.00      81.3     0.35      1015.9     1.7       N     1   3.3     NNW   329   9.57    266      341.4
   09/07/2018 09:30      73.3      71.9       64     59.8      0.00      0.00      81.4     0.35      1015.9     1.3       N     9   2.9      NE    36   9.57    267      321.9
   09/07/2018 09:20      72.2      71.5       66     59.8      0.00      0.00      81.4     0.35      1015.9     1.9     NNE    14   3.4       N   355   9.57    267      301.2
   09/07/2018 09:10      72.3      71.5       66     59.7      0.00      0.00      81.5     0.35      1015.9     1.5     NNW   344   3.2     NNE    13   9.57    267      281.8
   09/07/2018 09:00      71.6      70.0       68     59.8      0.00      0.00      81.6     0.35      1015.9     0.7     NNW   344   2.4     NNE    16   9.57    267      257.1
   09/07/2018 08:50      70.1      69.5       70     59.6      0.00      0.00      81.6     0.35      1015.9     0.7       N     4   1.8     NNE    13   9.57    268      231.3
   09/07/2018 08:40      70.5      69.3       70     59.7      0.00      0.00      81.6     0.35      1015.9     0.8       N    10   2.5       N     0   9.57    268      205.8
   09/07/2018 08:30      69.4      68.4       73     59.7      0.00      0.00      81.7     0.35      1016.0     0.8     ENE    58   2.6     ENE    78   9.57    268      177.7
   09/07/2018 08:20      68.7      67.3       76     60.1      0.00      0.00      81.7     0.35      1016.0     0.6     NNE    21   1.8      NE    39   9.57    270      167.9
   09/07/2018 08:10      67.6      66.8       77     59.9      0.00      0.00      81.7     0.35      1016.0     0.7       S   172   1.8      NE    39   9.57    268      152.8
   09/07/2018 08:00      67.6      65.2       83     61.0      0.00      0.00      81.8     0.35      1016.1     0.0     SSE   147   0.3       E    96   9.57    266      124.7
   09/07/2018 07:50      65.2      63.6       85     59.9      0.00      0.00      81.8     0.35      1016.1     0.0     SSE   161   0.0     SSE   161   9.57    267       93.0
   09/07/2018 07:40      63.6      62.1       89     59.5      0.00      0.00      81.8     0.35      1016.2     0.0     SSE   161   0.8     SSE   160   9.57    284       62.3
   09/07/2018 07:30      62.4      61.3       91     58.9      0.00      0.00      81.9     0.35      1016.3     0.2     SSE   161   0.8     SSE   161   9.57    294       35.4
   09/07/2018 07:20      61.7      60.9       91     58.6      0.00      0.00      82.0     0.35      1016.2     0.0       N     0   0.0     SSE   161   9.57    298       10.9
   09/07/2018 07:10      61.3      60.2       91     58.1      0.00      0.00      82.0     0.35      1016.1     0.3     SSE   161   0.9     SSE   161   9.57    299        3.7
   09/07/2018 07:00      60.5      59.5       91     57.3      0.00      0.00      82.0     0.35      1016.0     0.0       N     0   0.0     SSE   161   9.57    298       -1.9
   09/07/2018 06:50      60.1      59.5       91     57.1      0.00      0.00      82.0     0.35      1015.9     0.0       N     0   0.0     SSE   161   9.57    297      -10.4
   09/07/2018 06:40      60.3      59.5       91     57.2      0.00      0.00      82.1     0.35      1015.8     0.0     SSE   161   0.2     SSE   161   9.57    297      -16.3
   09/07/2018 06:30      60.1      59.8       91     57.3      0.00      0.00      82.1     0.35      1015.7     0.3     SSE   161   1.0     SSE   161   9.57    294      -19.0
   09/07/2018 06:20      60.3      59.8       91     57.4      0.00      0.00      82.2     0.35      1015.6     0.0       N     0   0.0     SSE   161   9.57    292      -20.7
   09/07/2018 06:10      60.2      59.7       91     57.3      0.00      0.00      82.2     0.35      1015.6     0.2     SSE   161   0.9     SSE   161   9.57    290      -21.5
   09/07/2018 06:00      60.1      59.4       91     56.9      0.00      0.00      82.2     0.35      1015.6     0.2     SSE   161   0.6     SSE   161   9.57    287      -21.8
   09/07/2018 05:50      60.0      59.5       91     57.0      0.00      0.00      82.3     0.35      1015.6     0.2     SSE   161   0.7     SSE   161   9.57    286      -22.3
   09/07/2018 05:40      60.2      59.6       90     57.0      0.00      0.00      82.3     0.35      1015.5     0.0     SSE   161   0.7     SSE   161   9.57    285      -22.5
   09/07/2018 05:30      60.6      59.8       90     57.3      0.00      0.00      82.3     0.35      1015.5     0.0     SSE   161   0.5     SSE   161   9.57    283      -22.7
   09/07/2018 05:20      60.4      59.9       90     57.3      0.00      0.00      82.3     0.35      1015.5     0.0     SSE   161   0.5     SSE   161   9.57    282      -23.5
   09/07/2018 05:10      60.3      59.8       90     57.3      0.00      0.00      82.5     0.35      1015.5     0.1     SSE   161   0.8     SSE   161   9.58    281      -24.1
   09/07/2018 05:00      60.1      59.6       90     56.8      0.00      0.00      82.4     0.35      1015.5     0.0     SSE   161   0.2     SSE   161   9.58    280      -25.0
   09/07/2018 04:50      60.2      59.8       90     57.0      0.00      0.00      82.5     0.35      1015.5     0.1     SSE   161   0.9     SSE   161   9.58    280      -25.1
   09/07/2018 04:40      60.6      59.9       90     57.2      0.00      0.00      82.5     0.35      1015.5     0.2     SSE   161   1.1     SSE   161   9.58    280      -25.9
   09/07/2018 04:30      60.6      60.1       90     57.5      0.00      0.00      82.5     0.35      1015.5     0.1     SSE   161   0.8     SSE   161   9.58    279      -25.6
   09/07/2018 04:20      60.7      60.0       90     57.3      0.00      0.00      82.5     0.35      1015.5     0.0       N     0   0.0     SSE   161   9.58    281      -26.9
   09/07/2018 04:10      60.8      60.4       90     57.8      0.00      0.00      82.6     0.35      1015.6     0.0     SSE   161   0.6     SSE   161   9.58    279      -27.0
   09/07/2018 04:00      61.0      60.2       90     57.4      0.00      0.00      82.6     0.35      1015.7     0.2     SSE   161   0.9     SSE   163   9.58    279      -28.3
   09/07/2018 03:50      61.1      60.5       90     57.6      0.00      0.00      82.7     0.35      1015.8     0.2       S   177   1.1       S   179   9.58    279      -29.0
   09/07/2018 03:40      61.1      60.4       90     57.5      0.00      0.00      82.7     0.36      1015.8     0.0       N     0   0.0      SW   227   9.58    279      -29.5
   09/07/2018 03:30      61.2      60.8       90     58.0      0.00      0.00      82.8     0.36      1015.9     0.0       S   190   0.6      SW   228   9.58    279      -29.3
   09/07/2018 03:20      61.2      60.7       90     57.9      0.00      0.00      82.7     0.36      1016.0     0.0     SSE   165   0.5     SSE   165   9.59    279      -30.6
   09/07/2018 03:10      61.2      60.8       90     57.9      0.00      0.00      82.8     0.36      1016.0     0.0     SSE   165   0.2     SSE   165   9.59    279      -32.0
   09/07/2018 03:00      61.6      61.1       90     58.1      0.00      0.00      82.8     0.36      1016.1     0.5     SSE   168   1.2       S   174   9.59    278      -32.6
   09/07/2018 02:50      61.6      61.1       90     58.3      0.00      0.00      82.9     0.36      1016.1     0.3       S   182   1.1       S   182   9.59    277      -33.6
   09/07/2018 02:40      61.6      61.1       89     58.2      0.00      0.00      82.9     0.36      1016.2     0.2       S   187   1.5     SSW   197   9.59    275      -34.5
   09/07/2018 02:30      61.9      61.4       89     58.5      0.00      0.00      82.9     0.36      1016.1     0.0       N     0   0.0       E    95   9.59    275      -35.4
   09/07/2018 02:20      61.9      61.2       89     58.2      0.00      0.00      82.9     0.36      1016.1     0.0       N     0   0.0       E    95   9.59    275      -36.9
   09/07/2018 02:10      61.6      61.3       89     58.0      0.00      0.00      83.0     0.36      1016.2     0.0       N     0   0.0       E    95   9.59    274      -39.0
   09/07/2018 02:00      62.2      61.3       88     58.1      0.00      0.00      83.0     0.36      1016.3     0.0       N     0   0.0       E    95   9.59    273      -40.8
   09/07/2018 01:50      62.2      61.7       88     58.4      0.00      0.00      83.0     0.36      1016.3     0.0       N     0   0.0       E    95   9.59    273      -41.5
   09/07/2018 01:40      62.5      61.9       88     58.5      0.00      0.00      83.0     0.36      1016.3     0.0       N     0   0.0       E    95   9.59    272      -43.7
   09/07/2018 01:30      62.7      62.1       87     58.5      0.00      0.00      83.0     0.36      1016.4     0.0       N     0   0.0       E    95   9.60    271      -45.0
   09/07/2018 01:20      62.9      62.4       87     58.7      0.00      0.00      83.1     0.36      1016.5     0.0       N     0   0.0       E    95   9.60    274      -48.0
   09/07/2018 01:10      63.1      62.5       87     58.8      0.00      0.00      83.1     0.36      1016.6     0.0       E    95   0.8       E    94   9.60    272      -48.5
   09/07/2018 01:00      63.4      62.8       87     59.0      0.00      0.00      83.1     0.36      1016.5     0.0       E    95   0.8       E    94   9.60    271      -50.1
   09/07/2018 00:50      63.6      63.1       87     59.2      0.00      0.00      83.1     0.36      1016.5     0.2     ENE    75   1.3     ENE    59   9.60    270      -52.3
   09/07/2018 00:40      63.6      63.2       87     59.3      0.00      0.00      83.1     0.36      1016.6     0.4     ENE    64   1.7       E    94   9.60    269      -53.6
   09/07/2018 00:30      63.6      63.3       87     59.3      0.00      0.00      83.2     0.36      1016.6     0.7      NE    54   1.9     ENE    59   9.60    267      -55.7
   09/07/2018 00:20      63.8      63.3       87     59.3      0.00      0.00      83.2     0.36      1016.7     0.4     ENE    68   1.9     ENE    59   9.60    266      -57.1
   09/07/2018 00:10      63.9      63.3       86     59.3      0.00      0.00      83.2     0.36      1016.7     0.8     ENE    68   1.9     ESE   105   9.60    263      -59.1
   09/07/2018 00:00      64.0      63.4       86     59.4      0.00      0.00      83.3     0.36      1016.7     1.0     ENE    67   3.2     ESE   111   9.60    261      -60.4
   09/06/2018 23:50      64.2      63.7       85     59.4      0.00      0.00      83.3     0.36      1016.7     1.1     ENE    77   4.0     ENE    75   9.60    259      -61.8
   09/06/2018 23:40      64.5      64.0       85     59.5      0.00      0.00      83.3     0.36      1016.7     0.7       E    83   1.7     ESE   103   9.60    257      -60.3
   09/06/2018 23:30      64.5      64.1       85     59.5      0.00      0.00      83.3     0.36      1016.7     0.7     ENE    76   1.6       E    96   9.60    256      -58.6
   09/06/2018 23:20      64.7      64.2       84     59.5      0.00      0.00      83.3     0.36      1016.7     0.8       E    99   1.8     ESE   118   9.61    256      -62.6
   09/06/2018 23:10      65.3      64.4       83     59.5      0.00      0.00      83.3     0.36      1016.7     1.1     ESE   112   2.5       E    90   9.61    256      -64.7
   09/06/2018 23:00      65.6      64.8       82     59.6      0.00      0.00      83.3     0.36      1016.7     1.1       E    80   2.7     ENE    66   9.61    256      -65.6
   09/06/2018 22:50      65.5      65.2       82     59.7      0.00      0.00      83.3     0.36      1016.7     1.4     NNE    33   3.3     ENE    64   9.61    258      -66.4
   09/06/2018 22:40      65.8      65.2       81     59.6      0.00      0.00      83.3     0.36      1016.7     1.0     ENE    71   3.0     ENE    70   9.61    257      -66.7
   09/06/2018 22:30      66.1      65.5       81     59.6      0.00      0.00      83.2     0.36      1016.6     1.3     ENE    60   2.6      NE    36   9.61    261      -67.4
   09/06/2018 22:20      66.2      65.7       80     59.6      0.00      0.00      83.3     0.36      1016.5     1.3     ENE    62   3.0     ENE    57   9.62    262      -68.6
   09/06/2018 22:10      66.5      65.9       79     59.6      0.00      0.00      83.3     0.36      1016.4     1.4     ENE    59   2.8      NE    50   9.62    263      -69.7
   09/06/2018 22:00      66.7      66.3       79     59.7      0.00      0.00      83.3     0.36      1016.4     1.2      NE    55   2.8      NE    52   9.62    264      -70.7
   09/06/2018 21:50      67.0      66.4       78     59.7      0.00      0.00      83.3     0.36      1016.4     1.6     ENE    66   3.0     ENE    65   9.62    266      -71.0
   09/06/2018 21:40      67.5      66.7       77     59.7      0.00      0.00      83.3     0.36      1016.3     1.5     ENE    75   3.1      NE    45   9.62    266      -71.6
   09/06/2018 21:30      68.0      67.3       76     59.8      0.00      0.00      83.2     0.36      1016.3     2.0      NE    56   4.0      NE    42   9.63    268      -72.3
   09/06/2018 21:20      68.8      67.7       75     59.8      0.00      0.00      83.3     0.36      1016.2     1.9     ENE    62   3.7     ENE    66   9.63    268      -73.3
   09/06/2018 21:10      69.3      68.4       73     59.7      0.00      0.00      83.3     0.36      1016.1     1.7      NE    55   3.9     ENE    60   9.63    268      -74.0
   09/06/2018 21:00      70.1      68.9       72     59.8      0.00      0.00      83.3     0.36      1015.9     2.0      NE    55   3.6      NE    47   9.63    268      -75.3
   09/06/2018 20:50      71.2      69.8       69     59.8      0.00      0.00      83.3     0.36      1015.8     1.9      NE    56   3.6      NE    48   9.63    267      -76.5
   09/06/2018 20:40      72.0      71.1       67     59.8      0.00      0.00      83.3     0.36      1015.6     2.0     ENE    65   3.8     NNE    33   9.64    267      -77.5
   09/06/2018 20:30      73.2      71.8       64     59.6      0.00      0.00      83.3     0.36      1015.5     1.2     ESE   106   2.9       E    86   9.64    267      -78.3
   09/06/2018 20:20      74.0      72.8       62     59.5      0.00      0.00      83.2     0.36      1015.3     1.6     ENE    72   3.1      NE    51   9.64    266      -79.0
   09/06/2018 20:10      74.7      73.7       60     59.5      0.00      0.00      83.2     0.36      1015.0     1.8     ENE    58   3.8     ENE    58   9.65    266      -80.5
   09/06/2018 20:00      75.6      74.3       59     59.6      0.00      0.00      83.2     0.36      1014.8     1.9     ENE    61   4.0      NE    50   9.65    266      -81.2
   09/06/2018 19:50      76.5      75.2       58     59.8      0.00      0.00      83.1     0.36      1014.7     0.9       E    83   2.5      NE    52   9.65    266      -82.2
   09/06/2018 19:40      77.3      76.2       56     59.9      0.00      0.00      83.1     0.36      1014.6     1.3     ENE    57   2.5       E    82   9.65    266      -83.6
   09/06/2018 19:30      78.2      77.0       55     60.2      0.00      0.00      83.1     0.36      1014.5     1.7      NE    49   3.0      NE    53   9.66    266      -84.0
   09/06/2018 19:20      79.5      78.0       53     60.2      0.00      0.00      83.1     0.36      1014.4     1.6     ENE    60   3.6      NE    46   9.66    266      -83.6
   09/06/2018 19:10      80.6      79.2       51     60.3      0.00      0.00      83.1     0.36      1014.3     1.3      NE    56   2.9      NE    49   9.66    266      -80.6
   09/06/2018 19:00      81.2      80.3       49     60.2      0.00      0.00      83.0     0.36      1014.2     0.9     ESE   106   2.0     ENE    67   9.67    266      -75.5
   09/06/2018 18:50      82.6      81.1       48     60.1      0.00      0.00      83.0     0.36      1014.1     1.5       E    89   3.1     ESE   105   9.67    265      -71.7
   09/06/2018 18:40      85.6      82.3       46     60.3      0.00      0.00      83.0     0.36      1014.1     1.6     ENE    78   3.3     SSE   159   9.68    265      -49.8
   09/06/2018 18:30      87.4      85.5       38     58.4      0.00      0.00      82.9     0.36      1014.1     1.5       N     4   4.0     ENE    75   9.68    264      -31.9
   09/06/2018 18:20      87.3      86.6       37     57.6      0.00      0.00      82.9     0.36      1014.1     1.9     WNW   299   4.2      NW   309   9.68    264       -8.4
   09/06/2018 18:10      87.2      86.7       37     57.4      0.00      0.00      82.9     0.36      1014.1     2.5      NW   306   4.9     NNW   335   9.69    264       15.5
   09/06/2018 18:00      86.9      86.4       37     57.3      0.00      0.00      82.9     0.36      1014.1     3.1       W   276   6.8     WNW   287   9.69    264       40.2
   09/06/2018 17:50      87.4      86.3       37     57.2      0.00      0.00      82.8     0.36      1014.1     4.4     WNW   296   9.5     WNW   299   9.70    264       60.8
   09/06/2018 17:40      87.9      87.1       37     57.7      0.00      0.00      82.8     0.36      1014.1     3.6     WNW   295   6.6     WNW   282   9.70    264       84.1
   09/06/2018 17:30      87.8      87.5       36     57.4      0.00      0.00      82.7     0.36      1014.1     3.4     WNW   289   6.5     WSW   252   9.71    264      110.4
   09/06/2018 17:20      88.3      87.1       35     56.8      0.00      0.00      82.7     0.36      1014.1     4.1     WNW   289   7.5      SW   234   9.71    264      137.1
   09/06/2018 17:10      88.3      87.6       34     56.5      0.00      0.00      82.6     0.36      1014.2     3.7     WNW   294   8.0      NW   322   9.71    264      162.1
   09/06/2018 17:00      88.0      87.6       35     56.7      0.00      0.00      82.6     0.36      1014.2     3.8     WNW   293   8.2     WNW   301   9.72    264      188.7
   09/06/2018 16:50      88.1      87.6       35     56.8      0.00      0.00      82.6     0.36      1014.2     4.1      NW   315   8.8     WNW   301   9.72    264      212.8
   09/06/2018 16:40      88.8      87.9       35     57.3      0.00      0.00      82.5     0.36      1014.2     4.7     WNW   295   9.0       N   354   9.73    264      237.4
   09/06/2018 16:30      89.2      87.9       35     57.6      0.00      0.00      82.5     0.36      1014.2     5.4       W   270   8.6     WSW   246   9.73    264      260.7
   09/06/2018 16:20      90.5      88.8       35     58.1      0.00      0.00      82.4     0.36      1014.3     5.1       W   271  10.1     WSW   257   9.74    264      285.1
   09/06/2018 16:10      91.2      90.3       34     58.8      0.00      0.00      82.4     0.36      1014.3     4.2       W   267   7.5      NW   314   9.74    264      306.8
   09/06/2018 16:00      91.1      89.9       35     59.4      0.00      0.00      82.3     0.36      1014.3     2.6     WNW   291   6.2     WSW   244   9.75    264      326.3
   09/06/2018 15:50      91.1      90.0       37     60.5      0.00      0.00      82.3     0.36      1014.4     2.3     WNW   294   6.7     WSW   256   9.75    264      344.7
   09/06/2018 15:40      90.6      89.5       38     61.1      0.00      0.00      82.2     0.36      1014.5     2.4      NE    43   5.7     NNE    29   9.75    264      363.0
   09/06/2018 15:30      90.3      89.7       38     61.1      0.00      0.00      82.2     0.35      1014.6     2.2     NNE    32   4.5      NE    46   9.76    265      379.0
   09/06/2018 15:20      90.9      89.7       38     61.1      0.00      0.00      82.1     0.36      1014.6     2.3      NE    38   5.1     ESE   115   9.76    265      398.6
   09/06/2018 15:10      90.5      89.2       38     61.1      0.00      0.00      82.1     0.35      1014.8     1.9     NNE    28   5.6     NNW   335   9.76    264      414.7
   09/06/2018 15:00      89.6      88.4       39     61.0      0.00      0.00      82.0     0.36      1014.9     3.1     NNE    20   6.9     NNE    19   9.76    264      431.3
   09/06/2018 14:50      89.1      88.4       40     61.1      0.00      0.00      82.0     0.35      1015.0     2.7     NNE    24   5.5      NE    36   9.77    264      447.0
   09/06/2018 14:40      89.2      88.5       40     61.2      0.00      0.00      82.0     0.35      1015.2     2.6     NNE    29   6.4       N     9   9.77    264      462.1
   09/06/2018 14:30      88.4      87.5       41     61.0      0.00      0.00      81.9     0.35      1015.3     1.9      NE    50   5.1     ENE    77   9.77    264      476.5
   09/06/2018 14:20      88.1      86.8       41     61.0      0.00      0.00      81.9     0.35      1015.4     2.8      NE    52   5.0     NNW   327   9.77    264      488.4
   09/06/2018 14:10      87.7      86.2       42     61.0      0.00      0.00      81.8     0.35      1015.5     2.3      NE    50   4.7     ENE    68   9.77    264      497.6
   09/06/2018 14:00      86.8      85.5       43     60.9      0.00      0.00      81.8     0.35      1015.6     2.7     ENE    61   5.5       E   100   9.78    264      510.8
   09/06/2018 13:50      86.3      85.2       43     60.9      0.00      0.00      81.8     0.35      1015.7     3.1       E    84   5.7     ENE    79   9.78    265      518.8
   09/06/2018 13:40      85.9      85.1       43     60.8      0.00      0.00      81.8     0.35      1015.8     3.2     ENE    66   5.8      NE    42   9.78    264      523.2
   09/06/2018 13:30      86.1      85.2       43     60.9      0.00      0.00      81.7     0.35      1015.8     3.2     ENE    74   6.7       E    87   9.78    264      529.0
   09/06/2018 13:20      86.5      85.1       43     60.9      0.00      0.00      81.7     0.35      1016.0     3.0     ENE    62   6.2     ENE    63   9.79    265      533.0
   09/06/2018 13:10      85.9      84.9       43     60.7      0.00      0.00      81.7     0.35      1016.1     2.3      NE    52   5.2      NE    43   9.79    265      535.7
   09/06/2018 13:00      85.7      84.1       44     60.6      0.00      0.00      81.7     0.35      1016.2     2.4      NE    49   4.5     ENE    73   9.79    265      537.1
   09/06/2018 12:50      84.3      82.6       46     60.5      0.00      0.00      81.7     0.35      1016.3     3.1      NE    36   5.8     ENE    67   9.79    265      540.5
   09/06/2018 12:40      84.1      82.9       46     60.6      0.00      0.00      81.7     0.35      1016.4     3.2     ENE    66   5.1     ENE    74   9.79    265      541.4
   09/06/2018 12:30      84.0      82.9       46     60.7      0.00      0.00      81.6     0.35      1016.4     3.0     ENE    71   6.3      NE    53   9.79    265      539.9
   09/06/2018 12:20      83.6      82.5       47     60.8      0.00      0.00      81.7     0.35      1016.4     3.5     ENE    59   7.8       E    83   9.80    265      538.1
   09/06/2018 12:10      84.3      83.1       45     60.1      0.00      0.00      81.7     0.35      1016.5     2.7      NE    50   6.4     NNE    29   9.80    266      531.0
   09/06/2018 12:00      84.1      83.2       44     59.4      0.00      0.00      81.7     0.35      1016.6     2.3     NNE    31   5.0      NE    51   9.80    265      525.5
   09/06/2018 11:50      84.3      82.9       44     59.4      0.00      0.00      81.7     0.35      1016.7     2.1     NNE    18   4.8     NNE    32   9.80    265      522.0
   09/06/2018 11:40      83.5      82.6       45     59.4      0.00      0.00      81.6     0.35      1016.9     2.3     NNE    27   4.8     NNE    26   9.80    265      513.7
   09/06/2018 11:30      83.3      81.6       46     59.2      0.00      0.00      81.7     0.35      1017.0     1.8      NE    42   3.8     NNE    27   9.80    266      507.3
   09/06/2018 11:20      82.6      81.4       46     59.3      0.00      0.00      81.8     0.35      1017.0     1.9      NE    47   5.4      NE    42   9.80    266      499.9
   09/06/2018 11:10      81.7      80.3       48     59.6      0.00      0.00      81.8     0.35      1017.1     1.6     NNE    18   4.2     NNW   329   9.80    266      479.6
   09/06/2018 11:00      81.6      79.7       49     60.0      0.00      0.00      81.8     0.35      1017.1     1.6       N   352   4.6       N     5   9.81    266      479.7
   09/06/2018 10:50      79.8      78.8       52     60.0      0.00      0.00      81.8     0.36      1017.2     1.8     ESE   106   3.8       E    96   9.81    266      468.9
   09/06/2018 10:40      79.5      78.7       52     60.0      0.00      0.00      81.9     0.36      1017.4     1.8       N     6   4.3      NE    34   9.81    266      453.2
   09/06/2018 10:30      79.0      77.3       54     60.0      0.00      0.00      82.0     0.36      1017.5     1.2       N     4   3.7       N   354   9.81    266      439.6
   09/06/2018 10:20      77.6      76.5       54     59.5      0.00      0.00      82.0     0.36      1017.6     1.6     NNE    20   4.5     ENE    59   9.81    266      422.0
   09/06/2018 10:10      76.8      75.5       56     59.6      0.00      0.00      82.0     0.36      1017.6     1.6       E    87   3.5       E    82   9.81    266      407.9
   09/06/2018 10:00      75.6      74.8       59     59.8      0.00      0.00      82.0     0.36      1017.6     1.9     NNE    30   4.9       E    82   9.81    266      390.2
   09/06/2018 09:50      75.4      74.6       59     59.5      0.00      0.00      82.0     0.36      1017.7     1.7       N     6   4.0      NE    43   9.81    266      362.7
   09/06/2018 09:40      74.9      74.2       60     59.9      0.00      0.00      82.1     0.36      1017.7     1.6     NNE    29   3.0     NNE    12   9.81    266      353.8
   09/06/2018 09:30      74.5      73.2       62     60.1      0.00      0.00      82.2     0.36      1017.8     1.3      NE    50   4.8      NE    51   9.81    267      330.4
   09/06/2018 09:20      73.3      72.3       65     60.1      0.00      0.00      82.2     0.36      1017.7     1.1       E    99   3.0     ESE   108   9.82    267      309.3
   09/06/2018 09:10      73.0      71.7       66     60.3      0.00      0.00      82.2     0.36      1017.6     1.0       N     3   3.4     NNW   336   9.81    267      283.2
   09/06/2018 09:00      72.4      71.4       67     60.2      0.00      0.00      82.2     0.36      1017.7     1.3       N     6   3.5     NNE    17   9.82    267      260.5
   09/06/2018 08:50      72.4      70.6       69     60.3      0.00      0.00      82.2     0.36      1017.8     0.7      NE    51   3.1     NNE    27   9.82    267      236.1
   09/06/2018 08:40      70.8      70.0       70     60.1      0.00      0.00      82.3     0.36      1017.7     1.0     NNW   336   2.7       N   354   9.82    268      208.6
   09/06/2018 08:30      70.1      69.3       71     60.0      0.00      0.00      82.4     0.36      1017.8     0.6      SE   133   1.5     ESE   123   9.81    268      181.3
   09/06/2018 08:20      69.9      69.2       72     59.9      0.00      0.00      82.4     0.36      1017.8     1.1     ESE   106   2.1     ESE   118   9.81    269      147.4
   09/06/2018 08:10      69.9      68.2       74     60.2      0.00      0.00      82.4     0.36      1017.8     0.5       E    95   1.5      SE   134   9.82    268      116.8
   09/06/2018 08:00      68.4      66.5       78     60.5      0.00      0.00      82.5     0.36      1017.9     0.1      SE   145   1.3      SE   137   9.82    278       90.8
   09/06/2018 07:50      66.6      65.4       81     60.1      0.00      0.00      82.5     0.36      1017.9     1.1      SW   234   3.1      SW   225   9.82    291       72.5
   09/06/2018 07:40      65.6      64.3       85     60.3      0.00      0.00      82.6     0.35      1017.8     0.5     SSW   206   1.7       S   183   9.81    266       61.3
   09/06/2018 07:30      64.4      63.3       87     59.9      0.00      0.00      82.6     0.35      1017.7     0.3     SSE   148   1.2     SSE   149   9.63    260       35.1
   09/06/2018 07:20      63.5      62.5       89     59.6      0.00      0.00      82.6     0.35      1017.6     0.5       S   175   1.6       S   176   9.63    263        1.5
   09/06/2018 07:10      62.8      61.7       90     59.2      0.00      0.00      82.6     0.35      1017.5     0.5       S   175   1.2     SSW   202   9.63    275       -6.0
   09/06/2018 07:00      62.2      61.7       90     58.8      0.00      0.00      82.6     0.35      1017.4     0.0       S   173   0.4       S   173   9.63    278      -12.9
   09/06/2018 06:50      61.9      61.4       90     58.6      0.00      0.00      82.7     0.35      1017.3     0.0       N     0   0.0       S   173   9.63    278      -22.6
   09/06/2018 06:40      61.6      61.2       89     58.1      0.00      0.00      82.7     0.36      1017.1     0.0       S   173   0.7       S   173   9.63    276      -29.6
   09/06/2018 06:30      61.9      61.2       89     58.3      0.00      0.00      82.7     0.35      1017.0     0.2       S   173   1.1       S   173   9.63    275      -34.0
   09/06/2018 06:20      62.0      61.3       89     58.2      0.00      0.00      82.8     0.36      1016.9     0.2       S   173   0.7       S   173   9.63    274      -36.2
   09/06/2018 06:10      62.0      61.4       89     58.5      0.00      0.00      82.8     0.36      1016.9     0.0       N     0   0.0       S   173   9.63    273      -37.4
   09/06/2018 06:00      61.7      61.3       89     58.0      0.00      0.00      82.8     0.36      1016.9     0.0       S   173   0.0       S   173   9.63    271      -40.8
   09/06/2018 05:50      61.8      61.3       88     58.0      0.00      0.00      82.8     0.36      1016.8     0.0       S   173   0.5       S   173   9.63    269      -42.6
   09/06/2018 05:40      62.5      61.4       88     58.3      0.00      0.00      82.8     0.36      1016.8     0.0       S   173   0.6       S   173   9.63    269      -42.7
   09/06/2018 05:30      62.3      61.9       89     58.8      0.00      0.00      82.9     0.36      1016.8     0.3     SSE   168   1.4       S   173   9.64    269      -43.2
   09/06/2018 05:20      62.4      62.0       88     58.7      0.00      0.00      82.9     0.36      1016.6     0.6       S   175   1.6       S   178   9.64    269      -44.9
   09/06/2018 05:10      62.6      62.0       87     58.5      0.00      0.00      82.9     0.36      1016.6     0.2       S   183   0.7       S   183   9.64    268      -47.7
   09/06/2018 05:00      62.9      62.3       87     58.8      0.00      0.00      82.9     0.36      1016.5     0.3       S   183   1.1       S   183   9.64    266      -48.9
   09/06/2018 04:50      63.0      62.4       87     58.7      0.00      0.00      83.0     0.36      1016.4     0.4       S   183   1.0       S   183   9.64    262      -50.8
   09/06/2018 04:40      63.5      62.8       87     59.0      0.00      0.00      83.0     0.36      1016.4     0.3       S   189   1.5       S   190   9.64    262      -51.9
   09/06/2018 04:30      63.5      63.1       87     59.1      0.00      0.00      83.0     0.36      1016.4     1.0     SSW   192   1.7     SSW   193   9.64    260      -51.4
   09/06/2018 04:20      63.4      63.0       86     59.0      0.00      0.00      83.0     0.36      1016.3     0.7       S   182   2.2       S   179   9.64    258      -52.2
   09/06/2018 04:10      63.5      62.9       86     58.9      0.00      0.00      83.0     0.36      1016.3     0.0       N     0   0.0     ENE    77   9.64    257      -44.4
   09/06/2018 04:00      63.7      63.2       85     58.9      0.00      0.00      83.1     0.36      1016.3     0.0       N     0   0.0     ENE    77   9.64    259      -51.9
   09/06/2018 03:50      64.0      63.4       85     59.0      0.00      0.00      83.1     0.36      1016.4     0.0     ENE    77   0.9     ENE    77   9.64    260      -56.4
   09/06/2018 03:40      64.3      63.7       85     59.2      0.00      0.00      83.1     0.36      1016.4     0.0       N     0   0.0     ENE    77   9.64    260      -56.6
   09/06/2018 03:30      64.7      64.2       85     59.6      0.00      0.00      83.1     0.36      1016.5     0.0     ENE    77   0.7     ENE    77   9.64    258      -54.9
   09/06/2018 03:20      64.7      64.3       85     59.7      0.00      0.00      83.1     0.36      1016.6     0.4       E    79   1.2       E    82   9.64    258      -53.0
   09/06/2018 03:10      65.1      64.5       84     59.9      0.00      0.00      83.2     0.36      1016.7     0.5       E    86   1.5     ENE    76   9.64    261      -43.0
   09/06/2018 03:00      65.2      64.7       85     60.1      0.00      0.00      83.2     0.36      1016.7     0.2      SE   142   1.4       S   190   9.64    262      -45.1
   09/06/2018 02:50      65.1      64.7       85     60.3      0.00      0.00      83.2     0.36      1016.8     0.4       E    96   1.4     ENE    72   9.64    266      -30.6
   09/06/2018 02:40      65.0      64.6       86     60.4      0.00      0.00      83.2     0.36      1016.8     0.6       S   187   1.9      SW   232   9.64    266      -26.9
   09/06/2018 02:30      65.0      64.5       86     60.4      0.00      0.00      83.2     0.36      1016.8     1.0     SSE   163   1.9       S   173   9.64    266      -19.5
   09/06/2018 02:20      65.2      64.5       86     60.4      0.00      0.00      83.3     0.36      1016.8     1.4     SSE   165   2.5      SE   141   9.65    266      -17.4
   09/06/2018 02:10      65.0      64.5       86     60.5      0.00      0.00      83.2     0.36      1016.8     0.4     ESE   102   1.9     ENE    71   9.65    267      -16.1
   09/06/2018 02:00      65.1      64.5       86     60.4      0.00      0.00      83.3     0.36      1016.9     1.0     ESE   109   3.7       E    91   9.65    266      -17.1
   09/06/2018 01:50      65.1      64.5       86     60.5      0.00      0.00      83.3     0.36      1016.9     0.5     SSE   164   1.7     SSW   192   9.65    267      -15.2
   09/06/2018 01:40      65.0      64.4       86     60.4      0.00      0.00      83.4     0.36      1017.0     1.1     SSE   157   2.9      SE   145   9.65    266      -14.7
   09/06/2018 01:30      65.2      64.8       85     60.4      0.00      0.00      83.4     0.36      1017.0     1.5      SE   125   3.2     SSE   154   9.65    266      -14.5
   09/06/2018 01:20      65.2      64.7       85     60.5      0.00      0.00      83.4     0.36      1017.0     1.5     ESE   121   3.2     ESE   124   9.65    268      -14.8
   09/06/2018 01:10      65.2      64.8       85     60.5      0.00      0.00      83.4     0.36      1017.1     1.6      SE   130   3.7      SE   135   9.65    268      -14.8
   09/06/2018 01:00      65.3      64.9       85     60.6      0.00      0.00      83.4     0.36      1017.1     1.3      SE   127   3.5      SE   137   9.65    268      -14.9
   09/06/2018 00:50      65.2      64.8       86     60.6      0.00      0.00      83.4     0.36      1017.2     0.4      SE   134   1.3       S   173   9.65    268      -15.0
   09/06/2018 00:40      65.6      65.0       85     60.6      0.00      0.00      83.5     0.36      1017.2     1.3       E    97   2.8      SE   130   9.65    267      -15.3
   09/06/2018 00:30      65.8      65.3       84     60.7      0.00      0.00      83.5     0.36      1017.3     1.6      NE    49   3.3     ENE    58   9.65    268      -15.3
   09/06/2018 00:20      65.8      65.5       85     60.9      0.00      0.00      83.5     0.36      1017.3     1.2      NE    36   2.4      NE    46   9.65    268      -15.3
   09/06/2018 00:10      65.8      65.3       85     60.9      0.00      0.00      83.5     0.36      1017.2     1.2       N     6   3.8     NNW   348   9.66    268      -14.9
   09/06/2018 00:00      65.8      65.4       85     60.9      0.00      0.00      83.5     0.36      1017.1     0.5     ESE   102   2.1      SE   145   9.66    267      -14.8
   09/05/2018 23:50      66.0      65.5       85     61.0      0.00      0.00      83.5     0.36      1017.1     1.2     NNE    23   2.7     NNE    27   9.66    267      -15.3
   09/05/2018 23:40      65.9      65.6       85     61.0      0.00      0.00      83.5     0.36      1017.0     1.4      NE    40   3.0     NNE    12   9.66    268      -14.9
   09/05/2018 23:30      65.8      65.3       85     60.9      0.00      0.00      83.6     0.36      1017.0     0.4     ENE    69   2.3     ENE    60   9.66    268      -14.8
   09/05/2018 23:20      65.7      65.4       85     60.9      0.00      0.00      83.6     0.36      1017.0     0.9       E    88   3.4      NE    54   9.66    267      -14.9
   09/05/2018 23:10      66.1      65.3       84     60.8      0.00      0.00      83.6     0.36      1017.0     1.5       E    98   3.7       E   101   9.66    268      -14.8
   09/05/2018 23:00      65.9      65.6       84     60.8      0.00      0.00      83.6     0.36      1017.0     1.1      NE    36   2.4     NNE    25   9.66    268      -15.4
   09/05/2018 22:50      65.9      65.6       84     60.9      0.00      0.00      83.6     0.36      1017.0     1.7      NE    38   3.2      NE    49   9.66    268      -15.4
   09/05/2018 22:40      65.9      65.3       84     60.8      0.00      0.00      83.6     0.36      1017.0     1.5     ENE    60   3.3     SSE   161   9.66    268      -15.1
   09/05/2018 22:30      65.9      65.4       84     60.8      0.00      0.00      83.6     0.36      1017.1     1.4     ENE    78   3.0     ENE    76   9.66    267      -19.2
   09/05/2018 22:20      65.8      65.5       84     60.7      0.00      0.00      83.6     0.36      1017.1     1.0       E    80   2.1     ESE   115   9.67    266      -25.5
   09/05/2018 22:10      66.1      65.5       84     60.6      0.00      0.00      83.7     0.36      1017.1     1.3     ENE    63   2.8     ENE    61   9.67    263      -41.5
   09/05/2018 22:00      66.1      65.7       83     60.6      0.00      0.00      83.6     0.36      1017.1     1.1     NNE    30   2.5       N     3   9.67    260      -58.6
   09/05/2018 21:50      66.0      65.7       83     60.6      0.00      0.00      83.6     0.36      1017.0     0.4      NE    48   1.7      NE    52   9.67    258      -62.6
   09/05/2018 21:40      66.2      65.7       83     60.5      0.00      0.00      83.6     0.36      1017.0     0.9      NE    56   1.9     ENE    57   9.67    260      -63.2
   09/05/2018 21:30      66.6      65.8       82     60.5      0.00      0.00      83.6     0.36      1016.8     0.9     ENE    70   3.0     ESE   105   9.67    261      -64.3
   09/05/2018 21:20      66.7      66.1       81     60.5      0.00      0.00      83.6     0.36      1016.7     0.9     ENE    66   2.9      NE    54   9.68    264      -65.5
   09/05/2018 21:10      66.9      66.4       81     60.5      0.00      0.00      83.6     0.36      1016.6     1.5      NE    47   2.8       N   352   9.68    267      -66.0
   09/05/2018 21:00      67.2      66.7       80     60.5      0.00      0.00      83.6     0.36      1016.5     1.3     ENE    79   3.0       E    84   9.68    268      -66.0
   09/05/2018 20:50      67.7      67.0       79     60.5      0.00      0.00      83.6     0.36      1016.2     1.4     ENE    60   3.5      NE    51   9.68    268      -67.2
   09/05/2018 20:40      67.7      67.2       79     60.5      0.00      0.00      83.5     0.36      1016.2     1.9      NE    55   3.8     ENE    62   9.68    268      -67.1
   09/05/2018 20:30      68.0      67.3       78     60.5      0.00      0.00      83.5     0.36      1015.9     1.5       E    79   2.9      NE    53   9.69    268      -67.9
   09/05/2018 20:20      68.6      67.7       76     60.4      0.00      0.00      83.5     0.36      1015.8     1.5     ENE    68   4.2      NE    53   9.69    268      -68.9
   09/05/2018 20:10      69.3      68.2       75     60.4      0.00      0.00      83.5     0.36      1015.6     2.0     ENE    59   3.6     ESE   106   9.69    268      -69.6
   09/05/2018 20:00      70.0      68.9       73     60.4      0.00      0.00      83.5     0.36      1015.5     1.6      NE    48   3.4      NE    52   9.69    268      -70.9
   09/05/2018 19:50      71.3      69.7       70     60.4      0.00      0.00      83.5     0.36      1015.3     2.2      NE    51   3.9      NE    43   9.70    267      -72.0
   09/05/2018 19:40      72.5      71.1       68     60.5      0.00      0.00      83.4     0.36      1015.1     2.3      NE    47   4.7      NE    34   9.70    267      -73.0
   09/05/2018 19:30      73.6      72.3       66     60.6      0.00      0.00      83.4     0.36      1014.9     2.3      NE    44   3.9     ENE    58   9.70    267      -73.4
   09/05/2018 19:20      74.6      73.2       63     60.6      0.00      0.00      83.4     0.36      1014.6     1.8      NE    49   2.8     NNE    33   9.70    266      -73.0
   09/05/2018 19:10      75.2      74.2       62     60.8      0.00      0.00      83.3     0.36      1014.6     1.1     ENE    67   3.2      NE    56   9.71    266      -69.7
   09/05/2018 19:00      76.0      75.0       61     60.9      0.00      0.00      83.3     0.36      1014.6     1.3     ENE    70   3.0     ESE   110   9.71    266      -64.6
   09/05/2018 18:50      77.0      75.8       59     61.0      0.00      0.00      83.3     0.36      1014.4     1.3       E    94   3.7      SE   138   9.71    266      -54.1
   09/05/2018 18:40      77.6      76.8       58     61.2      0.00      0.00      83.2     0.36      1014.3     1.4      NE    35   3.7      NE    44   9.72    266      -40.2
   09/05/2018 18:30      78.1      77.0       57     61.2      0.00      0.00      83.2     0.36      1014.2     1.9      NE    47   3.9      NE    34   9.72    266      -21.6
   09/05/2018 18:20      79.9      77.9       54     61.2      0.00      0.00      83.1     0.36      1014.2     2.2     NNE    28   4.4      NE    44   9.72    266       -0.8
   09/05/2018 18:10      80.5      79.7       51     60.6      0.00      0.00      83.2     0.36      1014.1     2.7       W   262   5.6     NNW   331   9.73    266       24.1
   09/05/2018 18:00      80.5      80.1       51     60.6      0.00      0.00      83.1     0.36      1014.1     3.5     WSW   239   6.9       W   276   9.73    266       48.5
   09/05/2018 17:50      80.5      80.0       51     60.5      0.00      0.00      83.1     0.36      1014.1     3.8     WSW   240   7.8      SW   235   9.73    265       73.0
   09/05/2018 17:40      81.7      80.1       50     60.6      0.00      0.00      83.0     0.36      1014.1     5.0     WSW   245   7.8      SW   222   9.74    266       97.8
   09/05/2018 17:30      81.8      81.2       49     60.7      0.00      0.00      83.0     0.36      1014.0     3.7       W   277   8.5     WSW   240   9.74    265      122.0
   09/05/2018 17:20      82.1      81.1       50     60.7      0.00      0.00      82.9     0.36      1014.1     4.8       W   267   9.5     WSW   248   9.75    265      148.1
   09/05/2018 17:10      82.3      81.6       49     60.7      0.00      0.00      82.9     0.36      1014.1     5.2     WSW   254   9.9       W   263   9.75    265      174.3
   09/05/2018 17:00      82.7      81.9       48     60.7      0.00      0.00      82.9     0.36      1014.1     5.6     WSW   250   8.7     WSW   255   9.76    265      200.4
   09/05/2018 16:50      83.9      82.2       48     60.9      0.00      0.00      82.8     0.36      1014.0     6.2     WSW   251   9.7      SW   229   9.76    265      225.9
   09/05/2018 16:40      84.3      82.9       47     61.0      0.00      0.00      82.8     0.36      1014.0     4.7       W   270   9.6     WSW   255   9.77    264      248.9
   09/05/2018 16:30      84.6      83.8       46     61.1      0.00      0.00      82.7     0.36      1014.0     4.2       W   270   9.1       W   269   9.77    265      271.6
   09/05/2018 16:20      85.7      84.1       45     61.3      0.00      0.00      82.7     0.36      1013.9     4.9     WNW   294  10.3     WSW   256   9.78    265      293.1
   09/05/2018 16:10      87.1      85.3       43     61.4      0.00      0.00      82.6     0.35      1013.9     4.1       W   275   9.2     WSW   247   9.79    264      311.9
   09/05/2018 16:00      87.0      85.6       44     61.7      0.00      0.00      82.6     0.35      1013.8     3.5       W   279   7.3       W   259   9.79    265      335.4
   09/05/2018 15:50      88.4      85.7       43     61.9      0.00      0.00      82.5     0.35      1013.8     4.8     WSW   248   9.0      SW   225   9.80    265      357.4
   09/05/2018 15:40      89.1      87.3       42     62.3      0.00      0.00      82.4     0.35      1013.8     2.3     NNE    22   7.9     WSW   257   9.80    264      370.0
   09/05/2018 15:30      89.2      87.9       42     62.3      0.00      0.00      82.4     0.35      1013.8     2.3     NNE    17   4.6      NE    40   9.80    265      385.5
   09/05/2018 15:20      88.1      87.4       43     62.3      0.00      0.00      82.4     0.35      1013.8     2.7      NE    50   6.1      NE    53   9.81    265      402.2
   09/05/2018 15:10      89.1      87.7       42     62.3      0.00      0.00      82.4     0.35      1013.8     3.1     ENE    64   7.0     ENE    60   9.81    265      416.2
   09/05/2018 15:00      89.2      88.7       41     61.9      0.00      0.00      82.3     0.35      1013.8     2.6      NE    38   5.1       N     2   9.81    265      429.4
   09/05/2018 14:50      89.1      87.3       40     61.0      0.00      0.00      82.3     0.35      1013.8     1.8      NE    34   6.3       N   355   9.82    264      450.1
   09/05/2018 14:40      88.2      87.3       41     61.1      0.00      0.00      82.3     0.35      1014.0     1.7       E    86   3.9     ESE   122   9.82    264      465.1
   09/05/2018 14:30      87.5      86.7       42     61.3      0.00      0.00      82.2     0.35      1014.1     2.8       N   349   5.5     NNW   336   9.82    264      472.0
   09/05/2018 14:20      87.6      86.7       42     61.5      0.00      0.00      82.1     0.35      1014.2     2.2       N   353   4.4     NNE    18   9.82    265      484.4
   09/05/2018 14:10      87.3      85.6       43     61.7      0.00      0.00      82.2     0.35      1014.4     1.9     NNE    23   5.2     NNW   337   9.82    265      497.2
   09/05/2018 14:00      86.4      84.6       44     61.4      0.00      0.00      82.2     0.35      1014.5     1.8     NNW   343   3.9      NW   326   9.83    264      508.7
   09/05/2018 13:50      84.6      83.5       46     61.2      0.00      0.00      82.1     0.35      1014.6     2.3     WSW   255   5.1      SW   228   9.83    265      520.4
   09/05/2018 13:40      84.3      82.8       47     61.3      0.00      0.00      82.1     0.35      1014.7     1.6     NNW   338   4.1       N     0   9.83    264      523.0
   09/05/2018 13:30      83.7      81.9       48     61.3      0.00      0.00      82.1     0.35      1014.9     2.3     ENE    77   5.0     SSE   155   9.83    266      528.2
   09/05/2018 13:20      84.2      83.4       47     61.5      0.00      0.00      82.1     0.35      1015.0     2.4       N     4   5.5     NNE    20   9.84    266      528.8
   09/05/2018 13:10      83.6      81.2       50     61.4      0.00      0.00      82.1     0.35      1015.1     2.1       N   351   4.5     NNW   341   9.84    266      535.4
   09/05/2018 13:00      82.1      81.3       50     61.4      0.00      0.00      82.0     0.35      1015.2     2.8       N     7   5.6       N     8   9.84    266      536.6
   09/05/2018 12:50      82.1      80.3       52     61.3      0.00      0.00      82.1     0.35      1015.4     2.0      NE    56   5.0      SE   141   9.84    266      539.7
   09/05/2018 12:40      80.3      78.8       54     61.2      0.00      0.00      82.1     0.35      1015.5     1.4     ESE   119   4.2     ESE   104   9.84    266      543.1
   09/05/2018 12:30      79.9      77.7       55     61.2      0.00      0.00      82.0     0.35      1015.6     2.1       E    98   4.4     SSE   150   9.85    266      542.5
   09/05/2018 12:20      78.8      78.0       55     61.1      0.00      0.00      82.1     0.35      1015.6     1.9     ENE    67   3.7      SE   139   9.85    266      536.1
   09/05/2018 12:10      78.6      76.8       57     61.1      0.00      0.00      82.1     0.35      1015.8     2.0     NNW   329   4.4       W   267   9.85    266      535.6
   09/05/2018 12:00      77.8      76.3       58     61.1      0.00      0.00      82.1     0.35      1016.0     2.0     NNE    18   5.3      NE    40   9.85    266      529.7
   09/05/2018 11:50      76.8      75.3       59     61.0      0.00      0.00      82.1     0.35      1016.1     2.4     NNE    21   4.4     NNE    11   9.86    266      522.6
   09/05/2018 11:40      76.0      74.4       62     61.0      0.00      0.00      82.1     0.35      1016.2     2.4      NE    40   5.2     NNE    27   9.86    266      519.4
   09/05/2018 11:30      75.5      74.3       62     61.0      0.00      0.00      82.1     0.35      1016.2     2.3       E    89   5.8       N    11   9.86    266      505.5
   09/05/2018 11:20      74.8      73.5       64     60.9      0.00      0.00      82.2     0.35      1016.3     2.1      SE   134   4.5     ENE    62   9.86    266      489.5
   09/05/2018 11:10      74.5      73.8       64     61.0      0.00      0.00      82.2     0.36      1016.4     2.5     SSE   159   7.4     ESE   105   9.87    266      594.8
   09/05/2018 11:00      73.9      72.3       66     60.9      0.00      0.00      82.2     0.36      1016.3     1.1     ENE    76   4.0     ENE    72   9.87    266      455.5
   09/05/2018 10:50      72.5      71.4       68     60.7      0.00      0.00      82.2     0.36      1016.4     2.1     ENE    76   4.8       E    95   9.87    267      335.5
   09/05/2018 10:40      72.0      71.3       68     60.6      0.00      0.00      82.2     0.36      1016.4     2.5      NE    52   4.8      NE    51   9.88    267      278.8
   09/05/2018 10:30      71.6      70.7       70     60.6      0.00      0.00      82.2     0.36      1016.4     1.8       E    83   3.7      SE   132   9.88    267      228.0
   09/05/2018 10:20      71.3      70.2       70     60.6      0.00      0.00      82.3     0.36      1016.4     0.9      NW   313   4.0     ENE    72   9.89    268      195.6
   09/05/2018 10:10      70.6      69.7       71     60.4      0.00      0.00      82.3     0.36      1016.4     1.0       N   358   4.4      NE    43   9.90    268      148.6
   09/05/2018 10:00      70.7      69.9       71     60.5      0.00      0.00      82.3     0.36      1016.3     1.8       N     3   4.9      NE    37   9.90    268      144.8
   09/05/2018 09:50      70.0      69.4       72     60.4      0.00      0.00      82.3     0.36      1016.2     1.8      NW   312   3.4     ENE    69   9.91    268      148.4
   09/05/2018 09:40      69.5      68.8       73     60.3      0.00      0.00      82.4     0.36      1016.2     1.4     WSW   249   3.3       W   265   9.91    268      144.6
   09/05/2018 09:30      69.0      68.3       75     60.3      0.00      0.00      82.4     0.36      1016.2     1.3     NNW   330   4.0       W   272   9.92    268      116.7
   09/05/2018 09:20      69.4      68.2       74     60.0      0.00      0.00      82.4     0.36      1016.2     1.7     SSW   203   3.2       S   175   9.92    268       98.7
   09/05/2018 09:10      69.4      69.0       73     60.3      0.00      0.00      82.4     0.36      1016.1     1.4       N     2   3.1      SW   224   9.93    268      117.0
   09/05/2018 09:00      69.3      68.4       74     60.3      0.00      0.00      82.4     0.36      1016.1     0.9      NE    54   2.4     ESE   118   9.94    268      130.4
   09/05/2018 08:50      68.7      67.6       76     60.3      0.00      0.00      82.5     0.36      1016.0     0.9      SE   142   2.4      NW   324   9.95    268      118.0
   09/05/2018 08:40      67.9      67.0       78     60.2      0.00      0.00      82.5     0.36      1015.9     1.1     SSW   206   4.1     SSE   166   9.96    268       82.2
   09/05/2018 08:30      67.3      66.7       78     60.0      0.00      0.00      82.5     0.36      1015.9     1.3      SW   214   3.1      SW   218  10.01    269       61.8
   09/05/2018 08:20      67.2      66.7       78     60.0      0.00      0.00      82.6     0.36      1015.7     1.9      SW   233   3.7     SSW   211   9.38    269       50.4
   09/05/2018 08:10      67.0      66.4       79     60.0      0.00      0.00      82.5     0.36      1015.6     0.7     WSW   237   2.4     WSW   238   9.38    269       43.0
   09/05/2018 08:00      66.7      66.1       80     60.0      0.00      0.00      82.6     0.36      1015.4     0.6       N   360   1.9      NE    46   9.38    269       38.1
   09/05/2018 07:50      66.4      65.9       80     59.9      0.00      0.00      82.7     0.36      1015.3     1.5      SW   224   2.5      SW   221   9.38    269       30.9
   09/05/2018 07:40      66.4      65.9       80     59.9      0.00      0.00      82.6     0.36      1015.2     1.6     SSE   154   3.4      SE   134   9.38    269       20.6
   09/05/2018 07:30      66.4      65.9       80     59.9      0.00      0.00      82.7     0.36      1015.1     0.4     ESE   113   2.1       E    93   9.38    269       15.6
   09/05/2018 07:20      66.1      65.8       81     59.8      0.00      0.00      82.7     0.36      1015.1     1.0      NE    44   2.3      NE    45   9.38    269        7.9
   09/05/2018 07:10      66.1      65.6       81     59.9      0.00      0.00      82.7     0.36      1014.9     1.0     ENE    65   2.3       N     4   9.38    269        2.3
   09/05/2018 07:00      65.8      65.2       82     59.9      0.00      0.00      82.7     0.36      1014.8     0.2     NNE    21   1.8     ENE    57   9.38    269       -3.3
   09/05/2018 06:50      65.5      65.1       82     59.8      0.00      0.00      82.8     0.36      1014.7     0.3      SE   143   2.2      SE   138   9.38    269       -7.9
   09/05/2018 06:40      65.3      65.0       83     59.7      0.00      0.00      82.8     0.36      1014.6     0.3      SE   137   1.5       E    99   9.38    269      -10.8
   09/05/2018 06:30      65.2      64.8       83     59.7      0.00      0.00      82.8     0.36      1014.6     0.3       E    96   1.1       E    80   9.38    269      -12.2
   09/05/2018 06:20      65.1      64.5       84     59.7      0.00      0.00      82.8     0.36      1014.5     0.3       S   179   1.4     ENE    75   9.38    268      -12.7
   09/05/2018 06:10      65.0      64.5       84     59.6      0.00      0.00      82.9     0.36      1014.4     0.7     SSW   212   1.5     SSW   205   9.38    268      -12.8
   09/05/2018 06:00      64.7      64.4       84     59.5      0.00      0.00      82.9     0.36      1014.3     0.7       E   101   2.6       E    83   9.38    268      -12.7
   09/05/2018 05:50      64.6      64.2       84     59.5      0.00      0.00      82.9     0.36      1014.2     0.9      SE   128   2.4      SE   130   9.38    268      -12.7
   09/05/2018 05:40      64.7      64.2       84     59.4      0.00      0.00      82.9     0.36      1014.0     1.6       S   177   3.5       S   184   9.38    268      -13.0
   09/05/2018 05:30      64.7      64.2       84     59.5      0.00      0.00      82.9     0.36      1013.9     0.7     SSE   154   2.0       S   181   9.38    268      -13.1
   09/05/2018 05:20      64.7      64.2       84     59.5      0.00      0.00      83.0     0.36      1013.8     1.3      SE   145   3.5      SE   130   9.38    268      -13.2
   09/05/2018 05:10      64.5      64.1       85     59.6      0.00      0.00      83.0     0.36      1013.8     0.4     WSW   255   1.4      NW   305   9.38    268      -13.3
   09/05/2018 05:00      64.5      63.8       85     59.5      0.00      0.00      83.0     0.36      1013.7     1.0      NW   307   2.2     WNW   299   9.38    268      -13.3
   09/05/2018 04:50      64.0      63.7       85     59.4      0.00      0.00      83.1     0.36      1013.7     1.2       W   277   2.7     WNW   287   9.38    268      -13.1
   09/05/2018 04:40      64.1      63.7       85     59.3      0.00      0.00      83.1     0.36      1013.6     1.9      SW   234   3.9     SSW   205   9.38    268      -13.2
   09/05/2018 04:30      64.2      63.7       85     59.2      0.00      0.00      83.1     0.36      1013.5     1.9     WSW   256   4.8      SW   235   9.38    268      -13.3
   09/05/2018 04:20      64.3      63.9       84     59.3      0.00      0.00      83.2     0.36      1013.5     1.9     WSW   253   3.4     WSW   252   9.39    268      -13.8
   09/05/2018 04:10      64.3      63.9       85     59.3      0.00      0.00      83.2     0.36      1013.4     0.3      SW   218   1.4       S   184   9.39    268      -14.0
   09/05/2018 04:00      64.2      63.8       85     59.3      0.00      0.00      83.2     0.36      1013.4     1.5     SSW   201   2.8       S   187   9.39    268      -14.0
   09/05/2018 03:50      64.1      63.7       85     59.3      0.00      0.00      83.2     0.36      1013.4     0.3       S   176   1.6     SSW   194   9.39    268      -13.6
   09/05/2018 03:40      64.1      63.7       85     59.2      0.00      0.00      83.3     0.36      1013.4     0.7     SSW   195   2.1     SSE   166   9.39    268      -13.7
   09/05/2018 03:30      64.2      63.7       85     59.2      0.00      0.00      83.3     0.36      1013.5     1.2      NW   323   3.9       N     0   9.39    268      -14.2
   09/05/2018 03:20      64.1      63.7       85     59.3      0.00      0.00      83.3     0.36      1013.4     0.6     NNE    29   2.7     NNW   342   9.39    268      -13.9
   09/05/2018 03:10      64.1      63.7       85     59.2      0.00      0.00      83.3     0.36      1013.4     0.3     SSW   210   1.6      SW   217   9.39    268      -14.0
   09/05/2018 03:00      64.2      63.7       85     59.2      0.00      0.00      83.3     0.36      1013.5     1.5     NNW   339   3.1     NNE    21   9.39    268      -14.3
   09/05/2018 02:50      64.6      63.7       84     59.2      0.00      0.00      83.3     0.36      1013.5     2.3       N    10   3.8       N     8   9.39    268      -14.5
   09/05/2018 02:40      64.5      64.1       84     59.4      0.00      0.00      83.4     0.36      1013.5     0.5      NE    44   2.7      NE    53   9.39    268      -14.5
   09/05/2018 02:30      64.2      63.7       85     59.3      0.00      0.00      83.4     0.36      1013.6     0.3      NE    44   1.6      NE    56   9.39    268      -14.4
   09/05/2018 02:20      64.1      63.7       85     59.2      0.00      0.00      83.4     0.36      1013.7     1.2      NE    45   3.4      NE    56   9.39    268      -14.4
   09/05/2018 02:10      64.0      63.5       85     59.2      0.00      0.00      83.5     0.36      1013.7     1.1      NE    44   2.5     ENE    63   9.39    268      -14.8
   09/05/2018 02:00      63.8      63.4       85     59.0      0.00      0.00      83.5     0.36      1013.8     1.2       E    86   3.0     ENE    76   9.39    268      -14.3
   09/05/2018 01:50      64.0      63.5       84     58.9      0.00      0.00      83.5     0.36      1013.8     1.5       E    98   3.2      SE   138   9.39    268      -14.6
   09/05/2018 01:40      64.1      63.6       84     58.8      0.00      0.00      83.5     0.36      1013.8     0.7      SE   124   2.4      SE   146   9.39    268      -15.1
   09/05/2018 01:30      64.2      63.8       83     58.7      0.00      0.00      83.5     0.36      1013.9     0.7     ENE    62   2.3       E    80   9.40    268      -15.5
   09/05/2018 01:20      64.3      63.8       82     58.5      0.00      0.00      83.6     0.36      1013.9     0.9      NE    50   2.6      NE    44   9.40    269      -16.2
   09/05/2018 01:10      64.5      64.1       82     58.5      0.00      0.00      83.6     0.36      1013.9     1.5      NE    49   3.3     ENE    63   9.40    269      -16.4
   09/05/2018 01:00      64.5      64.0       81     58.4      0.00      0.00      83.6     0.36      1014.0     1.4     ENE    70   3.0       E    84   9.40    269      -15.8
   09/05/2018 00:50      64.6      64.0       81     58.3      0.00      0.00      83.7     0.36      1014.0     1.2      SE   143   3.3      SE   132   9.40    269      -16.1
   09/05/2018 00:40      64.6      64.2       81     58.3      0.00      0.00      83.6     0.36      1013.9     0.8     WNW   282   2.6       E    88   9.40    269      -15.8
   09/05/2018 00:30      64.5      64.1       81     58.3      0.00      0.00      83.7     0.36      1013.9     1.2      SE   143   2.8     ENE    79   9.40    269      -16.1
   09/05/2018 00:20      64.3      63.9       83     58.7      0.00      0.00      83.7     0.36      1013.9     1.2     ENE    67   3.0     ENE    57   9.40    269      -16.2
   09/05/2018 00:10      64.4      63.9       82     58.5      0.00      0.00      83.7     0.36      1013.9     1.7     ENE    65   3.9     ENE    57   9.40    268      -15.8
   09/05/2018 00:00      64.5      64.1       83     58.8      0.00      0.00      83.7     0.36      1013.9     1.2      NE    36   3.2     ENE    60   9.40    268      -16.2
   09/04/2018 23:50      64.3      63.8       83     58.9      0.00      0.00      83.7     0.36      1014.0     1.0     NNE    31   2.6      NE    49   9.40    268      -16.0
   09/04/2018 23:40      64.3      63.7       84     58.9      0.00      0.00      83.8     0.36      1014.0     2.2      NE    43   4.5      NE    34   9.41    268      -15.8
   09/04/2018 23:30      64.4      63.9       84     59.0      0.00      0.00      83.8     0.36      1014.0     2.3      NE    49   4.2     ENE    56   9.41    268      -15.3
   09/04/2018 23:20      64.2      63.7       84     59.0      0.00      0.00      83.8     0.36      1013.9     1.1      NE    46   3.2      NE    55   9.41    268      -15.6
   09/04/2018 23:10      64.0      63.6       84     58.8      0.00      0.00      83.8     0.36      1014.0     1.8      NE    48   3.1     ENE    57   9.41    268      -32.4
   09/04/2018 23:00      64.1      63.7       83     58.6      0.00      0.00      83.8     0.36      1014.0     2.0      NE    52   3.5      NE    47   9.41    266      -53.8
   09/04/2018 22:50      64.3      63.7       82     58.4      0.00      0.00      83.8     0.36      1013.9     2.3      NE    50   4.3      NE    55   9.41    266      -61.1
   09/04/2018 22:40      64.6      64.0       81     58.3      0.00      0.00      83.8     0.36      1013.9     1.2      NE    55   2.8      NE    52   9.41    266      -62.6
   09/04/2018 22:30      65.0      64.2       80     58.4      0.00      0.00      83.8     0.36      1013.8     1.3     ENE    69   2.5      NE    49   9.41    267      -62.9
   09/04/2018 22:20      65.3      64.7       80     58.5      0.00      0.00      83.8     0.36      1013.7     1.9     ENE    57   3.6     ENE    65   9.42    268      -63.2
   09/04/2018 22:10      65.6      64.9       79     58.5      0.00      0.00      83.8     0.36      1013.7     0.7       E    80   2.6      NE    55   9.42    268      -63.8
   09/04/2018 22:00      65.6      65.1       78     58.5      0.00      0.00      83.8     0.36      1013.6     0.8      NE    54   2.8      NE    51   9.42    268      -64.0
   09/04/2018 21:50      65.7      65.3       78     58.4      0.00      0.00      83.8     0.36      1013.4     1.6      NE    49   3.5      NE    41   9.42    268      -64.1
   09/04/2018 21:40      65.9      65.4       78     58.4      0.00      0.00      83.8     0.36      1013.3     0.8      NE    55   2.1      NE    43   9.42    268      -64.5
   09/04/2018 21:30      66.1      65.5       77     58.3      0.00      0.00      83.8     0.36      1013.3     1.4     ENE    70   3.2      NE    41   9.43    268      -64.5
   09/04/2018 21:20      66.5      65.8       76     58.4      0.00      0.00      83.8     0.36      1013.2     1.5     ENE    62   3.9     ESE   106   9.43    268      -65.2
   09/04/2018 21:10      66.7      66.2       76     58.5      0.00      0.00      83.9     0.36      1013.1     2.0      NE    48   3.9      NE    37   9.43    268      -65.6
   09/04/2018 21:00      67.0      66.3       75     58.5      0.00      0.00      83.8     0.36      1013.0     2.0      NE    54   3.4      NE    42   9.43    268      -66.0
   09/04/2018 20:50      67.4      66.7       74     58.5      0.00      0.00      83.8     0.36      1012.8     1.9      NE    43   4.1     ENE    59   9.43    268      -66.7
   09/04/2018 20:40      67.9      67.0       73     58.6      0.00      0.00      83.8     0.36      1012.6     2.2     ENE    58   4.6     ENE    68   9.44    268      -67.0
   09/04/2018 20:30      68.3      67.5       72     58.5      0.00      0.00      83.8     0.36      1012.5     1.9     ENE    58   4.5     NNE    30   9.44    267      -68.2
   09/04/2018 20:20      69.0      68.0       71     58.6      0.00      0.00      83.8     0.36      1012.3     2.1      NE    46   4.0     NNE    29   9.44    267      -68.9
   09/04/2018 20:10      69.3      68.6       70     58.7      0.00      0.00      83.8     0.36      1012.2     1.9     NNE    32   3.7      NE    55   9.44    267      -69.7
   09/04/2018 20:00      70.5      69.1       68     58.8      0.00      0.00      83.7     0.36      1011.9     2.2      NE    53   3.8     ENE    60   9.45    267      -70.6
   09/04/2018 19:50      71.7      70.2       66     59.1      0.00      0.00      83.7     0.36      1011.7     2.3      NE    49   4.2      NE    38   9.45    266      -71.6
   09/04/2018 19:40      72.6      71.3       65     59.3      0.00      0.00      83.7     0.36      1011.5     2.1      NE    46   4.7     ENE    63   9.45    266      -72.8
   09/04/2018 19:30      73.2      72.2       63     59.4      0.00      0.00      83.7     0.36      1011.3     1.6     NNE    31   4.0     NNE    26   9.46    266      -73.7
   09/04/2018 19:20      74.0      73.0       62     59.5      0.00      0.00      83.6     0.36      1011.1     2.0      NE    36   3.8      NE    35   9.46    266      -72.9
   09/04/2018 19:10      75.6      73.9       60     59.6      0.00      0.00      83.6     0.36      1011.0     2.0      NE    54   4.2     ENE    67   9.46    266      -69.7
   09/04/2018 19:00      75.6      75.1       59     59.9      0.00      0.00      83.6     0.36      1010.9     1.3      NE    43   2.8      NE    45   9.46    266      -64.1
   09/04/2018 18:50      76.6      75.3       58     60.0      0.00      0.00      83.5     0.36      1010.8     2.6      NE    48   4.6      NE    51   9.47    266      -52.4
   09/04/2018 18:40      77.0      76.1       57     60.3      0.00      0.00      83.5     0.36      1010.8     2.5      NE    48   4.0      NE    44   9.47    266      -37.4
   09/04/2018 18:30      77.8      76.8       56     60.5      0.00      0.00      83.5     0.36      1010.6     2.4     ENE    76   5.1      NE    42   9.48    266      -20.1
   09/04/2018 18:20      78.6      77.3       55     60.6      0.00      0.00      83.4     0.36      1010.5     2.5      NE    50   4.3       N    10   9.48    266       -1.0
   09/04/2018 18:10      80.8      78.5       53     60.8      0.00      0.00      83.4     0.36      1010.5     3.0      NE    49   5.2      NE    42   9.49    266       19.6
   09/04/2018 18:00      81.6      79.9       52     61.1      0.00      0.00      83.3     0.36      1010.4     1.6      NE    45   3.3      NE    40   9.49    266       42.9
   09/04/2018 17:50      82.7      81.3       49     61.3      0.00      0.00      83.3     0.36      1010.4     1.3     ENE    56   4.0     ENE    62   9.50    265       64.0
   09/04/2018 17:40      83.4      82.1       49     61.4      0.00      0.00      83.2     0.36      1010.3     1.7      NE    51   4.6     ENE    57   9.50    265       89.0
   09/04/2018 17:30      84.3      83.3       46     60.9      0.00      0.00      83.2     0.36      1010.3     2.1       W   267   5.4     WSW   243   9.50    264      114.7
   09/04/2018 17:20      84.8      83.8       46     60.9      0.00      0.00      83.2     0.36      1010.2     2.9       W   274   6.6       N     4   9.51    264      143.0
   09/04/2018 17:10      84.8      84.0       46     61.4      0.00      0.00      83.1     0.36      1010.2     1.6      SW   214   8.0     WSW   239   9.51    265      167.4
   09/04/2018 17:00      84.8      82.9       48     62.0      0.00      0.00      83.1     0.36      1010.1     1.8     NNE    34   3.2     NNE    27   9.52    264      190.9
   09/04/2018 16:50      84.3      83.3       48     61.9      0.00      0.00      83.0     0.36      1010.1     2.4      NE    45   4.4      NE    53   9.52    265      213.6
   09/04/2018 16:40      84.6      83.5       48     62.0      0.00      0.00      82.9     0.36      1010.1     2.5      NE    53   5.2     NNE    29   9.52    265      239.4
   09/04/2018 16:30      84.4      83.4       48     62.0      0.00      0.00      82.9     0.36      1010.0     2.7      NE    47   4.7     NNE    13   9.53    265      261.3
   09/04/2018 16:20      85.2      84.1       47     62.1      0.00      0.00      82.8     0.36      1010.0     3.0      NE    45   5.3      NE    40   9.53    265      285.6
   09/04/2018 16:10      85.8      84.6       46     62.3      0.00      0.00      82.9     0.36      1010.0     3.3      NE    37   6.8     ENE    65   9.53    265      306.9
   09/04/2018 16:00      86.5      85.2       46     62.4      0.00      0.00      82.8     0.36      1010.0     3.0      NE    45   5.3     ENE    68   9.54    265      328.7
   09/04/2018 15:50      86.5      85.1       46     62.6      0.00      0.00      82.7     0.36      1010.0     3.2      NE    44   6.7      NE    40   9.54    265      353.6
   09/04/2018 15:40      87.0      85.6       46     62.6      0.00      0.00      82.6     0.36      1010.0     3.4      NE    46   6.1      NE    34   9.54    265      374.5
   09/04/2018 15:30      87.8      86.1       45     62.7      0.00      0.00      82.6     0.36      1010.1     3.4      NE    49   8.1      NE    50   9.54    265      391.0
   09/04/2018 15:20      87.7      86.6       44     62.6      0.00      0.00      82.5     0.36      1010.2     3.1     NNE    26   5.7      NE    43   9.55    265      405.7
   09/04/2018 15:10      87.9      86.5       44     62.5      0.00      0.00      82.4     0.36      1010.3     3.5     NNE    33   7.7      NE    47   9.55    265      421.7
   09/04/2018 15:00      87.3      85.7       45     62.4      0.00      0.00      82.5     0.36      1010.4     3.0     ENE    63   5.6     ENE    65   9.55    264      440.2
   09/04/2018 14:50      87.7      86.2       44     62.2      0.00      0.00      82.4     0.36      1010.4     2.7     ENE    63   4.4       E    80   9.55    264      453.2
   09/04/2018 14:40      88.2      86.2       43     62.3      0.00      0.00      82.3     0.36      1010.5     3.4      NE    53   5.7      NE    35   9.56    265      464.2
   09/04/2018 14:30      88.1      86.4       44     62.4      0.00      0.00      82.3     0.36      1010.6     2.5     ENE    71   5.5     ENE    58   9.56    264      478.8
   09/04/2018 14:20      87.2      86.4       44     62.4      0.00      0.00      82.2     0.36      1010.8     3.4      NE    54   8.3     ENE    57   9.56    265      491.5
   09/04/2018 14:10      87.1      85.6       45     62.3      0.00      0.00      82.2     0.36      1010.9     2.9       E    88   6.1       E    86   9.56    264      501.8
   09/04/2018 14:00      87.0      85.2       45     62.5      0.00      0.00      82.1     0.36      1011.0     2.9      NE    45   6.0     ENE    75   9.57    264      509.0
   09/04/2018 13:50      85.9      85.1       46     62.6      0.00      0.00      82.1     0.36      1011.2     3.2     ENE    60   5.6       N     6   9.57    264      518.4
   09/04/2018 13:40      86.2      84.6       46     62.6      0.00      0.00      82.1     0.36      1011.3     3.4     ENE    72   7.1     SSE   153   9.57    264      524.4
   09/04/2018 13:30      86.4      85.1       46     62.5      0.00      0.00      82.1     0.35      1011.4     3.1     ENE    59   6.7     SSE   154   9.57    265      527.3
   09/04/2018 13:20      85.8      84.9       46     62.3      0.00      0.00      82.1     0.35      1011.5     2.2      NE    52   6.5       E    96   9.57    265      532.1
   09/04/2018 13:10      86.0      85.2       46     62.6      0.00      0.00      82.0     0.35      1011.6     2.7     ENE    64   4.6      NE    45   9.57    265      535.8
   09/04/2018 13:00      85.4      84.2       47     62.1      0.00      0.00      81.9     0.35      1011.7     2.0      NE    46   4.6     ENE    70   9.58    265      536.4
   09/04/2018 12:50      84.8      82.9       47     61.8      0.00      0.00      82.0     0.35      1011.9     2.6       N     6   5.7     NNW   336   9.58    265      538.0
   09/04/2018 12:40      83.4      82.4       49     61.6      0.00      0.00      82.0     0.35      1012.0     2.6     NNE    17   5.3     NNE    31   9.58    266      538.6
   09/04/2018 12:30      83.3      82.0       49     61.7      0.00      0.00      81.9     0.35      1012.1     1.8      SE   138   4.9      SE   145   9.58    265      540.0
   09/04/2018 12:20      82.6      81.0       50     61.8      0.00      0.00      82.0     0.35      1012.2     1.9     NNE    28   5.0       N     0   9.58    266      537.1
   09/04/2018 12:10      82.2      81.0       52     61.9      0.00      0.00      81.9     0.35      1012.4     2.3      SE   126   5.3       E    95   9.58    266      536.3
   09/04/2018 12:00      82.1      80.9       52     61.9      0.00      0.00      81.9     0.36      1012.5     2.2     ENE    74   5.8     ENE    71   9.58    266      529.3
   09/04/2018 11:50      81.7      80.6       52     62.0      0.00      0.00      81.9     0.36      1012.7     2.2     ENE    77   4.4     NNE    20   9.58    266      523.3
   09/04/2018 11:40      80.6      79.1       54     61.9      0.00      0.00      82.0     0.36      1012.8     2.5       E    93   6.1      SE   132   9.58    266      517.0
   09/04/2018 11:30      80.7      79.9       54     61.9      0.00      0.00      81.9     0.36      1012.9     2.5     ENE    57   5.5      NE    51   9.58    266      506.0
   09/04/2018 11:20      80.7      79.5       54     61.9      0.00      0.00      82.0     0.36      1013.0     2.7       E    83   5.2       E    96   9.58    266      496.5
   09/04/2018 11:10      80.0      79.1       55     61.8      0.00      0.00      81.9     0.36      1013.1     2.1      NE    42   5.3       N   350   9.58    265      482.4
   09/04/2018 11:00      80.4      79.6       54     61.8      0.00      0.00      82.0     0.36      1013.2     2.1       N     6   5.1       N   354   9.58    266      469.8
   09/04/2018 10:50      79.8      78.7       55     61.7      0.00      0.00      82.0     0.36      1013.3     1.6      NE    54   4.5      NE    55   9.58    266      456.8
   09/04/2018 10:40      78.9      77.9       56     61.4      0.00      0.00      82.0     0.36      1013.3     1.8     NNE    28   4.8       N     5   9.59    266      443.7
   09/04/2018 10:30      78.1      76.6       58     61.2      0.00      0.00      82.0     0.36      1013.4     1.2      NE    38   3.9       E   101   9.59    266      429.8
   09/04/2018 10:20      76.9      76.0       60     61.3      0.00      0.00      82.1     0.36      1013.4     1.5      SE   133   4.1     ESE   111   9.59    266      414.6
   09/04/2018 10:10      76.3      73.3       63     61.3      0.00      0.00      82.1     0.36      1013.4     1.3     ENE    60   2.6       E    99   9.59    266      397.4
   09/04/2018 10:00      74.1      73.3       65     61.2      0.00      0.00      82.1     0.36      1013.4     2.3       E   101   5.6      SE   134   9.59    266      377.3
   09/04/2018 09:50      74.1      73.4       65     61.2      0.00      0.00      82.1     0.36      1013.3     1.8      NE    51   3.8     ENE    70   9.59    266      357.8
   09/04/2018 09:40      74.9      72.9       65     61.2      0.00      0.00      82.1     0.36      1013.3     2.3       E   101   5.5     ESE   104   9.59    266      338.8
   09/04/2018 09:30      74.8      72.9       66     61.4      0.00      0.00      82.2     0.36      1013.3     0.9     ESE   111   2.5     ESE   120   9.59    266      316.9
   09/04/2018 09:20      73.4      71.8       67     61.2      0.00      0.00      82.2     0.36      1013.3     1.1       E    98   3.1       E    85   9.59    266      291.6
   09/04/2018 09:10      72.1      70.5       70     61.1      0.00      0.00      82.2     0.36      1013.3     1.7       E    99   3.4     ESE   104   9.59    267      266.2
   09/04/2018 09:00      70.7      69.4       72     60.8      0.00      0.00      82.2     0.36      1013.2     1.2      SE   134   2.3      SE   141   9.59    267      235.8
   09/04/2018 08:50      69.7      68.2       75     60.7      0.00      0.00      82.2     0.36      1013.2     1.6       E    91   3.8      SE   137   9.59    268       92.3
   09/04/2018 08:40      69.0      68.3       75     60.5      0.00      0.00      82.3     0.36      1013.0     2.3     SSE   146   4.6      SE   141   9.59    268       65.2
   09/04/2018 08:30      68.9      68.3       76     60.5      0.00      0.00      82.3     0.36      1013.0     0.8       N   359   2.9     NNW   336   9.59    268       65.9
   09/04/2018 08:20      68.5      68.1       76     60.5      0.00      0.00      82.3     0.36      1012.9     1.1     ESE   105   3.1     ESE   113   9.59    268       55.5
   09/04/2018 08:10      68.4      67.9       77     60.5      0.00      0.00      82.3     0.36      1012.9     1.2     NNE    24   3.8       N   353   9.59    269       39.5
   09/04/2018 08:00      68.4      67.6       77     60.5      0.00      0.00      82.4     0.36      1012.8     0.8      NE    45   2.1      NE    52   8.88    269       34.4
   09/04/2018 07:50      67.9      67.3       78     60.4      0.00      0.00      82.3     0.36      1012.7     1.2      NE    38   3.7     NNE    24   8.88    269       22.2
   09/04/2018 07:40      67.8      67.3       78     60.4      0.00      0.00      82.4     0.36      1012.6     1.4      NE    50   2.9      NE    34   8.88    269       13.6
   09/04/2018 07:30      67.6      67.0       79     60.5      0.00      0.00      82.4     0.36      1012.6     0.5     ENE    60   1.7     ENE    56   8.88    269       18.0
   09/04/2018 07:20      67.3      66.8       79     60.5      0.00      0.00      82.4     0.36      1012.5     1.0       E    97   2.3       E    98   8.88    269        8.9
   09/04/2018 07:10      67.2      66.7       80     60.4      0.00      0.00      82.4     0.36      1012.4     1.6     ESE   116   3.5      SE   141   8.88    269       -2.6
   09/04/2018 07:00      67.0      66.6       80     60.4      0.00      0.00      82.5     0.36      1012.3     0.6     SSE   167   2.5     ESE   119   8.88    269       -7.3
   09/04/2018 06:50      67.0      66.6       79     60.3      0.00      0.00      82.5     0.36      1012.2     1.5     SSW   194   2.4       S   182   8.88    269      -20.4
   09/04/2018 06:40      67.0      66.6       80     60.4      0.00      0.00      82.5     0.36      1012.1     0.2     SSE   167   1.2       S   180   8.88    269      -15.5
   09/04/2018 06:30      67.0      66.6       80     60.4      0.00      0.00      82.5     0.36      1012.0     0.6       E   101   1.8       E    98   8.88    269      -16.5
   09/04/2018 06:20      67.0      66.6       80     60.3      0.00      0.00      82.5     0.36      1011.8     0.7     ESE   123   1.9     SSE   146   8.88    269      -23.7
   09/04/2018 06:10      67.0      66.6       80     60.2      0.00      0.00      82.6     0.36      1011.8     0.7      SE   136   1.8      SE   144   8.88    269      -20.8
   09/04/2018 06:00      67.0      66.6       79     60.2      0.00      0.00      82.5     0.36      1011.8     1.0     ESE   114   2.9       E    85   8.88    269      -21.1
   09/04/2018 05:50      67.2      66.6       79     60.2      0.00      0.00      82.6     0.36      1011.7     1.0     ESE   105   2.0      SE   130   8.89    269      -20.6
   09/04/2018 05:40      67.4      66.9       79     60.3      0.00      0.00      82.6     0.36      1011.8     1.3     NNE    31   3.8      NE    51   8.89    269      -16.4
   09/04/2018 05:30      67.3      66.9       79     60.4      0.00      0.00      82.6     0.36      1011.7     0.0     ENE    65   0.6     ENE    65   8.89    269      -15.0
   09/04/2018 05:20      67.2      66.8       79     60.3      0.00      0.00      82.7     0.36      1011.7     0.0       E    93   0.3       E    93   8.89    269      -14.6
   09/04/2018 05:10      67.4      66.9       79     60.4      0.00      0.00      82.6     0.36      1011.7     0.2     ESE   116   1.5     ESE   123   8.89    269      -15.2
   09/04/2018 05:00      67.3      66.8       79     60.4      0.00      0.00      82.7     0.36      1011.8     0.2      SE   132   1.6      SE   131   8.89    269      -15.4
   09/04/2018 04:50      67.4      66.7       79     60.3      0.00      0.00      82.7     0.36      1011.7     1.3      SE   127   3.2       E    92   8.89    269      -15.3
   09/04/2018 04:40      67.4      67.0       79     60.4      0.00      0.00      82.8     0.36      1011.7     0.6     ENE    72   1.4       E    87   8.89    269      -15.7
   09/04/2018 04:30      67.2      66.7       79     60.3      0.00      0.00      82.8     0.36      1011.7     0.7       N     7   2.7     NNE    24   8.89    269      -15.4
   09/04/2018 04:20      67.1      66.6       80     60.3      0.00      0.00      82.8     0.36      1011.6     0.2       S   171   1.4     ENE    61   8.89    269      -18.6
   09/04/2018 04:10      67.1      66.5       80     60.3      0.00      0.00      82.8     0.36      1011.7     0.8     WSW   249   1.8       W   261   8.89    269      -15.7
   09/04/2018 04:00      67.1      66.7       80     60.3      0.00      0.00      82.8     0.36      1011.7     0.6     ESE   123   1.9     ESE   108   8.89    269      -14.8
   09/04/2018 03:50      67.2      66.7       80     60.3      0.00      0.00      82.8     0.36      1011.7     0.8     SSE   151   2.1      SE   143   8.89    269      -15.0
   09/04/2018 03:40      67.2      66.7       80     60.4      0.00      0.00      82.9     0.36      1011.8     0.2     ESE   105   1.2       E    90   8.89    269      -14.4
   09/04/2018 03:30      67.2      66.7       80     60.4      0.00      0.00      82.9     0.36      1011.8     0.0     ENE    70   1.1       E    89   8.89    269      -14.4
   09/04/2018 03:20      67.2      66.7       80     60.4      0.00      0.00      82.9     0.36      1011.9     0.7     NNE    22   2.1     NNE    19   8.89    269      -14.6
   09/04/2018 03:10      67.2      66.7       79     60.3      0.00      0.00      82.9     0.36      1012.0     0.7     NNE    12   2.7       N   355   8.89    269      -14.6
   09/04/2018 03:00      67.1      66.7       79     60.3      0.00      0.00      82.9     0.36      1012.1     0.1     ENE    76   1.2       E    92   8.89    269      -14.5
   09/04/2018 02:50      67.0      66.6       79     60.2      0.00      0.00      82.9     0.36      1012.1     0.2     NNE    29   0.8      NE    43   8.89    269      -14.6
   09/04/2018 02:40      67.0      66.6       79     60.2      0.00      0.00      83.0     0.36      1012.2     0.2     NNE    31   1.5      NE    49   8.89    269      -14.7
   09/04/2018 02:30      66.9      66.5       80     60.2      0.00      0.00      83.0     0.36      1012.3     0.0      NE    46   0.7      NE    42   8.89    269      -14.7
   09/04/2018 02:20      67.0      66.6       80     60.2      0.00      0.00      83.0     0.36      1012.4     0.3     SSW   211   1.3     SSW   204   8.89    269      -14.8
   09/04/2018 02:10      66.9      66.6       80     60.2      0.00      0.00      83.1     0.36      1012.4     0.4       E    83   2.6     ESE   106   8.89    269      -14.7
   09/04/2018 02:00      66.9      66.4       80     60.3      0.00      0.00      83.1     0.36      1012.5     0.3       E    81   1.2      SE   138   8.90    269      -14.9
   09/04/2018 01:50      66.8      66.4       80     60.1      0.00      0.00      83.1     0.36      1012.5     0.4      SW   229   1.3      SW   225   8.90    269      -15.4
   09/04/2018 01:40      66.8      66.4       80     60.1      0.00      0.00      83.1     0.36      1012.6     0.8     NNE    19   2.0     ENE    57   8.90    269      -15.3
   09/04/2018 01:30      66.7      66.2       80     60.2      0.00      0.00      83.1     0.36      1012.7     0.4     ENE    64   1.6     ENE    59   8.90    269      -15.0
   09/04/2018 01:20      66.6      66.0       81     60.2      0.00      0.00      83.2     0.36      1012.8     0.0      SE   135   0.4      SE   135   8.90    269      -15.0
   09/04/2018 01:10      66.4      65.9       81     60.0      0.00      0.00      83.2     0.36      1012.8     0.2      SE   135   1.3      SE   135   8.90    269      -14.9
   09/04/2018 01:00      66.5      66.1       80     60.1      0.00      0.00      83.2     0.36      1012.9     0.5      SE   130   1.8     ESE   120   8.90    269      -15.1
   09/04/2018 00:50      66.4      66.1       81     60.1      0.00      0.00      83.2     0.36      1012.9     0.3     ENE    73   1.4      NE    51   8.90    269      -15.1
   09/04/2018 00:40      66.4      65.8       81     60.0      0.00      0.00      83.2     0.36      1012.9     0.4       E    90   1.4     ESE   104   8.90    269      -15.2
   09/04/2018 00:30      66.2      65.8       81     60.1      0.00      0.00      83.2     0.36      1012.9     0.5       E    99   2.0     SSE   160   8.90    269      -15.1
   09/04/2018 00:20      66.3      65.8       81     60.1      0.00      0.00      83.3     0.36      1012.9     1.2     ENE    76   2.1     ENE    76   8.90    269      -15.3
   09/04/2018 00:10      66.2      65.7       82     60.1      0.00      0.00      83.2     0.36      1012.9     2.1      NE    47   3.3     ENE    73   8.90    269      -15.8
   09/04/2018 00:00      66.4      65.8       81     60.1      0.00      0.00      83.3     0.36      1012.9     2.2      NE    41   3.8      NE    41   8.90    269      -16.1
   09/03/2018 23:50      66.3      65.9       81     60.2      0.00      0.00      83.3     0.36      1012.9     1.3      NE    53   2.6     NNE    27   8.90    269      -16.4
   09/03/2018 23:40      66.1      65.7       82     60.2      0.00      0.00      83.3     0.36      1012.9     1.2      NE    50   3.0      NE    53   8.90    269      -17.8
   09/03/2018 23:30      66.1      65.7       82     60.2      0.00      0.00      83.3     0.36      1012.9     1.6      NE    54   2.9     NNE    32   8.91    268      -23.4
   09/03/2018 23:20      66.1      65.6       82     60.3      0.00      0.00      83.3     0.36      1013.0     1.4      NE    49   2.8      NE    35   8.91    268      -32.2
   09/03/2018 23:10      66.1      65.7       82     60.3      0.00      0.00      83.3     0.36      1013.0     1.6      NE    50   3.5     ENE    58   8.91    267      -38.6
   09/03/2018 23:00      66.3      65.8       82     60.3      0.00      0.00      83.3     0.36      1013.0     1.7      NE    50   3.0      NE    45   8.91    266      -45.2
   09/03/2018 22:50      66.5      66.0       82     60.5      0.00      0.00      83.4     0.36      1013.0     1.6      NE    45   2.9     ENE    56   8.91    266      -52.1
   09/03/2018 22:40      66.7      66.1       81     60.4      0.00      0.00      83.3     0.36      1013.0     1.6      NE    47   3.1     NNE    32   8.91    266      -59.1
   09/03/2018 22:30      66.8      66.4       81     60.4      0.00      0.00      83.3     0.36      1013.0     0.7     ENE    65   2.0     ENE    68   8.91    266      -59.4
   09/03/2018 22:20      67.0      66.5       80     60.5      0.00      0.00      83.3     0.36      1012.9     1.1     ENE    66   2.6     ENE    74   8.91    267      -59.4
   09/03/2018 22:10      67.6      66.7       79     60.5      0.00      0.00      83.3     0.36      1012.9     1.4     ENE    64   2.7      SE   141   8.91    268      -60.3
   09/03/2018 22:00      68.0      67.3       78     60.5      0.00      0.00      83.3     0.36      1012.8     0.9     ENE    62   2.1     ENE    70   8.92    268      -61.3
   09/03/2018 21:50      68.3      67.7       77     60.6      0.00      0.00      83.3     0.36      1012.8     1.2      NE    44   2.3      NE    52   8.92    268      -61.4
   09/03/2018 21:40      68.4      67.9       77     60.6      0.00      0.00      83.3     0.36      1012.7     1.2      NE    44   2.9      NE    46   8.92    268      -61.3
   09/03/2018 21:30      68.5      68.0       76     60.5      0.00      0.00      83.3     0.36      1012.6     1.1      NE    49   2.8      NE    41   8.92    268      -61.1
   09/03/2018 21:20      68.6      68.2       76     60.5      0.00      0.00      83.3     0.36      1012.6     1.3      NE    45   2.2     ENE    58   8.92    268      -61.2
   09/03/2018 21:10      68.9      68.3       76     60.5      0.00      0.00      83.3     0.36      1012.5     1.1      NE    42   3.5      NE    37   8.92    268      -61.9
   09/03/2018 21:00      69.1      68.5       75     60.5      0.00      0.00      83.3     0.36      1012.4     1.4      NE    47   2.7      NE    47   8.92    268      -63.1
   09/03/2018 20:50      69.5      68.8       74     60.5      0.00      0.00      83.3     0.36      1012.4     1.4     ENE    63   3.2     ENE    66   8.93    268      -63.8
   09/03/2018 20:40      70.0      69.1       73     60.4      0.00      0.00      83.2     0.36      1012.2     1.5      NE    48   3.4      NE    52   8.93    268      -64.9
   09/03/2018 20:30      70.5      69.7       72     60.4      0.00      0.00      83.2     0.36      1012.1     1.6      NE    40   3.5     ENE    61   8.93    267      -66.1
   09/03/2018 20:20      70.9      70.2       70     60.3      0.00      0.00      83.2     0.36      1011.9     1.8      NE    46   3.8     ENE    67   8.93    267      -67.1
   09/03/2018 20:10      71.4      70.6       69     60.2      0.00      0.00      83.2     0.36      1011.7     1.2      NE    44   2.2      NE    35   8.94    267      -68.2
   09/03/2018 20:00      72.0      71.1       67     60.2      0.00      0.00      83.2     0.36      1011.6     1.9      NE    46   4.1      NE    51   8.94    267      -68.7
   09/03/2018 19:50      73.2      71.8       65     60.2      0.00      0.00      83.1     0.36      1011.4     2.2     NNE    30   3.7      NE    53   8.94    266      -70.2
   09/03/2018 19:40      73.6      72.8       63     60.1      0.00      0.00      83.1     0.36      1011.2     1.5     NNE    29   4.2     NNE    32   8.94    266      -71.1
   09/03/2018 19:30      74.1      73.3       63     60.1      0.00      0.00      83.1     0.36      1011.1     1.2      NE    42   2.6       N     7   8.94    266      -71.3
   09/03/2018 19:20      74.7      73.8       61     60.1      0.00      0.00      83.0     0.36      1010.9     1.5      NE    48   2.6     ENE    72   8.95    266      -69.8
   09/03/2018 19:10      75.3      74.5       60     60.1      0.00      0.00      83.0     0.36      1010.8     1.5      NE    50   4.5     ENE    61   8.95    266      -65.6
   09/03/2018 19:00      76.4      75.0       59     60.2      0.00      0.00      83.0     0.36      1010.7     2.8      NE    48   4.8       N     7   8.95    266      -59.0
   09/03/2018 18:50      77.9      76.2       56     60.4      0.00      0.00      82.9     0.36      1010.6     2.5      NE    47   5.5      NE    46   8.96    266      -48.8
   09/03/2018 18:40      78.9      77.4       55     60.6      0.00      0.00      83.0     0.36      1010.4     2.4      NE    36   4.4      NE    50   8.96    266      -33.7
   09/03/2018 18:30      80.1      78.8       52     60.7      0.00      0.00      82.9     0.36      1010.3     1.9     NNE    30   4.1     ENE    57   8.97    266      -16.1
   09/03/2018 18:20      80.8      79.6       52     60.7      0.00      0.00      82.8     0.36      1010.3     2.4      NE    39   3.9     ENE    59   8.97    265        5.7
   09/03/2018 18:10      82.3      80.6       50     61.0      0.00      0.00      82.8     0.36      1010.2     3.0       N    10   5.2       N   350   8.97    265       27.1
   09/03/2018 18:00      82.8      81.8       48     60.9      0.00      0.00      82.8     0.36      1010.1     4.0      NW   315   7.4      NW   321   8.98    265       51.3
   09/03/2018 17:50      83.2      82.4       48     60.9      0.00      0.00      82.7     0.36      1010.0     4.6      NW   315   8.8       N   349   8.98    265       75.4
   09/03/2018 17:40      84.3      82.8       47     60.9      0.00      0.00      82.7     0.36      1010.0     5.5     WSW   252  13.6     WSW   243   8.99    265       99.9
   09/03/2018 17:30      83.7      83.2       47     61.0      0.00      0.00      82.6     0.36      1009.9     5.1     WSW   246   8.6     WSW   240   8.99    265      125.3
   09/03/2018 17:20      84.4      83.3       46     61.0      0.00      0.00      82.6     0.36      1009.9     4.8      SW   232   9.4     SSW   201   9.00    265      149.7
   09/03/2018 17:10      84.5      83.7       46     61.0      0.00      0.00      82.5     0.36      1009.8     4.3     SSW   200   9.1       W   268   9.00    265      173.2
   09/03/2018 17:00      85.0      83.9       45     61.0      0.00      0.00      82.5     0.36      1009.9     4.3       S   173   7.9     SSW   197   9.00    265      196.1
   09/03/2018 16:50      85.6      84.6       45     61.1      0.00      0.00      82.5     0.36      1009.8     4.7     SSW   204   8.1     SSW   194   9.01    264      221.6
   09/03/2018 16:40      86.5      84.9       44     61.2      0.00      0.00      82.4     0.36      1009.7     3.8      SW   220   9.0      SW   230   9.01    264      243.1
   09/03/2018 16:30      87.4      86.2       43     61.8      0.00      0.00      82.4     0.36      1009.7     1.9     ESE   114   4.6      SE   131   9.02    264      265.7
   09/03/2018 16:20      86.7      85.6       45     62.0      0.00      0.00      82.3     0.36      1009.7     2.6      NE    55   4.4     ENE    62   9.02    264      285.6
   09/03/2018 16:10      86.7      85.7       44     61.9      0.00      0.00      82.3     0.36      1009.8     3.0     ENE    62   5.0      SE   128   9.02    264      307.6
   09/03/2018 16:00      87.6      86.4       43     62.0      0.00      0.00      82.2     0.36      1009.8     3.6      NE    45   7.2      NE    38   9.03    264      328.2
   09/03/2018 15:50      87.9      87.3       43     62.2      0.00      0.00      82.2     0.36      1009.8     3.2      NE    53   5.8      NE    42   9.03    264      350.2
   09/03/2018 15:40      88.3      87.5       42     62.2      0.00      0.00      82.1     0.36      1009.8     3.6     ENE    57   5.8     ENE    70   9.03    264      368.1
   09/03/2018 15:30      88.4      87.6       42     62.0      0.00      0.00      82.1     0.36      1009.9     3.3     ENE    63   5.5       E    92   9.03    265      390.2
   09/03/2018 15:20      88.1      87.1       42     61.6      0.00      0.00      82.1     0.36      1010.0     2.4     ENE    64   6.3      NE    52   9.04    264      407.8
   09/03/2018 15:10      87.5      86.3       41     60.5      0.00      0.00      82.0     0.36      1010.2     2.9       S   182   7.6     SSW   200   9.04    265      423.8
   09/03/2018 15:00      88.9      87.2       40     60.3      0.00      0.00      82.0     0.36      1010.3     2.3     ENE    63   5.1      NE    56   9.04    264      432.4
   09/03/2018 14:50      88.9      88.1       39     60.3      0.00      0.00      81.9     0.36      1010.5     1.8      NW   326   4.6     NNW   342   9.04    264      449.9
   09/03/2018 14:40      88.8      88.1       39     60.4      0.00      0.00      81.9     0.36      1010.6     2.3       N   351   4.4     NNW   337   9.04    264      461.2
   09/03/2018 14:30      88.4      86.4       40     60.1      0.00      0.00      81.9     0.36      1010.8     1.6      NW   325   5.0       N     0   9.04    264      477.5
   09/03/2018 14:20      86.7      86.1       41     60.0      0.00      0.00      81.8     0.36      1011.0     3.3       W   273   6.2      SW   230   9.04    264      491.9
   09/03/2018 14:10      86.7      84.9       42     60.1      0.00      0.00      81.8     0.36      1011.1     2.1       W   266   5.0     WNW   291   9.05    264      498.9
   09/03/2018 14:00      85.5      84.6       43     60.2      0.00      0.00      81.8     0.36      1011.3     3.2       W   273   7.6       W   276   9.05    264      510.5
   09/03/2018 13:50      86.3      84.4       43     60.7      0.00      0.00      81.8     0.36      1011.4     1.5       E    84   3.9       E    97   9.05    264      516.6
   09/03/2018 13:40      84.8      82.5       45     60.4      0.00      0.00      81.8     0.36      1011.5     1.7       E    85   4.8       E    90   9.05    265      522.7
   09/03/2018 13:30      84.3      82.4       46     60.2      0.00      0.00      81.7     0.36      1011.6     3.0     WSW   256   5.3     WSW   239   9.05    265      530.5
   09/03/2018 13:20      84.8      82.5       45     60.5      0.00      0.00      81.8     0.36      1011.7     2.1     WNW   297   4.8       W   264   9.05    264      535.0
   09/03/2018 13:10      82.6      81.2       48     60.3      0.00      0.00      81.7     0.36      1011.8     2.2     ENE    62   3.9       S   191   9.05    265      538.5
   09/03/2018 13:00      81.3      80.4       50     60.2      0.00      0.00      81.7     0.36      1012.0     2.4       W   264   5.4       W   278   9.05    265      541.2
   09/03/2018 12:50      81.6      80.2       50     60.4      0.00      0.00      81.7     0.36      1012.1     2.1     WNW   300   5.6      NW   315   9.06    266      539.6
   09/03/2018 12:40      81.3      79.5       51     60.5      0.00      0.00      81.7     0.36      1012.2     3.2      NW   323   6.8     WSW   256   9.06    266      543.1
   09/03/2018 12:30      80.8      79.1       52     60.4      0.00      0.00      81.7     0.36      1012.4     1.7     NNW   331   4.4     WNW   284   9.06    266      542.4
   09/03/2018 12:20      79.4      77.6       53     60.4      0.00      0.00      81.8     0.36      1012.5     1.9      NW   314   5.0      NW   307   9.06    266      542.3
   09/03/2018 12:10      78.6      77.7       54     60.4      0.00      0.00      81.8     0.36      1012.7     2.6      NW   306   5.7     WSW   251   9.06    266      539.0
   09/03/2018 12:00      77.8      76.3       56     60.2      0.00      0.00      81.8     0.36      1012.8     1.9     WNW   285   4.3      NW   308   9.06    266      537.1
   09/03/2018 11:50      76.5      74.8       59     60.0      0.00      0.00      81.8     0.36      1013.0     3.5       W   280   6.1       W   281   9.06    266      529.9
   09/03/2018 11:40      76.7      75.6       58     60.3      0.00      0.00      81.8     0.36      1013.1     2.4      SE   138   6.9     WSW   257   9.06    266      525.9
   09/03/2018 11:30      76.5      74.9       59     60.3      0.00      0.00      81.8     0.36      1013.1     1.9      NE    47   4.5     SSE   152   9.06    266      514.4
   09/03/2018 11:20      75.7      74.0       60     60.2      0.00      0.00      81.9     0.36      1013.3     1.8     NNE    31   4.0       N     2   9.06    266      521.0
   09/03/2018 11:10      74.0      72.0       65     60.1      0.00      0.00      81.9     0.36      1013.4     1.7       W   267   3.6       S   178   9.06    266      543.4
   09/03/2018 11:00      72.2      70.5       68     60.1      0.00      0.00      81.9     0.36      1013.5     2.1     WSW   257   4.2     WSW   237   9.06    267      329.1
   09/03/2018 10:50      70.8      70.2       69     60.0      0.00      0.00      81.9     0.36      1013.7     2.6       S   191   5.0     SSW   207   9.06    267      184.1
   09/03/2018 10:40      70.7      70.1       70     60.0      0.00      0.00      81.9     0.36      1013.6     1.8      SE   131   4.7       S   184   9.06    267      150.6
   09/03/2018 10:30      70.5      70.0       70     60.0      0.00      0.00      81.9     0.36      1013.6     1.9       S   187   4.7       S   181   9.06    268      145.0
   09/03/2018 10:20      70.6      69.4       71     60.0      0.00      0.00      81.9     0.36      1013.5     1.0     ESE   109   3.5      SE   135   9.06    268      142.3
   09/03/2018 10:10      70.5      69.6       71     60.2      0.00      0.00      82.0     0.36      1013.6     1.6      SE   140   4.4     SSE   164   9.06    268      134.3
   09/03/2018 10:00      69.9      68.8       73     60.1      0.00      0.00      82.0     0.36      1013.5     0.9       E    90   2.8       E    93   9.06    268      134.0
   09/03/2018 09:50      69.1      68.3       74     60.1      0.00      0.00      82.0     0.36      1013.5     1.8       E    85   3.5     ENE    73   9.06    268      118.1
   09/03/2018 09:40      68.7      68.0       75     60.2      0.00      0.00      82.0     0.36      1013.5     1.2      SE   138   3.1       E    82   9.06    268       92.3
   09/03/2018 09:30      68.7      67.8       76     60.2      0.00      0.00      82.0     0.36      1013.5     2.0      SE   143   4.6      SE   140   9.06    268       77.7
   09/03/2018 09:20      68.5      68.2       76     60.3      0.00      0.00      82.1     0.36      1013.5     1.3     ESE   116   2.8      SE   142   9.06    268       66.7
   09/03/2018 09:10      68.4      67.5       76     60.2      0.00      0.00      82.1     0.36      1013.5     0.8     WSW   239   2.4     WSW   238   9.06    268       60.6
   09/03/2018 09:00      67.9      67.3       77     60.2      0.00      0.00      82.1     0.36      1013.5     2.0     SSW   212   4.0      SW   218   9.06    268       59.9
   09/03/2018 08:50      67.9      67.4       78     60.4      0.00      0.00      82.1     0.36      1013.5     0.7      SE   139   3.2      SE   142   9.06    268       47.5
   09/03/2018 08:40      67.8      67.1       79     60.4      0.00      0.00      82.1     0.36      1013.5     0.3      SE   144   1.7      SE   144   9.06    268       40.9
   09/03/2018 08:30      67.4      66.7       79     60.3      0.00      0.00      82.2     0.36      1013.5     0.8      SE   139   2.6      SE   143   9.06    269       31.8
   09/03/2018 08:20      67.0      66.5       80     60.3      0.00      0.00      82.2     0.36      1013.5     1.0       S   174   2.3     SSW   195   9.06    269       27.8
   09/03/2018 08:10      66.8      66.4       80     60.3      0.00      0.00      82.2     0.36      1013.6     1.5     SSE   165   3.5       S   170   9.06    269       20.9
   09/03/2018 08:00      66.7      66.1       81     60.4      0.00      0.00      82.2     0.36      1013.5     1.6       S   186   2.7     SSW   213   9.06    269       18.3
   09/03/2018 07:50      66.5      66.0       82     60.4      0.00      0.00      82.2     0.36      1013.4     1.4       S   190   2.7       S   178   9.06    269       11.3
   09/03/2018 07:40      66.3      65.8       82     60.3      0.00      0.00      82.2     0.36      1013.5     1.7     SSE   162   3.2     SSE   156   9.06    269        2.8
   09/03/2018 07:30      66.6      65.9       81     60.3      0.00      0.00      82.3     0.36      1013.5     1.8     SSE   165   4.1       S   184   9.06    269       -1.3
   09/03/2018 07:20      66.4      66.1       81     60.2      0.00      0.00      82.3     0.36      1013.5     1.8       S   173   3.7       S   177   9.06    269       -4.2
   09/03/2018 07:10      66.3      65.9       81     60.1      0.00      0.00      82.3     0.36      1013.4     2.4     SSW   199   4.1     SSW   197   9.07    269       -6.3
   09/03/2018 07:00      66.5      66.0       81     60.0      0.00      0.00      82.4     0.36      1013.3     2.6     SSW   196   4.1     SSW   206   9.07    269       -8.3
   09/03/2018 06:50      66.6      66.1       80     60.0      0.00      0.00      82.3     0.36      1013.2     2.5      SW   230   4.7      SW   235   9.07    269      -10.5
   09/03/2018 06:40      66.6      66.1       80     59.9      0.00      0.00      82.4     0.36      1013.0     1.5     SSW   211   3.4     WSW   243   9.07    269      -12.0
   09/03/2018 06:30      66.6      66.2       80     59.9      0.00      0.00      82.4     0.36      1012.9     0.6     SSW   195   2.5       S   184   9.07    269      -12.9
   09/03/2018 06:20      66.4      65.9       80     59.9      0.00      0.00      82.4     0.36      1012.9     0.8     SSE   167   3.1     SSE   166   9.07    269      -13.1
   09/03/2018 06:10      66.5      65.8       80     59.9      0.00      0.00      82.4     0.36      1012.9     2.7     SSW   195   4.9     SSW   202   9.07    269      -13.0
   09/03/2018 06:00      66.6      66.1       80     59.9      0.00      0.00      82.4     0.36      1012.9     2.9     SSW   205   5.7       S   182   9.07    269      -13.1
   09/03/2018 05:50      66.6      66.1       80     59.9      0.00      0.00      82.5     0.36      1012.9     1.9       S   184   3.8     SSE   162   9.07    269      -13.3
   09/03/2018 05:40      66.7      66.1       80     59.9      0.00      0.00      82.5     0.36      1012.7     2.5       S   177   4.4     SSW   205   9.07    269      -13.2
   09/03/2018 05:30      66.7      66.2       80     59.9      0.00      0.00      82.5     0.36      1012.7     2.4       S   176   4.2       S   171   9.07    269      -13.4
   09/03/2018 05:20      66.7      66.3       79     59.8      0.00      0.00      82.5     0.36      1012.8     2.6       S   179   4.6     SSW   206   9.07    269      -13.3
   09/03/2018 05:10      66.8      66.3       79     59.8      0.00      0.00      82.6     0.36      1012.8     2.5     SSE   168   5.0       S   188   9.07    269      -13.5
   09/03/2018 05:00      67.0      66.6       78     59.8      0.00      0.00      82.6     0.36      1012.8     2.4       S   172   4.6     SSW   192   9.07    269      -13.7
   09/03/2018 04:50      67.0      66.6       78     59.8      0.00      0.00      82.6     0.36      1012.8     2.7       S   187   4.7       S   179   9.07    269      -13.6
   09/03/2018 04:40      67.0      66.6       78     59.8      0.00      0.00      82.6     0.36      1012.8     2.2     SSE   165   4.6       S   181   9.07    269      -13.8
   09/03/2018 04:30      67.0      66.6       78     59.8      0.00      0.00      82.6     0.36      1012.7     2.4     SSE   161   4.9      SE   141   9.07    269      -13.9
   09/03/2018 04:20      67.0      66.6       78     59.8      0.00      0.00      82.6     0.36      1012.7     2.3     SSE   167   4.6       S   186   9.07    269      -13.9
   09/03/2018 04:10      67.0      66.6       79     59.9      0.00      0.00      82.6     0.36      1012.6     2.2       S   183   4.3       S   186   9.07    269      -14.0
   09/03/2018 04:00      67.0      66.6       79     59.9      0.00      0.00      82.7     0.36      1012.6     2.3       S   174   3.6     SSW   193   9.08    269      -14.1
   09/03/2018 03:50      66.9      66.5       79     59.9      0.00      0.00      82.6     0.36      1012.7     2.5       S   184   3.9     SSW   197   9.08    269      -14.2
   09/03/2018 03:40      67.1      66.7       78     59.9      0.00      0.00      82.7     0.36      1012.8     2.2     SSE   162   3.9      SE   144   9.08    269      -14.3
   09/03/2018 03:30      67.4      66.8       78     59.9      0.00      0.00      82.7     0.36      1012.8     2.5       S   181   3.6       S   190   9.08    268      -14.3
   09/03/2018 03:20      67.3      66.9       78     60.0      0.00      0.00      82.8     0.36      1012.8     1.4       S   175   3.2       S   183   9.08    269      -14.7
   09/03/2018 03:10      67.2      66.7       78     59.9      0.00      0.00      82.8     0.36      1012.8     1.2      SE   138   2.7     SSE   163   9.08    268      -14.4
   09/03/2018 03:00      67.0      66.7       78     59.9      0.00      0.00      82.8     0.36      1012.7     1.5      SE   144   3.6     SSE   157   9.08    268      -14.5
   09/03/2018 02:50      67.0      66.7       78     59.9      0.00      0.00      82.8     0.36      1012.8     2.2      SE   143   4.3     SSE   155   9.08    268      -14.5
   09/03/2018 02:40      67.0      66.7       78     59.9      0.00      0.00      82.9     0.37      1012.9     1.7     SSE   151   4.5     SSE   160   9.08    268      -14.7
   09/03/2018 02:30      67.1      66.8       78     59.9      0.00      0.00      82.9     0.36      1012.8     1.8      SE   138   3.2     SSE   159   9.08    268      -14.7
   09/03/2018 02:20      67.7      66.9       77     59.9      0.00      0.00      82.8     0.36      1012.9     2.2      SE   132   4.2      SE   135   9.08    268      -14.8
   09/03/2018 02:10      67.7      67.2       76     59.7      0.00      0.00      82.9     0.36      1012.9     1.4     ESE   104   4.0      SE   140   9.08    268      -15.2
   09/03/2018 02:00      67.6      67.2       76     59.7      0.00      0.00      82.9     0.37      1012.9     0.3       E    88   1.8      SE   143   9.08    268      -15.3
   09/03/2018 01:50      67.4      67.0       77     59.6      0.00      0.00      83.0     0.36      1012.9     0.7       S   184   2.5     SSW   201   9.08    268      -15.3
   09/03/2018 01:40      67.4      67.0       77     59.6      0.00      0.00      83.0     0.37      1013.0     1.1       S   176   2.2      SE   139   9.08    268      -15.5
   09/03/2018 01:30      67.6      67.0       77     59.6      0.00      0.00      82.9     0.37      1013.1     1.4      SE   141   2.6       S   181   9.08    268      -15.4
   09/03/2018 01:20      67.4      66.9       77     59.6      0.00      0.00      83.0     0.37      1013.1     0.6     SSE   154   1.9      SE   131   9.09    268      -15.6
   09/03/2018 01:10      67.2      66.8       77     59.5      0.00      0.00      83.0     0.37      1013.2     0.9       S   177   2.0       S   180   9.09    268      -15.6
   09/03/2018 01:00      67.1      66.7       77     59.4      0.00      0.00      83.1     0.37      1013.1     1.2       S   185   2.3       S   178   9.09    268      -15.6
   09/03/2018 00:50      67.0      66.6       77     59.4      0.00      0.00      83.1     0.37      1013.2     1.6     SSW   198   2.5     SSW   206   9.09    268      -15.8
   09/03/2018 00:40      67.2      66.7       77     59.4      0.00      0.00      83.1     0.37      1013.2     1.3       S   177   2.2     SSW   207   9.09    268      -15.8
   09/03/2018 00:30      67.2      66.7       76     59.3      0.00      0.00      83.1     0.37      1013.2     0.9       S   178   2.0       S   172   9.09    268      -15.6
   09/03/2018 00:20      67.0      66.6       77     59.3      0.00      0.00      83.1     0.37      1013.2     1.3       S   176   2.2       S   181   9.09    268      -15.8
   09/03/2018 00:10      67.0      66.6       77     59.2      0.00      0.00      83.2     0.37      1013.2     1.6       S   190   2.9       S   178   9.09    268      -16.4
   09/03/2018 00:00      67.0      66.6       76     59.1      0.00      0.00      83.2     0.37      1013.3     1.1       S   180   2.3      SE   141   9.09    268      -17.3
   09/02/2018 23:50      66.8      66.4       77     59.1      0.00      0.00      83.2     0.37      1013.4     1.5       S   170   3.4     SSW   202   9.09    268      -15.8
   09/02/2018 23:40      66.6      66.1       78     59.2      0.00      0.00      83.2     0.37      1013.4     1.5     SSE   164   3.5      SE   137   9.09    268      -14.8
   09/02/2018 23:30      66.4      65.9       78     59.1      0.00      0.00      83.2     0.37      1013.4     1.1     ESE   111   2.6      SE   137   9.10    268      -21.7
   09/02/2018 23:20      66.3      65.9       77     58.8      0.00      0.00      83.2     0.37      1013.4     1.5     ESE   106   3.2       E   100   9.10    268      -42.5
   09/02/2018 23:10      66.6      65.8       76     58.4      0.00      0.00      83.2     0.37      1013.4     0.5     SSE   158   1.9      SE   129   9.10    268      -53.6
   09/02/2018 23:00      66.6      66.1       76     58.5      0.00      0.00      83.2     0.37      1013.3     0.8     SSE   161   2.3      SE   135   9.10    268      -60.6
   09/02/2018 22:50      66.7      66.2       75     58.4      0.00      0.00      83.3     0.37      1013.2     0.6       S   171   2.3      SE   145   9.10    268      -61.0
   09/02/2018 22:40      66.9      66.4       75     58.6      0.00      0.00      83.2     0.37      1013.2     1.5       S   173   2.8       S   174   9.10    268      -60.9
   09/02/2018 22:30      67.2      66.7       75     58.5      0.00      0.00      83.2     0.37      1013.2     1.0       S   183   2.3       S   187   9.10    268      -61.1
   09/02/2018 22:20      67.5      66.9       74     58.7      0.00      0.00      83.2     0.37      1013.1     0.3       S   178   1.3     SSW   199   9.10    268      -61.8
   09/02/2018 22:10      67.5      67.1       74     58.7      0.00      0.00      83.2     0.37      1013.1     1.5       S   190   3.4     SSW   202   9.11    268      -61.9
   09/02/2018 22:00      68.0      67.2       73     58.6      0.00      0.00      83.2     0.37      1013.2     0.7       S   187   1.7       S   189   9.11    268      -62.0
   09/02/2018 21:50      68.2      67.7       73     58.9      0.00      0.00      83.2     0.37      1013.1     0.9       S   171   1.8      SE   128   9.11    268      -62.5
   09/02/2018 21:40      68.3      67.8       73     59.0      0.00      0.00      83.3     0.37      1013.0     1.4     ESE   124   2.6      SE   138   9.11    268      -62.9
   09/02/2018 21:30      68.5      68.0       73     59.1      0.00      0.00      83.2     0.37      1012.9     1.5     SSE   152   3.6      SE   128   9.11    268      -63.4
   09/02/2018 21:20      68.9      68.2       72     59.1      0.00      0.00      83.2     0.37      1012.9     1.6     SSE   149   3.2      SE   136   9.11    268      -63.9
   09/02/2018 21:10      69.1      68.5       72     59.2      0.00      0.00      83.2     0.37      1012.7     0.8       S   183   3.4      SE   136   9.12    268      -64.4
   09/02/2018 21:00      69.2      68.6       72     59.4      0.00      0.00      83.2     0.37      1012.4     1.3     SSW   199   3.0      SW   222   9.12    268      -64.9
   09/02/2018 20:50      69.5      68.9       71     59.5      0.00      0.00      83.2     0.37      1012.3     1.7     SSW   196   3.5     SSW   198   9.12    268      -65.3
   09/02/2018 20:40      69.9      69.2       71     59.6      0.00      0.00      83.2     0.37      1012.1     1.7       S   191   3.9       S   190   9.12    267      -66.2
   09/02/2018 20:30      70.3      69.5       70     59.6      0.00      0.00      83.1     0.37      1011.9     2.1       S   176   3.4       S   176   9.12    267      -66.8
   09/02/2018 20:20      70.6      70.0       69     59.8      0.00      0.00      83.1     0.37      1011.8     2.0       S   177   3.3       S   185   9.12    267      -67.7
   09/02/2018 20:10      71.0      70.2       69     59.8      0.00      0.00      83.2     0.37      1011.6     2.5       S   180   4.9     SSE   163   9.12    267      -68.5
   09/02/2018 20:00      71.8      70.7       67     59.7      0.00      0.00      83.1     0.37      1011.4     2.6       S   190   4.8       S   191   9.13    267      -69.2
   09/02/2018 19:50      72.4      71.4       66     59.7      0.00      0.00      83.1     0.37      1011.2     2.1       S   176   4.5       S   186   9.13    266      -70.7
   09/02/2018 19:40      73.0      72.1       64     59.7      0.00      0.00      83.1     0.37      1011.2     2.4     SSE   163   4.3     SSE   155   9.13    266      -71.2
   09/02/2018 19:30      74.0      72.7       63     59.7      0.00      0.00      83.1     0.37      1010.9     3.1     SSE   160   5.6      SE   130   9.14    266      -71.2
   09/02/2018 19:20      74.5      73.5       61     59.7      0.00      0.00      83.0     0.37      1010.7     2.3     SSE   157   4.0     SSE   155   9.14    266      -69.5
   09/02/2018 19:10      75.5      74.3       59     59.7      0.00      0.00      83.0     0.37      1010.5     2.6     SSE   156   4.5     SSE   167   9.14    266      -64.9
   09/02/2018 19:00      75.9      75.1       58     59.7      0.00      0.00      82.9     0.37      1010.3     2.4     SSE   164   4.4      SE   142   9.14    266      -57.4
   09/02/2018 18:50      76.2      75.5       58     59.8      0.00      0.00      82.9     0.37      1010.3     3.4     SSE   150   6.0      SE   138   9.15    266      -44.9
   09/02/2018 18:40      76.7      75.9       57     59.8      0.00      0.00      82.9     0.37      1010.3     3.1     SSE   153   5.1       S   175   9.15    266      -30.1
   09/02/2018 18:30      77.2      76.4       56     59.8      0.00      0.00      82.8     0.37      1010.3     3.2       S   169   6.0      SE   144   9.16    266      -11.0
   09/02/2018 18:20      78.1      76.7       55     59.8      0.00      0.00      82.8     0.37      1010.3     3.9     SSE   164   7.7       S   184   9.16    266        9.9
   09/02/2018 18:10      78.4      77.8       53     59.8      0.00      0.00      82.8     0.37      1010.2     3.8       S   173   6.3       S   172   9.17    265       30.9
   09/02/2018 18:00      79.3      78.0       52     59.8      0.00      0.00      82.8     0.37      1010.2     4.5     SSE   150   7.4      SE   137   9.17    265       49.0
   09/02/2018 17:50      80.4      78.9       51     59.9      0.00      0.00      82.7     0.37      1010.1     4.0     SSE   169   6.1       S   179   9.18    265       78.6
   09/02/2018 17:40      80.8      80.0       50     59.9      0.00      0.00      82.6     0.37      1010.0     3.7       S   173   7.5     SSW   202   9.18    265      102.0
   09/02/2018 17:30      81.6      80.3       49     59.8      0.00      0.00      82.6     0.36      1009.9     4.6     SSE   155   7.7      SE   130   9.19    265      126.2
   09/02/2018 17:20      82.6      81.3       47     59.7      0.00      0.00      82.6     0.36      1009.9     4.4       S   169   7.9     SSW   196   9.19    265      151.3
   09/02/2018 17:10      83.8      82.3       46     59.9      0.00      0.00      82.6     0.36      1009.9     3.7       S   171   7.8       S   184   9.20    264      176.3
   09/02/2018 17:00      84.5      83.5       45     60.4      0.00      0.00      82.5     0.36      1009.8     3.2       E    88   6.1     ENE    71   9.20    264      200.9
   09/02/2018 16:50      85.1      84.1       44     60.4      0.00      0.00      82.4     0.36      1009.8     2.7       E    82   5.1      SE   136   9.21    264      223.5
   09/02/2018 16:40      85.4      84.3       43     60.0      0.00      0.00      82.4     0.36      1009.9     3.0     ENE    75   5.2     NNE    30   9.21    264      246.6
   09/02/2018 16:30      85.9      83.4       43     59.7      0.00      0.00      82.4     0.36      1009.8     3.0      NE    46   6.9      NE    48   9.21    264      269.7
   09/02/2018 16:20      84.8      83.8       43     59.3      0.00      0.00      82.3     0.36      1009.8     2.8     ESE   120   6.4      SE   132   9.22    264      296.5
   09/02/2018 16:10      85.2      83.8       42     59.2      0.00      0.00      82.3     0.36      1010.0     2.2       E    92   4.8      SE   132   9.22    264      316.7
   09/02/2018 16:00      85.4      84.8       42     59.3      0.00      0.00      82.2     0.36      1010.0     2.0      NE    43   4.1     NNE    22   9.22    264      336.0
   09/02/2018 15:50      85.1      83.7       43     59.2      0.00      0.00      82.2     0.36      1010.1     2.4     NNW   333   4.8       N     0   9.22    264      357.4
   09/02/2018 15:40      84.3      82.7       44     59.3      0.00      0.00      82.1     0.36      1010.3     1.9      NE    43   5.7      SE   131   9.23    265      379.9
   09/02/2018 15:30      84.5      83.3       43     59.4      0.00      0.00      82.1     0.36      1010.4     2.4      NE    40   5.4       N    10   9.23    265      394.9
   09/02/2018 15:20      83.6      81.3       46     59.3      0.00      0.00      82.0     0.36      1010.5     2.9     WNW   285   6.6     SSW   210   9.23    265      415.0
   09/02/2018 15:10      81.8      80.7       48     59.4      0.00      0.00      82.0     0.36      1010.6     2.2     SSE   158   4.8     WSW   245   9.23    265      431.4
   09/02/2018 15:00      80.8      79.5       49     59.4      0.00      0.00      82.0     0.36      1010.8     4.0      SE   134   9.7     ESE   120   9.23    265      447.3
   09/02/2018 14:50      81.3      80.3       48     59.6      0.00      0.00      81.9     0.36      1010.9     3.2     SSE   167   7.1     SSE   163   9.24    264      460.3
   09/02/2018 14:40      81.0      79.7       49     59.7      0.00      0.00      81.8     0.36      1011.1     3.1     SSE   166   6.9      SE   141   9.24    265      473.8
   09/02/2018 14:30      82.6      79.3       49     59.6      0.00      0.00      81.8     0.36      1011.3     4.1      SE   146   7.5     ESE   122   9.24    264      485.6
   09/02/2018 14:20      82.5      80.5       48     59.8      0.00      0.00      81.8     0.36      1011.4     2.3      NE    52   5.7     ESE   107   9.25    264      491.0
   09/02/2018 14:10      80.8      80.1       49     59.7      0.00      0.00      81.7     0.36      1011.6     3.1     ENE    62   6.2      NE    41   9.25    264      501.6
   09/02/2018 14:00      81.1      79.7       49     59.6      0.00      0.00      81.7     0.36      1011.7     3.3      NE    43   6.8     NNE    25   9.25    265      511.7
   09/02/2018 13:50      80.6      79.8       50     59.5      0.00      0.00      81.7     0.36      1011.7     3.6       E    82   8.8     ENE    77   9.25    264      522.3
   09/02/2018 13:40      80.5      79.4       50     59.5      0.00      0.00      81.6     0.36      1011.8     2.5     ENE    63   4.6      NE    45   9.25    264      529.1
   09/02/2018 13:30      80.7      79.6       49     59.4      0.00      0.00      81.6     0.36      1011.8     3.7     ENE    68   7.2     ENE    57   9.25    264      532.6
   09/02/2018 13:20      80.6      79.9       49     59.1      0.00      0.00      81.6     0.36      1011.9     3.7      NE    51   6.7     NNE    14   9.26    264      536.3
   09/02/2018 13:10      80.2      79.3       49     59.0      0.00      0.00      81.6     0.36      1012.0     3.4      NE    43   5.4     ENE    64   9.26    265      540.9
   09/02/2018 13:00      79.9      79.1       50     58.9      0.00      0.00      81.6     0.36      1012.1     3.6     ENE    71   6.6      NE    51   9.26    264      543.9
   09/02/2018 12:50      80.3      78.9       49     58.9      0.00      0.00      81.6     0.36      1012.1     4.2     ENE    57   7.1      NE    39   9.26    265      545.3
   09/02/2018 12:40      80.1      78.4       50     58.8      0.00      0.00      81.6     0.36      1012.1     3.9      NE    37   7.6     ENE    60   9.26    265      544.4
   09/02/2018 12:30      79.5      78.2       50     58.6      0.00      0.00      81.5     0.36      1012.1     3.3      NE    51   6.1     NNE    27   9.26    265      544.5
   09/02/2018 12:20      79.5      78.0       50     58.4      0.00      0.00      81.6     0.36      1012.2     3.6     ENE    67   7.0     ENE    75   9.26    265      540.9
   09/02/2018 12:10      79.4      78.0       50     58.4      0.00      0.00      81.6     0.36      1012.2     2.4      NE    38   5.2     ESE   105   9.27    265      539.1
   09/02/2018 12:00      78.6      77.4       51     58.3      0.00      0.00      81.6     0.36      1012.2     2.7     NNE    18   5.1       N     0   9.27    266      534.8
   09/02/2018 11:50      77.9      76.9       52     58.2      0.00      0.00      81.6     0.36      1012.3     3.1      NE    35   6.1     NNW   347   9.27    265      529.9
   09/02/2018 11:40      77.7      75.3       53     58.2      0.00      0.00      81.6     0.36      1012.3     2.4       N     6   7.6       N   355   9.27    265      522.8
   09/02/2018 11:30      76.2      75.1       55     58.0      0.00      0.00      81.6     0.36      1012.3     2.4      NE    38   6.3       E    87   9.27    266      515.8
   09/02/2018 11:20      76.5      75.2       54     58.1      0.00      0.00      81.6     0.36      1012.5     2.9     ENE    63   5.9     SSE   149   9.27    265      505.3
   09/02/2018 11:10      75.5      74.4       55     57.8      0.00      0.00      81.7     0.36      1012.6     2.3     ENE    56   5.7     NNE    24   9.27    266      495.9
   09/02/2018 11:00      75.5      74.0       55     57.8      0.00      0.00      81.7     0.36      1012.5     2.4     ENE    62   6.8      NE    50   9.27    266      482.9
   09/02/2018 10:50      74.0      72.5       58     57.8      0.00      0.00      81.6     0.36      1012.5     2.7     NNE    28   6.2      NE    49   9.27    266      470.6
   09/02/2018 10:40      73.8      73.3       58     57.7      0.00      0.00      81.7     0.36      1012.6     2.6     NNE    24   4.6      NE    52   9.27    266      458.8
   09/02/2018 10:30      73.8      72.2       58     57.5      0.00      0.00      81.7     0.36      1012.6     2.0      NE    47   4.7     NNE    31   9.27    266      411.7
   09/02/2018 10:20      72.4      71.3       60     57.4      0.00      0.00      81.7     0.36      1012.7     2.8     ENE    72   4.8     ESE   115   9.27    266      442.8
   09/02/2018 10:10      72.1      70.7       61     57.3      0.00      0.00      81.8     0.36      1012.7     2.8      NE    46   5.2      NE    52   9.27    266      403.6
   09/02/2018 10:00      70.6      69.8       63     57.1      0.00      0.00      81.8     0.37      1012.6     0.8     ESE   112   3.7       E   101   9.27    267      295.9
   09/02/2018 09:50      70.0      69.1       65     57.1      0.00      0.00      81.8     0.37      1012.6     2.0     ENE    72   4.1      SE   133   9.27    266      229.9
   09/02/2018 09:40      69.4      68.1       66     57.1      0.00      0.00      81.9     0.37      1012.6     1.7     ESE   104   4.5       E   100   9.27    267      197.2
   09/02/2018 09:30      68.8      68.1       67     57.1      0.00      0.00      81.8     0.37      1012.6     1.9     ESE   112   6.5     ENE    76   9.27    267      171.9
   09/02/2018 09:20      68.3      67.6       69     57.1      0.00      0.00      81.9     0.37      1012.6     2.3     ESE   113   5.5      SE   141   9.28    267      135.8
   09/02/2018 09:10      68.3      67.8       68     57.3      0.00      0.00      81.9     0.37      1012.7     2.2       E    95   4.6      SE   142   9.28    268      108.8
   09/02/2018 09:00      68.2      67.4       70     57.3      0.00      0.00      81.9     0.37      1012.5     1.3       E    81   3.3       E    99   9.28    268       88.6
   09/02/2018 08:50      67.8      66.6       71     57.4      0.00      0.00      81.9     0.37      1012.4     1.4       E    80   2.6       E    88   9.28    268       80.0
   09/02/2018 08:40      66.9      66.3       72     57.3      0.00      0.00      82.0     0.37      1012.4     2.1       E   100   5.4      SE   130   9.28    268       66.3
   09/02/2018 08:30      66.8      66.1       73     57.4      0.00      0.00      82.0     0.37      1012.4     1.8       E    98   4.8     ENE    79   9.28    268       54.3
   09/02/2018 08:20      66.5      66.1       73     57.6      0.00      0.00      82.0     0.37      1012.4     2.3       E    95   4.8     ESE   112   9.28    268       43.5
   09/02/2018 08:10      66.4      65.9       74     57.6      0.00      0.00      82.0     0.37      1012.4     2.2      SE   124   3.7     ESE   121   9.28    268       28.7
   09/02/2018 08:00      66.3      65.9       74     57.8      0.00      0.00      82.0     0.37      1012.4     1.4       E    97   3.5      SE   137   9.28    268       18.8
   09/02/2018 07:50      66.1      65.6       75     57.8      0.00      0.00      82.0     0.37      1012.4     1.0     ESE   112   3.3      SE   143   9.28    268       11.5
   09/02/2018 07:40      65.8      65.5       76     57.9      0.00      0.00      82.1     0.37      1012.4     1.8     ESE   109   4.6      SE   140   9.28    268        7.6
   09/02/2018 07:30      65.7      65.4       76     57.9      0.00      0.00      82.1     0.37      1012.4     2.2     ESE   120   4.3      SE   130   9.28    268        1.4
   09/02/2018 07:20      65.8      65.3       77     58.2      0.00      0.00      82.1     0.37      1012.2     2.4     ESE   122   4.9     ESE   109   9.28    269       -3.4
   09/02/2018 07:10      65.8      65.3       78     58.5      0.00      0.00      82.1     0.37      1012.0     1.8     ESE   103   4.9     SSW   207   9.28    269       -6.1
   09/02/2018 07:00      65.6      65.3       79     58.8      0.00      0.00      82.2     0.37      1011.8     1.1     ESE   104   3.4       E    99   9.28    269       -8.2
   09/02/2018 06:50      65.6      65.2       79     58.8      0.00      0.00      82.2     0.37      1011.8     1.5       E    91   3.5     ESE   108   9.28    269      -10.3
   09/02/2018 06:40      65.7      65.2       80     58.9      0.00      0.00      82.2     0.37      1011.8     2.2     ESE   108   3.6      SE   127   9.28    269      -11.5
   09/02/2018 06:30      66.1      65.3       79     59.0      0.00      0.00      82.2     0.37      1011.6     2.1       E    85   5.1      SE   140   9.28    269      -12.7
   09/02/2018 06:20      66.1      65.6       78     58.7      0.00      0.00      82.2     0.37      1011.5     2.2     ENE    74   3.9      NE    44   9.28    269      -13.1
   09/02/2018 06:10      66.2      65.6       77     58.5      0.00      0.00      82.2     0.37      1011.4     1.7       E    85   3.7      NE    53   9.28    269      -13.4
   09/02/2018 06:00      66.2      65.8       78     58.8      0.00      0.00      82.3     0.37      1011.3     2.4     ESE   121   5.3      SE   125   9.28    269      -13.9
   09/02/2018 05:50      66.3      65.8       78     58.9      0.00      0.00      82.3     0.37      1011.3     2.3     ESE   115   5.4     ENE    71   9.28    269      -13.8
   09/02/2018 05:40      66.3      65.9       79     59.2      0.00      0.00      82.4     0.37      1011.3     1.5     ESE   121   3.8     ENE    59   9.29    269      -13.8
   09/02/2018 05:30      66.4      65.9       79     59.4      0.00      0.00      82.4     0.37      1011.3     1.8       E    83   4.1     ESE   112   9.29    269      -13.6
   09/02/2018 05:20      66.5      65.9       79     59.5      0.00      0.00      82.4     0.37      1011.2     1.5     ESE   116   3.7     ESE   107   9.29    269      -13.3
   09/02/2018 05:10      66.4      66.0       79     59.5      0.00      0.00      82.4     0.37      1011.0     1.1       E    86   3.6       E    86   9.29    269      -13.2
   09/02/2018 05:00      66.6      66.1       79     59.8      0.00      0.00      82.5     0.37      1010.8     2.3       E    86   4.4     ENE    71   9.29    269      -13.0
   09/02/2018 04:50      66.7      66.3       80     60.0      0.00      0.00      82.4     0.37      1010.7     1.4     ESE   103   3.9       E    82   9.29    269      -13.1
   09/02/2018 04:40      66.7      66.4       80     60.2      0.00      0.00      82.5     0.37      1010.7     1.0     ENE    71   2.7     ENE    77   9.29    269      -12.8
   09/02/2018 04:30      66.8      66.4       80     60.3      0.00      0.00      82.5     0.37      1010.6     1.0     ENE    61   2.7       E    87   9.29    269      -12.8
   09/02/2018 04:20      66.9      66.4       80     60.3      0.00      0.00      82.5     0.37      1010.5     1.8     ENE    60   4.3     ENE    67   9.29    269      -12.7
   09/02/2018 04:10      66.9      66.5       80     60.4      0.00      0.00      82.5     0.37      1010.6     1.4     ENE    73   2.8      NE    53   9.29    269      -12.5
   09/02/2018 04:00      66.9      66.4       81     60.5      0.00      0.00      82.6     0.37      1010.5     0.5     ENE    71   1.8      NE    51   9.29    269      -12.3
   09/02/2018 03:50      66.7      66.4       80     60.4      0.00      0.00      82.7     0.37      1010.5     1.0       E    83   3.1     ENE    69   9.29    269      -12.4
   09/02/2018 03:40      66.7      66.3       81     60.3      0.00      0.00      82.6     0.37      1010.4     0.5     SSW   195   1.7       S   184   9.29    269      -12.5
   09/02/2018 03:30      66.5      66.1       81     60.4      0.00      0.00      82.7     0.37      1010.4     1.1      SE   126   2.8     ESE   101   9.29    269      -12.2
   09/02/2018 03:20      66.4      66.1       81     60.4      0.00      0.00      82.6     0.37      1010.3     2.1      SE   145   5.3      SE   139   9.29    269      -12.2
   09/02/2018 03:10      66.4      66.1       81     60.4      0.00      0.00      82.7     0.37      1010.3     1.8     SSE   158   3.7     SSW   200   9.29    269      -12.3
   09/02/2018 03:00      66.4      66.1       82     60.4      0.00      0.00      82.8     0.37      1010.3     1.6      SE   142   3.9     SSE   159   9.29    269      -12.2
   09/02/2018 02:50      66.4      65.9       82     60.4      0.00      0.00      82.8     0.37      1010.3     1.0     SSE   154   2.8       S   178   9.29    269      -12.2
   09/02/2018 02:40      66.2      65.8       82     60.2      0.00      0.00      82.8     0.37      1010.2     0.2     SSE   149   1.2     SSW   193   9.29    269      -12.2
   09/02/2018 02:30      66.1      65.5       82     60.1      0.00      0.00      82.8     0.37      1010.2     0.7       S   176   2.1       S   190   9.29    269      -11.9
   09/02/2018 02:20      65.8      65.3       82     60.0      0.00      0.00      82.9     0.37      1010.1     1.2     SSW   195   2.5     SSW   199   9.29    268      -11.6
   09/02/2018 02:10      65.7      65.3       82     60.0      0.00      0.00      82.9     0.37      1010.1     1.3       S   175   2.8     SSW   194   9.29    268      -11.9
   09/02/2018 02:00      65.6      65.2       82     59.9      0.00      0.00      82.9     0.37      1010.1     1.8     SSW   203   3.5      SW   229   9.29    268      -12.1
   09/02/2018 01:50      65.6      65.2       82     59.5      0.00      0.00      83.0     0.37      1010.2     2.1     SSW   206   3.0     SSW   204   9.29    268      -12.9
   09/02/2018 01:40      65.5      65.0       82     59.5      0.00      0.00      82.9     0.37      1010.2     1.2       S   172   2.5       S   187   9.30    268      -13.1
   09/02/2018 01:30      65.2      64.5       83     59.6      0.00      0.00      83.0     0.37      1010.2     0.7     SSE   156   2.0      SE   139   9.30    268      -15.0
   09/02/2018 01:20      64.8      64.3       84     59.6      0.00      0.00      83.0     0.37      1010.1     0.2     SSE   161   0.9       S   183   9.30    267      -20.0
   09/02/2018 01:10      65.2      64.3       83     59.4      0.00      0.00      83.0     0.37      1010.0     0.0       N     0   0.0       E   100   9.30    262      -39.4
   09/02/2018 01:00      65.3      64.8       83     59.7      0.00      0.00      83.0     0.37      1010.0     0.0     ESE   102   1.1       E    99   9.30    256      -56.5
   09/02/2018 00:50      65.6      65.0       82     59.8      0.00      0.00      83.0     0.37      1010.1     0.4     ESE   118   1.4     ESE   107   9.30    257      -57.5
   09/02/2018 00:40      65.7      65.3       82     59.9      0.00      0.00      83.0     0.37      1010.1     0.2     ESE   105   1.4     ENE    74   9.30    259      -58.2
   09/02/2018 00:30      66.0      65.4       81     59.6      0.00      0.00      83.0     0.37      1010.1     0.2       E    95   2.1       E    83   9.30    258      -58.9
   09/02/2018 00:20      66.1      65.6       81     59.7      0.00      0.00      83.1     0.37      1010.2     0.0     ESE   104   1.0     ESE   114   9.30    259      -59.9
   09/02/2018 00:10      66.2      65.8       81     59.9      0.00      0.00      83.1     0.37      1010.2     0.8     ESE   105   2.3       E    82   9.30    261      -60.2
   09/02/2018 00:00      66.3      65.8       80     59.6      0.00      0.00      83.1     0.37      1010.2     0.8     ESE   124   2.0       E    92   9.30    263      -60.2
   09/01/2018 23:50      66.6      65.9       79     59.4      0.00      0.00      83.1     0.37      1010.2     0.0       N     0   0.0     ESE   103   9.30    260      -61.0
   09/01/2018 23:40      66.7      66.1       78     59.5      0.00      0.00      83.1     0.37      1010.2     0.0     ESE   103   0.1     ESE   103   9.31    260      -61.7
   09/01/2018 23:30      67.3      66.4       78     59.6      0.00      0.00      83.1     0.37      1010.3     0.0     ESE   103   0.8     ESE   103   9.31    263      -62.0
   09/01/2018 23:20      67.5      66.9       77     59.9      0.00      0.00      83.1     0.37      1010.3     0.3       E    99   1.9     ESE   113   9.31    268      -61.8
   09/01/2018 23:10      67.5      67.1       77     59.9      0.00      0.00      83.1     0.37      1010.4     0.8       E    97   2.3     ENE    77   9.31    268      -61.3
   09/01/2018 23:00      67.9      67.1       76     59.7      0.00      0.00      83.1     0.37      1010.4     0.3     ESE   103   1.5     ENE    68   9.31    268      -61.6
   09/01/2018 22:50      68.1      67.6       76     60.0      0.00      0.00      83.1     0.37      1010.4     0.5     ENE    72   2.0      NE    44   9.31    268      -62.1
   09/01/2018 22:40      68.0      67.6       76     59.9      0.00      0.00      83.1     0.37      1010.3     1.1       E    94   2.3       E    79   9.31    268      -62.1
   09/01/2018 22:30      68.5      67.7       75     59.8      0.00      0.00      83.1     0.37      1010.4     0.3       E    99   1.4     ESE   105   9.31    268      -62.8
   09/01/2018 22:20      68.6      68.1       74     59.8      0.00      0.00      83.2     0.37      1010.3     0.2     ENE    60   1.0     ENE    60   9.31    268      -64.0
   09/01/2018 22:10      69.0      68.3       74     60.0      0.00      0.00      83.2     0.37      1010.2     0.3     ENE    62   1.3      NE    53   9.31    268      -64.3
   09/01/2018 22:00      69.1      68.6       74     60.1      0.00      0.00      83.2     0.37      1010.2     0.5     ENE    68   1.6     ENE    59   9.32    268      -64.2
   09/01/2018 21:50      69.5      68.8       73     60.2      0.00      0.00      83.1     0.37      1010.2     0.9     ENE    65   2.1      NE    35   9.32    268      -64.3
   09/01/2018 21:40      69.6      69.1       73     60.2      0.00      0.00      83.1     0.37      1010.2     1.6      NE    54   3.8      NE    47   9.32    268      -64.8
   09/01/2018 21:30      70.1      69.4       72     60.1      0.00      0.00      83.1     0.37      1010.2     1.4     ENE    61   2.8      NE    52   9.32    268      -64.9
   09/01/2018 21:20      70.3      69.7       71     60.1      0.00      0.00      83.1     0.37      1010.1     1.2     ENE    59   2.6      NE    48   9.32    268      -65.1
   09/01/2018 21:10      70.6      70.0       71     60.3      0.00      0.00      83.1     0.37      1010.1     0.6     ENE    65   1.7      NE    47   9.32    268      -65.5
   09/01/2018 21:00      71.0      70.3       70     60.2      0.00      0.00      83.1     0.37      1009.9     0.6     ENE    73   2.0       E    88   9.33    267      -65.8
   09/01/2018 20:50      71.4      70.7       69     60.2      0.00      0.00      83.1     0.37      1009.8     0.3       E    83   1.4      SE   129   9.33    267      -66.0
   09/01/2018 20:40      71.7      71.0       68     60.3      0.00      0.00      83.1     0.37      1009.6     1.1     ENE    64   2.3     ENE    59   9.33    267      -66.6
   09/01/2018 20:30      72.2      71.5       67     60.1      0.00      0.00      83.0     0.37      1009.4     1.0     ENE    56   2.7     ENE    57   9.33    266      -68.0
   09/01/2018 20:20      72.8      71.9       65     59.9      0.00      0.00      83.1     0.37      1009.3     0.8      SE   135   2.6      SE   136   9.33    266      -68.7
   09/01/2018 20:10      73.5      72.5       64     60.0      0.00      0.00      83.0     0.37      1009.1     1.3     ESE   117   4.2     SSE   151   9.33    266      -69.6
   09/01/2018 20:00      74.0      73.2       63     60.0      0.00      0.00      83.0     0.37      1009.0     1.4     ENE    71   3.6       E    86   9.34    266      -70.4
   09/01/2018 19:50      74.1      73.7       62     59.9      0.00      0.00      83.0     0.37      1009.0     0.1      SE   128   1.0     ENE    58   9.34    266      -71.8
   09/01/2018 19:40      74.5      73.9       61     59.9      0.00      0.00      83.0     0.37      1008.9     1.0     SSE   166   2.3     SSW   198   9.34    266      -72.4
   09/01/2018 19:30      74.5      74.1       60     59.7      0.00      0.00      82.9     0.37      1008.8     1.0     SSE   165   2.7     SSE   158   9.34    266      -72.6
   09/01/2018 19:20      75.2      74.2       60     59.8      0.00      0.00      82.8     0.37      1008.7     2.6       S   175   5.3     SSW   203   9.34    266      -69.5
   09/01/2018 19:10      75.9      74.8       59     60.0      0.00      0.00      82.9     0.37      1008.6     3.1       S   185   5.8     SSW   198   9.35    266      -63.3
   09/01/2018 19:00      76.5      75.7       58     60.1      0.00      0.00      82.8     0.37      1008.6     3.0       S   179   4.7       S   187   9.35    266      -52.5
   09/01/2018 18:50      77.1      76.3       57     60.2      0.00      0.00      82.8     0.37      1008.6     3.1       S   176   5.1       S   171   9.35    266      -34.3
   09/01/2018 18:40      78.1      76.7       56     60.4      0.00      0.00      82.8     0.37      1008.6     3.7     SSE   163   6.2      SE   145   9.36    266      -20.5
   09/01/2018 18:30      78.5      77.7       55     60.4      0.00      0.00      82.7     0.37      1008.5     3.0     SSE   154   6.1      SE   142   9.36    265        4.4
   09/01/2018 18:20      78.9      78.3       54     60.4      0.00      0.00      82.7     0.37      1008.5     3.4       S   170   6.5     SSW   198   9.37    265       29.8
   09/01/2018 18:10      80.1      78.7       52     60.3      0.00      0.00      82.6     0.37      1008.4     4.1       S   176   7.1     SSW   193   9.37    265       50.6
   09/01/2018 18:00      80.5      79.9       51     60.2      0.00      0.00      82.6     0.37      1008.3     3.5       S   181   5.8     SSW   203   9.37    265       27.2
   09/01/2018 17:50      81.1      80.2       49     60.1      0.00      0.00      82.6     0.37      1008.3     3.8       S   177   6.2      SW   223   9.38    265       40.7
   09/01/2018 17:40      81.8      80.8       48     60.0      0.00      0.00      82.5     0.37      1008.3     4.4      SW   215   6.7     WSW   238   9.38    264       86.4
   09/01/2018 17:30      82.3      81.3       47     59.8      0.00      0.00      82.5     0.37      1008.3     4.1     SSW   204   6.7     SSW   201   9.39    264      124.1
   09/01/2018 17:20      82.2      81.7       47     59.8      0.00      0.00      82.4     0.37      1008.2     3.6       S   186   6.2       S   182   9.39    264      160.7
   09/01/2018 17:10      82.5      81.6       47     59.8      0.00      0.00      82.3     0.37      1008.3     4.2       S   177   8.1       S   177   9.40    264      183.4
   09/01/2018 17:00      82.6      81.7       46     59.5      0.00      0.00      82.3     0.37      1008.2     4.7       S   182   8.2       S   188   9.40    264      211.0
   09/01/2018 16:50      83.0      82.4       45     59.5      0.00      0.00      82.3     0.37      1008.2     4.5       S   187   7.2     SSW   205   9.41    264      234.9
   09/01/2018 16:40      83.8      82.6       45     59.5      0.00      0.00      82.2     0.37      1008.2     5.3     SSW   204   7.8     SSW   211   9.41    264      258.3
   09/01/2018 16:30      84.1      83.1       44     59.5      0.00      0.00      82.2     0.37      1008.3     3.5       S   182   7.7     SSW   207   9.41    264      278.5
   09/01/2018 16:20      83.9      83.3       44     59.5      0.00      0.00      82.1     0.37      1008.4     3.9       S   169   6.6     SSE   163   9.42    264      296.7
   09/01/2018 16:10      83.7      82.1       45     59.3      0.00      0.00      82.0     0.37      1008.3     3.9       S   176   8.3     SSW   194   9.42    264      325.4
   09/01/2018 16:00      82.8      81.9       46     59.2      0.00      0.00      82.0     0.37      1008.4     4.8       S   191   8.8       S   180   9.42    264      349.8
   09/01/2018 15:50      83.5      82.1       45     59.4      0.00      0.00      81.9     0.37      1008.4     5.6       S   170   9.5     SSW   206   9.43    264      336.0
   09/01/2018 15:40      83.6      82.2       45     59.5      0.00      0.00      81.9     0.37      1008.4     4.8     SSE   149   9.3       S   180   9.43    264      377.6
   09/01/2018 15:30      83.4      82.1       45     59.6      0.00      0.00      81.8     0.37      1008.5     5.6       S   182  10.4     SSW   193   9.44    264      406.5
   09/01/2018 15:20      83.9      83.0       45     59.8      0.00      0.00      81.8     0.37      1008.5     5.0     SSE   166   9.4     SSE   158   9.44    264      419.3
   09/01/2018 15:10      85.7      83.7       43     60.0      0.00      0.00      81.7     0.37      1008.7     4.4     SSE   159  10.1       S   172   9.44    264      431.6
   09/01/2018 15:00      85.6      84.7       43     60.2      0.00      0.00      81.7     0.37      1008.9     2.7       E    96   5.5     ESE   111   9.45    264      445.1
   09/01/2018 14:50      85.5      83.5       44     60.3      0.00      0.00      81.5     0.37      1008.9     3.1     ENE    62   7.1       E    82   9.45    264      456.5
   09/01/2018 14:40      86.2      84.8       43     60.3      0.00      0.00      81.6     0.37      1009.0     3.1       E    89   5.9     ENE    67   9.45    264      469.9
   09/01/2018 14:30      85.7      84.8       43     60.0      0.00      0.00      81.5     0.37      1009.1     3.1      NE    53   5.2       N     7   9.45    264      478.2
   09/01/2018 14:20      85.5      84.5       43     60.0      0.00      0.00      81.5     0.37      1009.2     3.1     ENE    70   6.4       E    86   9.46    264      489.9
   09/01/2018 14:10      85.4      83.0       44     59.8      0.00      0.00      81.4     0.37      1009.4     2.9       E   100   8.0      SE   142   9.46    264      501.1
   09/01/2018 14:00      84.9      84.3       43     59.6      0.00      0.00      81.4     0.36      1009.5     2.8     ENE    73   5.3     ESE   123   9.46    264      507.8
   09/01/2018 13:50      84.6      83.7       43     59.2      0.00      0.00      81.4     0.36      1009.6     2.5     ENE    78   5.6     ENE    60   9.46    264      517.2
   09/01/2018 13:40      84.5      82.5       44     59.1      0.00      0.00      81.3     0.36      1009.7     2.6     NNE    27   6.6      NE    41   9.46    264      521.8
   09/01/2018 13:30      83.2      82.4       44     58.8      0.00      0.00      81.3     0.36      1009.7     3.0     NNE    27   5.4       E    88   9.46    264      529.3
   09/01/2018 13:20      83.6      82.6       44     58.7      0.00      0.00      81.3     0.36      1009.9     2.4     WNW   302   6.0      NW   313   9.46    264      533.6
   09/01/2018 13:10      83.3      82.4       44     58.9      0.00      0.00      81.3     0.36      1010.0     3.0      NE    46   5.8      NE    50   9.46    264      537.0
   09/01/2018 13:00      83.0      81.5       44     58.7      0.00      0.00      81.3     0.36      1010.1     2.2     ENE    64   5.3     ENE    69   9.46    264      541.1
   09/01/2018 12:50      82.1      81.0       46     58.6      0.00      0.00      81.2     0.36      1010.2     2.0      NE    56   5.6      NE    36   9.46    264      542.1
   09/01/2018 12:40      82.4      80.9       46     58.9      0.00      0.00      81.2     0.36      1010.5     2.7       N   357   5.0       N     4   9.46    264      541.4
   09/01/2018 12:30      81.6      80.6       47     59.1      0.00      0.00      81.2     0.36      1010.5     2.4     NNE    26   5.3     ESE   120   9.47    264      541.9
   09/01/2018 12:20      80.8      78.5       49     59.0      0.00      0.00      81.2     0.36      1010.6     2.0      NE    47   5.8      NE    52   9.47    264      541.6
   09/01/2018 12:10      80.1      78.4       50     59.0      0.00      0.00      81.2     0.36      1010.7     3.7     NNE    23   7.3     ENE    63   9.47    265      537.6
   09/01/2018 12:00      80.0      78.3       50     59.1      0.00      0.00      81.2     0.36      1010.8     2.0     ENE    68   6.0     NNW   342   9.47    264      534.9
   09/01/2018 11:50      78.8      77.4       52     59.1      0.00      0.00      81.2     0.36      1010.9     3.2      NE    39   6.0     NNE    27   9.47    264      527.9
   09/01/2018 11:40      77.6      76.5       54     59.1      0.00      0.00      81.3     0.36      1011.0     2.6     NNE    13   5.4       N     9   9.47    264      522.5
   09/01/2018 11:30      77.5      76.5       54     59.2      0.00      0.00      81.3     0.36      1011.0     3.1      NE    40   6.9       E    95   9.47    264      514.3
   09/01/2018 11:20      76.8      75.3       55     59.2      0.00      0.00      81.3     0.37      1011.2     2.6      NE    42   5.0       N     8   9.47    265      506.5
   09/01/2018 11:10      76.2      75.2       57     59.2      0.00      0.00      81.3     0.37      1011.4     3.6     NNE    33   5.7      NE    34   9.47    265      493.9
   09/01/2018 11:00      76.1      74.4       58     59.4      0.00      0.00      81.3     0.37      1011.5     3.2     NNE    22   6.3     NNE    27   9.47    265      480.6
   09/01/2018 10:50      74.8      74.0       59     59.2      0.00      0.00      81.4     0.37      1011.5     3.5     NNE    30   6.8      NE    44   9.47    266      468.5
   09/01/2018 10:40      74.5      73.5       60     59.4      0.00      0.00      81.4     0.37      1011.6     3.0      NE    41   5.6      NE    42   9.47    265      453.0
   09/01/2018 10:30      73.9      73.3       61     59.2      0.00      0.00      81.5     0.37      1011.5     3.1     NNE    34   5.7      NE    45   9.47    266      435.1
   09/01/2018 10:20      73.5      72.5       62     59.4      0.00      0.00      81.4     0.37      1011.5     3.3      NE    39   5.4     NNE    34   9.47    266      419.9
   09/01/2018 10:10      72.8      72.2       63     59.3      0.00      0.00      81.5     0.37      1011.5     3.5      NE    51   6.2     NNE    31   9.47    266      404.8
   09/01/2018 10:00      72.8      71.3       65     59.4      0.00      0.00      81.5     0.37      1011.5     2.9      NE    38   5.9     ENE    63   9.47    266      387.2
   09/01/2018 09:50      71.6      70.7       66     59.4      0.00      0.00      81.6     0.37      1011.6     3.0      NE    35   5.2     ENE    68   9.47    266      365.4
   09/01/2018 09:40      72.1      71.3       65     59.4      0.00      0.00      81.6     0.37      1011.5     3.0      NE    37   5.5      NE    42   9.47    265      348.7
   09/01/2018 09:30      71.9      70.4       66     59.3      0.00      0.00      81.6     0.37      1011.5     2.2      NE    37   4.7     NNE    24   9.47    266      328.3
   09/01/2018 09:20      70.8      70.2       65     58.2      0.00      0.00      81.7     0.37      1011.4     1.9      NE    40   3.6     NNE    17   9.47    266      241.3
   09/01/2018 09:10      71.1      70.2       63     57.4      0.00      0.00      81.7     0.37      1011.3     1.9     NNE    26   3.5     NNE    26   9.47    266      264.4
   09/01/2018 09:00      71.1      69.3       62     56.7      0.00      0.00      81.7     0.37      1011.3     0.8     NNE    25   4.3     NNE    16   9.47    266      260.0
   09/01/2018 08:50      69.3      67.4       66     56.5      0.00      0.00      81.8     0.37      1011.3     0.9       N   355   2.4       N   349   9.47    266      247.5
   09/01/2018 08:40      67.8      67.2       68     56.4      0.00      0.00      81.9     0.37      1011.3     2.2       N    10   4.5       N   353   9.47    266      213.1
   09/01/2018 08:30      68.9      67.6       65     56.2      0.00      0.00      81.9     0.37      1011.2     2.1     NNW   340   3.9       N     3   9.47    266      188.1
   09/01/2018 08:20      69.0      68.2       65     56.3      0.00      0.00      82.0     0.37      1011.1     0.5     SSE   150   1.8      SE   140   9.47    266      166.4
   09/01/2018 08:10      68.3      66.6       68     56.4      0.00      0.00      82.0     0.37      1011.2     0.1     SSE   162   0.9      SE   138   9.47    268      135.5
   09/01/2018 08:00      66.7      64.5       71     56.0      0.00      0.00      82.1     0.37      1011.1     0.3     NNE    31   1.3       N   355   9.47    268      106.1
   09/01/2018 07:50      64.6      63.6       73     55.5      0.00      0.00      82.1     0.37      1011.0     0.3       N     5   1.7     NNE    25   9.47    269       57.5
   09/01/2018 07:40      63.8      62.1       75     54.9      0.00      0.00      82.1     0.37      1010.9     0.1       N     9   0.9     NNE    17   9.47    269       36.9
   09/01/2018 07:30      62.3      60.5       76     53.6      0.00      0.00      82.2     0.37      1010.9     0.0       N     0   0.0     ESE   112   9.47    269        3.7
   09/01/2018 07:20      60.7      59.7       78     53.1      0.00      0.00      82.2     0.37      1010.9     0.1     ESE   112   0.6     ESE   112   9.47    268      -22.2
   09/01/2018 07:10      59.7      58.5       79     52.7      0.00      0.00      82.3     0.37      1010.9     0.9     SSW   198   1.9     WSW   247   9.47    268      -31.6
   09/01/2018 07:00      58.6      58.1       80     52.3      0.00      0.00      82.3     0.37      1010.8     0.0      SE   132   1.1      SE   125   9.47    268      -37.2
   09/01/2018 06:50      58.4      58.0       80     51.9      0.00      0.00      82.4     0.37      1010.7     0.6      SE   131   1.2      SE   136   9.47    263      -44.7
   09/01/2018 06:40      58.5      57.9       80     52.1      0.00      0.00      82.4     0.37      1010.7     0.8       S   190   2.0       S   188   9.47    267      -49.2
   09/01/2018 06:30      58.2      57.6       81     52.1      0.00      0.00      82.4     0.37      1010.6     0.3     SSW   201   1.6     SSW   197   9.47    262      -52.5
   09/01/2018 06:20      58.3      57.5       80     51.7      0.00      0.00      82.5     0.37      1010.4     0.0     ESE   123   0.8     ESE   123   9.48    264      -55.6
   09/01/2018 06:10      58.4      57.9       80     51.9      0.00      0.00      82.5     0.37      1010.3     0.0     ESE   123   0.0     ESE   123   9.48    263      -56.6
   09/01/2018 06:00      58.6      58.1       78     51.5      0.00      0.00      82.5     0.37      1010.3     0.3       S   170   1.5       S   180   9.48    262      -57.2
   09/01/2018 05:50      59.0      58.4       77     51.7      0.00      0.00      82.6     0.37      1010.3     0.9       S   180   1.6     SSW   195   9.48    264      -57.7
   09/01/2018 05:40      59.1      58.6       77     51.5      0.00      0.00      82.6     0.37      1010.1     0.1     ENE    70   0.8     ENE    67   9.48    268      -58.6
   09/01/2018 05:30      59.1      58.5       77     51.7      0.00      0.00      82.7     0.37      1009.9     1.0     SSW   214   2.5     SSW   204   9.48    264      -59.2
   09/01/2018 05:20      59.1      58.7       78     51.9      0.00      0.00      82.7     0.37      1009.8     0.2      SE   142   0.9       S   180   9.48    268      -60.4
   09/01/2018 05:10      59.5      58.7       77     51.9      0.00      0.00      82.7     0.37      1009.8     0.9       S   173   1.6       S   179   9.48    267      -61.5
   09/01/2018 05:00      59.4      58.9       76     51.7      0.00      0.00      82.8     0.37      1009.9     0.9     SSE   153   2.1      SE   143   9.48    268      -62.1
   09/01/2018 04:50      59.6      58.9       76     51.6      0.00      0.00      82.8     0.37      1009.8     0.4     SSE   162   1.4      SE   144   9.48    268      -61.8
   09/01/2018 04:40      60.0      59.4       75     51.5      0.00      0.00      82.9     0.37      1009.8     0.8       S   175   2.0       S   178   9.48    267      -61.9
   09/01/2018 04:30      60.2      59.7       74     51.6      0.00      0.00      82.8     0.37      1009.8     0.2      SE   132   1.1     SSE   147   9.48    267      -61.5
   09/01/2018 04:20      60.5      59.9       74     51.7      0.00      0.00      82.9     0.37      1009.6     0.1     NNW   336   1.1       S   174   9.48    267      -61.9
   09/01/2018 04:10      60.3      59.7       74     51.7      0.00      0.00      83.0     0.37      1009.5     0.3       S   182   1.4       S   172   9.48    268      -62.6
   09/01/2018 04:00      60.8      60.0       73     51.7      0.00      0.00      83.0     0.37      1009.5     0.4     SSE   166   1.6       S   177   9.49    268      -62.2
   09/01/2018 03:50      60.7      60.1       73     51.9      0.00      0.00      83.0     0.37      1009.6     0.5      SE   145   1.7       S   179   9.49    268      -62.2
   09/01/2018 03:40      61.2      60.3       73     52.1      0.00      0.00      83.1     0.37      1009.5     0.4      SE   137   1.1       E    99   9.49    268      -62.5
   09/01/2018 03:30      61.2      60.6       74     52.6      0.00      0.00      83.1     0.37      1009.4     0.9     SSE   151   1.8      SE   134   9.49    268      -63.3
   09/01/2018 03:20      60.9      60.4       74     52.4      0.00      0.00      83.1     0.37      1009.4     0.9     SSE   159   1.8      SE   139   9.49    268      -63.9
   09/01/2018 03:10      61.3      60.6       74     52.6      0.00      0.00      83.2     0.37      1009.5     0.9     SSE   151   2.0      SE   145   9.49    268      -64.4
   09/01/2018 03:00      61.7      61.0       73     52.4      0.00      0.00      83.2     0.37      1009.4     0.6     SSE   154   1.8     SSE   160   9.49    268      -65.0
   09/01/2018 02:50      61.9      61.3       71     52.0      0.00      0.00      83.2     0.37      1009.4     1.9       S   180   2.5      SW   215   9.49    268      -64.0
   09/01/2018 02:40      62.3      61.4       71     52.5      0.00      0.00      83.3     0.37      1009.4     0.4     SSE   166   1.5       S   183   9.49    267      -65.5
   09/01/2018 02:30      62.5      61.9       71     52.5      0.00      0.00      83.3     0.37      1009.4     0.5       S   173   1.3       S   185   9.49    267      -65.5
   09/01/2018 02:20      62.5      62.2       70     52.4      0.00      0.00      83.3     0.37      1009.5     0.5     SSE   155   1.2     SSE   150   9.50    268      -67.0
   09/01/2018 02:10      62.4      61.7       70     52.0      0.00      0.00      83.4     0.38      1009.6     0.7       S   174   1.3       S   182   9.50    267      -67.5
   09/01/2018 02:00      62.7      62.0       69     52.1      0.00      0.00      83.4     0.38      1009.7     0.5     SSE   162   1.5      SE   136   9.50    267      -67.7
   09/01/2018 01:50      62.8      62.4       69     52.1      0.00      0.00      83.4     0.37      1009.7     0.7       S   169   2.3       S   175   9.50    267      -67.8
   09/01/2018 01:40      63.2      62.5       67     51.5      0.00      0.00      83.5     0.38      1009.7     0.2     SSE   157   0.8     SSE   156   9.50    267      -68.4
   09/01/2018 01:30      63.8      63.0       65     51.4      0.00      0.00      83.5     0.38      1009.7     0.7       S   175   2.0     SSW   191   9.50    266      -68.1
   09/01/2018 01:20      63.7      63.1       65     51.7      0.00      0.00      83.5     0.38      1009.8     0.3      SW   217   1.7      SW   217   9.50    266      -68.1
   09/01/2018 01:10      64.6      63.2       65     51.7      0.00      0.00      83.5     0.38      1009.8     0.5     SSE   155   1.0       S   172   9.50    266      -68.8
   09/01/2018 01:00      65.0      64.1       64     51.8      0.00      0.00      83.5     0.38      1009.7     0.5     SSW   211   1.7     SSW   205   9.50    266      -67.5
   09/01/2018 00:50      65.0      64.4       63     51.9      0.00      0.00      83.5     0.38      1009.6     0.8     SSE   148   1.8       S   181   9.51    266      -67.0
   09/01/2018 00:40      64.9      63.9       64     52.2      0.00      0.00      83.6     0.38      1009.7     0.3       S   172   1.0     SSE   160   9.51    266      -66.4
   09/01/2018 00:30      64.5      63.8       64     51.6      0.00      0.00      83.6     0.38      1009.6     0.6       S   184   1.6       S   185   9.51    266      -67.6
   09/01/2018 00:20      65.2      64.1       63     51.7      0.00      0.00      83.7     0.38      1009.4     0.6     SSE   148   1.7      SE   141   9.51    266      -70.5
   09/01/2018 00:10      65.7      64.8       62     52.0      0.00      0.00      83.7     0.38      1009.4     0.5     SSE   148   1.7      SE   139   9.51    266      -71.3
   09/01/2018 00:00      65.8      65.2       62     51.9      0.00      0.00      83.7     0.38      1009.4     0.0       S   172   0.5     SSE   156   9.51    266      -71.7


Back to data home page